<?xml version="1.0" encoding="UTF-8" standalone="no" ?>
<gpx xmlns="http://www.topografix.com/GPX/1/1" xmlns:xsi="http://www.w3.org/2001/XMLSchema-instance" xsi:schemaLocation="http://www.topografix.com/GPX/1/1 http://www.topografix.com/GPX/1/1/gpx.xsd" version="1.1" creator="VisuGPX - https://www.visugpx.com">
  <metadata>
    <name>Rive de Saone</name>
    <desc><![CDATA[rive gauche de la saone (Lyon)]]></desc>
  </metadata>
  <wpt lat="45.76983" lon="4.8246">
    <ele>261</ele>
    <name><![CDATA[Start]]></name>
  </wpt>
  <wpt lat="45.76908" lon="4.82454">
    <ele>252</ele>
    <name><![CDATA[Pause]]></name>
  </wpt>
  <wpt lat="45.76893" lon="4.82459">
    <ele>252</ele>
    <name><![CDATA[Resume]]></name>
  </wpt>
  <wpt lat="45.78996" lon="4.82057">
    <ele>220</ele>
    <name><![CDATA[Pause]]></name>
  </wpt>
  <wpt lat="45.7898" lon="4.82043">
    <ele>217</ele>
    <name><![CDATA[Resume]]></name>
  </wpt>
  <wpt lat="45.79695" lon="4.83125">
    <ele>217</ele>
    <name><![CDATA[Pause]]></name>
  </wpt>
  <wpt lat="45.79705" lon="4.83149">
    <ele>220</ele>
    <name><![CDATA[Resume]]></name>
  </wpt>
  <wpt lat="45.79852" lon="4.83443">
    <ele>213</ele>
    <name><![CDATA[Pause]]></name>
  </wpt>
  <wpt lat="45.79834" lon="4.8344">
    <ele>207</ele>
    <name><![CDATA[Resume]]></name>
  </wpt>
  <wpt lat="45.7689" lon="4.82391">
    <ele>247</ele>
    <name><![CDATA[Pause]]></name>
  </wpt>
  <wpt lat="45.76909" lon="4.824">
    <ele>254</ele>
    <name><![CDATA[Resume]]></name>
  </wpt>
  <wpt lat="45.76941" lon="4.82404">
    <ele>257</ele>
    <name><![CDATA[End]]></name>
  </wpt>
  <trk>
    <name><![CDATA[Rive de Saone_1]]></name>
    <trkseg>
      <trkpt lat="45.76983" lon="4.8246">
        <ele>261</ele>
        <time>2011-10-16T10:11:05Z</time>
      </trkpt>
      <trkpt lat="45.76977" lon="4.82463">
        <ele>263</ele>
        <time>2011-10-16T10:11:06Z</time>
      </trkpt>
      <trkpt lat="45.76976" lon="4.82464">
        <ele>265</ele>
        <time>2011-10-16T10:11:06Z</time>
      </trkpt>
      <trkpt lat="45.76979" lon="4.82463">
        <ele>262.78363037109</ele>
        <time>2011-10-16T10:11:07Z</time>
      </trkpt>
      <trkpt lat="45.76986" lon="4.82459">
        <ele>261.00695800781</ele>
        <time>2011-10-16T10:11:08Z</time>
      </trkpt>
      <trkpt lat="45.76984" lon="4.82459">
        <ele>261</ele>
        <time>2011-10-16T10:11:09Z</time>
      </trkpt>
      <trkpt lat="45.76985" lon="4.8246">
        <ele>263</ele>
        <time>2011-10-16T10:11:10Z</time>
      </trkpt>
      <trkpt lat="45.76985" lon="4.82456">
        <ele>262</ele>
        <time>2011-10-16T10:11:11Z</time>
      </trkpt>
      <trkpt lat="45.76985" lon="4.82455">
        <ele>262</ele>
        <time>2011-10-16T10:11:13Z</time>
      </trkpt>
      <trkpt lat="45.76986" lon="4.82454">
        <ele>259.0556640625</ele>
        <time>2011-10-16T10:11:13Z</time>
      </trkpt>
      <trkpt lat="45.7699" lon="4.82449">
        <ele>247.85775756836</ele>
        <time>2011-10-16T10:11:14Z</time>
      </trkpt>
      <trkpt lat="45.7699" lon="4.82446">
        <ele>248</ele>
        <time>2011-10-16T10:11:15Z</time>
      </trkpt>
      <trkpt lat="45.7699" lon="4.82444">
        <ele>247</ele>
        <time>2011-10-16T10:11:16Z</time>
      </trkpt>
      <trkpt lat="45.7699" lon="4.82441">
        <ele>247</ele>
        <time>2011-10-16T10:11:17Z</time>
      </trkpt>
      <trkpt lat="45.76985" lon="4.82441">
        <ele>249</ele>
        <time>2011-10-16T10:11:18Z</time>
      </trkpt>
      <trkpt lat="45.76987" lon="4.82439">
        <ele>249</ele>
        <time>2011-10-16T10:11:19Z</time>
      </trkpt>
      <trkpt lat="45.76986" lon="4.82438">
        <ele>250</ele>
        <time>2011-10-16T10:11:20Z</time>
      </trkpt>
      <trkpt lat="45.76982" lon="4.82438">
        <ele>256</ele>
        <time>2011-10-16T10:11:21Z</time>
      </trkpt>
      <trkpt lat="45.7698" lon="4.82435">
        <ele>258</ele>
        <time>2011-10-16T10:11:22Z</time>
      </trkpt>
      <trkpt lat="45.76977" lon="4.82431">
        <ele>260</ele>
        <time>2011-10-16T10:11:23Z</time>
      </trkpt>
      <trkpt lat="45.76973" lon="4.82431">
        <ele>263</ele>
        <time>2011-10-16T10:11:24Z</time>
      </trkpt>
      <trkpt lat="45.76972" lon="4.82431">
        <ele>262</ele>
        <time>2011-10-16T10:11:25Z</time>
      </trkpt>
      <trkpt lat="45.7697" lon="4.82432">
        <ele>263</ele>
        <time>2011-10-16T10:11:26Z</time>
      </trkpt>
      <trkpt lat="45.76965" lon="4.82432">
        <ele>268</ele>
        <time>2011-10-16T10:11:27Z</time>
      </trkpt>
      <trkpt lat="45.76963" lon="4.82432">
        <ele>269</ele>
        <time>2011-10-16T10:11:28Z</time>
      </trkpt>
      <trkpt lat="45.76962" lon="4.82431">
        <ele>269</ele>
        <time>2011-10-16T10:11:29Z</time>
      </trkpt>
      <trkpt lat="45.76961" lon="4.82428">
        <ele>267</ele>
        <time>2011-10-16T10:11:30Z</time>
      </trkpt>
      <trkpt lat="45.76959" lon="4.82427">
        <ele>269</ele>
        <time>2011-10-16T10:11:31Z</time>
      </trkpt>
      <trkpt lat="45.76957" lon="4.82426">
        <ele>269</ele>
        <time>2011-10-16T10:11:32Z</time>
      </trkpt>
      <trkpt lat="45.76956" lon="4.82424">
        <ele>269</ele>
        <time>2011-10-16T10:11:33Z</time>
      </trkpt>
      <trkpt lat="45.76956" lon="4.82422">
        <ele>268</ele>
        <time>2011-10-16T10:11:34Z</time>
      </trkpt>
      <trkpt lat="45.76954" lon="4.82419">
        <ele>268</ele>
        <time>2011-10-16T10:11:35Z</time>
      </trkpt>
      <trkpt lat="45.76952" lon="4.82419">
        <ele>268</ele>
        <time>2011-10-16T10:11:36Z</time>
      </trkpt>
      <trkpt lat="45.76951" lon="4.82417">
        <ele>269</ele>
        <time>2011-10-16T10:11:37Z</time>
      </trkpt>
      <trkpt lat="45.7695" lon="4.82412">
        <ele>269</ele>
        <time>2011-10-16T10:11:38Z</time>
      </trkpt>
      <trkpt lat="45.76949" lon="4.8241">
        <ele>268</ele>
        <time>2011-10-16T10:11:39Z</time>
      </trkpt>
      <trkpt lat="45.76948" lon="4.82406">
        <ele>269</ele>
        <time>2011-10-16T10:11:40Z</time>
      </trkpt>
      <trkpt lat="45.76947" lon="4.82404">
        <ele>269</ele>
        <time>2011-10-16T10:11:41Z</time>
      </trkpt>
      <trkpt lat="45.76943" lon="4.82401">
        <ele>271</ele>
        <time>2011-10-16T10:11:42Z</time>
      </trkpt>
      <trkpt lat="45.76939" lon="4.82399">
        <ele>272</ele>
        <time>2011-10-16T10:11:43Z</time>
      </trkpt>
      <trkpt lat="45.76935" lon="4.82399">
        <ele>272</ele>
        <time>2011-10-16T10:11:44Z</time>
      </trkpt>
      <trkpt lat="45.76932" lon="4.82396">
        <ele>272</ele>
        <time>2011-10-16T10:11:45Z</time>
      </trkpt>
      <trkpt lat="45.7693" lon="4.82396">
        <ele>273</ele>
        <time>2011-10-16T10:11:46Z</time>
      </trkpt>
      <trkpt lat="45.76927" lon="4.82397">
        <ele>274</ele>
        <time>2011-10-16T10:11:47Z</time>
      </trkpt>
      <trkpt lat="45.76925" lon="4.82397">
        <ele>276</ele>
        <time>2011-10-16T10:11:48Z</time>
      </trkpt>
      <trkpt lat="45.76922" lon="4.82393">
        <ele>275</ele>
        <time>2011-10-16T10:11:49Z</time>
      </trkpt>
      <trkpt lat="45.76919" lon="4.82392">
        <ele>276</ele>
        <time>2011-10-16T10:11:50Z</time>
      </trkpt>
      <trkpt lat="45.76918" lon="4.82391">
        <ele>276</ele>
        <time>2011-10-16T10:11:51Z</time>
      </trkpt>
      <trkpt lat="45.76916" lon="4.8239">
        <ele>277</ele>
        <time>2011-10-16T10:11:52Z</time>
      </trkpt>
      <trkpt lat="45.76912" lon="4.82389">
        <ele>276</ele>
        <time>2011-10-16T10:11:53Z</time>
      </trkpt>
      <trkpt lat="45.7691" lon="4.82389">
        <ele>276</ele>
        <time>2011-10-16T10:11:54Z</time>
      </trkpt>
      <trkpt lat="45.76907" lon="4.82389">
        <ele>275</ele>
        <time>2011-10-16T10:11:55Z</time>
      </trkpt>
      <trkpt lat="45.76904" lon="4.8239">
        <ele>275</ele>
        <time>2011-10-16T10:11:57Z</time>
      </trkpt>
      <trkpt lat="45.76902" lon="4.8239">
        <ele>275</ele>
        <time>2011-10-16T10:11:57Z</time>
      </trkpt>
      <trkpt lat="45.76899" lon="4.82391">
        <ele>275</ele>
        <time>2011-10-16T10:11:58Z</time>
      </trkpt>
      <trkpt lat="45.76896" lon="4.8239">
        <ele>274</ele>
        <time>2011-10-16T10:11:59Z</time>
      </trkpt>
      <trkpt lat="45.76895" lon="4.82391">
        <ele>274</ele>
        <time>2011-10-16T10:12:00Z</time>
      </trkpt>
      <trkpt lat="45.76892" lon="4.82391">
        <ele>273</ele>
        <time>2011-10-16T10:12:01Z</time>
      </trkpt>
      <trkpt lat="45.76889" lon="4.8239">
        <ele>274</ele>
        <time>2011-10-16T10:12:02Z</time>
      </trkpt>
      <trkpt lat="45.76888" lon="4.8239">
        <ele>273</ele>
        <time>2011-10-16T10:12:03Z</time>
      </trkpt>
      <trkpt lat="45.76886" lon="4.82392">
        <ele>273</ele>
        <time>2011-10-16T10:12:04Z</time>
      </trkpt>
      <trkpt lat="45.76883" lon="4.82392">
        <ele>272</ele>
        <time>2011-10-16T10:12:05Z</time>
      </trkpt>
      <trkpt lat="45.7688" lon="4.82394">
        <ele>270</ele>
        <time>2011-10-16T10:12:06Z</time>
      </trkpt>
      <trkpt lat="45.76878" lon="4.82395">
        <ele>268</ele>
        <time>2011-10-16T10:12:07Z</time>
      </trkpt>
      <trkpt lat="45.76876" lon="4.82397">
        <ele>267</ele>
        <time>2011-10-16T10:12:08Z</time>
      </trkpt>
      <trkpt lat="45.76875" lon="4.82399">
        <ele>265</ele>
        <time>2011-10-16T10:12:09Z</time>
      </trkpt>
      <trkpt lat="45.76874" lon="4.82402">
        <ele>265</ele>
        <time>2011-10-16T10:12:10Z</time>
      </trkpt>
      <trkpt lat="45.76873" lon="4.82404">
        <ele>263</ele>
        <time>2011-10-16T10:12:11Z</time>
      </trkpt>
      <trkpt lat="45.76872" lon="4.82408">
        <ele>263</ele>
        <time>2011-10-16T10:12:12Z</time>
      </trkpt>
      <trkpt lat="45.76873" lon="4.8241">
        <ele>261</ele>
        <time>2011-10-16T10:12:13Z</time>
      </trkpt>
      <trkpt lat="45.76874" lon="4.8241">
        <ele>260</ele>
        <time>2011-10-16T10:12:14Z</time>
      </trkpt>
      <trkpt lat="45.76874" lon="4.82412">
        <ele>260</ele>
        <time>2011-10-16T10:12:15Z</time>
      </trkpt>
      <trkpt lat="45.76876" lon="4.82413">
        <ele>259</ele>
        <time>2011-10-16T10:12:16Z</time>
      </trkpt>
      <trkpt lat="45.7688" lon="4.82414">
        <ele>260</ele>
        <time>2011-10-16T10:12:17Z</time>
      </trkpt>
      <trkpt lat="45.76882" lon="4.82415">
        <ele>260</ele>
        <time>2011-10-16T10:12:18Z</time>
      </trkpt>
      <trkpt lat="45.76886" lon="4.82416">
        <ele>260</ele>
        <time>2011-10-16T10:12:19Z</time>
      </trkpt>
      <trkpt lat="45.76888" lon="4.82417">
        <ele>258</ele>
        <time>2011-10-16T10:12:20Z</time>
      </trkpt>
      <trkpt lat="45.76891" lon="4.82418">
        <ele>256</ele>
        <time>2011-10-16T10:12:21Z</time>
      </trkpt>
      <trkpt lat="45.76894" lon="4.8242">
        <ele>256</ele>
        <time>2011-10-16T10:12:22Z</time>
      </trkpt>
      <trkpt lat="45.76895" lon="4.82422">
        <ele>255</ele>
        <time>2011-10-16T10:12:23Z</time>
      </trkpt>
      <trkpt lat="45.76896" lon="4.82424">
        <ele>255</ele>
        <time>2011-10-16T10:12:24Z</time>
      </trkpt>
      <trkpt lat="45.76897" lon="4.82425">
        <ele>254</ele>
        <time>2011-10-16T10:12:25Z</time>
      </trkpt>
      <trkpt lat="45.76898" lon="4.82426">
        <ele>254</ele>
        <time>2011-10-16T10:12:26Z</time>
      </trkpt>
      <trkpt lat="45.769" lon="4.82427">
        <ele>254</ele>
        <time>2011-10-16T10:12:27Z</time>
      </trkpt>
      <trkpt lat="45.76903" lon="4.82429">
        <ele>254</ele>
        <time>2011-10-16T10:12:28Z</time>
      </trkpt>
      <trkpt lat="45.76904" lon="4.8243">
        <ele>255</ele>
        <time>2011-10-16T10:12:29Z</time>
      </trkpt>
      <trkpt lat="45.76906" lon="4.8243">
        <ele>254</ele>
        <time>2011-10-16T10:12:30Z</time>
      </trkpt>
      <trkpt lat="45.76908" lon="4.82432">
        <ele>255</ele>
        <time>2011-10-16T10:12:31Z</time>
      </trkpt>
      <trkpt lat="45.7691" lon="4.82434">
        <ele>255</ele>
        <time>2011-10-16T10:12:32Z</time>
      </trkpt>
      <trkpt lat="45.76911" lon="4.82436">
        <ele>254</ele>
        <time>2011-10-16T10:12:33Z</time>
      </trkpt>
      <trkpt lat="45.76913" lon="4.82437">
        <ele>254</ele>
        <time>2011-10-16T10:12:34Z</time>
      </trkpt>
      <trkpt lat="45.76913" lon="4.8244">
        <ele>254</ele>
        <time>2011-10-16T10:12:35Z</time>
      </trkpt>
      <trkpt lat="45.76916" lon="4.82444">
        <ele>254</ele>
        <time>2011-10-16T10:12:36Z</time>
      </trkpt>
      <trkpt lat="45.76917" lon="4.82445">
        <ele>254</ele>
        <time>2011-10-16T10:12:37Z</time>
      </trkpt>
      <trkpt lat="45.76917" lon="4.82447">
        <ele>253</ele>
        <time>2011-10-16T10:12:38Z</time>
      </trkpt>
      <trkpt lat="45.76917" lon="4.82451">
        <ele>253</ele>
        <time>2011-10-16T10:12:39Z</time>
      </trkpt>
      <trkpt lat="45.76915" lon="4.82456">
        <ele>253</ele>
        <time>2011-10-16T10:12:40Z</time>
      </trkpt>
      <trkpt lat="45.76915" lon="4.8246">
        <ele>254</ele>
        <time>2011-10-16T10:12:41Z</time>
      </trkpt>
      <trkpt lat="45.76914" lon="4.82463">
        <ele>253</ele>
        <time>2011-10-16T10:12:43Z</time>
      </trkpt>
      <trkpt lat="45.76913" lon="4.82466">
        <ele>253</ele>
        <time>2011-10-16T10:12:43Z</time>
      </trkpt>
      <trkpt lat="45.76913" lon="4.82468">
        <ele>253</ele>
        <time>2011-10-16T10:12:44Z</time>
      </trkpt>
      <trkpt lat="45.76912" lon="4.82468">
        <ele>253</ele>
        <time>2011-10-16T10:12:45Z</time>
      </trkpt>
      <trkpt lat="45.76912" lon="4.82469">
        <ele>253</ele>
        <time>2011-10-16T10:12:46Z</time>
      </trkpt>
      <trkpt lat="45.76912" lon="4.82468">
        <ele>253</ele>
        <time>2011-10-16T10:12:47Z</time>
      </trkpt>
      <trkpt lat="45.76911" lon="4.82467">
        <ele>253</ele>
        <time>2011-10-16T10:12:48Z</time>
      </trkpt>
      <trkpt lat="45.76911" lon="4.82463">
        <ele>253</ele>
        <time>2011-10-16T10:12:49Z</time>
      </trkpt>
      <trkpt lat="45.76911" lon="4.8246">
        <ele>253</ele>
        <time>2011-10-16T10:12:50Z</time>
      </trkpt>
      <trkpt lat="45.7691" lon="4.82458">
        <ele>252</ele>
        <time>2011-10-16T10:12:51Z</time>
      </trkpt>
      <trkpt lat="45.76908" lon="4.82454">
        <ele>252</ele>
        <time>2011-10-16T10:12:52Z</time>
      </trkpt>
      <trkpt lat="45.76893" lon="4.82459">
        <ele>252</ele>
        <time>2011-10-16T10:13:00Z</time>
      </trkpt>
      <trkpt lat="45.76892" lon="4.82461">
        <ele>252</ele>
        <time>2011-10-16T10:13:01Z</time>
      </trkpt>
      <trkpt lat="45.76891" lon="4.82463">
        <ele>251</ele>
        <time>2011-10-16T10:13:02Z</time>
      </trkpt>
      <trkpt lat="45.76891" lon="4.82465">
        <ele>251</ele>
        <time>2011-10-16T10:13:03Z</time>
      </trkpt>
      <trkpt lat="45.7689" lon="4.82465">
        <ele>251</ele>
        <time>2011-10-16T10:13:04Z</time>
      </trkpt>
      <trkpt lat="45.76889" lon="4.82466">
        <ele>252</ele>
        <time>2011-10-16T10:13:05Z</time>
      </trkpt>
      <trkpt lat="45.76888" lon="4.82464">
        <ele>252</ele>
        <time>2011-10-16T10:13:06Z</time>
      </trkpt>
      <trkpt lat="45.76883" lon="4.82464">
        <ele>253</ele>
        <time>2011-10-16T10:13:07Z</time>
      </trkpt>
      <trkpt lat="45.76881" lon="4.82464">
        <ele>253</ele>
        <time>2011-10-16T10:13:08Z</time>
      </trkpt>
      <trkpt lat="45.76877" lon="4.82464">
        <ele>253</ele>
        <time>2011-10-16T10:13:09Z</time>
      </trkpt>
      <trkpt lat="45.76874" lon="4.82465">
        <ele>253</ele>
        <time>2011-10-16T10:13:10Z</time>
      </trkpt>
      <trkpt lat="45.7687" lon="4.82464">
        <ele>253</ele>
        <time>2011-10-16T10:13:11Z</time>
      </trkpt>
      <trkpt lat="45.7687" lon="4.82465">
        <ele>253</ele>
        <time>2011-10-16T10:13:12Z</time>
      </trkpt>
      <trkpt lat="45.76868" lon="4.82463">
        <ele>253</ele>
        <time>2011-10-16T10:13:13Z</time>
      </trkpt>
      <trkpt lat="45.76866" lon="4.82461">
        <ele>253</ele>
        <time>2011-10-16T10:13:14Z</time>
      </trkpt>
      <trkpt lat="45.76863" lon="4.82462">
        <ele>253</ele>
        <time>2011-10-16T10:13:15Z</time>
      </trkpt>
      <trkpt lat="45.7686" lon="4.82463">
        <ele>253</ele>
        <time>2011-10-16T10:13:16Z</time>
      </trkpt>
      <trkpt lat="45.76857" lon="4.82464">
        <ele>253</ele>
        <time>2011-10-16T10:13:17Z</time>
      </trkpt>
      <trkpt lat="45.76854" lon="4.82465">
        <ele>253</ele>
        <time>2011-10-16T10:13:18Z</time>
      </trkpt>
      <trkpt lat="45.76851" lon="4.82466">
        <ele>253</ele>
        <time>2011-10-16T10:13:19Z</time>
      </trkpt>
      <trkpt lat="45.76848" lon="4.82468">
        <ele>253</ele>
        <time>2011-10-16T10:13:20Z</time>
      </trkpt>
      <trkpt lat="45.76846" lon="4.82468">
        <ele>253</ele>
        <time>2011-10-16T10:13:21Z</time>
      </trkpt>
      <trkpt lat="45.76843" lon="4.82469">
        <ele>254</ele>
        <time>2011-10-16T10:13:22Z</time>
      </trkpt>
      <trkpt lat="45.7684" lon="4.82471">
        <ele>254</ele>
        <time>2011-10-16T10:13:23Z</time>
      </trkpt>
      <trkpt lat="45.76838" lon="4.82471">
        <ele>254</ele>
        <time>2011-10-16T10:13:24Z</time>
      </trkpt>
      <trkpt lat="45.76836" lon="4.82473">
        <ele>254</ele>
        <time>2011-10-16T10:13:25Z</time>
      </trkpt>
      <trkpt lat="45.76835" lon="4.82477">
        <ele>252</ele>
        <time>2011-10-16T10:13:26Z</time>
      </trkpt>
      <trkpt lat="45.76833" lon="4.82479">
        <ele>251</ele>
        <time>2011-10-16T10:13:27Z</time>
      </trkpt>
      <trkpt lat="45.76833" lon="4.82475">
        <ele>249</ele>
        <time>2011-10-16T10:13:29Z</time>
      </trkpt>
      <trkpt lat="45.76833" lon="4.82472">
        <ele>247</ele>
        <time>2011-10-16T10:13:29Z</time>
      </trkpt>
      <trkpt lat="45.76834" lon="4.82469">
        <ele>241</ele>
        <time>2011-10-16T10:13:30Z</time>
      </trkpt>
      <trkpt lat="45.76835" lon="4.82466">
        <ele>240</ele>
        <time>2011-10-16T10:13:31Z</time>
      </trkpt>
      <trkpt lat="45.76836" lon="4.82464">
        <ele>239</ele>
        <time>2011-10-16T10:13:32Z</time>
      </trkpt>
      <trkpt lat="45.76835" lon="4.82461">
        <ele>238</ele>
        <time>2011-10-16T10:13:33Z</time>
      </trkpt>
      <trkpt lat="45.76835" lon="4.82456">
        <ele>238</ele>
        <time>2011-10-16T10:13:34Z</time>
      </trkpt>
      <trkpt lat="45.76836" lon="4.82453">
        <ele>238</ele>
        <time>2011-10-16T10:13:35Z</time>
      </trkpt>
      <trkpt lat="45.76835" lon="4.82448">
        <ele>237</ele>
        <time>2011-10-16T10:13:36Z</time>
      </trkpt>
      <trkpt lat="45.76836" lon="4.82444">
        <ele>235</ele>
        <time>2011-10-16T10:13:37Z</time>
      </trkpt>
      <trkpt lat="45.76836" lon="4.82439">
        <ele>234</ele>
        <time>2011-10-16T10:13:38Z</time>
      </trkpt>
      <trkpt lat="45.76837" lon="4.82436">
        <ele>234</ele>
        <time>2011-10-16T10:13:39Z</time>
      </trkpt>
      <trkpt lat="45.76836" lon="4.82432">
        <ele>233</ele>
        <time>2011-10-16T10:13:40Z</time>
      </trkpt>
      <trkpt lat="45.76837" lon="4.82429">
        <ele>232</ele>
        <time>2011-10-16T10:13:41Z</time>
      </trkpt>
      <trkpt lat="45.76837" lon="4.82426">
        <ele>231</ele>
        <time>2011-10-16T10:13:42Z</time>
      </trkpt>
      <trkpt lat="45.76837" lon="4.82423">
        <ele>231</ele>
        <time>2011-10-16T10:13:43Z</time>
      </trkpt>
      <trkpt lat="45.76836" lon="4.82418">
        <ele>230</ele>
        <time>2011-10-16T10:13:44Z</time>
      </trkpt>
      <trkpt lat="45.76838" lon="4.82415">
        <ele>230</ele>
        <time>2011-10-16T10:13:45Z</time>
      </trkpt>
      <trkpt lat="45.76836" lon="4.82412">
        <ele>231</ele>
        <time>2011-10-16T10:13:46Z</time>
      </trkpt>
      <trkpt lat="45.76836" lon="4.82409">
        <ele>230</ele>
        <time>2011-10-16T10:13:47Z</time>
      </trkpt>
      <trkpt lat="45.76834" lon="4.82403">
        <ele>230</ele>
        <time>2011-10-16T10:13:48Z</time>
      </trkpt>
      <trkpt lat="45.76833" lon="4.82399">
        <ele>229</ele>
        <time>2011-10-16T10:13:49Z</time>
      </trkpt>
      <trkpt lat="45.76833" lon="4.82395">
        <ele>228</ele>
        <time>2011-10-16T10:13:50Z</time>
      </trkpt>
      <trkpt lat="45.76832" lon="4.8239">
        <ele>227</ele>
        <time>2011-10-16T10:13:51Z</time>
      </trkpt>
      <trkpt lat="45.76832" lon="4.82387">
        <ele>227</ele>
        <time>2011-10-16T10:13:52Z</time>
      </trkpt>
      <trkpt lat="45.76832" lon="4.82385">
        <ele>228</ele>
        <time>2011-10-16T10:13:53Z</time>
      </trkpt>
      <trkpt lat="45.76832" lon="4.82381">
        <ele>227</ele>
        <time>2011-10-16T10:13:54Z</time>
      </trkpt>
      <trkpt lat="45.76832" lon="4.82377">
        <ele>227</ele>
        <time>2011-10-16T10:13:55Z</time>
      </trkpt>
      <trkpt lat="45.76832" lon="4.82374">
        <ele>228</ele>
        <time>2011-10-16T10:13:56Z</time>
      </trkpt>
      <trkpt lat="45.76831" lon="4.82371">
        <ele>228</ele>
        <time>2011-10-16T10:13:57Z</time>
      </trkpt>
      <trkpt lat="45.76831" lon="4.82368">
        <ele>229</ele>
        <time>2011-10-16T10:13:58Z</time>
      </trkpt>
      <trkpt lat="45.7683" lon="4.82364">
        <ele>229</ele>
        <time>2011-10-16T10:13:59Z</time>
      </trkpt>
      <trkpt lat="45.7683" lon="4.8236">
        <ele>229</ele>
        <time>2011-10-16T10:14:00Z</time>
      </trkpt>
      <trkpt lat="45.7683" lon="4.82356">
        <ele>229</ele>
        <time>2011-10-16T10:14:01Z</time>
      </trkpt>
      <trkpt lat="45.76829" lon="4.82351">
        <ele>229</ele>
        <time>2011-10-16T10:14:02Z</time>
      </trkpt>
      <trkpt lat="45.76829" lon="4.82348">
        <ele>229</ele>
        <time>2011-10-16T10:14:03Z</time>
      </trkpt>
      <trkpt lat="45.76827" lon="4.82345">
        <ele>228</ele>
        <time>2011-10-16T10:14:04Z</time>
      </trkpt>
      <trkpt lat="45.76827" lon="4.82341">
        <ele>227</ele>
        <time>2011-10-16T10:14:05Z</time>
      </trkpt>
      <trkpt lat="45.76826" lon="4.82338">
        <ele>227</ele>
        <time>2011-10-16T10:14:06Z</time>
      </trkpt>
      <trkpt lat="45.76825" lon="4.82335">
        <ele>227</ele>
        <time>2011-10-16T10:14:07Z</time>
      </trkpt>
      <trkpt lat="45.76824" lon="4.82331">
        <ele>227</ele>
        <time>2011-10-16T10:14:08Z</time>
      </trkpt>
      <trkpt lat="45.76824" lon="4.82329">
        <ele>228</ele>
        <time>2011-10-16T10:14:09Z</time>
      </trkpt>
      <trkpt lat="45.76823" lon="4.82326">
        <ele>228</ele>
        <time>2011-10-16T10:14:10Z</time>
      </trkpt>
      <trkpt lat="45.76823" lon="4.82321">
        <ele>228</ele>
        <time>2011-10-16T10:14:11Z</time>
      </trkpt>
      <trkpt lat="45.76822" lon="4.82318">
        <ele>228</ele>
        <time>2011-10-16T10:14:13Z</time>
      </trkpt>
      <trkpt lat="45.76822" lon="4.82316">
        <ele>228</ele>
        <time>2011-10-16T10:14:13Z</time>
      </trkpt>
      <trkpt lat="45.7682" lon="4.82311">
        <ele>229</ele>
        <time>2011-10-16T10:14:14Z</time>
      </trkpt>
      <trkpt lat="45.76818" lon="4.82307">
        <ele>230</ele>
        <time>2011-10-16T10:14:15Z</time>
      </trkpt>
      <trkpt lat="45.76817" lon="4.82304">
        <ele>231</ele>
        <time>2011-10-16T10:14:16Z</time>
      </trkpt>
      <trkpt lat="45.76816" lon="4.823">
        <ele>232</ele>
        <time>2011-10-16T10:14:17Z</time>
      </trkpt>
      <trkpt lat="45.76816" lon="4.82297">
        <ele>232</ele>
        <time>2011-10-16T10:14:18Z</time>
      </trkpt>
      <trkpt lat="45.76816" lon="4.82293">
        <ele>232</ele>
        <time>2011-10-16T10:14:19Z</time>
      </trkpt>
      <trkpt lat="45.76816" lon="4.82291">
        <ele>233</ele>
        <time>2011-10-16T10:14:20Z</time>
      </trkpt>
      <trkpt lat="45.76816" lon="4.82287">
        <ele>234</ele>
        <time>2011-10-16T10:14:21Z</time>
      </trkpt>
      <trkpt lat="45.76815" lon="4.82284">
        <ele>235</ele>
        <time>2011-10-16T10:14:22Z</time>
      </trkpt>
      <trkpt lat="45.76815" lon="4.8228">
        <ele>235</ele>
        <time>2011-10-16T10:14:23Z</time>
      </trkpt>
      <trkpt lat="45.76814" lon="4.82277">
        <ele>235</ele>
        <time>2011-10-16T10:14:24Z</time>
      </trkpt>
      <trkpt lat="45.76814" lon="4.82273">
        <ele>235</ele>
        <time>2011-10-16T10:14:25Z</time>
      </trkpt>
      <trkpt lat="45.76813" lon="4.8227">
        <ele>235</ele>
        <time>2011-10-16T10:14:26Z</time>
      </trkpt>
      <trkpt lat="45.76813" lon="4.82267">
        <ele>236</ele>
        <time>2011-10-16T10:14:27Z</time>
      </trkpt>
      <trkpt lat="45.76813" lon="4.82263">
        <ele>237</ele>
        <time>2011-10-16T10:14:28Z</time>
      </trkpt>
      <trkpt lat="45.76812" lon="4.82258">
        <ele>237</ele>
        <time>2011-10-16T10:14:29Z</time>
      </trkpt>
      <trkpt lat="45.76811" lon="4.82255">
        <ele>238</ele>
        <time>2011-10-16T10:14:30Z</time>
      </trkpt>
      <trkpt lat="45.76811" lon="4.82252">
        <ele>238</ele>
        <time>2011-10-16T10:14:31Z</time>
      </trkpt>
      <trkpt lat="45.76811" lon="4.82248">
        <ele>238</ele>
        <time>2011-10-16T10:14:32Z</time>
      </trkpt>
      <trkpt lat="45.7681" lon="4.82244">
        <ele>238</ele>
        <time>2011-10-16T10:14:33Z</time>
      </trkpt>
      <trkpt lat="45.76809" lon="4.8224">
        <ele>238</ele>
        <time>2011-10-16T10:14:34Z</time>
      </trkpt>
      <trkpt lat="45.76808" lon="4.82236">
        <ele>238</ele>
        <time>2011-10-16T10:14:35Z</time>
      </trkpt>
      <trkpt lat="45.76807" lon="4.82232">
        <ele>237</ele>
        <time>2011-10-16T10:14:36Z</time>
      </trkpt>
      <trkpt lat="45.76807" lon="4.82227">
        <ele>237</ele>
        <time>2011-10-16T10:14:37Z</time>
      </trkpt>
      <trkpt lat="45.76807" lon="4.82224">
        <ele>237</ele>
        <time>2011-10-16T10:14:38Z</time>
      </trkpt>
      <trkpt lat="45.76806" lon="4.82218">
        <ele>237</ele>
        <time>2011-10-16T10:14:39Z</time>
      </trkpt>
      <trkpt lat="45.76806" lon="4.82214">
        <ele>236</ele>
        <time>2011-10-16T10:14:40Z</time>
      </trkpt>
      <trkpt lat="45.76806" lon="4.82209">
        <ele>236</ele>
        <time>2011-10-16T10:14:41Z</time>
      </trkpt>
      <trkpt lat="45.76805" lon="4.82204">
        <ele>236</ele>
        <time>2011-10-16T10:14:44Z</time>
      </trkpt>
      <trkpt lat="45.76805" lon="4.82204">
        <ele>236</ele>
        <time>2011-10-16T10:14:44Z</time>
      </trkpt>
      <trkpt lat="45.76804" lon="4.82201">
        <ele>235.73393249512</ele>
        <time>2011-10-16T10:14:44Z</time>
      </trkpt>
      <trkpt lat="45.76803" lon="4.82191">
        <ele>234</ele>
        <time>2011-10-16T10:14:45Z</time>
      </trkpt>
      <trkpt lat="45.76803" lon="4.82188">
        <ele>234</ele>
        <time>2011-10-16T10:14:46Z</time>
      </trkpt>
      <trkpt lat="45.76803" lon="4.82184">
        <ele>233</ele>
        <time>2011-10-16T10:14:47Z</time>
      </trkpt>
      <trkpt lat="45.76803" lon="4.82179">
        <ele>233</ele>
        <time>2011-10-16T10:14:48Z</time>
      </trkpt>
      <trkpt lat="45.76802" lon="4.82176">
        <ele>232</ele>
        <time>2011-10-16T10:14:49Z</time>
      </trkpt>
      <trkpt lat="45.76802" lon="4.82172">
        <ele>231</ele>
        <time>2011-10-16T10:14:50Z</time>
      </trkpt>
      <trkpt lat="45.76801" lon="4.82169">
        <ele>232</ele>
        <time>2011-10-16T10:14:51Z</time>
      </trkpt>
      <trkpt lat="45.768" lon="4.82166">
        <ele>231</ele>
        <time>2011-10-16T10:14:52Z</time>
      </trkpt>
      <trkpt lat="45.76799" lon="4.82162">
        <ele>230</ele>
        <time>2011-10-16T10:14:53Z</time>
      </trkpt>
      <trkpt lat="45.76798" lon="4.82159">
        <ele>231</ele>
        <time>2011-10-16T10:14:54Z</time>
      </trkpt>
      <trkpt lat="45.76796" lon="4.82154">
        <ele>230</ele>
        <time>2011-10-16T10:14:55Z</time>
      </trkpt>
      <trkpt lat="45.76795" lon="4.8215">
        <ele>231</ele>
        <time>2011-10-16T10:14:56Z</time>
      </trkpt>
      <trkpt lat="45.76793" lon="4.82145">
        <ele>231</ele>
        <time>2011-10-16T10:14:57Z</time>
      </trkpt>
      <trkpt lat="45.76792" lon="4.82142">
        <ele>232</ele>
        <time>2011-10-16T10:14:58Z</time>
      </trkpt>
      <trkpt lat="45.7679" lon="4.82139">
        <ele>232</ele>
        <time>2011-10-16T10:14:59Z</time>
      </trkpt>
      <trkpt lat="45.76789" lon="4.82136">
        <ele>233</ele>
        <time>2011-10-16T10:15:00Z</time>
      </trkpt>
      <trkpt lat="45.76788" lon="4.82131">
        <ele>233</ele>
        <time>2011-10-16T10:15:01Z</time>
      </trkpt>
      <trkpt lat="45.76787" lon="4.82127">
        <ele>234</ele>
        <time>2011-10-16T10:15:02Z</time>
      </trkpt>
      <trkpt lat="45.76785" lon="4.82123">
        <ele>234</ele>
        <time>2011-10-16T10:15:03Z</time>
      </trkpt>
      <trkpt lat="45.76784" lon="4.82118">
        <ele>234</ele>
        <time>2011-10-16T10:15:04Z</time>
      </trkpt>
      <trkpt lat="45.76783" lon="4.82115">
        <ele>234</ele>
        <time>2011-10-16T10:15:05Z</time>
      </trkpt>
      <trkpt lat="45.76785" lon="4.82111">
        <ele>233</ele>
        <time>2011-10-16T10:15:06Z</time>
      </trkpt>
      <trkpt lat="45.76786" lon="4.82106">
        <ele>231</ele>
        <time>2011-10-16T10:15:07Z</time>
      </trkpt>
      <trkpt lat="45.76787" lon="4.82102">
        <ele>231</ele>
        <time>2011-10-16T10:15:08Z</time>
      </trkpt>
      <trkpt lat="45.76788" lon="4.82099">
        <ele>231</ele>
        <time>2011-10-16T10:15:09Z</time>
      </trkpt>
      <trkpt lat="45.76788" lon="4.82094">
        <ele>231</ele>
        <time>2011-10-16T10:15:10Z</time>
      </trkpt>
      <trkpt lat="45.76787" lon="4.82091">
        <ele>230</ele>
        <time>2011-10-16T10:15:11Z</time>
      </trkpt>
      <trkpt lat="45.76787" lon="4.82086">
        <ele>230</ele>
        <time>2011-10-16T10:15:12Z</time>
      </trkpt>
      <trkpt lat="45.76787" lon="4.82082">
        <ele>230</ele>
        <time>2011-10-16T10:15:13Z</time>
      </trkpt>
      <trkpt lat="45.76787" lon="4.82078">
        <ele>230</ele>
        <time>2011-10-16T10:15:14Z</time>
      </trkpt>
      <trkpt lat="45.76787" lon="4.82073">
        <ele>231</ele>
        <time>2011-10-16T10:15:15Z</time>
      </trkpt>
      <trkpt lat="45.76788" lon="4.8207">
        <ele>230</ele>
        <time>2011-10-16T10:15:16Z</time>
      </trkpt>
      <trkpt lat="45.76788" lon="4.82066">
        <ele>230</ele>
        <time>2011-10-16T10:15:17Z</time>
      </trkpt>
      <trkpt lat="45.76786" lon="4.82064">
        <ele>229</ele>
        <time>2011-10-16T10:15:18Z</time>
      </trkpt>
      <trkpt lat="45.76784" lon="4.82062">
        <ele>229</ele>
        <time>2011-10-16T10:15:19Z</time>
      </trkpt>
      <trkpt lat="45.76785" lon="4.82059">
        <ele>228</ele>
        <time>2011-10-16T10:15:20Z</time>
      </trkpt>
      <trkpt lat="45.76785" lon="4.82055">
        <ele>228</ele>
        <time>2011-10-16T10:15:21Z</time>
      </trkpt>
      <trkpt lat="45.76788" lon="4.82052">
        <ele>227</ele>
        <time>2011-10-16T10:15:23Z</time>
      </trkpt>
      <trkpt lat="45.76789" lon="4.82049">
        <ele>226.23167419434</ele>
        <time>2011-10-16T10:15:23Z</time>
      </trkpt>
      <trkpt lat="45.76789" lon="4.82044">
        <ele>225</ele>
        <time>2011-10-16T10:15:24Z</time>
      </trkpt>
      <trkpt lat="45.7679" lon="4.82039">
        <ele>224</ele>
        <time>2011-10-16T10:15:25Z</time>
      </trkpt>
      <trkpt lat="45.76789" lon="4.82033">
        <ele>223</ele>
        <time>2011-10-16T10:15:26Z</time>
      </trkpt>
      <trkpt lat="45.76789" lon="4.82029">
        <ele>223</ele>
        <time>2011-10-16T10:15:27Z</time>
      </trkpt>
      <trkpt lat="45.76789" lon="4.82026">
        <ele>223</ele>
        <time>2011-10-16T10:15:28Z</time>
      </trkpt>
      <trkpt lat="45.76789" lon="4.82021">
        <ele>223</ele>
        <time>2011-10-16T10:15:29Z</time>
      </trkpt>
      <trkpt lat="45.76787" lon="4.82017">
        <ele>221</ele>
        <time>2011-10-16T10:15:30Z</time>
      </trkpt>
      <trkpt lat="45.76786" lon="4.82011">
        <ele>220</ele>
        <time>2011-10-16T10:15:31Z</time>
      </trkpt>
      <trkpt lat="45.76785" lon="4.82006">
        <ele>220</ele>
        <time>2011-10-16T10:15:32Z</time>
      </trkpt>
      <trkpt lat="45.76785" lon="4.82003">
        <ele>219</ele>
        <time>2011-10-16T10:15:33Z</time>
      </trkpt>
      <trkpt lat="45.76785" lon="4.81998">
        <ele>218</ele>
        <time>2011-10-16T10:15:34Z</time>
      </trkpt>
      <trkpt lat="45.76785" lon="4.81993">
        <ele>218</ele>
        <time>2011-10-16T10:15:35Z</time>
      </trkpt>
      <trkpt lat="45.76785" lon="4.8199">
        <ele>217</ele>
        <time>2011-10-16T10:15:36Z</time>
      </trkpt>
      <trkpt lat="45.76781" lon="4.81986">
        <ele>217</ele>
        <time>2011-10-16T10:15:37Z</time>
      </trkpt>
      <trkpt lat="45.7678" lon="4.81983">
        <ele>217</ele>
        <time>2011-10-16T10:15:38Z</time>
      </trkpt>
      <trkpt lat="45.76778" lon="4.81981">
        <ele>217</ele>
        <time>2011-10-16T10:15:39Z</time>
      </trkpt>
      <trkpt lat="45.76777" lon="4.81977">
        <ele>217</ele>
        <time>2011-10-16T10:15:40Z</time>
      </trkpt>
      <trkpt lat="45.76775" lon="4.81975">
        <ele>216</ele>
        <time>2011-10-16T10:15:41Z</time>
      </trkpt>
      <trkpt lat="45.76773" lon="4.81971">
        <ele>216</ele>
        <time>2011-10-16T10:15:42Z</time>
      </trkpt>
      <trkpt lat="45.76773" lon="4.81968">
        <ele>215</ele>
        <time>2011-10-16T10:15:43Z</time>
      </trkpt>
      <trkpt lat="45.76772" lon="4.81965">
        <ele>215</ele>
        <time>2011-10-16T10:15:44Z</time>
      </trkpt>
      <trkpt lat="45.76771" lon="4.81961">
        <ele>215</ele>
        <time>2011-10-16T10:15:45Z</time>
      </trkpt>
      <trkpt lat="45.7677" lon="4.81957">
        <ele>215</ele>
        <time>2011-10-16T10:15:46Z</time>
      </trkpt>
      <trkpt lat="45.76769" lon="4.81954">
        <ele>215</ele>
        <time>2011-10-16T10:15:47Z</time>
      </trkpt>
      <trkpt lat="45.76768" lon="4.81951">
        <ele>214</ele>
        <time>2011-10-16T10:15:48Z</time>
      </trkpt>
      <trkpt lat="45.76768" lon="4.81947">
        <ele>213</ele>
        <time>2011-10-16T10:15:49Z</time>
      </trkpt>
      <trkpt lat="45.76766" lon="4.81943">
        <ele>212</ele>
        <time>2011-10-16T10:15:50Z</time>
      </trkpt>
      <trkpt lat="45.76766" lon="4.81939">
        <ele>212</ele>
        <time>2011-10-16T10:15:51Z</time>
      </trkpt>
      <trkpt lat="45.76765" lon="4.81934">
        <ele>212</ele>
        <time>2011-10-16T10:15:52Z</time>
      </trkpt>
      <trkpt lat="45.76764" lon="4.81931">
        <ele>212</ele>
        <time>2011-10-16T10:15:53Z</time>
      </trkpt>
      <trkpt lat="45.76763" lon="4.81929">
        <ele>212</ele>
        <time>2011-10-16T10:15:54Z</time>
      </trkpt>
      <trkpt lat="45.76763" lon="4.81925">
        <ele>212</ele>
        <time>2011-10-16T10:15:55Z</time>
      </trkpt>
      <trkpt lat="45.76762" lon="4.81921">
        <ele>213</ele>
        <time>2011-10-16T10:15:56Z</time>
      </trkpt>
      <trkpt lat="45.7676" lon="4.81917">
        <ele>213</ele>
        <time>2011-10-16T10:15:57Z</time>
      </trkpt>
      <trkpt lat="45.76759" lon="4.81912">
        <ele>214</ele>
        <time>2011-10-16T10:15:58Z</time>
      </trkpt>
      <trkpt lat="45.76758" lon="4.81909">
        <ele>214</ele>
        <time>2011-10-16T10:15:59Z</time>
      </trkpt>
      <trkpt lat="45.76757" lon="4.81904">
        <ele>214</ele>
        <time>2011-10-16T10:16:00Z</time>
      </trkpt>
      <trkpt lat="45.76756" lon="4.819">
        <ele>214</ele>
        <time>2011-10-16T10:16:01Z</time>
      </trkpt>
      <trkpt lat="45.76756" lon="4.81897">
        <ele>214</ele>
        <time>2011-10-16T10:16:02Z</time>
      </trkpt>
      <trkpt lat="45.76756" lon="4.81892">
        <ele>214</ele>
        <time>2011-10-16T10:16:03Z</time>
      </trkpt>
      <trkpt lat="45.76755" lon="4.81889">
        <ele>214</ele>
        <time>2011-10-16T10:16:05Z</time>
      </trkpt>
      <trkpt lat="45.76755" lon="4.81887">
        <ele>213.38162231445</ele>
        <time>2011-10-16T10:16:05Z</time>
      </trkpt>
      <trkpt lat="45.76754" lon="4.81881">
        <ele>213</ele>
        <time>2011-10-16T10:16:06Z</time>
      </trkpt>
      <trkpt lat="45.76752" lon="4.81878">
        <ele>213</ele>
        <time>2011-10-16T10:16:07Z</time>
      </trkpt>
      <trkpt lat="45.76751" lon="4.81875">
        <ele>213</ele>
        <time>2011-10-16T10:16:08Z</time>
      </trkpt>
      <trkpt lat="45.76751" lon="4.81874">
        <ele>212</ele>
        <time>2011-10-16T10:16:09Z</time>
      </trkpt>
      <trkpt lat="45.76751" lon="4.81871">
        <ele>212</ele>
        <time>2011-10-16T10:16:10Z</time>
      </trkpt>
      <trkpt lat="45.76751" lon="4.81869">
        <ele>213</ele>
        <time>2011-10-16T10:16:11Z</time>
      </trkpt>
      <trkpt lat="45.76753" lon="4.81867">
        <ele>212</ele>
        <time>2011-10-16T10:16:12Z</time>
      </trkpt>
      <trkpt lat="45.76754" lon="4.81865">
        <ele>213</ele>
        <time>2011-10-16T10:16:13Z</time>
      </trkpt>
      <trkpt lat="45.76754" lon="4.81862">
        <ele>213</ele>
        <time>2011-10-16T10:16:14Z</time>
      </trkpt>
      <trkpt lat="45.76755" lon="4.81857">
        <ele>213</ele>
        <time>2011-10-16T10:16:15Z</time>
      </trkpt>
      <trkpt lat="45.76755" lon="4.81853">
        <ele>213</ele>
        <time>2011-10-16T10:16:16Z</time>
      </trkpt>
      <trkpt lat="45.76755" lon="4.8185">
        <ele>213</ele>
        <time>2011-10-16T10:16:17Z</time>
      </trkpt>
      <trkpt lat="45.76755" lon="4.81846">
        <ele>213</ele>
        <time>2011-10-16T10:16:18Z</time>
      </trkpt>
      <trkpt lat="45.76756" lon="4.81842">
        <ele>214</ele>
        <time>2011-10-16T10:16:19Z</time>
      </trkpt>
      <trkpt lat="45.76756" lon="4.81838">
        <ele>214</ele>
        <time>2011-10-16T10:16:20Z</time>
      </trkpt>
      <trkpt lat="45.76757" lon="4.81835">
        <ele>214</ele>
        <time>2011-10-16T10:16:21Z</time>
      </trkpt>
      <trkpt lat="45.76757" lon="4.8183">
        <ele>213</ele>
        <time>2011-10-16T10:16:22Z</time>
      </trkpt>
      <trkpt lat="45.76757" lon="4.81828">
        <ele>214</ele>
        <time>2011-10-16T10:16:23Z</time>
      </trkpt>
      <trkpt lat="45.76757" lon="4.81826">
        <ele>214</ele>
        <time>2011-10-16T10:16:24Z</time>
      </trkpt>
      <trkpt lat="45.76758" lon="4.81823">
        <ele>213</ele>
        <time>2011-10-16T10:16:25Z</time>
      </trkpt>
      <trkpt lat="45.76758" lon="4.8182">
        <ele>213</ele>
        <time>2011-10-16T10:16:26Z</time>
      </trkpt>
      <trkpt lat="45.76758" lon="4.81816">
        <ele>212</ele>
        <time>2011-10-16T10:16:27Z</time>
      </trkpt>
      <trkpt lat="45.76759" lon="4.81813">
        <ele>212</ele>
        <time>2011-10-16T10:16:28Z</time>
      </trkpt>
      <trkpt lat="45.76758" lon="4.81809">
        <ele>211</ele>
        <time>2011-10-16T10:16:29Z</time>
      </trkpt>
      <trkpt lat="45.76758" lon="4.81806">
        <ele>211</ele>
        <time>2011-10-16T10:16:30Z</time>
      </trkpt>
      <trkpt lat="45.76758" lon="4.818">
        <ele>211</ele>
        <time>2011-10-16T10:16:31Z</time>
      </trkpt>
      <trkpt lat="45.76758" lon="4.81797">
        <ele>210</ele>
        <time>2011-10-16T10:16:32Z</time>
      </trkpt>
      <trkpt lat="45.76758" lon="4.81792">
        <ele>210</ele>
        <time>2011-10-16T10:16:33Z</time>
      </trkpt>
      <trkpt lat="45.76759" lon="4.81788">
        <ele>211</ele>
        <time>2011-10-16T10:16:34Z</time>
      </trkpt>
      <trkpt lat="45.7676" lon="4.81785">
        <ele>212</ele>
        <time>2011-10-16T10:16:35Z</time>
      </trkpt>
      <trkpt lat="45.76761" lon="4.81782">
        <ele>212</ele>
        <time>2011-10-16T10:16:36Z</time>
      </trkpt>
      <trkpt lat="45.76761" lon="4.81777">
        <ele>213</ele>
        <time>2011-10-16T10:16:37Z</time>
      </trkpt>
      <trkpt lat="45.76761" lon="4.81772">
        <ele>213</ele>
        <time>2011-10-16T10:16:38Z</time>
      </trkpt>
      <trkpt lat="45.7676" lon="4.81768">
        <ele>213</ele>
        <time>2011-10-16T10:16:39Z</time>
      </trkpt>
      <trkpt lat="45.76761" lon="4.81764">
        <ele>212</ele>
        <time>2011-10-16T10:16:40Z</time>
      </trkpt>
      <trkpt lat="45.76761" lon="4.8176">
        <ele>212</ele>
        <time>2011-10-16T10:16:41Z</time>
      </trkpt>
      <trkpt lat="45.76761" lon="4.81756">
        <ele>213</ele>
        <time>2011-10-16T10:16:42Z</time>
      </trkpt>
      <trkpt lat="45.76762" lon="4.81753">
        <ele>213</ele>
        <time>2011-10-16T10:16:43Z</time>
      </trkpt>
      <trkpt lat="45.76762" lon="4.81749">
        <ele>213</ele>
        <time>2011-10-16T10:16:44Z</time>
      </trkpt>
      <trkpt lat="45.76762" lon="4.81746">
        <ele>214</ele>
        <time>2011-10-16T10:16:45Z</time>
      </trkpt>
      <trkpt lat="45.76762" lon="4.81742">
        <ele>215</ele>
        <time>2011-10-16T10:16:46Z</time>
      </trkpt>
      <trkpt lat="45.76763" lon="4.8174">
        <ele>215</ele>
        <time>2011-10-16T10:16:47Z</time>
      </trkpt>
      <trkpt lat="45.76764" lon="4.81737">
        <ele>215</ele>
        <time>2011-10-16T10:16:48Z</time>
      </trkpt>
      <trkpt lat="45.76766" lon="4.81737">
        <ele>216</ele>
        <time>2011-10-16T10:16:49Z</time>
      </trkpt>
      <trkpt lat="45.76768" lon="4.81735">
        <ele>216</ele>
        <time>2011-10-16T10:16:51Z</time>
      </trkpt>
      <trkpt lat="45.76769" lon="4.81732">
        <ele>215.08564758301</ele>
        <time>2011-10-16T10:16:51Z</time>
      </trkpt>
      <trkpt lat="45.7677" lon="4.8173">
        <ele>215</ele>
        <time>2011-10-16T10:16:52Z</time>
      </trkpt>
      <trkpt lat="45.76771" lon="4.81726">
        <ele>216</ele>
        <time>2011-10-16T10:16:53Z</time>
      </trkpt>
      <trkpt lat="45.76772" lon="4.81724">
        <ele>217</ele>
        <time>2011-10-16T10:16:54Z</time>
      </trkpt>
      <trkpt lat="45.76772" lon="4.8172">
        <ele>217</ele>
        <time>2011-10-16T10:16:55Z</time>
      </trkpt>
      <trkpt lat="45.76773" lon="4.81717">
        <ele>218</ele>
        <time>2011-10-16T10:16:56Z</time>
      </trkpt>
      <trkpt lat="45.76774" lon="4.81714">
        <ele>218</ele>
        <time>2011-10-16T10:16:57Z</time>
      </trkpt>
      <trkpt lat="45.76774" lon="4.8171">
        <ele>218</ele>
        <time>2011-10-16T10:16:58Z</time>
      </trkpt>
      <trkpt lat="45.76775" lon="4.81707">
        <ele>218</ele>
        <time>2011-10-16T10:16:59Z</time>
      </trkpt>
      <trkpt lat="45.76775" lon="4.81703">
        <ele>218</ele>
        <time>2011-10-16T10:17:00Z</time>
      </trkpt>
      <trkpt lat="45.76776" lon="4.817">
        <ele>217</ele>
        <time>2011-10-16T10:17:01Z</time>
      </trkpt>
      <trkpt lat="45.76776" lon="4.81696">
        <ele>217</ele>
        <time>2011-10-16T10:17:02Z</time>
      </trkpt>
      <trkpt lat="45.76777" lon="4.81693">
        <ele>217</ele>
        <time>2011-10-16T10:17:03Z</time>
      </trkpt>
      <trkpt lat="45.76777" lon="4.81691">
        <ele>218</ele>
        <time>2011-10-16T10:17:04Z</time>
      </trkpt>
      <trkpt lat="45.76778" lon="4.81687">
        <ele>219</ele>
        <time>2011-10-16T10:17:05Z</time>
      </trkpt>
      <trkpt lat="45.76778" lon="4.81684">
        <ele>220</ele>
        <time>2011-10-16T10:17:06Z</time>
      </trkpt>
      <trkpt lat="45.76778" lon="4.81681">
        <ele>221</ele>
        <time>2011-10-16T10:17:07Z</time>
      </trkpt>
      <trkpt lat="45.76778" lon="4.81676">
        <ele>221</ele>
        <time>2011-10-16T10:17:08Z</time>
      </trkpt>
      <trkpt lat="45.76779" lon="4.81673">
        <ele>222</ele>
        <time>2011-10-16T10:17:09Z</time>
      </trkpt>
      <trkpt lat="45.7678" lon="4.81669">
        <ele>222</ele>
        <time>2011-10-16T10:17:10Z</time>
      </trkpt>
      <trkpt lat="45.76781" lon="4.81666">
        <ele>222</ele>
        <time>2011-10-16T10:17:11Z</time>
      </trkpt>
      <trkpt lat="45.76783" lon="4.81661">
        <ele>222</ele>
        <time>2011-10-16T10:17:12Z</time>
      </trkpt>
      <trkpt lat="45.76784" lon="4.81657">
        <ele>222</ele>
        <time>2011-10-16T10:17:13Z</time>
      </trkpt>
      <trkpt lat="45.76785" lon="4.81653">
        <ele>221</ele>
        <time>2011-10-16T10:17:14Z</time>
      </trkpt>
      <trkpt lat="45.76787" lon="4.8165">
        <ele>221</ele>
        <time>2011-10-16T10:17:15Z</time>
      </trkpt>
      <trkpt lat="45.76788" lon="4.81647">
        <ele>221</ele>
        <time>2011-10-16T10:17:16Z</time>
      </trkpt>
      <trkpt lat="45.76788" lon="4.81644">
        <ele>221</ele>
        <time>2011-10-16T10:17:17Z</time>
      </trkpt>
      <trkpt lat="45.76789" lon="4.81642">
        <ele>222</ele>
        <time>2011-10-16T10:17:18Z</time>
      </trkpt>
      <trkpt lat="45.76791" lon="4.81638">
        <ele>222</ele>
        <time>2011-10-16T10:17:19Z</time>
      </trkpt>
      <trkpt lat="45.76792" lon="4.81635">
        <ele>223</ele>
        <time>2011-10-16T10:17:20Z</time>
      </trkpt>
      <trkpt lat="45.76792" lon="4.81631">
        <ele>223</ele>
        <time>2011-10-16T10:17:21Z</time>
      </trkpt>
      <trkpt lat="45.76793" lon="4.81628">
        <ele>223</ele>
        <time>2011-10-16T10:17:22Z</time>
      </trkpt>
      <trkpt lat="45.76793" lon="4.81625">
        <ele>223</ele>
        <time>2011-10-16T10:17:23Z</time>
      </trkpt>
      <trkpt lat="45.76794" lon="4.81622">
        <ele>222</ele>
        <time>2011-10-16T10:17:24Z</time>
      </trkpt>
      <trkpt lat="45.76794" lon="4.8162">
        <ele>222</ele>
        <time>2011-10-16T10:17:25Z</time>
      </trkpt>
      <trkpt lat="45.76795" lon="4.81618">
        <ele>222</ele>
        <time>2011-10-16T10:17:26Z</time>
      </trkpt>
      <trkpt lat="45.76796" lon="4.81618">
        <ele>223</ele>
        <time>2011-10-16T10:17:27Z</time>
      </trkpt>
      <trkpt lat="45.76797" lon="4.81617">
        <ele>223</ele>
        <time>2011-10-16T10:17:28Z</time>
      </trkpt>
      <trkpt lat="45.76798" lon="4.81616">
        <ele>223</ele>
        <time>2011-10-16T10:17:29Z</time>
      </trkpt>
      <trkpt lat="45.76799" lon="4.81612">
        <ele>222</ele>
        <time>2011-10-16T10:17:30Z</time>
      </trkpt>
      <trkpt lat="45.76801" lon="4.81608">
        <ele>222</ele>
        <time>2011-10-16T10:17:31Z</time>
      </trkpt>
      <trkpt lat="45.76802" lon="4.81606">
        <ele>222</ele>
        <time>2011-10-16T10:17:32Z</time>
      </trkpt>
      <trkpt lat="45.76803" lon="4.81602">
        <ele>223</ele>
        <time>2011-10-16T10:17:33Z</time>
      </trkpt>
      <trkpt lat="45.76804" lon="4.81598">
        <ele>222</ele>
        <time>2011-10-16T10:17:34Z</time>
      </trkpt>
      <trkpt lat="45.76805" lon="4.81595">
        <ele>222</ele>
        <time>2011-10-16T10:17:35Z</time>
      </trkpt>
      <trkpt lat="45.76806" lon="4.81591">
        <ele>221</ele>
        <time>2011-10-16T10:17:37Z</time>
      </trkpt>
      <trkpt lat="45.76806" lon="4.81589">
        <ele>221</ele>
        <time>2011-10-16T10:17:37Z</time>
      </trkpt>
      <trkpt lat="45.76808" lon="4.81585">
        <ele>221</ele>
        <time>2011-10-16T10:17:38Z</time>
      </trkpt>
      <trkpt lat="45.76809" lon="4.81583">
        <ele>221</ele>
        <time>2011-10-16T10:17:39Z</time>
      </trkpt>
      <trkpt lat="45.76811" lon="4.8158">
        <ele>221</ele>
        <time>2011-10-16T10:17:40Z</time>
      </trkpt>
      <trkpt lat="45.76812" lon="4.81578">
        <ele>221</ele>
        <time>2011-10-16T10:17:41Z</time>
      </trkpt>
      <trkpt lat="45.76813" lon="4.81575">
        <ele>220</ele>
        <time>2011-10-16T10:17:42Z</time>
      </trkpt>
      <trkpt lat="45.76814" lon="4.81573">
        <ele>220</ele>
        <time>2011-10-16T10:17:43Z</time>
      </trkpt>
      <trkpt lat="45.76816" lon="4.8157">
        <ele>220</ele>
        <time>2011-10-16T10:17:44Z</time>
      </trkpt>
      <trkpt lat="45.76817" lon="4.81568">
        <ele>220</ele>
        <time>2011-10-16T10:17:45Z</time>
      </trkpt>
      <trkpt lat="45.76819" lon="4.81565">
        <ele>220</ele>
        <time>2011-10-16T10:17:46Z</time>
      </trkpt>
      <trkpt lat="45.76821" lon="4.81562">
        <ele>220</ele>
        <time>2011-10-16T10:17:47Z</time>
      </trkpt>
      <trkpt lat="45.76821" lon="4.81558">
        <ele>220</ele>
        <time>2011-10-16T10:17:48Z</time>
      </trkpt>
      <trkpt lat="45.76823" lon="4.81554">
        <ele>220</ele>
        <time>2011-10-16T10:17:49Z</time>
      </trkpt>
      <trkpt lat="45.76825" lon="4.81551">
        <ele>220</ele>
        <time>2011-10-16T10:17:50Z</time>
      </trkpt>
      <trkpt lat="45.76829" lon="4.81547">
        <ele>219</ele>
        <time>2011-10-16T10:17:51Z</time>
      </trkpt>
      <trkpt lat="45.76831" lon="4.81544">
        <ele>219</ele>
        <time>2011-10-16T10:17:52Z</time>
      </trkpt>
      <trkpt lat="45.76832" lon="4.81541">
        <ele>219</ele>
        <time>2011-10-16T10:17:53Z</time>
      </trkpt>
      <trkpt lat="45.76835" lon="4.81537">
        <ele>219</ele>
        <time>2011-10-16T10:17:54Z</time>
      </trkpt>
      <trkpt lat="45.76836" lon="4.81533">
        <ele>219</ele>
        <time>2011-10-16T10:17:55Z</time>
      </trkpt>
      <trkpt lat="45.76838" lon="4.81531">
        <ele>219</ele>
        <time>2011-10-16T10:17:56Z</time>
      </trkpt>
      <trkpt lat="45.76839" lon="4.81528">
        <ele>219</ele>
        <time>2011-10-16T10:17:57Z</time>
      </trkpt>
      <trkpt lat="45.76841" lon="4.81526">
        <ele>219</ele>
        <time>2011-10-16T10:17:58Z</time>
      </trkpt>
      <trkpt lat="45.76842" lon="4.81523">
        <ele>220</ele>
        <time>2011-10-16T10:17:59Z</time>
      </trkpt>
      <trkpt lat="45.76843" lon="4.81518">
        <ele>221</ele>
        <time>2011-10-16T10:18:00Z</time>
      </trkpt>
      <trkpt lat="45.76845" lon="4.81514">
        <ele>222</ele>
        <time>2011-10-16T10:18:01Z</time>
      </trkpt>
      <trkpt lat="45.76848" lon="4.81513">
        <ele>221</ele>
        <time>2011-10-16T10:18:02Z</time>
      </trkpt>
      <trkpt lat="45.7685" lon="4.81511">
        <ele>222</ele>
        <time>2011-10-16T10:18:03Z</time>
      </trkpt>
      <trkpt lat="45.76852" lon="4.81507">
        <ele>222</ele>
        <time>2011-10-16T10:18:04Z</time>
      </trkpt>
      <trkpt lat="45.76853" lon="4.81506">
        <ele>222</ele>
        <time>2011-10-16T10:18:05Z</time>
      </trkpt>
      <trkpt lat="45.76854" lon="4.81504">
        <ele>222</ele>
        <time>2011-10-16T10:18:06Z</time>
      </trkpt>
      <trkpt lat="45.76857" lon="4.81501">
        <ele>221</ele>
        <time>2011-10-16T10:18:07Z</time>
      </trkpt>
      <trkpt lat="45.76858" lon="4.81498">
        <ele>220</ele>
        <time>2011-10-16T10:18:08Z</time>
      </trkpt>
      <trkpt lat="45.7686" lon="4.81495">
        <ele>220</ele>
        <time>2011-10-16T10:18:09Z</time>
      </trkpt>
      <trkpt lat="45.76862" lon="4.81492">
        <ele>219</ele>
        <time>2011-10-16T10:18:10Z</time>
      </trkpt>
      <trkpt lat="45.76864" lon="4.81491">
        <ele>219</ele>
        <time>2011-10-16T10:18:11Z</time>
      </trkpt>
      <trkpt lat="45.76866" lon="4.81488">
        <ele>219</ele>
        <time>2011-10-16T10:18:13Z</time>
      </trkpt>
      <trkpt lat="45.76868" lon="4.81487">
        <ele>218.20602416992</ele>
        <time>2011-10-16T10:18:13Z</time>
      </trkpt>
      <trkpt lat="45.76871" lon="4.81484">
        <ele>219</ele>
        <time>2011-10-16T10:18:14Z</time>
      </trkpt>
      <trkpt lat="45.76873" lon="4.81482">
        <ele>218</ele>
        <time>2011-10-16T10:18:15Z</time>
      </trkpt>
      <trkpt lat="45.76875" lon="4.8148">
        <ele>218</ele>
        <time>2011-10-16T10:18:16Z</time>
      </trkpt>
      <trkpt lat="45.76878" lon="4.81478">
        <ele>219</ele>
        <time>2011-10-16T10:18:17Z</time>
      </trkpt>
      <trkpt lat="45.7688" lon="4.81476">
        <ele>219</ele>
        <time>2011-10-16T10:18:18Z</time>
      </trkpt>
      <trkpt lat="45.76882" lon="4.81474">
        <ele>219</ele>
        <time>2011-10-16T10:18:19Z</time>
      </trkpt>
      <trkpt lat="45.76884" lon="4.81472">
        <ele>220</ele>
        <time>2011-10-16T10:18:20Z</time>
      </trkpt>
      <trkpt lat="45.76887" lon="4.8147">
        <ele>220</ele>
        <time>2011-10-16T10:18:21Z</time>
      </trkpt>
      <trkpt lat="45.7689" lon="4.81468">
        <ele>220</ele>
        <time>2011-10-16T10:18:22Z</time>
      </trkpt>
      <trkpt lat="45.76892" lon="4.81466">
        <ele>220</ele>
        <time>2011-10-16T10:18:23Z</time>
      </trkpt>
      <trkpt lat="45.76894" lon="4.81464">
        <ele>220</ele>
        <time>2011-10-16T10:18:24Z</time>
      </trkpt>
      <trkpt lat="45.76897" lon="4.81462">
        <ele>220</ele>
        <time>2011-10-16T10:18:25Z</time>
      </trkpt>
      <trkpt lat="45.76899" lon="4.8146">
        <ele>220</ele>
        <time>2011-10-16T10:18:26Z</time>
      </trkpt>
      <trkpt lat="45.76902" lon="4.81459">
        <ele>220</ele>
        <time>2011-10-16T10:18:27Z</time>
      </trkpt>
      <trkpt lat="45.76905" lon="4.81458">
        <ele>220</ele>
        <time>2011-10-16T10:18:28Z</time>
      </trkpt>
      <trkpt lat="45.76907" lon="4.81456">
        <ele>220</ele>
        <time>2011-10-16T10:18:29Z</time>
      </trkpt>
      <trkpt lat="45.7691" lon="4.81454">
        <ele>220</ele>
        <time>2011-10-16T10:18:30Z</time>
      </trkpt>
      <trkpt lat="45.76913" lon="4.81451">
        <ele>220</ele>
        <time>2011-10-16T10:18:31Z</time>
      </trkpt>
      <trkpt lat="45.76917" lon="4.8145">
        <ele>219</ele>
        <time>2011-10-16T10:18:32Z</time>
      </trkpt>
      <trkpt lat="45.76919" lon="4.8145">
        <ele>219</ele>
        <time>2011-10-16T10:18:33Z</time>
      </trkpt>
      <trkpt lat="45.76921" lon="4.81448">
        <ele>219</ele>
        <time>2011-10-16T10:18:34Z</time>
      </trkpt>
      <trkpt lat="45.76923" lon="4.81447">
        <ele>219</ele>
        <time>2011-10-16T10:18:35Z</time>
      </trkpt>
      <trkpt lat="45.76925" lon="4.81447">
        <ele>219</ele>
        <time>2011-10-16T10:18:36Z</time>
      </trkpt>
      <trkpt lat="45.76928" lon="4.81446">
        <ele>219</ele>
        <time>2011-10-16T10:18:37Z</time>
      </trkpt>
      <trkpt lat="45.76931" lon="4.81444">
        <ele>219</ele>
        <time>2011-10-16T10:18:38Z</time>
      </trkpt>
      <trkpt lat="45.76933" lon="4.81443">
        <ele>219</ele>
        <time>2011-10-16T10:18:39Z</time>
      </trkpt>
      <trkpt lat="45.76936" lon="4.81443">
        <ele>218</ele>
        <time>2011-10-16T10:18:40Z</time>
      </trkpt>
      <trkpt lat="45.76938" lon="4.81442">
        <ele>218</ele>
        <time>2011-10-16T10:18:41Z</time>
      </trkpt>
      <trkpt lat="45.7694" lon="4.81441">
        <ele>217</ele>
        <time>2011-10-16T10:18:42Z</time>
      </trkpt>
      <trkpt lat="45.76943" lon="4.81439">
        <ele>217</ele>
        <time>2011-10-16T10:18:43Z</time>
      </trkpt>
      <trkpt lat="45.76945" lon="4.81437">
        <ele>217</ele>
        <time>2011-10-16T10:18:44Z</time>
      </trkpt>
      <trkpt lat="45.76946" lon="4.81435">
        <ele>217</ele>
        <time>2011-10-16T10:18:45Z</time>
      </trkpt>
      <trkpt lat="45.76948" lon="4.81434">
        <ele>217</ele>
        <time>2011-10-16T10:18:46Z</time>
      </trkpt>
      <trkpt lat="45.7695" lon="4.81433">
        <ele>216</ele>
        <time>2011-10-16T10:18:47Z</time>
      </trkpt>
      <trkpt lat="45.76955" lon="4.81432">
        <ele>216</ele>
        <time>2011-10-16T10:18:49Z</time>
      </trkpt>
      <trkpt lat="45.76957" lon="4.8143">
        <ele>216.81851196289</ele>
        <time>2011-10-16T10:18:49Z</time>
      </trkpt>
      <trkpt lat="45.76961" lon="4.81426">
        <ele>218</ele>
        <time>2011-10-16T10:18:50Z</time>
      </trkpt>
      <trkpt lat="45.76963" lon="4.81424">
        <ele>218</ele>
        <time>2011-10-16T10:18:51Z</time>
      </trkpt>
      <trkpt lat="45.76965" lon="4.81423">
        <ele>218</ele>
        <time>2011-10-16T10:18:52Z</time>
      </trkpt>
      <trkpt lat="45.76967" lon="4.81422">
        <ele>218</ele>
        <time>2011-10-16T10:18:53Z</time>
      </trkpt>
      <trkpt lat="45.76969" lon="4.81419">
        <ele>218</ele>
        <time>2011-10-16T10:18:54Z</time>
      </trkpt>
      <trkpt lat="45.76971" lon="4.81416">
        <ele>217</ele>
        <time>2011-10-16T10:18:55Z</time>
      </trkpt>
      <trkpt lat="45.76973" lon="4.81413">
        <ele>218</ele>
        <time>2011-10-16T10:18:56Z</time>
      </trkpt>
      <trkpt lat="45.76975" lon="4.8141">
        <ele>218</ele>
        <time>2011-10-16T10:18:57Z</time>
      </trkpt>
      <trkpt lat="45.76977" lon="4.81408">
        <ele>218</ele>
        <time>2011-10-16T10:18:58Z</time>
      </trkpt>
      <trkpt lat="45.7698" lon="4.81408">
        <ele>219</ele>
        <time>2011-10-16T10:18:59Z</time>
      </trkpt>
      <trkpt lat="45.76982" lon="4.81407">
        <ele>219</ele>
        <time>2011-10-16T10:19:00Z</time>
      </trkpt>
      <trkpt lat="45.76985" lon="4.81408">
        <ele>220</ele>
        <time>2011-10-16T10:19:01Z</time>
      </trkpt>
      <trkpt lat="45.76989" lon="4.81408">
        <ele>220</ele>
        <time>2011-10-16T10:19:02Z</time>
      </trkpt>
      <trkpt lat="45.76992" lon="4.81408">
        <ele>221</ele>
        <time>2011-10-16T10:19:03Z</time>
      </trkpt>
      <trkpt lat="45.76995" lon="4.81407">
        <ele>220</ele>
        <time>2011-10-16T10:19:04Z</time>
      </trkpt>
      <trkpt lat="45.76998" lon="4.81406">
        <ele>218</ele>
        <time>2011-10-16T10:19:05Z</time>
      </trkpt>
      <trkpt lat="45.77002" lon="4.81403">
        <ele>217</ele>
        <time>2011-10-16T10:19:06Z</time>
      </trkpt>
      <trkpt lat="45.77004" lon="4.81402">
        <ele>217</ele>
        <time>2011-10-16T10:19:07Z</time>
      </trkpt>
      <trkpt lat="45.77007" lon="4.81401">
        <ele>217</ele>
        <time>2011-10-16T10:19:08Z</time>
      </trkpt>
      <trkpt lat="45.77009" lon="4.81401">
        <ele>217</ele>
        <time>2011-10-16T10:19:09Z</time>
      </trkpt>
      <trkpt lat="45.77012" lon="4.81398">
        <ele>217</ele>
        <time>2011-10-16T10:19:10Z</time>
      </trkpt>
      <trkpt lat="45.77015" lon="4.81396">
        <ele>217</ele>
        <time>2011-10-16T10:19:11Z</time>
      </trkpt>
      <trkpt lat="45.77018" lon="4.81396">
        <ele>217</ele>
        <time>2011-10-16T10:19:12Z</time>
      </trkpt>
      <trkpt lat="45.77021" lon="4.81394">
        <ele>217</ele>
        <time>2011-10-16T10:19:13Z</time>
      </trkpt>
      <trkpt lat="45.77024" lon="4.81394">
        <ele>217</ele>
        <time>2011-10-16T10:19:14Z</time>
      </trkpt>
      <trkpt lat="45.77027" lon="4.81393">
        <ele>217</ele>
        <time>2011-10-16T10:19:15Z</time>
      </trkpt>
      <trkpt lat="45.7703" lon="4.81392">
        <ele>217</ele>
        <time>2011-10-16T10:19:16Z</time>
      </trkpt>
      <trkpt lat="45.77034" lon="4.8139">
        <ele>217</ele>
        <time>2011-10-16T10:19:17Z</time>
      </trkpt>
      <trkpt lat="45.77038" lon="4.81395">
        <ele>218</ele>
        <time>2011-10-16T10:19:18Z</time>
      </trkpt>
      <trkpt lat="45.77039" lon="4.81393">
        <ele>219</ele>
        <time>2011-10-16T10:19:19Z</time>
      </trkpt>
      <trkpt lat="45.77042" lon="4.81393">
        <ele>218</ele>
        <time>2011-10-16T10:19:20Z</time>
      </trkpt>
      <trkpt lat="45.77043" lon="4.81393">
        <ele>217</ele>
        <time>2011-10-16T10:19:21Z</time>
      </trkpt>
      <trkpt lat="45.77044" lon="4.81388">
        <ele>218</ele>
        <time>2011-10-16T10:19:22Z</time>
      </trkpt>
      <trkpt lat="45.77047" lon="4.81386">
        <ele>218</ele>
        <time>2011-10-16T10:19:23Z</time>
      </trkpt>
      <trkpt lat="45.7705" lon="4.81386">
        <ele>219</ele>
        <time>2011-10-16T10:19:24Z</time>
      </trkpt>
      <trkpt lat="45.77052" lon="4.81386">
        <ele>218</ele>
        <time>2011-10-16T10:19:25Z</time>
      </trkpt>
      <trkpt lat="45.77055" lon="4.81386">
        <ele>218</ele>
        <time>2011-10-16T10:19:26Z</time>
      </trkpt>
      <trkpt lat="45.77057" lon="4.81385">
        <ele>218</ele>
        <time>2011-10-16T10:19:28Z</time>
      </trkpt>
      <trkpt lat="45.77058" lon="4.81384">
        <ele>219</ele>
        <time>2011-10-16T10:19:28Z</time>
      </trkpt>
      <trkpt lat="45.77061" lon="4.81381">
        <ele>219</ele>
        <time>2011-10-16T10:19:29Z</time>
      </trkpt>
      <trkpt lat="45.77063" lon="4.81381">
        <ele>220</ele>
        <time>2011-10-16T10:19:30Z</time>
      </trkpt>
      <trkpt lat="45.77067" lon="4.81383">
        <ele>220</ele>
        <time>2011-10-16T10:19:31Z</time>
      </trkpt>
      <trkpt lat="45.77069" lon="4.81383">
        <ele>220</ele>
        <time>2011-10-16T10:19:32Z</time>
      </trkpt>
      <trkpt lat="45.77071" lon="4.81384">
        <ele>221</ele>
        <time>2011-10-16T10:19:33Z</time>
      </trkpt>
      <trkpt lat="45.77073" lon="4.81384">
        <ele>221</ele>
        <time>2011-10-16T10:19:34Z</time>
      </trkpt>
      <trkpt lat="45.77076" lon="4.81385">
        <ele>221</ele>
        <time>2011-10-16T10:19:35Z</time>
      </trkpt>
      <trkpt lat="45.77079" lon="4.81384">
        <ele>222</ele>
        <time>2011-10-16T10:19:36Z</time>
      </trkpt>
      <trkpt lat="45.77082" lon="4.81384">
        <ele>223</ele>
        <time>2011-10-16T10:19:37Z</time>
      </trkpt>
      <trkpt lat="45.77085" lon="4.81384">
        <ele>223</ele>
        <time>2011-10-16T10:19:38Z</time>
      </trkpt>
      <trkpt lat="45.77088" lon="4.81384">
        <ele>223</ele>
        <time>2011-10-16T10:19:39Z</time>
      </trkpt>
      <trkpt lat="45.7709" lon="4.81382">
        <ele>223</ele>
        <time>2011-10-16T10:19:40Z</time>
      </trkpt>
      <trkpt lat="45.77093" lon="4.81382">
        <ele>224</ele>
        <time>2011-10-16T10:19:41Z</time>
      </trkpt>
      <trkpt lat="45.77095" lon="4.81381">
        <ele>223</ele>
        <time>2011-10-16T10:19:42Z</time>
      </trkpt>
      <trkpt lat="45.77096" lon="4.8138">
        <ele>223</ele>
        <time>2011-10-16T10:19:43Z</time>
      </trkpt>
      <trkpt lat="45.771" lon="4.81378">
        <ele>225</ele>
        <time>2011-10-16T10:19:44Z</time>
      </trkpt>
      <trkpt lat="45.77103" lon="4.81375">
        <ele>225</ele>
        <time>2011-10-16T10:19:45Z</time>
      </trkpt>
      <trkpt lat="45.77105" lon="4.81373">
        <ele>226</ele>
        <time>2011-10-16T10:19:46Z</time>
      </trkpt>
      <trkpt lat="45.77109" lon="4.81371">
        <ele>225</ele>
        <time>2011-10-16T10:19:47Z</time>
      </trkpt>
      <trkpt lat="45.77112" lon="4.8137">
        <ele>224</ele>
        <time>2011-10-16T10:19:48Z</time>
      </trkpt>
      <trkpt lat="45.77116" lon="4.81369">
        <ele>223</ele>
        <time>2011-10-16T10:19:49Z</time>
      </trkpt>
      <trkpt lat="45.77118" lon="4.81371">
        <ele>221</ele>
        <time>2011-10-16T10:19:50Z</time>
      </trkpt>
      <trkpt lat="45.7712" lon="4.81369">
        <ele>220</ele>
        <time>2011-10-16T10:19:51Z</time>
      </trkpt>
      <trkpt lat="45.77124" lon="4.81367">
        <ele>219</ele>
        <time>2011-10-16T10:19:52Z</time>
      </trkpt>
      <trkpt lat="45.77126" lon="4.81367">
        <ele>219</ele>
        <time>2011-10-16T10:19:53Z</time>
      </trkpt>
      <trkpt lat="45.77129" lon="4.81365">
        <ele>218</ele>
        <time>2011-10-16T10:19:54Z</time>
      </trkpt>
      <trkpt lat="45.77132" lon="4.81364">
        <ele>218</ele>
        <time>2011-10-16T10:19:55Z</time>
      </trkpt>
      <trkpt lat="45.77135" lon="4.81363">
        <ele>217</ele>
        <time>2011-10-16T10:19:56Z</time>
      </trkpt>
      <trkpt lat="45.77138" lon="4.81363">
        <ele>218</ele>
        <time>2011-10-16T10:19:57Z</time>
      </trkpt>
      <trkpt lat="45.77141" lon="4.8136">
        <ele>218</ele>
        <time>2011-10-16T10:19:58Z</time>
      </trkpt>
      <trkpt lat="45.77144" lon="4.81359">
        <ele>217</ele>
        <time>2011-10-16T10:19:59Z</time>
      </trkpt>
      <trkpt lat="45.77146" lon="4.81357">
        <ele>217</ele>
        <time>2011-10-16T10:20:00Z</time>
      </trkpt>
      <trkpt lat="45.77148" lon="4.81354">
        <ele>217</ele>
        <time>2011-10-16T10:20:01Z</time>
      </trkpt>
      <trkpt lat="45.77151" lon="4.81352">
        <ele>217</ele>
        <time>2011-10-16T10:20:02Z</time>
      </trkpt>
      <trkpt lat="45.77154" lon="4.81351">
        <ele>217</ele>
        <time>2011-10-16T10:20:03Z</time>
      </trkpt>
      <trkpt lat="45.77157" lon="4.8135">
        <ele>217</ele>
        <time>2011-10-16T10:20:04Z</time>
      </trkpt>
      <trkpt lat="45.7716" lon="4.81348">
        <ele>217</ele>
        <time>2011-10-16T10:20:05Z</time>
      </trkpt>
      <trkpt lat="45.77162" lon="4.81347">
        <ele>216</ele>
        <time>2011-10-16T10:20:06Z</time>
      </trkpt>
      <trkpt lat="45.77163" lon="4.81345">
        <ele>215</ele>
        <time>2011-10-16T10:20:07Z</time>
      </trkpt>
      <trkpt lat="45.77167" lon="4.81344">
        <ele>214</ele>
        <time>2011-10-16T10:20:08Z</time>
      </trkpt>
      <trkpt lat="45.77169" lon="4.81343">
        <ele>214</ele>
        <time>2011-10-16T10:20:09Z</time>
      </trkpt>
      <trkpt lat="45.77171" lon="4.81342">
        <ele>214</ele>
        <time>2011-10-16T10:20:10Z</time>
      </trkpt>
      <trkpt lat="45.77173" lon="4.8134">
        <ele>213</ele>
        <time>2011-10-16T10:20:11Z</time>
      </trkpt>
      <trkpt lat="45.77179" lon="4.81339">
        <ele>213</ele>
        <time>2011-10-16T10:20:13Z</time>
      </trkpt>
      <trkpt lat="45.77183" lon="4.81337">
        <ele>212</ele>
        <time>2011-10-16T10:20:14Z</time>
      </trkpt>
      <trkpt lat="45.77185" lon="4.81336">
        <ele>213</ele>
        <time>2011-10-16T10:20:15Z</time>
      </trkpt>
      <trkpt lat="45.77188" lon="4.81336">
        <ele>212</ele>
        <time>2011-10-16T10:20:16Z</time>
      </trkpt>
      <trkpt lat="45.77191" lon="4.81335">
        <ele>211</ele>
        <time>2011-10-16T10:20:17Z</time>
      </trkpt>
      <trkpt lat="45.77193" lon="4.81334">
        <ele>211</ele>
        <time>2011-10-16T10:20:18Z</time>
      </trkpt>
      <trkpt lat="45.77196" lon="4.81332">
        <ele>211</ele>
        <time>2011-10-16T10:20:19Z</time>
      </trkpt>
      <trkpt lat="45.77199" lon="4.81331">
        <ele>211</ele>
        <time>2011-10-16T10:20:20Z</time>
      </trkpt>
      <trkpt lat="45.77201" lon="4.8133">
        <ele>211</ele>
        <time>2011-10-16T10:20:21Z</time>
      </trkpt>
      <trkpt lat="45.77203" lon="4.81328">
        <ele>211</ele>
        <time>2011-10-16T10:20:22Z</time>
      </trkpt>
      <trkpt lat="45.77206" lon="4.81326">
        <ele>211</ele>
        <time>2011-10-16T10:20:23Z</time>
      </trkpt>
      <trkpt lat="45.77208" lon="4.81325">
        <ele>211</ele>
        <time>2011-10-16T10:20:24Z</time>
      </trkpt>
      <trkpt lat="45.77211" lon="4.81323">
        <ele>212</ele>
        <time>2011-10-16T10:20:25Z</time>
      </trkpt>
      <trkpt lat="45.77213" lon="4.81322">
        <ele>211</ele>
        <time>2011-10-16T10:20:26Z</time>
      </trkpt>
      <trkpt lat="45.77215" lon="4.8132">
        <ele>210</ele>
        <time>2011-10-16T10:20:27Z</time>
      </trkpt>
      <trkpt lat="45.77218" lon="4.81318">
        <ele>210</ele>
        <time>2011-10-16T10:20:28Z</time>
      </trkpt>
      <trkpt lat="45.7722" lon="4.81315">
        <ele>210</ele>
        <time>2011-10-16T10:20:29Z</time>
      </trkpt>
      <trkpt lat="45.77222" lon="4.81314">
        <ele>210</ele>
        <time>2011-10-16T10:20:30Z</time>
      </trkpt>
      <trkpt lat="45.77225" lon="4.81313">
        <ele>210</ele>
        <time>2011-10-16T10:20:31Z</time>
      </trkpt>
      <trkpt lat="45.77227" lon="4.81311">
        <ele>210</ele>
        <time>2011-10-16T10:20:32Z</time>
      </trkpt>
      <trkpt lat="45.77229" lon="4.81308">
        <ele>210</ele>
        <time>2011-10-16T10:20:33Z</time>
      </trkpt>
      <trkpt lat="45.77232" lon="4.81306">
        <ele>210</ele>
        <time>2011-10-16T10:20:34Z</time>
      </trkpt>
      <trkpt lat="45.77234" lon="4.81304">
        <ele>210</ele>
        <time>2011-10-16T10:20:35Z</time>
      </trkpt>
      <trkpt lat="45.77235" lon="4.81301">
        <ele>210</ele>
        <time>2011-10-16T10:20:36Z</time>
      </trkpt>
      <trkpt lat="45.77237" lon="4.81299">
        <ele>210</ele>
        <time>2011-10-16T10:20:37Z</time>
      </trkpt>
      <trkpt lat="45.77239" lon="4.81298">
        <ele>210</ele>
        <time>2011-10-16T10:20:38Z</time>
      </trkpt>
      <trkpt lat="45.77241" lon="4.81296">
        <ele>210</ele>
        <time>2011-10-16T10:20:39Z</time>
      </trkpt>
      <trkpt lat="45.77244" lon="4.81295">
        <ele>210</ele>
        <time>2011-10-16T10:20:40Z</time>
      </trkpt>
      <trkpt lat="45.77247" lon="4.81294">
        <ele>210</ele>
        <time>2011-10-16T10:20:41Z</time>
      </trkpt>
      <trkpt lat="45.77249" lon="4.81293">
        <ele>209</ele>
        <time>2011-10-16T10:20:42Z</time>
      </trkpt>
      <trkpt lat="45.77251" lon="4.81291">
        <ele>209</ele>
        <time>2011-10-16T10:20:43Z</time>
      </trkpt>
      <trkpt lat="45.77254" lon="4.8129">
        <ele>208</ele>
        <time>2011-10-16T10:20:44Z</time>
      </trkpt>
      <trkpt lat="45.77257" lon="4.81288">
        <ele>208</ele>
        <time>2011-10-16T10:20:45Z</time>
      </trkpt>
      <trkpt lat="45.77259" lon="4.81286">
        <ele>208</ele>
        <time>2011-10-16T10:20:46Z</time>
      </trkpt>
      <trkpt lat="45.77262" lon="4.81284">
        <ele>208</ele>
        <time>2011-10-16T10:20:47Z</time>
      </trkpt>
      <trkpt lat="45.77264" lon="4.81282">
        <ele>208</ele>
        <time>2011-10-16T10:20:48Z</time>
      </trkpt>
      <trkpt lat="45.77267" lon="4.8128">
        <ele>208</ele>
        <time>2011-10-16T10:20:49Z</time>
      </trkpt>
      <trkpt lat="45.77269" lon="4.81277">
        <ele>208</ele>
        <time>2011-10-16T10:20:50Z</time>
      </trkpt>
      <trkpt lat="45.77271" lon="4.81275">
        <ele>207</ele>
        <time>2011-10-16T10:20:51Z</time>
      </trkpt>
      <trkpt lat="45.77273" lon="4.81271">
        <ele>208</ele>
        <time>2011-10-16T10:20:52Z</time>
      </trkpt>
      <trkpt lat="45.77276" lon="4.8127">
        <ele>208</ele>
        <time>2011-10-16T10:20:53Z</time>
      </trkpt>
      <trkpt lat="45.77279" lon="4.81269">
        <ele>208</ele>
        <time>2011-10-16T10:20:54Z</time>
      </trkpt>
      <trkpt lat="45.77281" lon="4.81268">
        <ele>208</ele>
        <time>2011-10-16T10:20:55Z</time>
      </trkpt>
      <trkpt lat="45.77283" lon="4.81266">
        <ele>208</ele>
        <time>2011-10-16T10:20:56Z</time>
      </trkpt>
      <trkpt lat="45.77285" lon="4.81262">
        <ele>208</ele>
        <time>2011-10-16T10:20:57Z</time>
      </trkpt>
      <trkpt lat="45.77287" lon="4.81262">
        <ele>207</ele>
        <time>2011-10-16T10:20:58Z</time>
      </trkpt>
      <trkpt lat="45.77288" lon="4.81259">
        <ele>207</ele>
        <time>2011-10-16T10:20:59Z</time>
      </trkpt>
      <trkpt lat="45.7729" lon="4.81257">
        <ele>207</ele>
        <time>2011-10-16T10:21:01Z</time>
      </trkpt>
      <trkpt lat="45.77292" lon="4.81256">
        <ele>207</ele>
        <time>2011-10-16T10:21:01Z</time>
      </trkpt>
      <trkpt lat="45.77295" lon="4.81253">
        <ele>208</ele>
        <time>2011-10-16T10:21:02Z</time>
      </trkpt>
      <trkpt lat="45.77298" lon="4.81251">
        <ele>208</ele>
        <time>2011-10-16T10:21:03Z</time>
      </trkpt>
      <trkpt lat="45.77301" lon="4.81249">
        <ele>208</ele>
        <time>2011-10-16T10:21:04Z</time>
      </trkpt>
      <trkpt lat="45.77302" lon="4.81245">
        <ele>209</ele>
        <time>2011-10-16T10:21:05Z</time>
      </trkpt>
      <trkpt lat="45.77305" lon="4.81245">
        <ele>209</ele>
        <time>2011-10-16T10:21:06Z</time>
      </trkpt>
      <trkpt lat="45.77307" lon="4.81242">
        <ele>210</ele>
        <time>2011-10-16T10:21:07Z</time>
      </trkpt>
      <trkpt lat="45.77309" lon="4.81239">
        <ele>210</ele>
        <time>2011-10-16T10:21:08Z</time>
      </trkpt>
      <trkpt lat="45.77313" lon="4.81238">
        <ele>210</ele>
        <time>2011-10-16T10:21:09Z</time>
      </trkpt>
      <trkpt lat="45.77315" lon="4.81236">
        <ele>210</ele>
        <time>2011-10-16T10:21:10Z</time>
      </trkpt>
      <trkpt lat="45.77317" lon="4.81232">
        <ele>211</ele>
        <time>2011-10-16T10:21:11Z</time>
      </trkpt>
      <trkpt lat="45.77319" lon="4.8123">
        <ele>211</ele>
        <time>2011-10-16T10:21:12Z</time>
      </trkpt>
      <trkpt lat="45.7732" lon="4.81226">
        <ele>211</ele>
        <time>2011-10-16T10:21:13Z</time>
      </trkpt>
      <trkpt lat="45.77322" lon="4.81223">
        <ele>211</ele>
        <time>2011-10-16T10:21:14Z</time>
      </trkpt>
      <trkpt lat="45.77324" lon="4.8122">
        <ele>211</ele>
        <time>2011-10-16T10:21:15Z</time>
      </trkpt>
      <trkpt lat="45.77326" lon="4.81219">
        <ele>210</ele>
        <time>2011-10-16T10:21:16Z</time>
      </trkpt>
      <trkpt lat="45.77329" lon="4.81218">
        <ele>211</ele>
        <time>2011-10-16T10:21:17Z</time>
      </trkpt>
      <trkpt lat="45.77331" lon="4.81214">
        <ele>211</ele>
        <time>2011-10-16T10:21:18Z</time>
      </trkpt>
      <trkpt lat="45.77333" lon="4.81211">
        <ele>212</ele>
        <time>2011-10-16T10:21:19Z</time>
      </trkpt>
      <trkpt lat="45.77336" lon="4.81209">
        <ele>211</ele>
        <time>2011-10-16T10:21:20Z</time>
      </trkpt>
      <trkpt lat="45.77336" lon="4.81205">
        <ele>211</ele>
        <time>2011-10-16T10:21:21Z</time>
      </trkpt>
      <trkpt lat="45.77338" lon="4.81202">
        <ele>211</ele>
        <time>2011-10-16T10:21:22Z</time>
      </trkpt>
      <trkpt lat="45.77339" lon="4.81198">
        <ele>211</ele>
        <time>2011-10-16T10:21:23Z</time>
      </trkpt>
      <trkpt lat="45.77341" lon="4.81195">
        <ele>211</ele>
        <time>2011-10-16T10:21:24Z</time>
      </trkpt>
      <trkpt lat="45.77343" lon="4.81192">
        <ele>211</ele>
        <time>2011-10-16T10:21:25Z</time>
      </trkpt>
      <trkpt lat="45.77345" lon="4.81189">
        <ele>211</ele>
        <time>2011-10-16T10:21:26Z</time>
      </trkpt>
      <trkpt lat="45.77347" lon="4.81186">
        <ele>211</ele>
        <time>2011-10-16T10:21:27Z</time>
      </trkpt>
      <trkpt lat="45.7735" lon="4.81183">
        <ele>211</ele>
        <time>2011-10-16T10:21:28Z</time>
      </trkpt>
      <trkpt lat="45.77351" lon="4.8118">
        <ele>212</ele>
        <time>2011-10-16T10:21:29Z</time>
      </trkpt>
      <trkpt lat="45.77354" lon="4.81177">
        <ele>212</ele>
        <time>2011-10-16T10:21:30Z</time>
      </trkpt>
      <trkpt lat="45.77356" lon="4.81175">
        <ele>212</ele>
        <time>2011-10-16T10:21:31Z</time>
      </trkpt>
      <trkpt lat="45.77358" lon="4.81173">
        <ele>212</ele>
        <time>2011-10-16T10:21:32Z</time>
      </trkpt>
      <trkpt lat="45.7736" lon="4.8117">
        <ele>212</ele>
        <time>2011-10-16T10:21:33Z</time>
      </trkpt>
      <trkpt lat="45.77362" lon="4.81167">
        <ele>212</ele>
        <time>2011-10-16T10:21:34Z</time>
      </trkpt>
      <trkpt lat="45.77364" lon="4.81164">
        <ele>212</ele>
        <time>2011-10-16T10:21:35Z</time>
      </trkpt>
      <trkpt lat="45.77366" lon="4.81161">
        <ele>212</ele>
        <time>2011-10-16T10:21:36Z</time>
      </trkpt>
      <trkpt lat="45.77368" lon="4.81157">
        <ele>212</ele>
        <time>2011-10-16T10:21:37Z</time>
      </trkpt>
      <trkpt lat="45.7737" lon="4.81155">
        <ele>212</ele>
        <time>2011-10-16T10:21:38Z</time>
      </trkpt>
      <trkpt lat="45.77372" lon="4.81151">
        <ele>213</ele>
        <time>2011-10-16T10:21:39Z</time>
      </trkpt>
      <trkpt lat="45.77374" lon="4.81148">
        <ele>213</ele>
        <time>2011-10-16T10:21:40Z</time>
      </trkpt>
      <trkpt lat="45.77375" lon="4.81145">
        <ele>213</ele>
        <time>2011-10-16T10:21:41Z</time>
      </trkpt>
      <trkpt lat="45.77378" lon="4.81142">
        <ele>213</ele>
        <time>2011-10-16T10:21:42Z</time>
      </trkpt>
      <trkpt lat="45.77379" lon="4.81139">
        <ele>213</ele>
        <time>2011-10-16T10:21:43Z</time>
      </trkpt>
      <trkpt lat="45.77381" lon="4.81136">
        <ele>213</ele>
        <time>2011-10-16T10:21:44Z</time>
      </trkpt>
      <trkpt lat="45.77383" lon="4.81134">
        <ele>212</ele>
        <time>2011-10-16T10:21:45Z</time>
      </trkpt>
      <trkpt lat="45.77384" lon="4.8113">
        <ele>211</ele>
        <time>2011-10-16T10:21:46Z</time>
      </trkpt>
      <trkpt lat="45.77385" lon="4.81127">
        <ele>211</ele>
        <time>2011-10-16T10:21:48Z</time>
      </trkpt>
      <trkpt lat="45.77387" lon="4.81124">
        <ele>211</ele>
        <time>2011-10-16T10:21:48Z</time>
      </trkpt>
      <trkpt lat="45.77389" lon="4.81122">
        <ele>211</ele>
        <time>2011-10-16T10:21:49Z</time>
      </trkpt>
      <trkpt lat="45.77391" lon="4.81119">
        <ele>210</ele>
        <time>2011-10-16T10:21:50Z</time>
      </trkpt>
      <trkpt lat="45.77392" lon="4.81116">
        <ele>210</ele>
        <time>2011-10-16T10:21:51Z</time>
      </trkpt>
      <trkpt lat="45.77394" lon="4.81113">
        <ele>211</ele>
        <time>2011-10-16T10:21:52Z</time>
      </trkpt>
      <trkpt lat="45.77396" lon="4.81109">
        <ele>211</ele>
        <time>2011-10-16T10:21:53Z</time>
      </trkpt>
      <trkpt lat="45.77397" lon="4.81107">
        <ele>211</ele>
        <time>2011-10-16T10:21:54Z</time>
      </trkpt>
      <trkpt lat="45.77397" lon="4.81105">
        <ele>211</ele>
        <time>2011-10-16T10:21:55Z</time>
      </trkpt>
      <trkpt lat="45.77399" lon="4.81103">
        <ele>211</ele>
        <time>2011-10-16T10:21:56Z</time>
      </trkpt>
      <trkpt lat="45.77401" lon="4.811">
        <ele>210</ele>
        <time>2011-10-16T10:21:57Z</time>
      </trkpt>
      <trkpt lat="45.77403" lon="4.81098">
        <ele>211</ele>
        <time>2011-10-16T10:21:58Z</time>
      </trkpt>
      <trkpt lat="45.77405" lon="4.81095">
        <ele>210</ele>
        <time>2011-10-16T10:21:59Z</time>
      </trkpt>
      <trkpt lat="45.77406" lon="4.81092">
        <ele>209</ele>
        <time>2011-10-16T10:22:00Z</time>
      </trkpt>
      <trkpt lat="45.77408" lon="4.81088">
        <ele>209</ele>
        <time>2011-10-16T10:22:01Z</time>
      </trkpt>
      <trkpt lat="45.7741" lon="4.81085">
        <ele>209</ele>
        <time>2011-10-16T10:22:02Z</time>
      </trkpt>
      <trkpt lat="45.77413" lon="4.81083">
        <ele>210</ele>
        <time>2011-10-16T10:22:03Z</time>
      </trkpt>
      <trkpt lat="45.77416" lon="4.81081">
        <ele>211</ele>
        <time>2011-10-16T10:22:04Z</time>
      </trkpt>
      <trkpt lat="45.77416" lon="4.81079">
        <ele>210</ele>
        <time>2011-10-16T10:22:05Z</time>
      </trkpt>
      <trkpt lat="45.77418" lon="4.81077">
        <ele>209</ele>
        <time>2011-10-16T10:22:06Z</time>
      </trkpt>
      <trkpt lat="45.77419" lon="4.81072">
        <ele>209</ele>
        <time>2011-10-16T10:22:07Z</time>
      </trkpt>
      <trkpt lat="45.77422" lon="4.81072">
        <ele>209</ele>
        <time>2011-10-16T10:22:08Z</time>
      </trkpt>
      <trkpt lat="45.77424" lon="4.8107">
        <ele>210</ele>
        <time>2011-10-16T10:22:09Z</time>
      </trkpt>
      <trkpt lat="45.77426" lon="4.81068">
        <ele>210</ele>
        <time>2011-10-16T10:22:10Z</time>
      </trkpt>
      <trkpt lat="45.77427" lon="4.81066">
        <ele>210</ele>
        <time>2011-10-16T10:22:11Z</time>
      </trkpt>
      <trkpt lat="45.7743" lon="4.81066">
        <ele>210</ele>
        <time>2011-10-16T10:22:12Z</time>
      </trkpt>
      <trkpt lat="45.77432" lon="4.81063">
        <ele>210</ele>
        <time>2011-10-16T10:22:13Z</time>
      </trkpt>
      <trkpt lat="45.77434" lon="4.81062">
        <ele>211</ele>
        <time>2011-10-16T10:22:14Z</time>
      </trkpt>
      <trkpt lat="45.77437" lon="4.81061">
        <ele>211</ele>
        <time>2011-10-16T10:22:15Z</time>
      </trkpt>
      <trkpt lat="45.7744" lon="4.81061">
        <ele>211</ele>
        <time>2011-10-16T10:22:16Z</time>
      </trkpt>
      <trkpt lat="45.77442" lon="4.81058">
        <ele>211</ele>
        <time>2011-10-16T10:22:17Z</time>
      </trkpt>
      <trkpt lat="45.77446" lon="4.81057">
        <ele>211</ele>
        <time>2011-10-16T10:22:18Z</time>
      </trkpt>
      <trkpt lat="45.77449" lon="4.81056">
        <ele>212</ele>
        <time>2011-10-16T10:22:19Z</time>
      </trkpt>
      <trkpt lat="45.77451" lon="4.81054">
        <ele>212</ele>
        <time>2011-10-16T10:22:20Z</time>
      </trkpt>
      <trkpt lat="45.77454" lon="4.81052">
        <ele>212</ele>
        <time>2011-10-16T10:22:21Z</time>
      </trkpt>
      <trkpt lat="45.77456" lon="4.81049">
        <ele>212</ele>
        <time>2011-10-16T10:22:22Z</time>
      </trkpt>
      <trkpt lat="45.77459" lon="4.81047">
        <ele>213</ele>
        <time>2011-10-16T10:22:23Z</time>
      </trkpt>
      <trkpt lat="45.77461" lon="4.81043">
        <ele>213</ele>
        <time>2011-10-16T10:22:25Z</time>
      </trkpt>
      <trkpt lat="45.77463" lon="4.81041">
        <ele>213</ele>
        <time>2011-10-16T10:22:25Z</time>
      </trkpt>
      <trkpt lat="45.77465" lon="4.81038">
        <ele>214</ele>
        <time>2011-10-16T10:22:26Z</time>
      </trkpt>
      <trkpt lat="45.77468" lon="4.81035">
        <ele>213</ele>
        <time>2011-10-16T10:22:27Z</time>
      </trkpt>
      <trkpt lat="45.77471" lon="4.81034">
        <ele>214</ele>
        <time>2011-10-16T10:22:28Z</time>
      </trkpt>
      <trkpt lat="45.77474" lon="4.81032">
        <ele>213</ele>
        <time>2011-10-16T10:22:29Z</time>
      </trkpt>
      <trkpt lat="45.77477" lon="4.81031">
        <ele>214</ele>
        <time>2011-10-16T10:22:30Z</time>
      </trkpt>
      <trkpt lat="45.7748" lon="4.81028">
        <ele>213</ele>
        <time>2011-10-16T10:22:31Z</time>
      </trkpt>
      <trkpt lat="45.77483" lon="4.81026">
        <ele>213</ele>
        <time>2011-10-16T10:22:32Z</time>
      </trkpt>
      <trkpt lat="45.77486" lon="4.81025">
        <ele>213</ele>
        <time>2011-10-16T10:22:33Z</time>
      </trkpt>
      <trkpt lat="45.7749" lon="4.81026">
        <ele>215</ele>
        <time>2011-10-16T10:22:34Z</time>
      </trkpt>
      <trkpt lat="45.77493" lon="4.81026">
        <ele>216</ele>
        <time>2011-10-16T10:22:35Z</time>
      </trkpt>
      <trkpt lat="45.77497" lon="4.81027">
        <ele>217</ele>
        <time>2011-10-16T10:22:36Z</time>
      </trkpt>
      <trkpt lat="45.77499" lon="4.81026">
        <ele>217</ele>
        <time>2011-10-16T10:22:37Z</time>
      </trkpt>
      <trkpt lat="45.775" lon="4.81024">
        <ele>217</ele>
        <time>2011-10-16T10:22:38Z</time>
      </trkpt>
      <trkpt lat="45.77503" lon="4.81024">
        <ele>218</ele>
        <time>2011-10-16T10:22:39Z</time>
      </trkpt>
      <trkpt lat="45.77506" lon="4.81024">
        <ele>218</ele>
        <time>2011-10-16T10:22:40Z</time>
      </trkpt>
      <trkpt lat="45.77508" lon="4.81023">
        <ele>217</ele>
        <time>2011-10-16T10:22:41Z</time>
      </trkpt>
      <trkpt lat="45.77511" lon="4.81022">
        <ele>217</ele>
        <time>2011-10-16T10:22:42Z</time>
      </trkpt>
      <trkpt lat="45.77514" lon="4.81021">
        <ele>218</ele>
        <time>2011-10-16T10:22:43Z</time>
      </trkpt>
      <trkpt lat="45.77515" lon="4.8102">
        <ele>218</ele>
        <time>2011-10-16T10:22:44Z</time>
      </trkpt>
      <trkpt lat="45.77518" lon="4.81019">
        <ele>218</ele>
        <time>2011-10-16T10:22:45Z</time>
      </trkpt>
      <trkpt lat="45.7752" lon="4.81017">
        <ele>218</ele>
        <time>2011-10-16T10:22:46Z</time>
      </trkpt>
      <trkpt lat="45.77522" lon="4.81015">
        <ele>218</ele>
        <time>2011-10-16T10:22:47Z</time>
      </trkpt>
      <trkpt lat="45.77524" lon="4.81014">
        <ele>219</ele>
        <time>2011-10-16T10:22:48Z</time>
      </trkpt>
      <trkpt lat="45.77527" lon="4.81012">
        <ele>218</ele>
        <time>2011-10-16T10:22:49Z</time>
      </trkpt>
      <trkpt lat="45.7753" lon="4.81013">
        <ele>218</ele>
        <time>2011-10-16T10:22:50Z</time>
      </trkpt>
      <trkpt lat="45.77532" lon="4.81012">
        <ele>218</ele>
        <time>2011-10-16T10:22:51Z</time>
      </trkpt>
      <trkpt lat="45.77534" lon="4.8101">
        <ele>218</ele>
        <time>2011-10-16T10:22:52Z</time>
      </trkpt>
      <trkpt lat="45.77536" lon="4.8101">
        <ele>219</ele>
        <time>2011-10-16T10:22:53Z</time>
      </trkpt>
      <trkpt lat="45.77539" lon="4.8101">
        <ele>219</ele>
        <time>2011-10-16T10:22:54Z</time>
      </trkpt>
      <trkpt lat="45.77542" lon="4.8101">
        <ele>219</ele>
        <time>2011-10-16T10:22:55Z</time>
      </trkpt>
      <trkpt lat="45.77544" lon="4.81008">
        <ele>220</ele>
        <time>2011-10-16T10:22:56Z</time>
      </trkpt>
      <trkpt lat="45.77547" lon="4.81006">
        <ele>221</ele>
        <time>2011-10-16T10:22:58Z</time>
      </trkpt>
      <trkpt lat="45.77551" lon="4.81006">
        <ele>221</ele>
        <time>2011-10-16T10:22:58Z</time>
      </trkpt>
      <trkpt lat="45.77553" lon="4.81005">
        <ele>220</ele>
        <time>2011-10-16T10:22:59Z</time>
      </trkpt>
      <trkpt lat="45.77556" lon="4.81005">
        <ele>220</ele>
        <time>2011-10-16T10:23:00Z</time>
      </trkpt>
      <trkpt lat="45.77559" lon="4.81005">
        <ele>220</ele>
        <time>2011-10-16T10:23:01Z</time>
      </trkpt>
      <trkpt lat="45.77561" lon="4.81006">
        <ele>220</ele>
        <time>2011-10-16T10:23:02Z</time>
      </trkpt>
      <trkpt lat="45.77564" lon="4.81004">
        <ele>219</ele>
        <time>2011-10-16T10:23:03Z</time>
      </trkpt>
      <trkpt lat="45.77567" lon="4.81004">
        <ele>219</ele>
        <time>2011-10-16T10:23:04Z</time>
      </trkpt>
      <trkpt lat="45.77569" lon="4.81005">
        <ele>219</ele>
        <time>2011-10-16T10:23:05Z</time>
      </trkpt>
      <trkpt lat="45.77573" lon="4.81004">
        <ele>220</ele>
        <time>2011-10-16T10:23:06Z</time>
      </trkpt>
      <trkpt lat="45.77576" lon="4.81004">
        <ele>220</ele>
        <time>2011-10-16T10:23:07Z</time>
      </trkpt>
      <trkpt lat="45.77578" lon="4.81004">
        <ele>220</ele>
        <time>2011-10-16T10:23:08Z</time>
      </trkpt>
      <trkpt lat="45.77582" lon="4.81007">
        <ele>219</ele>
        <time>2011-10-16T10:23:09Z</time>
      </trkpt>
      <trkpt lat="45.77584" lon="4.81006">
        <ele>219</ele>
        <time>2011-10-16T10:23:10Z</time>
      </trkpt>
      <trkpt lat="45.77587" lon="4.81006">
        <ele>219</ele>
        <time>2011-10-16T10:23:11Z</time>
      </trkpt>
      <trkpt lat="45.7759" lon="4.81004">
        <ele>219</ele>
        <time>2011-10-16T10:23:12Z</time>
      </trkpt>
      <trkpt lat="45.77593" lon="4.81004">
        <ele>219</ele>
        <time>2011-10-16T10:23:13Z</time>
      </trkpt>
      <trkpt lat="45.77595" lon="4.81003">
        <ele>219</ele>
        <time>2011-10-16T10:23:14Z</time>
      </trkpt>
      <trkpt lat="45.77599" lon="4.81004">
        <ele>219</ele>
        <time>2011-10-16T10:23:15Z</time>
      </trkpt>
      <trkpt lat="45.77603" lon="4.81006">
        <ele>218</ele>
        <time>2011-10-16T10:23:16Z</time>
      </trkpt>
      <trkpt lat="45.77606" lon="4.81006">
        <ele>218</ele>
        <time>2011-10-16T10:23:17Z</time>
      </trkpt>
      <trkpt lat="45.77609" lon="4.81007">
        <ele>218</ele>
        <time>2011-10-16T10:23:18Z</time>
      </trkpt>
      <trkpt lat="45.77613" lon="4.81008">
        <ele>218</ele>
        <time>2011-10-16T10:23:19Z</time>
      </trkpt>
      <trkpt lat="45.77616" lon="4.81009">
        <ele>218</ele>
        <time>2011-10-16T10:23:20Z</time>
      </trkpt>
      <trkpt lat="45.77617" lon="4.81009">
        <ele>218</ele>
        <time>2011-10-16T10:23:21Z</time>
      </trkpt>
      <trkpt lat="45.77619" lon="4.81009">
        <ele>218</ele>
        <time>2011-10-16T10:23:22Z</time>
      </trkpt>
      <trkpt lat="45.77623" lon="4.81011">
        <ele>218</ele>
        <time>2011-10-16T10:23:23Z</time>
      </trkpt>
      <trkpt lat="45.77625" lon="4.8101">
        <ele>218</ele>
        <time>2011-10-16T10:23:24Z</time>
      </trkpt>
      <trkpt lat="45.77628" lon="4.8101">
        <ele>218</ele>
        <time>2011-10-16T10:23:25Z</time>
      </trkpt>
      <trkpt lat="45.77631" lon="4.81009">
        <ele>218</ele>
        <time>2011-10-16T10:23:26Z</time>
      </trkpt>
      <trkpt lat="45.77635" lon="4.81008">
        <ele>218</ele>
        <time>2011-10-16T10:23:27Z</time>
      </trkpt>
      <trkpt lat="45.77637" lon="4.81008">
        <ele>219</ele>
        <time>2011-10-16T10:23:28Z</time>
      </trkpt>
      <trkpt lat="45.7764" lon="4.81007">
        <ele>219</ele>
        <time>2011-10-16T10:23:29Z</time>
      </trkpt>
      <trkpt lat="45.77642" lon="4.81008">
        <ele>220</ele>
        <time>2011-10-16T10:23:30Z</time>
      </trkpt>
      <trkpt lat="45.77646" lon="4.81008">
        <ele>220</ele>
        <time>2011-10-16T10:23:31Z</time>
      </trkpt>
      <trkpt lat="45.77648" lon="4.81009">
        <ele>220</ele>
        <time>2011-10-16T10:23:32Z</time>
      </trkpt>
      <trkpt lat="45.7765" lon="4.81009">
        <ele>221</ele>
        <time>2011-10-16T10:23:33Z</time>
      </trkpt>
      <trkpt lat="45.77654" lon="4.81008">
        <ele>221</ele>
        <time>2011-10-16T10:23:34Z</time>
      </trkpt>
      <trkpt lat="45.77657" lon="4.81009">
        <ele>222</ele>
        <time>2011-10-16T10:23:35Z</time>
      </trkpt>
      <trkpt lat="45.77659" lon="4.8101">
        <ele>222</ele>
        <time>2011-10-16T10:23:37Z</time>
      </trkpt>
      <trkpt lat="45.77662" lon="4.81011">
        <ele>222</ele>
        <time>2011-10-16T10:23:37Z</time>
      </trkpt>
      <trkpt lat="45.77664" lon="4.8101">
        <ele>222</ele>
        <time>2011-10-16T10:23:38Z</time>
      </trkpt>
      <trkpt lat="45.77666" lon="4.81011">
        <ele>222</ele>
        <time>2011-10-16T10:23:39Z</time>
      </trkpt>
      <trkpt lat="45.7767" lon="4.81011">
        <ele>223</ele>
        <time>2011-10-16T10:23:40Z</time>
      </trkpt>
      <trkpt lat="45.77674" lon="4.81013">
        <ele>222</ele>
        <time>2011-10-16T10:23:41Z</time>
      </trkpt>
      <trkpt lat="45.77676" lon="4.81014">
        <ele>224</ele>
        <time>2011-10-16T10:23:42Z</time>
      </trkpt>
      <trkpt lat="45.77679" lon="4.81014">
        <ele>224</ele>
        <time>2011-10-16T10:23:43Z</time>
      </trkpt>
      <trkpt lat="45.77682" lon="4.81015">
        <ele>225</ele>
        <time>2011-10-16T10:23:44Z</time>
      </trkpt>
      <trkpt lat="45.77685" lon="4.81016">
        <ele>224</ele>
        <time>2011-10-16T10:23:45Z</time>
      </trkpt>
      <trkpt lat="45.77688" lon="4.81016">
        <ele>223</ele>
        <time>2011-10-16T10:23:46Z</time>
      </trkpt>
      <trkpt lat="45.77692" lon="4.81017">
        <ele>223</ele>
        <time>2011-10-16T10:23:47Z</time>
      </trkpt>
      <trkpt lat="45.77696" lon="4.81016">
        <ele>223</ele>
        <time>2011-10-16T10:23:48Z</time>
      </trkpt>
      <trkpt lat="45.77699" lon="4.81017">
        <ele>223</ele>
        <time>2011-10-16T10:23:49Z</time>
      </trkpt>
      <trkpt lat="45.77702" lon="4.81017">
        <ele>222</ele>
        <time>2011-10-16T10:23:50Z</time>
      </trkpt>
      <trkpt lat="45.77704" lon="4.81018">
        <ele>222</ele>
        <time>2011-10-16T10:23:51Z</time>
      </trkpt>
      <trkpt lat="45.77706" lon="4.81018">
        <ele>222</ele>
        <time>2011-10-16T10:23:52Z</time>
      </trkpt>
      <trkpt lat="45.77708" lon="4.81019">
        <ele>222</ele>
        <time>2011-10-16T10:23:53Z</time>
      </trkpt>
      <trkpt lat="45.7771" lon="4.81019">
        <ele>223</ele>
        <time>2011-10-16T10:23:54Z</time>
      </trkpt>
      <trkpt lat="45.77712" lon="4.81019">
        <ele>223</ele>
        <time>2011-10-16T10:23:55Z</time>
      </trkpt>
      <trkpt lat="45.77715" lon="4.81019">
        <ele>222</ele>
        <time>2011-10-16T10:23:56Z</time>
      </trkpt>
      <trkpt lat="45.77718" lon="4.8102">
        <ele>222</ele>
        <time>2011-10-16T10:23:57Z</time>
      </trkpt>
      <trkpt lat="45.7772" lon="4.8102">
        <ele>222</ele>
        <time>2011-10-16T10:23:58Z</time>
      </trkpt>
      <trkpt lat="45.77722" lon="4.81021">
        <ele>222</ele>
        <time>2011-10-16T10:23:59Z</time>
      </trkpt>
      <trkpt lat="45.77727" lon="4.81022">
        <ele>220</ele>
        <time>2011-10-16T10:24:00Z</time>
      </trkpt>
      <trkpt lat="45.7773" lon="4.81023">
        <ele>219</ele>
        <time>2011-10-16T10:24:01Z</time>
      </trkpt>
      <trkpt lat="45.77734" lon="4.81024">
        <ele>219</ele>
        <time>2011-10-16T10:24:02Z</time>
      </trkpt>
      <trkpt lat="45.77736" lon="4.81024">
        <ele>219</ele>
        <time>2011-10-16T10:24:03Z</time>
      </trkpt>
      <trkpt lat="45.77739" lon="4.81024">
        <ele>219</ele>
        <time>2011-10-16T10:24:04Z</time>
      </trkpt>
      <trkpt lat="45.77742" lon="4.81023">
        <ele>220</ele>
        <time>2011-10-16T10:24:05Z</time>
      </trkpt>
      <trkpt lat="45.77744" lon="4.81023">
        <ele>220</ele>
        <time>2011-10-16T10:24:06Z</time>
      </trkpt>
      <trkpt lat="45.77748" lon="4.81023">
        <ele>220</ele>
        <time>2011-10-16T10:24:07Z</time>
      </trkpt>
      <trkpt lat="45.77751" lon="4.81023">
        <ele>221</ele>
        <time>2011-10-16T10:24:08Z</time>
      </trkpt>
      <trkpt lat="45.77754" lon="4.81024">
        <ele>220</ele>
        <time>2011-10-16T10:24:09Z</time>
      </trkpt>
      <trkpt lat="45.77758" lon="4.81026">
        <ele>220</ele>
        <time>2011-10-16T10:24:10Z</time>
      </trkpt>
      <trkpt lat="45.77761" lon="4.81024">
        <ele>220</ele>
        <time>2011-10-16T10:24:12Z</time>
      </trkpt>
      <trkpt lat="45.77764" lon="4.81024">
        <ele>220</ele>
        <time>2011-10-16T10:24:12Z</time>
      </trkpt>
      <trkpt lat="45.77768" lon="4.81025">
        <ele>221</ele>
        <time>2011-10-16T10:24:13Z</time>
      </trkpt>
      <trkpt lat="45.77771" lon="4.81029">
        <ele>221</ele>
        <time>2011-10-16T10:24:14Z</time>
      </trkpt>
      <trkpt lat="45.77773" lon="4.8103">
        <ele>221</ele>
        <time>2011-10-16T10:24:15Z</time>
      </trkpt>
      <trkpt lat="45.77775" lon="4.81031">
        <ele>221</ele>
        <time>2011-10-16T10:24:16Z</time>
      </trkpt>
      <trkpt lat="45.77779" lon="4.81032">
        <ele>223</ele>
        <time>2011-10-16T10:24:17Z</time>
      </trkpt>
      <trkpt lat="45.77781" lon="4.81034">
        <ele>223</ele>
        <time>2011-10-16T10:24:18Z</time>
      </trkpt>
      <trkpt lat="45.77784" lon="4.81036">
        <ele>224</ele>
        <time>2011-10-16T10:24:19Z</time>
      </trkpt>
      <trkpt lat="45.77785" lon="4.81037">
        <ele>225</ele>
        <time>2011-10-16T10:24:20Z</time>
      </trkpt>
      <trkpt lat="45.77788" lon="4.81039">
        <ele>226</ele>
        <time>2011-10-16T10:24:21Z</time>
      </trkpt>
      <trkpt lat="45.77792" lon="4.8104">
        <ele>227</ele>
        <time>2011-10-16T10:24:22Z</time>
      </trkpt>
      <trkpt lat="45.77794" lon="4.81041">
        <ele>228</ele>
        <time>2011-10-16T10:24:23Z</time>
      </trkpt>
      <trkpt lat="45.77797" lon="4.81042">
        <ele>228</ele>
        <time>2011-10-16T10:24:24Z</time>
      </trkpt>
      <trkpt lat="45.77799" lon="4.81043">
        <ele>229</ele>
        <time>2011-10-16T10:24:25Z</time>
      </trkpt>
      <trkpt lat="45.77801" lon="4.81045">
        <ele>229</ele>
        <time>2011-10-16T10:24:26Z</time>
      </trkpt>
      <trkpt lat="45.77802" lon="4.81046">
        <ele>228</ele>
        <time>2011-10-16T10:24:27Z</time>
      </trkpt>
      <trkpt lat="45.77807" lon="4.81048">
        <ele>229</ele>
        <time>2011-10-16T10:24:28Z</time>
      </trkpt>
      <trkpt lat="45.7781" lon="4.81049">
        <ele>229</ele>
        <time>2011-10-16T10:24:29Z</time>
      </trkpt>
      <trkpt lat="45.77816" lon="4.81051">
        <ele>230</ele>
        <time>2011-10-16T10:24:30Z</time>
      </trkpt>
      <trkpt lat="45.77817" lon="4.81053">
        <ele>229</ele>
        <time>2011-10-16T10:24:31Z</time>
      </trkpt>
      <trkpt lat="45.7782" lon="4.81054">
        <ele>230</ele>
        <time>2011-10-16T10:24:32Z</time>
      </trkpt>
      <trkpt lat="45.77823" lon="4.81057">
        <ele>229</ele>
        <time>2011-10-16T10:24:33Z</time>
      </trkpt>
      <trkpt lat="45.77826" lon="4.8106">
        <ele>229</ele>
        <time>2011-10-16T10:24:34Z</time>
      </trkpt>
      <trkpt lat="45.77829" lon="4.81063">
        <ele>229</ele>
        <time>2011-10-16T10:24:35Z</time>
      </trkpt>
      <trkpt lat="45.77832" lon="4.81067">
        <ele>229</ele>
        <time>2011-10-16T10:24:36Z</time>
      </trkpt>
      <trkpt lat="45.77836" lon="4.8107">
        <ele>229</ele>
        <time>2011-10-16T10:24:37Z</time>
      </trkpt>
      <trkpt lat="45.77838" lon="4.81074">
        <ele>229</ele>
        <time>2011-10-16T10:24:38Z</time>
      </trkpt>
      <trkpt lat="45.7784" lon="4.81077">
        <ele>228</ele>
        <time>2011-10-16T10:24:39Z</time>
      </trkpt>
      <trkpt lat="45.77845" lon="4.81076">
        <ele>225</ele>
        <time>2011-10-16T10:24:40Z</time>
      </trkpt>
      <trkpt lat="45.77848" lon="4.81076">
        <ele>224</ele>
        <time>2011-10-16T10:24:41Z</time>
      </trkpt>
      <trkpt lat="45.77851" lon="4.81078">
        <ele>224</ele>
        <time>2011-10-16T10:24:42Z</time>
      </trkpt>
      <trkpt lat="45.77854" lon="4.8108">
        <ele>225</ele>
        <time>2011-10-16T10:24:43Z</time>
      </trkpt>
      <trkpt lat="45.77856" lon="4.81083">
        <ele>226</ele>
        <time>2011-10-16T10:24:44Z</time>
      </trkpt>
      <trkpt lat="45.7786" lon="4.81085">
        <ele>226</ele>
        <time>2011-10-16T10:24:45Z</time>
      </trkpt>
      <trkpt lat="45.77862" lon="4.81087">
        <ele>227</ele>
        <time>2011-10-16T10:24:46Z</time>
      </trkpt>
      <trkpt lat="45.77865" lon="4.81089">
        <ele>227</ele>
        <time>2011-10-16T10:24:47Z</time>
      </trkpt>
      <trkpt lat="45.77868" lon="4.8109">
        <ele>226</ele>
        <time>2011-10-16T10:24:48Z</time>
      </trkpt>
      <trkpt lat="45.77872" lon="4.81092">
        <ele>225</ele>
        <time>2011-10-16T10:24:49Z</time>
      </trkpt>
      <trkpt lat="45.77874" lon="4.81094">
        <ele>225</ele>
        <time>2011-10-16T10:24:50Z</time>
      </trkpt>
      <trkpt lat="45.77877" lon="4.81096">
        <ele>225</ele>
        <time>2011-10-16T10:24:51Z</time>
      </trkpt>
      <trkpt lat="45.7788" lon="4.81097">
        <ele>224</ele>
        <time>2011-10-16T10:24:52Z</time>
      </trkpt>
      <trkpt lat="45.77882" lon="4.81099">
        <ele>224</ele>
        <time>2011-10-16T10:24:53Z</time>
      </trkpt>
      <trkpt lat="45.77884" lon="4.81101">
        <ele>223</ele>
        <time>2011-10-16T10:24:55Z</time>
      </trkpt>
      <trkpt lat="45.77886" lon="4.81102">
        <ele>223</ele>
        <time>2011-10-16T10:24:55Z</time>
      </trkpt>
      <trkpt lat="45.7789" lon="4.81105">
        <ele>223</ele>
        <time>2011-10-16T10:24:56Z</time>
      </trkpt>
      <trkpt lat="45.77893" lon="4.81106">
        <ele>223</ele>
        <time>2011-10-16T10:24:57Z</time>
      </trkpt>
      <trkpt lat="45.77895" lon="4.81107">
        <ele>222</ele>
        <time>2011-10-16T10:24:58Z</time>
      </trkpt>
      <trkpt lat="45.77898" lon="4.81109">
        <ele>222</ele>
        <time>2011-10-16T10:24:59Z</time>
      </trkpt>
      <trkpt lat="45.77901" lon="4.81111">
        <ele>222</ele>
        <time>2011-10-16T10:25:00Z</time>
      </trkpt>
      <trkpt lat="45.77904" lon="4.81112">
        <ele>222</ele>
        <time>2011-10-16T10:25:01Z</time>
      </trkpt>
      <trkpt lat="45.77906" lon="4.81113">
        <ele>221</ele>
        <time>2011-10-16T10:25:02Z</time>
      </trkpt>
      <trkpt lat="45.7791" lon="4.81115">
        <ele>221</ele>
        <time>2011-10-16T10:25:03Z</time>
      </trkpt>
      <trkpt lat="45.77912" lon="4.81116">
        <ele>220</ele>
        <time>2011-10-16T10:25:04Z</time>
      </trkpt>
      <trkpt lat="45.77915" lon="4.81117">
        <ele>219</ele>
        <time>2011-10-16T10:25:05Z</time>
      </trkpt>
      <trkpt lat="45.77919" lon="4.81119">
        <ele>219</ele>
        <time>2011-10-16T10:25:06Z</time>
      </trkpt>
      <trkpt lat="45.77921" lon="4.8112">
        <ele>219</ele>
        <time>2011-10-16T10:25:07Z</time>
      </trkpt>
      <trkpt lat="45.77924" lon="4.81121">
        <ele>219</ele>
        <time>2011-10-16T10:25:08Z</time>
      </trkpt>
      <trkpt lat="45.77927" lon="4.81124">
        <ele>218</ele>
        <time>2011-10-16T10:25:09Z</time>
      </trkpt>
      <trkpt lat="45.7793" lon="4.81126">
        <ele>219</ele>
        <time>2011-10-16T10:25:10Z</time>
      </trkpt>
      <trkpt lat="45.77934" lon="4.81127">
        <ele>218</ele>
        <time>2011-10-16T10:25:11Z</time>
      </trkpt>
      <trkpt lat="45.77935" lon="4.81128">
        <ele>218</ele>
        <time>2011-10-16T10:25:12Z</time>
      </trkpt>
      <trkpt lat="45.77937" lon="4.81129">
        <ele>218</ele>
        <time>2011-10-16T10:25:13Z</time>
      </trkpt>
      <trkpt lat="45.77941" lon="4.81128">
        <ele>219</ele>
        <time>2011-10-16T10:25:14Z</time>
      </trkpt>
      <trkpt lat="45.77943" lon="4.8113">
        <ele>218</ele>
        <time>2011-10-16T10:25:15Z</time>
      </trkpt>
      <trkpt lat="45.77946" lon="4.8113">
        <ele>219</ele>
        <time>2011-10-16T10:25:16Z</time>
      </trkpt>
      <trkpt lat="45.77949" lon="4.81132">
        <ele>219</ele>
        <time>2011-10-16T10:25:17Z</time>
      </trkpt>
      <trkpt lat="45.77951" lon="4.81133">
        <ele>219</ele>
        <time>2011-10-16T10:25:18Z</time>
      </trkpt>
      <trkpt lat="45.77954" lon="4.81134">
        <ele>219</ele>
        <time>2011-10-16T10:25:19Z</time>
      </trkpt>
      <trkpt lat="45.77957" lon="4.81134">
        <ele>219</ele>
        <time>2011-10-16T10:25:20Z</time>
      </trkpt>
      <trkpt lat="45.77959" lon="4.81134">
        <ele>220</ele>
        <time>2011-10-16T10:25:21Z</time>
      </trkpt>
      <trkpt lat="45.77962" lon="4.81135">
        <ele>220</ele>
        <time>2011-10-16T10:25:22Z</time>
      </trkpt>
      <trkpt lat="45.77965" lon="4.81136">
        <ele>221</ele>
        <time>2011-10-16T10:25:23Z</time>
      </trkpt>
      <trkpt lat="45.77968" lon="4.81138">
        <ele>220</ele>
        <time>2011-10-16T10:25:24Z</time>
      </trkpt>
      <trkpt lat="45.77971" lon="4.81139">
        <ele>220</ele>
        <time>2011-10-16T10:25:25Z</time>
      </trkpt>
      <trkpt lat="45.77973" lon="4.81142">
        <ele>220</ele>
        <time>2011-10-16T10:25:26Z</time>
      </trkpt>
      <trkpt lat="45.77977" lon="4.81142">
        <ele>219</ele>
        <time>2011-10-16T10:25:27Z</time>
      </trkpt>
      <trkpt lat="45.7798" lon="4.81143">
        <ele>219</ele>
        <time>2011-10-16T10:25:28Z</time>
      </trkpt>
      <trkpt lat="45.77983" lon="4.81144">
        <ele>219</ele>
        <time>2011-10-16T10:25:29Z</time>
      </trkpt>
      <trkpt lat="45.77986" lon="4.81145">
        <ele>219</ele>
        <time>2011-10-16T10:25:30Z</time>
      </trkpt>
      <trkpt lat="45.77988" lon="4.81147">
        <ele>218</ele>
        <time>2011-10-16T10:25:31Z</time>
      </trkpt>
      <trkpt lat="45.77991" lon="4.81148">
        <ele>218</ele>
        <time>2011-10-16T10:25:32Z</time>
      </trkpt>
      <trkpt lat="45.77995" lon="4.81149">
        <ele>218</ele>
        <time>2011-10-16T10:25:34Z</time>
      </trkpt>
      <trkpt lat="45.77998" lon="4.81149">
        <ele>218</ele>
        <time>2011-10-16T10:25:34Z</time>
      </trkpt>
      <trkpt lat="45.78001" lon="4.81149">
        <ele>218</ele>
        <time>2011-10-16T10:25:35Z</time>
      </trkpt>
      <trkpt lat="45.78003" lon="4.8115">
        <ele>218</ele>
        <time>2011-10-16T10:25:36Z</time>
      </trkpt>
      <trkpt lat="45.78006" lon="4.81151">
        <ele>218</ele>
        <time>2011-10-16T10:25:37Z</time>
      </trkpt>
      <trkpt lat="45.78009" lon="4.81153">
        <ele>217</ele>
        <time>2011-10-16T10:25:38Z</time>
      </trkpt>
      <trkpt lat="45.78012" lon="4.81155">
        <ele>217</ele>
        <time>2011-10-16T10:25:39Z</time>
      </trkpt>
      <trkpt lat="45.78015" lon="4.81157">
        <ele>217</ele>
        <time>2011-10-16T10:25:40Z</time>
      </trkpt>
      <trkpt lat="45.78018" lon="4.81158">
        <ele>217</ele>
        <time>2011-10-16T10:25:41Z</time>
      </trkpt>
      <trkpt lat="45.78021" lon="4.81159">
        <ele>217</ele>
        <time>2011-10-16T10:25:42Z</time>
      </trkpt>
      <trkpt lat="45.78023" lon="4.81161">
        <ele>217</ele>
        <time>2011-10-16T10:25:43Z</time>
      </trkpt>
      <trkpt lat="45.78026" lon="4.81161">
        <ele>217</ele>
        <time>2011-10-16T10:25:44Z</time>
      </trkpt>
      <trkpt lat="45.78028" lon="4.81163">
        <ele>217</ele>
        <time>2011-10-16T10:25:45Z</time>
      </trkpt>
      <trkpt lat="45.7803" lon="4.81164">
        <ele>217</ele>
        <time>2011-10-16T10:25:46Z</time>
      </trkpt>
      <trkpt lat="45.78033" lon="4.81166">
        <ele>217</ele>
        <time>2011-10-16T10:25:47Z</time>
      </trkpt>
      <trkpt lat="45.78035" lon="4.81168">
        <ele>217</ele>
        <time>2011-10-16T10:25:48Z</time>
      </trkpt>
      <trkpt lat="45.78038" lon="4.81171">
        <ele>217</ele>
        <time>2011-10-16T10:25:49Z</time>
      </trkpt>
      <trkpt lat="45.78041" lon="4.81174">
        <ele>216</ele>
        <time>2011-10-16T10:25:50Z</time>
      </trkpt>
      <trkpt lat="45.78043" lon="4.81175">
        <ele>216</ele>
        <time>2011-10-16T10:25:51Z</time>
      </trkpt>
      <trkpt lat="45.78046" lon="4.81178">
        <ele>215</ele>
        <time>2011-10-16T10:25:52Z</time>
      </trkpt>
      <trkpt lat="45.78049" lon="4.81179">
        <ele>215</ele>
        <time>2011-10-16T10:25:53Z</time>
      </trkpt>
      <trkpt lat="45.78051" lon="4.81181">
        <ele>215</ele>
        <time>2011-10-16T10:25:54Z</time>
      </trkpt>
      <trkpt lat="45.78055" lon="4.81183">
        <ele>214</ele>
        <time>2011-10-16T10:25:55Z</time>
      </trkpt>
      <trkpt lat="45.78058" lon="4.81184">
        <ele>214</ele>
        <time>2011-10-16T10:25:56Z</time>
      </trkpt>
      <trkpt lat="45.7806" lon="4.81186">
        <ele>214</ele>
        <time>2011-10-16T10:25:57Z</time>
      </trkpt>
      <trkpt lat="45.78065" lon="4.81188">
        <ele>215</ele>
        <time>2011-10-16T10:25:58Z</time>
      </trkpt>
      <trkpt lat="45.78067" lon="4.81189">
        <ele>215</ele>
        <time>2011-10-16T10:25:59Z</time>
      </trkpt>
      <trkpt lat="45.78069" lon="4.81191">
        <ele>216</ele>
        <time>2011-10-16T10:26:00Z</time>
      </trkpt>
      <trkpt lat="45.78072" lon="4.81193">
        <ele>216</ele>
        <time>2011-10-16T10:26:01Z</time>
      </trkpt>
      <trkpt lat="45.78074" lon="4.81194">
        <ele>216</ele>
        <time>2011-10-16T10:26:02Z</time>
      </trkpt>
      <trkpt lat="45.78076" lon="4.81196">
        <ele>216</ele>
        <time>2011-10-16T10:26:03Z</time>
      </trkpt>
      <trkpt lat="45.78079" lon="4.81197">
        <ele>216</ele>
        <time>2011-10-16T10:26:04Z</time>
      </trkpt>
      <trkpt lat="45.78081" lon="4.81198">
        <ele>216</ele>
        <time>2011-10-16T10:26:05Z</time>
      </trkpt>
      <trkpt lat="45.78084" lon="4.81201">
        <ele>217</ele>
        <time>2011-10-16T10:26:06Z</time>
      </trkpt>
      <trkpt lat="45.78087" lon="4.81203">
        <ele>217</ele>
        <time>2011-10-16T10:26:07Z</time>
      </trkpt>
      <trkpt lat="45.78089" lon="4.81205">
        <ele>216</ele>
        <time>2011-10-16T10:26:08Z</time>
      </trkpt>
      <trkpt lat="45.78091" lon="4.81207">
        <ele>217</ele>
        <time>2011-10-16T10:26:09Z</time>
      </trkpt>
      <trkpt lat="45.78094" lon="4.81209">
        <ele>217</ele>
        <time>2011-10-16T10:26:10Z</time>
      </trkpt>
      <trkpt lat="45.78097" lon="4.81211">
        <ele>216</ele>
        <time>2011-10-16T10:26:11Z</time>
      </trkpt>
      <trkpt lat="45.78099" lon="4.81212">
        <ele>216</ele>
        <time>2011-10-16T10:26:12Z</time>
      </trkpt>
      <trkpt lat="45.78102" lon="4.81214">
        <ele>217</ele>
        <time>2011-10-16T10:26:13Z</time>
      </trkpt>
      <trkpt lat="45.78105" lon="4.81215">
        <ele>218</ele>
        <time>2011-10-16T10:26:14Z</time>
      </trkpt>
      <trkpt lat="45.78107" lon="4.81216">
        <ele>219</ele>
        <time>2011-10-16T10:26:15Z</time>
      </trkpt>
      <trkpt lat="45.7811" lon="4.81217">
        <ele>219</ele>
        <time>2011-10-16T10:26:16Z</time>
      </trkpt>
      <trkpt lat="45.78111" lon="4.81218">
        <ele>219</ele>
        <time>2011-10-16T10:26:17Z</time>
      </trkpt>
      <trkpt lat="45.78115" lon="4.81218">
        <ele>220</ele>
        <time>2011-10-16T10:26:18Z</time>
      </trkpt>
      <trkpt lat="45.78117" lon="4.81219">
        <ele>220</ele>
        <time>2011-10-16T10:26:19Z</time>
      </trkpt>
      <trkpt lat="45.7812" lon="4.8122">
        <ele>220</ele>
        <time>2011-10-16T10:26:20Z</time>
      </trkpt>
      <trkpt lat="45.78122" lon="4.81222">
        <ele>220</ele>
        <time>2011-10-16T10:26:21Z</time>
      </trkpt>
      <trkpt lat="45.78125" lon="4.81224">
        <ele>220</ele>
        <time>2011-10-16T10:26:22Z</time>
      </trkpt>
      <trkpt lat="45.78127" lon="4.81227">
        <ele>220</ele>
        <time>2011-10-16T10:26:23Z</time>
      </trkpt>
      <trkpt lat="45.7813" lon="4.8123">
        <ele>219</ele>
        <time>2011-10-16T10:26:24Z</time>
      </trkpt>
      <trkpt lat="45.78133" lon="4.81231">
        <ele>219</ele>
        <time>2011-10-16T10:26:25Z</time>
      </trkpt>
      <trkpt lat="45.78135" lon="4.81234">
        <ele>219</ele>
        <time>2011-10-16T10:26:26Z</time>
      </trkpt>
      <trkpt lat="45.78138" lon="4.81236">
        <ele>219</ele>
        <time>2011-10-16T10:26:27Z</time>
      </trkpt>
      <trkpt lat="45.78139" lon="4.8124">
        <ele>219</ele>
        <time>2011-10-16T10:26:28Z</time>
      </trkpt>
      <trkpt lat="45.78141" lon="4.81242">
        <ele>218</ele>
        <time>2011-10-16T10:26:29Z</time>
      </trkpt>
      <trkpt lat="45.78142" lon="4.81246">
        <ele>218</ele>
        <time>2011-10-16T10:26:30Z</time>
      </trkpt>
      <trkpt lat="45.78145" lon="4.81248">
        <ele>218</ele>
        <time>2011-10-16T10:26:31Z</time>
      </trkpt>
      <trkpt lat="45.78147" lon="4.81252">
        <ele>218</ele>
        <time>2011-10-16T10:26:32Z</time>
      </trkpt>
      <trkpt lat="45.7815" lon="4.81254">
        <ele>216</ele>
        <time>2011-10-16T10:26:33Z</time>
      </trkpt>
      <trkpt lat="45.78153" lon="4.81256">
        <ele>216</ele>
        <time>2011-10-16T10:26:34Z</time>
      </trkpt>
      <trkpt lat="45.78155" lon="4.81258">
        <ele>217</ele>
        <time>2011-10-16T10:26:35Z</time>
      </trkpt>
      <trkpt lat="45.78157" lon="4.8126">
        <ele>216</ele>
        <time>2011-10-16T10:26:36Z</time>
      </trkpt>
      <trkpt lat="45.7816" lon="4.81262">
        <ele>216</ele>
        <time>2011-10-16T10:26:37Z</time>
      </trkpt>
      <trkpt lat="45.78161" lon="4.81263">
        <ele>216</ele>
        <time>2011-10-16T10:26:38Z</time>
      </trkpt>
      <trkpt lat="45.78164" lon="4.81265">
        <ele>215</ele>
        <time>2011-10-16T10:26:39Z</time>
      </trkpt>
      <trkpt lat="45.78167" lon="4.81267">
        <ele>215</ele>
        <time>2011-10-16T10:26:40Z</time>
      </trkpt>
      <trkpt lat="45.78169" lon="4.81269">
        <ele>215</ele>
        <time>2011-10-16T10:26:41Z</time>
      </trkpt>
      <trkpt lat="45.78171" lon="4.81271">
        <ele>215</ele>
        <time>2011-10-16T10:26:42Z</time>
      </trkpt>
      <trkpt lat="45.78175" lon="4.81273">
        <ele>215</ele>
        <time>2011-10-16T10:26:43Z</time>
      </trkpt>
      <trkpt lat="45.78178" lon="4.81275">
        <ele>215</ele>
        <time>2011-10-16T10:26:44Z</time>
      </trkpt>
      <trkpt lat="45.7818" lon="4.81277">
        <ele>215</ele>
        <time>2011-10-16T10:26:45Z</time>
      </trkpt>
      <trkpt lat="45.78183" lon="4.81279">
        <ele>215</ele>
        <time>2011-10-16T10:26:46Z</time>
      </trkpt>
      <trkpt lat="45.78186" lon="4.81282">
        <ele>215</ele>
        <time>2011-10-16T10:26:47Z</time>
      </trkpt>
      <trkpt lat="45.78189" lon="4.81283">
        <ele>215</ele>
        <time>2011-10-16T10:26:48Z</time>
      </trkpt>
      <trkpt lat="45.78192" lon="4.81286">
        <ele>215</ele>
        <time>2011-10-16T10:26:49Z</time>
      </trkpt>
      <trkpt lat="45.78195" lon="4.81289">
        <ele>215</ele>
        <time>2011-10-16T10:26:50Z</time>
      </trkpt>
      <trkpt lat="45.78196" lon="4.8129">
        <ele>215</ele>
        <time>2011-10-16T10:26:51Z</time>
      </trkpt>
      <trkpt lat="45.78199" lon="4.81293">
        <ele>215</ele>
        <time>2011-10-16T10:26:52Z</time>
      </trkpt>
      <trkpt lat="45.78201" lon="4.81296">
        <ele>215</ele>
        <time>2011-10-16T10:26:53Z</time>
      </trkpt>
      <trkpt lat="45.78204" lon="4.81299">
        <ele>214</ele>
        <time>2011-10-16T10:26:54Z</time>
      </trkpt>
      <trkpt lat="45.78206" lon="4.81302">
        <ele>214</ele>
        <time>2011-10-16T10:26:55Z</time>
      </trkpt>
      <trkpt lat="45.78207" lon="4.81305">
        <ele>214</ele>
        <time>2011-10-16T10:26:56Z</time>
      </trkpt>
      <trkpt lat="45.78209" lon="4.81308">
        <ele>213</ele>
        <time>2011-10-16T10:26:57Z</time>
      </trkpt>
      <trkpt lat="45.78213" lon="4.81312">
        <ele>213</ele>
        <time>2011-10-16T10:26:58Z</time>
      </trkpt>
      <trkpt lat="45.78216" lon="4.81314">
        <ele>213</ele>
        <time>2011-10-16T10:26:59Z</time>
      </trkpt>
      <trkpt lat="45.78218" lon="4.81317">
        <ele>213</ele>
        <time>2011-10-16T10:27:00Z</time>
      </trkpt>
      <trkpt lat="45.7822" lon="4.81319">
        <ele>213</ele>
        <time>2011-10-16T10:27:01Z</time>
      </trkpt>
      <trkpt lat="45.78223" lon="4.81321">
        <ele>213</ele>
        <time>2011-10-16T10:27:02Z</time>
      </trkpt>
      <trkpt lat="45.78226" lon="4.81322">
        <ele>213</ele>
        <time>2011-10-16T10:27:03Z</time>
      </trkpt>
      <trkpt lat="45.78228" lon="4.81325">
        <ele>213</ele>
        <time>2011-10-16T10:27:04Z</time>
      </trkpt>
      <trkpt lat="45.7823" lon="4.81327">
        <ele>213</ele>
        <time>2011-10-16T10:27:05Z</time>
      </trkpt>
      <trkpt lat="45.78234" lon="4.81329">
        <ele>213</ele>
        <time>2011-10-16T10:27:06Z</time>
      </trkpt>
      <trkpt lat="45.78236" lon="4.8133">
        <ele>214</ele>
        <time>2011-10-16T10:27:07Z</time>
      </trkpt>
      <trkpt lat="45.78239" lon="4.81332">
        <ele>214</ele>
        <time>2011-10-16T10:27:08Z</time>
      </trkpt>
      <trkpt lat="45.78242" lon="4.81333">
        <ele>215</ele>
        <time>2011-10-16T10:27:09Z</time>
      </trkpt>
      <trkpt lat="45.78245" lon="4.81335">
        <ele>216</ele>
        <time>2011-10-16T10:27:10Z</time>
      </trkpt>
      <trkpt lat="45.78246" lon="4.81336">
        <ele>216</ele>
        <time>2011-10-16T10:27:11Z</time>
      </trkpt>
      <trkpt lat="45.78249" lon="4.81337">
        <ele>216</ele>
        <time>2011-10-16T10:27:12Z</time>
      </trkpt>
      <trkpt lat="45.78252" lon="4.81339">
        <ele>215</ele>
        <time>2011-10-16T10:27:13Z</time>
      </trkpt>
      <trkpt lat="45.78255" lon="4.81342">
        <ele>215</ele>
        <time>2011-10-16T10:27:14Z</time>
      </trkpt>
      <trkpt lat="45.78258" lon="4.81344">
        <ele>216</ele>
        <time>2011-10-16T10:27:15Z</time>
      </trkpt>
      <trkpt lat="45.7826" lon="4.81346">
        <ele>216</ele>
        <time>2011-10-16T10:27:16Z</time>
      </trkpt>
      <trkpt lat="45.78263" lon="4.81349">
        <ele>216</ele>
        <time>2011-10-16T10:27:17Z</time>
      </trkpt>
      <trkpt lat="45.78264" lon="4.81351">
        <ele>216</ele>
        <time>2011-10-16T10:27:18Z</time>
      </trkpt>
      <trkpt lat="45.78267" lon="4.81351">
        <ele>216</ele>
        <time>2011-10-16T10:27:19Z</time>
      </trkpt>
      <trkpt lat="45.78269" lon="4.81354">
        <ele>215</ele>
        <time>2011-10-16T10:27:20Z</time>
      </trkpt>
      <trkpt lat="45.78271" lon="4.81356">
        <ele>216</ele>
        <time>2011-10-16T10:27:21Z</time>
      </trkpt>
      <trkpt lat="45.78273" lon="4.81358">
        <ele>216</ele>
        <time>2011-10-16T10:27:22Z</time>
      </trkpt>
      <trkpt lat="45.78276" lon="4.8136">
        <ele>216</ele>
        <time>2011-10-16T10:27:23Z</time>
      </trkpt>
      <trkpt lat="45.78278" lon="4.81362">
        <ele>217</ele>
        <time>2011-10-16T10:27:24Z</time>
      </trkpt>
      <trkpt lat="45.7828" lon="4.81365">
        <ele>216</ele>
        <time>2011-10-16T10:27:25Z</time>
      </trkpt>
      <trkpt lat="45.78281" lon="4.81366">
        <ele>217</ele>
        <time>2011-10-16T10:27:26Z</time>
      </trkpt>
      <trkpt lat="45.78284" lon="4.81369">
        <ele>217</ele>
        <time>2011-10-16T10:27:27Z</time>
      </trkpt>
      <trkpt lat="45.78287" lon="4.81372">
        <ele>216</ele>
        <time>2011-10-16T10:27:28Z</time>
      </trkpt>
      <trkpt lat="45.78289" lon="4.81373">
        <ele>217</ele>
        <time>2011-10-16T10:27:29Z</time>
      </trkpt>
      <trkpt lat="45.78292" lon="4.81376">
        <ele>217</ele>
        <time>2011-10-16T10:27:30Z</time>
      </trkpt>
      <trkpt lat="45.78295" lon="4.81378">
        <ele>217</ele>
        <time>2011-10-16T10:27:31Z</time>
      </trkpt>
      <trkpt lat="45.78299" lon="4.8138">
        <ele>217</ele>
        <time>2011-10-16T10:27:32Z</time>
      </trkpt>
      <trkpt lat="45.78301" lon="4.81383">
        <ele>218</ele>
        <time>2011-10-16T10:27:33Z</time>
      </trkpt>
      <trkpt lat="45.78303" lon="4.81386">
        <ele>218</ele>
        <time>2011-10-16T10:27:34Z</time>
      </trkpt>
      <trkpt lat="45.78305" lon="4.81387">
        <ele>218</ele>
        <time>2011-10-16T10:27:35Z</time>
      </trkpt>
      <trkpt lat="45.78307" lon="4.81388">
        <ele>219</ele>
        <time>2011-10-16T10:27:36Z</time>
      </trkpt>
      <trkpt lat="45.78309" lon="4.81392">
        <ele>217</ele>
        <time>2011-10-16T10:27:37Z</time>
      </trkpt>
      <trkpt lat="45.78311" lon="4.81395">
        <ele>217</ele>
        <time>2011-10-16T10:27:38Z</time>
      </trkpt>
      <trkpt lat="45.78313" lon="4.81398">
        <ele>217</ele>
        <time>2011-10-16T10:27:39Z</time>
      </trkpt>
      <trkpt lat="45.78316" lon="4.814">
        <ele>217</ele>
        <time>2011-10-16T10:27:40Z</time>
      </trkpt>
      <trkpt lat="45.78318" lon="4.81403">
        <ele>216</ele>
        <time>2011-10-16T10:27:41Z</time>
      </trkpt>
      <trkpt lat="45.78322" lon="4.81406">
        <ele>216</ele>
        <time>2011-10-16T10:27:42Z</time>
      </trkpt>
      <trkpt lat="45.78324" lon="4.81408">
        <ele>215</ele>
        <time>2011-10-16T10:27:43Z</time>
      </trkpt>
      <trkpt lat="45.78327" lon="4.81411">
        <ele>215</ele>
        <time>2011-10-16T10:27:44Z</time>
      </trkpt>
      <trkpt lat="45.7833" lon="4.81413">
        <ele>215</ele>
        <time>2011-10-16T10:27:45Z</time>
      </trkpt>
      <trkpt lat="45.78332" lon="4.81415">
        <ele>215</ele>
        <time>2011-10-16T10:27:46Z</time>
      </trkpt>
      <trkpt lat="45.78334" lon="4.81418">
        <ele>215</ele>
        <time>2011-10-16T10:27:47Z</time>
      </trkpt>
      <trkpt lat="45.78336" lon="4.81421">
        <ele>214</ele>
        <time>2011-10-16T10:27:49Z</time>
      </trkpt>
      <trkpt lat="45.78337" lon="4.81422">
        <ele>214</ele>
        <time>2011-10-16T10:27:49Z</time>
      </trkpt>
      <trkpt lat="45.78341" lon="4.81425">
        <ele>214</ele>
        <time>2011-10-16T10:27:50Z</time>
      </trkpt>
      <trkpt lat="45.78344" lon="4.81428">
        <ele>214</ele>
        <time>2011-10-16T10:27:51Z</time>
      </trkpt>
      <trkpt lat="45.78346" lon="4.81431">
        <ele>214</ele>
        <time>2011-10-16T10:27:52Z</time>
      </trkpt>
      <trkpt lat="45.78348" lon="4.81433">
        <ele>214</ele>
        <time>2011-10-16T10:27:53Z</time>
      </trkpt>
      <trkpt lat="45.78351" lon="4.81437">
        <ele>214</ele>
        <time>2011-10-16T10:27:54Z</time>
      </trkpt>
      <trkpt lat="45.78353" lon="4.81438">
        <ele>214</ele>
        <time>2011-10-16T10:27:55Z</time>
      </trkpt>
      <trkpt lat="45.78355" lon="4.81442">
        <ele>214</ele>
        <time>2011-10-16T10:27:56Z</time>
      </trkpt>
      <trkpt lat="45.78359" lon="4.81443">
        <ele>214</ele>
        <time>2011-10-16T10:27:57Z</time>
      </trkpt>
      <trkpt lat="45.78361" lon="4.81444">
        <ele>214</ele>
        <time>2011-10-16T10:27:58Z</time>
      </trkpt>
      <trkpt lat="45.78363" lon="4.81445">
        <ele>215</ele>
        <time>2011-10-16T10:27:59Z</time>
      </trkpt>
      <trkpt lat="45.78366" lon="4.81446">
        <ele>215</ele>
        <time>2011-10-16T10:28:00Z</time>
      </trkpt>
      <trkpt lat="45.78369" lon="4.81447">
        <ele>215</ele>
        <time>2011-10-16T10:28:01Z</time>
      </trkpt>
      <trkpt lat="45.78372" lon="4.81451">
        <ele>215</ele>
        <time>2011-10-16T10:28:02Z</time>
      </trkpt>
      <trkpt lat="45.78375" lon="4.81454">
        <ele>215</ele>
        <time>2011-10-16T10:28:03Z</time>
      </trkpt>
      <trkpt lat="45.78378" lon="4.81457">
        <ele>215</ele>
        <time>2011-10-16T10:28:04Z</time>
      </trkpt>
      <trkpt lat="45.78381" lon="4.81459">
        <ele>214</ele>
        <time>2011-10-16T10:28:05Z</time>
      </trkpt>
      <trkpt lat="45.78383" lon="4.81463">
        <ele>214</ele>
        <time>2011-10-16T10:28:06Z</time>
      </trkpt>
      <trkpt lat="45.78386" lon="4.81466">
        <ele>214</ele>
        <time>2011-10-16T10:28:07Z</time>
      </trkpt>
      <trkpt lat="45.78388" lon="4.81466">
        <ele>215</ele>
        <time>2011-10-16T10:28:08Z</time>
      </trkpt>
      <trkpt lat="45.78392" lon="4.81468">
        <ele>217</ele>
        <time>2011-10-16T10:28:09Z</time>
      </trkpt>
      <trkpt lat="45.78395" lon="4.81469">
        <ele>217</ele>
        <time>2011-10-16T10:28:10Z</time>
      </trkpt>
      <trkpt lat="45.78398" lon="4.8147">
        <ele>218</ele>
        <time>2011-10-16T10:28:11Z</time>
      </trkpt>
      <trkpt lat="45.78401" lon="4.81471">
        <ele>219</ele>
        <time>2011-10-16T10:28:12Z</time>
      </trkpt>
      <trkpt lat="45.78403" lon="4.81473">
        <ele>218</ele>
        <time>2011-10-16T10:28:13Z</time>
      </trkpt>
      <trkpt lat="45.78405" lon="4.81475">
        <ele>217</ele>
        <time>2011-10-16T10:28:14Z</time>
      </trkpt>
      <trkpt lat="45.78407" lon="4.81477">
        <ele>217</ele>
        <time>2011-10-16T10:28:15Z</time>
      </trkpt>
      <trkpt lat="45.7841" lon="4.81479">
        <ele>217</ele>
        <time>2011-10-16T10:28:16Z</time>
      </trkpt>
      <trkpt lat="45.78412" lon="4.81481">
        <ele>218</ele>
        <time>2011-10-16T10:28:17Z</time>
      </trkpt>
      <trkpt lat="45.78414" lon="4.81483">
        <ele>218</ele>
        <time>2011-10-16T10:28:18Z</time>
      </trkpt>
      <trkpt lat="45.78417" lon="4.81485">
        <ele>218</ele>
        <time>2011-10-16T10:28:19Z</time>
      </trkpt>
      <trkpt lat="45.78419" lon="4.81487">
        <ele>218</ele>
        <time>2011-10-16T10:28:20Z</time>
      </trkpt>
      <trkpt lat="45.78421" lon="4.81488">
        <ele>219</ele>
        <time>2011-10-16T10:28:21Z</time>
      </trkpt>
      <trkpt lat="45.78424" lon="4.81489">
        <ele>219</ele>
        <time>2011-10-16T10:28:22Z</time>
      </trkpt>
      <trkpt lat="45.78427" lon="4.8149">
        <ele>219</ele>
        <time>2011-10-16T10:28:23Z</time>
      </trkpt>
      <trkpt lat="45.78429" lon="4.81492">
        <ele>218</ele>
        <time>2011-10-16T10:28:24Z</time>
      </trkpt>
      <trkpt lat="45.78433" lon="4.81496">
        <ele>217</ele>
        <time>2011-10-16T10:28:25Z</time>
      </trkpt>
      <trkpt lat="45.78435" lon="4.81498">
        <ele>217</ele>
        <time>2011-10-16T10:28:26Z</time>
      </trkpt>
      <trkpt lat="45.78437" lon="4.81501">
        <ele>217</ele>
        <time>2011-10-16T10:28:27Z</time>
      </trkpt>
      <trkpt lat="45.7844" lon="4.81505">
        <ele>216</ele>
        <time>2011-10-16T10:28:29Z</time>
      </trkpt>
      <trkpt lat="45.78441" lon="4.81507">
        <ele>216</ele>
        <time>2011-10-16T10:28:29Z</time>
      </trkpt>
      <trkpt lat="45.78444" lon="4.81511">
        <ele>216</ele>
        <time>2011-10-16T10:28:30Z</time>
      </trkpt>
      <trkpt lat="45.78446" lon="4.81514">
        <ele>216</ele>
        <time>2011-10-16T10:28:31Z</time>
      </trkpt>
      <trkpt lat="45.78448" lon="4.81518">
        <ele>215</ele>
        <time>2011-10-16T10:28:32Z</time>
      </trkpt>
      <trkpt lat="45.7845" lon="4.8152">
        <ele>215</ele>
        <time>2011-10-16T10:28:33Z</time>
      </trkpt>
      <trkpt lat="45.78453" lon="4.81523">
        <ele>215</ele>
        <time>2011-10-16T10:28:34Z</time>
      </trkpt>
      <trkpt lat="45.78456" lon="4.81526">
        <ele>215</ele>
        <time>2011-10-16T10:28:35Z</time>
      </trkpt>
      <trkpt lat="45.78458" lon="4.81529">
        <ele>215</ele>
        <time>2011-10-16T10:28:36Z</time>
      </trkpt>
      <trkpt lat="45.78461" lon="4.81531">
        <ele>215</ele>
        <time>2011-10-16T10:28:37Z</time>
      </trkpt>
      <trkpt lat="45.78462" lon="4.81533">
        <ele>216</ele>
        <time>2011-10-16T10:28:38Z</time>
      </trkpt>
      <trkpt lat="45.78464" lon="4.81534">
        <ele>216</ele>
        <time>2011-10-16T10:28:39Z</time>
      </trkpt>
      <trkpt lat="45.78469" lon="4.81533">
        <ele>219</ele>
        <time>2011-10-16T10:28:40Z</time>
      </trkpt>
      <trkpt lat="45.78471" lon="4.81535">
        <ele>220</ele>
        <time>2011-10-16T10:28:41Z</time>
      </trkpt>
      <trkpt lat="45.78473" lon="4.81536">
        <ele>221</ele>
        <time>2011-10-16T10:28:42Z</time>
      </trkpt>
      <trkpt lat="45.78476" lon="4.81539">
        <ele>222</ele>
        <time>2011-10-16T10:28:43Z</time>
      </trkpt>
      <trkpt lat="45.78478" lon="4.81541">
        <ele>223</ele>
        <time>2011-10-16T10:28:44Z</time>
      </trkpt>
      <trkpt lat="45.7848" lon="4.81544">
        <ele>223</ele>
        <time>2011-10-16T10:28:45Z</time>
      </trkpt>
      <trkpt lat="45.78482" lon="4.81547">
        <ele>224</ele>
        <time>2011-10-16T10:28:46Z</time>
      </trkpt>
      <trkpt lat="45.78484" lon="4.81549">
        <ele>223</ele>
        <time>2011-10-16T10:28:47Z</time>
      </trkpt>
      <trkpt lat="45.78486" lon="4.81551">
        <ele>223</ele>
        <time>2011-10-16T10:28:48Z</time>
      </trkpt>
      <trkpt lat="45.78488" lon="4.81554">
        <ele>223</ele>
        <time>2011-10-16T10:28:49Z</time>
      </trkpt>
      <trkpt lat="45.78492" lon="4.81555">
        <ele>223</ele>
        <time>2011-10-16T10:28:50Z</time>
      </trkpt>
      <trkpt lat="45.78495" lon="4.81557">
        <ele>223</ele>
        <time>2011-10-16T10:28:51Z</time>
      </trkpt>
      <trkpt lat="45.78497" lon="4.8156">
        <ele>223</ele>
        <time>2011-10-16T10:28:52Z</time>
      </trkpt>
      <trkpt lat="45.785" lon="4.81562">
        <ele>222</ele>
        <time>2011-10-16T10:28:53Z</time>
      </trkpt>
      <trkpt lat="45.78503" lon="4.81564">
        <ele>222</ele>
        <time>2011-10-16T10:28:54Z</time>
      </trkpt>
      <trkpt lat="45.78507" lon="4.81564">
        <ele>223</ele>
        <time>2011-10-16T10:28:55Z</time>
      </trkpt>
      <trkpt lat="45.78509" lon="4.81566">
        <ele>223</ele>
        <time>2011-10-16T10:28:56Z</time>
      </trkpt>
      <trkpt lat="45.78512" lon="4.81569">
        <ele>223</ele>
        <time>2011-10-16T10:28:57Z</time>
      </trkpt>
      <trkpt lat="45.78515" lon="4.8157">
        <ele>223</ele>
        <time>2011-10-16T10:28:58Z</time>
      </trkpt>
      <trkpt lat="45.78517" lon="4.81573">
        <ele>222</ele>
        <time>2011-10-16T10:28:59Z</time>
      </trkpt>
      <trkpt lat="45.78521" lon="4.81576">
        <ele>222</ele>
        <time>2011-10-16T10:29:00Z</time>
      </trkpt>
      <trkpt lat="45.78523" lon="4.81578">
        <ele>222</ele>
        <time>2011-10-16T10:29:01Z</time>
      </trkpt>
      <trkpt lat="45.78526" lon="4.81581">
        <ele>222</ele>
        <time>2011-10-16T10:29:02Z</time>
      </trkpt>
      <trkpt lat="45.78528" lon="4.81584">
        <ele>222</ele>
        <time>2011-10-16T10:29:03Z</time>
      </trkpt>
      <trkpt lat="45.78531" lon="4.81586">
        <ele>221</ele>
        <time>2011-10-16T10:29:04Z</time>
      </trkpt>
      <trkpt lat="45.78533" lon="4.81588">
        <ele>221</ele>
        <time>2011-10-16T10:29:06Z</time>
      </trkpt>
      <trkpt lat="45.78535" lon="4.8159">
        <ele>221</ele>
        <time>2011-10-16T10:29:06Z</time>
      </trkpt>
      <trkpt lat="45.78538" lon="4.81592">
        <ele>221</ele>
        <time>2011-10-16T10:29:07Z</time>
      </trkpt>
      <trkpt lat="45.78541" lon="4.81593">
        <ele>221</ele>
        <time>2011-10-16T10:29:08Z</time>
      </trkpt>
      <trkpt lat="45.78543" lon="4.81594">
        <ele>221</ele>
        <time>2011-10-16T10:29:09Z</time>
      </trkpt>
      <trkpt lat="45.78546" lon="4.81595">
        <ele>221</ele>
        <time>2011-10-16T10:29:10Z</time>
      </trkpt>
      <trkpt lat="45.7855" lon="4.81598">
        <ele>221</ele>
        <time>2011-10-16T10:29:11Z</time>
      </trkpt>
      <trkpt lat="45.78553" lon="4.816">
        <ele>221</ele>
        <time>2011-10-16T10:29:12Z</time>
      </trkpt>
      <trkpt lat="45.78555" lon="4.81602">
        <ele>220</ele>
        <time>2011-10-16T10:29:13Z</time>
      </trkpt>
      <trkpt lat="45.78558" lon="4.81604">
        <ele>220</ele>
        <time>2011-10-16T10:29:14Z</time>
      </trkpt>
      <trkpt lat="45.7856" lon="4.81606">
        <ele>220</ele>
        <time>2011-10-16T10:29:15Z</time>
      </trkpt>
      <trkpt lat="45.78563" lon="4.81608">
        <ele>219</ele>
        <time>2011-10-16T10:29:16Z</time>
      </trkpt>
      <trkpt lat="45.78565" lon="4.8161">
        <ele>219</ele>
        <time>2011-10-16T10:29:17Z</time>
      </trkpt>
      <trkpt lat="45.78568" lon="4.81612">
        <ele>220</ele>
        <time>2011-10-16T10:29:18Z</time>
      </trkpt>
      <trkpt lat="45.7857" lon="4.81614">
        <ele>219</ele>
        <time>2011-10-16T10:29:19Z</time>
      </trkpt>
      <trkpt lat="45.78574" lon="4.81615">
        <ele>219</ele>
        <time>2011-10-16T10:29:20Z</time>
      </trkpt>
      <trkpt lat="45.78575" lon="4.81617">
        <ele>219</ele>
        <time>2011-10-16T10:29:21Z</time>
      </trkpt>
      <trkpt lat="45.7858" lon="4.8162">
        <ele>218</ele>
        <time>2011-10-16T10:29:22Z</time>
      </trkpt>
      <trkpt lat="45.78581" lon="4.81623">
        <ele>218</ele>
        <time>2011-10-16T10:29:23Z</time>
      </trkpt>
      <trkpt lat="45.78584" lon="4.81625">
        <ele>218</ele>
        <time>2011-10-16T10:29:24Z</time>
      </trkpt>
      <trkpt lat="45.78587" lon="4.81624">
        <ele>218</ele>
        <time>2011-10-16T10:29:25Z</time>
      </trkpt>
      <trkpt lat="45.78589" lon="4.81625">
        <ele>218</ele>
        <time>2011-10-16T10:29:26Z</time>
      </trkpt>
      <trkpt lat="45.78591" lon="4.81627">
        <ele>218</ele>
        <time>2011-10-16T10:29:27Z</time>
      </trkpt>
      <trkpt lat="45.78594" lon="4.81627">
        <ele>218</ele>
        <time>2011-10-16T10:29:28Z</time>
      </trkpt>
      <trkpt lat="45.78596" lon="4.81629">
        <ele>218</ele>
        <time>2011-10-16T10:29:29Z</time>
      </trkpt>
      <trkpt lat="45.78599" lon="4.81629">
        <ele>219</ele>
        <time>2011-10-16T10:29:30Z</time>
      </trkpt>
      <trkpt lat="45.78601" lon="4.81631">
        <ele>219</ele>
        <time>2011-10-16T10:29:31Z</time>
      </trkpt>
      <trkpt lat="45.78603" lon="4.81631">
        <ele>219</ele>
        <time>2011-10-16T10:29:32Z</time>
      </trkpt>
      <trkpt lat="45.78606" lon="4.81634">
        <ele>219</ele>
        <time>2011-10-16T10:29:33Z</time>
      </trkpt>
      <trkpt lat="45.78609" lon="4.81636">
        <ele>218</ele>
        <time>2011-10-16T10:29:34Z</time>
      </trkpt>
      <trkpt lat="45.78611" lon="4.81636">
        <ele>220</ele>
        <time>2011-10-16T10:29:35Z</time>
      </trkpt>
      <trkpt lat="45.78614" lon="4.81637">
        <ele>220</ele>
        <time>2011-10-16T10:29:36Z</time>
      </trkpt>
      <trkpt lat="45.78617" lon="4.81639">
        <ele>220</ele>
        <time>2011-10-16T10:29:37Z</time>
      </trkpt>
      <trkpt lat="45.7862" lon="4.8164">
        <ele>221</ele>
        <time>2011-10-16T10:29:38Z</time>
      </trkpt>
      <trkpt lat="45.78621" lon="4.81643">
        <ele>220</ele>
        <time>2011-10-16T10:29:39Z</time>
      </trkpt>
      <trkpt lat="45.78624" lon="4.81644">
        <ele>220</ele>
        <time>2011-10-16T10:29:40Z</time>
      </trkpt>
      <trkpt lat="45.78626" lon="4.81646">
        <ele>220</ele>
        <time>2011-10-16T10:29:41Z</time>
      </trkpt>
      <trkpt lat="45.78629" lon="4.81649">
        <ele>220</ele>
        <time>2011-10-16T10:29:42Z</time>
      </trkpt>
      <trkpt lat="45.78631" lon="4.81651">
        <ele>220</ele>
        <time>2011-10-16T10:29:43Z</time>
      </trkpt>
      <trkpt lat="45.78634" lon="4.81653">
        <ele>219</ele>
        <time>2011-10-16T10:29:45Z</time>
      </trkpt>
      <trkpt lat="45.78636" lon="4.81656">
        <ele>219</ele>
        <time>2011-10-16T10:29:45Z</time>
      </trkpt>
      <trkpt lat="45.78639" lon="4.81658">
        <ele>220</ele>
        <time>2011-10-16T10:29:46Z</time>
      </trkpt>
      <trkpt lat="45.78642" lon="4.81659">
        <ele>220</ele>
        <time>2011-10-16T10:29:47Z</time>
      </trkpt>
      <trkpt lat="45.78645" lon="4.8166">
        <ele>220</ele>
        <time>2011-10-16T10:29:48Z</time>
      </trkpt>
      <trkpt lat="45.78648" lon="4.81662">
        <ele>221</ele>
        <time>2011-10-16T10:29:49Z</time>
      </trkpt>
      <trkpt lat="45.7865" lon="4.81664">
        <ele>221</ele>
        <time>2011-10-16T10:29:50Z</time>
      </trkpt>
      <trkpt lat="45.78653" lon="4.81665">
        <ele>221</ele>
        <time>2011-10-16T10:29:51Z</time>
      </trkpt>
      <trkpt lat="45.78655" lon="4.81666">
        <ele>221</ele>
        <time>2011-10-16T10:29:52Z</time>
      </trkpt>
      <trkpt lat="45.78657" lon="4.81668">
        <ele>221</ele>
        <time>2011-10-16T10:29:53Z</time>
      </trkpt>
      <trkpt lat="45.7866" lon="4.8167">
        <ele>220</ele>
        <time>2011-10-16T10:29:54Z</time>
      </trkpt>
      <trkpt lat="45.78662" lon="4.81672">
        <ele>220</ele>
        <time>2011-10-16T10:29:55Z</time>
      </trkpt>
      <trkpt lat="45.78664" lon="4.81673">
        <ele>220</ele>
        <time>2011-10-16T10:29:56Z</time>
      </trkpt>
      <trkpt lat="45.78666" lon="4.81675">
        <ele>220</ele>
        <time>2011-10-16T10:29:57Z</time>
      </trkpt>
      <trkpt lat="45.78669" lon="4.81676">
        <ele>220</ele>
        <time>2011-10-16T10:29:58Z</time>
      </trkpt>
      <trkpt lat="45.78671" lon="4.81678">
        <ele>220</ele>
        <time>2011-10-16T10:29:59Z</time>
      </trkpt>
      <trkpt lat="45.78673" lon="4.8168">
        <ele>220</ele>
        <time>2011-10-16T10:30:00Z</time>
      </trkpt>
      <trkpt lat="45.78676" lon="4.81681">
        <ele>220</ele>
        <time>2011-10-16T10:30:01Z</time>
      </trkpt>
      <trkpt lat="45.78678" lon="4.81684">
        <ele>220</ele>
        <time>2011-10-16T10:30:02Z</time>
      </trkpt>
      <trkpt lat="45.7868" lon="4.81686">
        <ele>220</ele>
        <time>2011-10-16T10:30:03Z</time>
      </trkpt>
      <trkpt lat="45.78684" lon="4.81687">
        <ele>221</ele>
        <time>2011-10-16T10:30:04Z</time>
      </trkpt>
      <trkpt lat="45.78687" lon="4.81689">
        <ele>220</ele>
        <time>2011-10-16T10:30:05Z</time>
      </trkpt>
      <trkpt lat="45.7869" lon="4.81692">
        <ele>220</ele>
        <time>2011-10-16T10:30:06Z</time>
      </trkpt>
      <trkpt lat="45.78693" lon="4.81695">
        <ele>220</ele>
        <time>2011-10-16T10:30:07Z</time>
      </trkpt>
      <trkpt lat="45.78694" lon="4.81697">
        <ele>220</ele>
        <time>2011-10-16T10:30:08Z</time>
      </trkpt>
      <trkpt lat="45.78697" lon="4.81701">
        <ele>221</ele>
        <time>2011-10-16T10:30:09Z</time>
      </trkpt>
      <trkpt lat="45.78699" lon="4.81703">
        <ele>220</ele>
        <time>2011-10-16T10:30:10Z</time>
      </trkpt>
      <trkpt lat="45.78702" lon="4.81707">
        <ele>219</ele>
        <time>2011-10-16T10:30:11Z</time>
      </trkpt>
      <trkpt lat="45.78704" lon="4.81711">
        <ele>218</ele>
        <time>2011-10-16T10:30:12Z</time>
      </trkpt>
      <trkpt lat="45.78705" lon="4.81714">
        <ele>217</ele>
        <time>2011-10-16T10:30:13Z</time>
      </trkpt>
      <trkpt lat="45.78707" lon="4.81717">
        <ele>217</ele>
        <time>2011-10-16T10:30:14Z</time>
      </trkpt>
      <trkpt lat="45.78709" lon="4.8172">
        <ele>216</ele>
        <time>2011-10-16T10:30:15Z</time>
      </trkpt>
      <trkpt lat="45.78711" lon="4.81722">
        <ele>216</ele>
        <time>2011-10-16T10:30:16Z</time>
      </trkpt>
      <trkpt lat="45.78712" lon="4.81725">
        <ele>216</ele>
        <time>2011-10-16T10:30:17Z</time>
      </trkpt>
      <trkpt lat="45.78714" lon="4.81728">
        <ele>215</ele>
        <time>2011-10-16T10:30:18Z</time>
      </trkpt>
      <trkpt lat="45.78716" lon="4.8173">
        <ele>214</ele>
        <time>2011-10-16T10:30:19Z</time>
      </trkpt>
      <trkpt lat="45.78719" lon="4.81734">
        <ele>213</ele>
        <time>2011-10-16T10:30:20Z</time>
      </trkpt>
      <trkpt lat="45.78721" lon="4.81736">
        <ele>213</ele>
        <time>2011-10-16T10:30:21Z</time>
      </trkpt>
      <trkpt lat="45.78723" lon="4.81739">
        <ele>213</ele>
        <time>2011-10-16T10:30:22Z</time>
      </trkpt>
      <trkpt lat="45.78724" lon="4.81741">
        <ele>213</ele>
        <time>2011-10-16T10:30:23Z</time>
      </trkpt>
      <trkpt lat="45.78726" lon="4.81744">
        <ele>213</ele>
        <time>2011-10-16T10:30:24Z</time>
      </trkpt>
      <trkpt lat="45.78728" lon="4.81747">
        <ele>213</ele>
        <time>2011-10-16T10:30:25Z</time>
      </trkpt>
      <trkpt lat="45.7873" lon="4.81749">
        <ele>213</ele>
        <time>2011-10-16T10:30:26Z</time>
      </trkpt>
      <trkpt lat="45.78732" lon="4.81752">
        <ele>213</ele>
        <time>2011-10-16T10:30:28Z</time>
      </trkpt>
      <trkpt lat="45.78733" lon="4.81753">
        <ele>212.37013244629</ele>
        <time>2011-10-16T10:30:28Z</time>
      </trkpt>
      <trkpt lat="45.78738" lon="4.81756">
        <ele>214</ele>
        <time>2011-10-16T10:30:29Z</time>
      </trkpt>
      <trkpt lat="45.78741" lon="4.81759">
        <ele>215</ele>
        <time>2011-10-16T10:30:30Z</time>
      </trkpt>
      <trkpt lat="45.78743" lon="4.81762">
        <ele>215</ele>
        <time>2011-10-16T10:30:31Z</time>
      </trkpt>
      <trkpt lat="45.78745" lon="4.81764">
        <ele>215</ele>
        <time>2011-10-16T10:30:32Z</time>
      </trkpt>
      <trkpt lat="45.78746" lon="4.81766">
        <ele>215</ele>
        <time>2011-10-16T10:30:33Z</time>
      </trkpt>
      <trkpt lat="45.78749" lon="4.81767">
        <ele>215</ele>
        <time>2011-10-16T10:30:34Z</time>
      </trkpt>
      <trkpt lat="45.7875" lon="4.8177">
        <ele>215</ele>
        <time>2011-10-16T10:30:35Z</time>
      </trkpt>
      <trkpt lat="45.78752" lon="4.81772">
        <ele>216</ele>
        <time>2011-10-16T10:30:36Z</time>
      </trkpt>
      <trkpt lat="45.78753" lon="4.81776">
        <ele>216</ele>
        <time>2011-10-16T10:30:37Z</time>
      </trkpt>
      <trkpt lat="45.78755" lon="4.81778">
        <ele>216</ele>
        <time>2011-10-16T10:30:38Z</time>
      </trkpt>
      <trkpt lat="45.78757" lon="4.81781">
        <ele>216</ele>
        <time>2011-10-16T10:30:39Z</time>
      </trkpt>
      <trkpt lat="45.78759" lon="4.81783">
        <ele>216</ele>
        <time>2011-10-16T10:30:40Z</time>
      </trkpt>
      <trkpt lat="45.78761" lon="4.81786">
        <ele>216</ele>
        <time>2011-10-16T10:30:41Z</time>
      </trkpt>
      <trkpt lat="45.78763" lon="4.8179">
        <ele>215</ele>
        <time>2011-10-16T10:30:42Z</time>
      </trkpt>
      <trkpt lat="45.78766" lon="4.81793">
        <ele>213</ele>
        <time>2011-10-16T10:30:43Z</time>
      </trkpt>
      <trkpt lat="45.78769" lon="4.81796">
        <ele>212</ele>
        <time>2011-10-16T10:30:44Z</time>
      </trkpt>
      <trkpt lat="45.78771" lon="4.81798">
        <ele>211</ele>
        <time>2011-10-16T10:30:45Z</time>
      </trkpt>
      <trkpt lat="45.78773" lon="4.81801">
        <ele>211</ele>
        <time>2011-10-16T10:30:46Z</time>
      </trkpt>
      <trkpt lat="45.78774" lon="4.81804">
        <ele>211</ele>
        <time>2011-10-16T10:30:47Z</time>
      </trkpt>
      <trkpt lat="45.78776" lon="4.81806">
        <ele>210</ele>
        <time>2011-10-16T10:30:48Z</time>
      </trkpt>
      <trkpt lat="45.78779" lon="4.81808">
        <ele>210</ele>
        <time>2011-10-16T10:30:49Z</time>
      </trkpt>
      <trkpt lat="45.78781" lon="4.81812">
        <ele>209</ele>
        <time>2011-10-16T10:30:50Z</time>
      </trkpt>
      <trkpt lat="45.78783" lon="4.81814">
        <ele>209</ele>
        <time>2011-10-16T10:30:51Z</time>
      </trkpt>
      <trkpt lat="45.78786" lon="4.81817">
        <ele>209</ele>
        <time>2011-10-16T10:30:52Z</time>
      </trkpt>
      <trkpt lat="45.78788" lon="4.81819">
        <ele>209</ele>
        <time>2011-10-16T10:30:53Z</time>
      </trkpt>
      <trkpt lat="45.78789" lon="4.81822">
        <ele>209</ele>
        <time>2011-10-16T10:30:54Z</time>
      </trkpt>
      <trkpt lat="45.78792" lon="4.81823">
        <ele>209</ele>
        <time>2011-10-16T10:30:55Z</time>
      </trkpt>
      <trkpt lat="45.78794" lon="4.81826">
        <ele>208</ele>
        <time>2011-10-16T10:30:56Z</time>
      </trkpt>
      <trkpt lat="45.78795" lon="4.81827">
        <ele>209</ele>
        <time>2011-10-16T10:30:57Z</time>
      </trkpt>
      <trkpt lat="45.78797" lon="4.81829">
        <ele>209</ele>
        <time>2011-10-16T10:30:58Z</time>
      </trkpt>
      <trkpt lat="45.788" lon="4.81831">
        <ele>209</ele>
        <time>2011-10-16T10:30:59Z</time>
      </trkpt>
      <trkpt lat="45.78802" lon="4.81834">
        <ele>210</ele>
        <time>2011-10-16T10:31:00Z</time>
      </trkpt>
      <trkpt lat="45.78804" lon="4.81836">
        <ele>210</ele>
        <time>2011-10-16T10:31:01Z</time>
      </trkpt>
      <trkpt lat="45.78806" lon="4.81839">
        <ele>210</ele>
        <time>2011-10-16T10:31:02Z</time>
      </trkpt>
      <trkpt lat="45.78808" lon="4.81841">
        <ele>210</ele>
        <time>2011-10-16T10:31:04Z</time>
      </trkpt>
      <trkpt lat="45.78809" lon="4.81843">
        <ele>210</ele>
        <time>2011-10-16T10:31:04Z</time>
      </trkpt>
      <trkpt lat="45.78811" lon="4.81846">
        <ele>210</ele>
        <time>2011-10-16T10:31:05Z</time>
      </trkpt>
      <trkpt lat="45.78812" lon="4.81848">
        <ele>210</ele>
        <time>2011-10-16T10:31:06Z</time>
      </trkpt>
      <trkpt lat="45.78815" lon="4.81849">
        <ele>211</ele>
        <time>2011-10-16T10:31:07Z</time>
      </trkpt>
      <trkpt lat="45.78817" lon="4.81851">
        <ele>211</ele>
        <time>2011-10-16T10:31:08Z</time>
      </trkpt>
      <trkpt lat="45.78819" lon="4.81854">
        <ele>212</ele>
        <time>2011-10-16T10:31:09Z</time>
      </trkpt>
      <trkpt lat="45.78823" lon="4.81856">
        <ele>213</ele>
        <time>2011-10-16T10:31:10Z</time>
      </trkpt>
      <trkpt lat="45.78825" lon="4.81858">
        <ele>214</ele>
        <time>2011-10-16T10:31:11Z</time>
      </trkpt>
      <trkpt lat="45.78827" lon="4.8186">
        <ele>214</ele>
        <time>2011-10-16T10:31:12Z</time>
      </trkpt>
      <trkpt lat="45.7883" lon="4.81862">
        <ele>215</ele>
        <time>2011-10-16T10:31:13Z</time>
      </trkpt>
      <trkpt lat="45.78833" lon="4.81864">
        <ele>215</ele>
        <time>2011-10-16T10:31:14Z</time>
      </trkpt>
      <trkpt lat="45.78835" lon="4.81866">
        <ele>216</ele>
        <time>2011-10-16T10:31:15Z</time>
      </trkpt>
      <trkpt lat="45.78837" lon="4.81869">
        <ele>217</ele>
        <time>2011-10-16T10:31:16Z</time>
      </trkpt>
      <trkpt lat="45.78839" lon="4.81871">
        <ele>216</ele>
        <time>2011-10-16T10:31:17Z</time>
      </trkpt>
      <trkpt lat="45.78843" lon="4.81873">
        <ele>217</ele>
        <time>2011-10-16T10:31:18Z</time>
      </trkpt>
      <trkpt lat="45.78846" lon="4.81875">
        <ele>218</ele>
        <time>2011-10-16T10:31:19Z</time>
      </trkpt>
      <trkpt lat="45.78848" lon="4.81878">
        <ele>218</ele>
        <time>2011-10-16T10:31:20Z</time>
      </trkpt>
      <trkpt lat="45.78851" lon="4.8188">
        <ele>219</ele>
        <time>2011-10-16T10:31:21Z</time>
      </trkpt>
      <trkpt lat="45.78852" lon="4.81882">
        <ele>219</ele>
        <time>2011-10-16T10:31:22Z</time>
      </trkpt>
      <trkpt lat="45.78854" lon="4.81884">
        <ele>219</ele>
        <time>2011-10-16T10:31:23Z</time>
      </trkpt>
      <trkpt lat="45.78855" lon="4.81887">
        <ele>218</ele>
        <time>2011-10-16T10:31:24Z</time>
      </trkpt>
      <trkpt lat="45.78857" lon="4.81889">
        <ele>218</ele>
        <time>2011-10-16T10:31:25Z</time>
      </trkpt>
      <trkpt lat="45.78859" lon="4.81891">
        <ele>218</ele>
        <time>2011-10-16T10:31:26Z</time>
      </trkpt>
      <trkpt lat="45.78861" lon="4.81893">
        <ele>218</ele>
        <time>2011-10-16T10:31:27Z</time>
      </trkpt>
      <trkpt lat="45.78863" lon="4.81896">
        <ele>219</ele>
        <time>2011-10-16T10:31:28Z</time>
      </trkpt>
      <trkpt lat="45.78866" lon="4.81899">
        <ele>218</ele>
        <time>2011-10-16T10:31:29Z</time>
      </trkpt>
      <trkpt lat="45.78868" lon="4.81904">
        <ele>216</ele>
        <time>2011-10-16T10:31:30Z</time>
      </trkpt>
      <trkpt lat="45.78871" lon="4.81906">
        <ele>215</ele>
        <time>2011-10-16T10:31:31Z</time>
      </trkpt>
      <trkpt lat="45.78874" lon="4.81908">
        <ele>215</ele>
        <time>2011-10-16T10:31:32Z</time>
      </trkpt>
      <trkpt lat="45.78876" lon="4.81914">
        <ele>216</ele>
        <time>2011-10-16T10:31:33Z</time>
      </trkpt>
      <trkpt lat="45.78877" lon="4.81916">
        <ele>216</ele>
        <time>2011-10-16T10:31:34Z</time>
      </trkpt>
      <trkpt lat="45.78879" lon="4.81919">
        <ele>216</ele>
        <time>2011-10-16T10:31:35Z</time>
      </trkpt>
      <trkpt lat="45.78879" lon="4.81923">
        <ele>216</ele>
        <time>2011-10-16T10:31:36Z</time>
      </trkpt>
      <trkpt lat="45.78881" lon="4.81926">
        <ele>216</ele>
        <time>2011-10-16T10:31:37Z</time>
      </trkpt>
      <trkpt lat="45.78882" lon="4.81929">
        <ele>216</ele>
        <time>2011-10-16T10:31:38Z</time>
      </trkpt>
      <trkpt lat="45.78884" lon="4.8193">
        <ele>216</ele>
        <time>2011-10-16T10:31:39Z</time>
      </trkpt>
      <trkpt lat="45.78884" lon="4.81932">
        <ele>217</ele>
        <time>2011-10-16T10:31:40Z</time>
      </trkpt>
      <trkpt lat="45.78885" lon="4.81935">
        <ele>217</ele>
        <time>2011-10-16T10:31:41Z</time>
      </trkpt>
      <trkpt lat="45.78886" lon="4.81938">
        <ele>217</ele>
        <time>2011-10-16T10:31:42Z</time>
      </trkpt>
      <trkpt lat="45.78888" lon="4.8194">
        <ele>217</ele>
        <time>2011-10-16T10:31:43Z</time>
      </trkpt>
      <trkpt lat="45.78889" lon="4.81943">
        <ele>217</ele>
        <time>2011-10-16T10:31:44Z</time>
      </trkpt>
      <trkpt lat="45.78891" lon="4.81945">
        <ele>217</ele>
        <time>2011-10-16T10:31:45Z</time>
      </trkpt>
      <trkpt lat="45.78892" lon="4.81946">
        <ele>218</ele>
        <time>2011-10-16T10:31:46Z</time>
      </trkpt>
      <trkpt lat="45.78895" lon="4.81947">
        <ele>218</ele>
        <time>2011-10-16T10:31:48Z</time>
      </trkpt>
      <trkpt lat="45.78896" lon="4.8195">
        <ele>218</ele>
        <time>2011-10-16T10:31:48Z</time>
      </trkpt>
      <trkpt lat="45.78899" lon="4.81952">
        <ele>219</ele>
        <time>2011-10-16T10:31:49Z</time>
      </trkpt>
      <trkpt lat="45.78901" lon="4.81954">
        <ele>219</ele>
        <time>2011-10-16T10:31:50Z</time>
      </trkpt>
      <trkpt lat="45.78903" lon="4.81956">
        <ele>220</ele>
        <time>2011-10-16T10:31:51Z</time>
      </trkpt>
      <trkpt lat="45.78906" lon="4.81959">
        <ele>220</ele>
        <time>2011-10-16T10:31:52Z</time>
      </trkpt>
      <trkpt lat="45.78908" lon="4.81961">
        <ele>220</ele>
        <time>2011-10-16T10:31:53Z</time>
      </trkpt>
      <trkpt lat="45.78911" lon="4.81963">
        <ele>220</ele>
        <time>2011-10-16T10:31:54Z</time>
      </trkpt>
      <trkpt lat="45.78913" lon="4.81967">
        <ele>220</ele>
        <time>2011-10-16T10:31:55Z</time>
      </trkpt>
      <trkpt lat="45.78915" lon="4.81969">
        <ele>220</ele>
        <time>2011-10-16T10:31:56Z</time>
      </trkpt>
      <trkpt lat="45.78917" lon="4.81972">
        <ele>220</ele>
        <time>2011-10-16T10:31:57Z</time>
      </trkpt>
      <trkpt lat="45.78919" lon="4.81974">
        <ele>220</ele>
        <time>2011-10-16T10:31:58Z</time>
      </trkpt>
      <trkpt lat="45.78922" lon="4.81978">
        <ele>220</ele>
        <time>2011-10-16T10:31:59Z</time>
      </trkpt>
      <trkpt lat="45.78928" lon="4.81982">
        <ele>219</ele>
        <time>2011-10-16T10:32:00Z</time>
      </trkpt>
      <trkpt lat="45.7893" lon="4.81984">
        <ele>219</ele>
        <time>2011-10-16T10:32:01Z</time>
      </trkpt>
      <trkpt lat="45.78932" lon="4.81987">
        <ele>218</ele>
        <time>2011-10-16T10:32:02Z</time>
      </trkpt>
      <trkpt lat="45.78933" lon="4.8199">
        <ele>218</ele>
        <time>2011-10-16T10:32:03Z</time>
      </trkpt>
      <trkpt lat="45.78935" lon="4.81993">
        <ele>218</ele>
        <time>2011-10-16T10:32:04Z</time>
      </trkpt>
      <trkpt lat="45.78938" lon="4.81996">
        <ele>218</ele>
        <time>2011-10-16T10:32:05Z</time>
      </trkpt>
      <trkpt lat="45.7894" lon="4.81997">
        <ele>218</ele>
        <time>2011-10-16T10:32:06Z</time>
      </trkpt>
      <trkpt lat="45.78942" lon="4.82">
        <ele>218</ele>
        <time>2011-10-16T10:32:07Z</time>
      </trkpt>
      <trkpt lat="45.78943" lon="4.82003">
        <ele>218</ele>
        <time>2011-10-16T10:32:08Z</time>
      </trkpt>
      <trkpt lat="45.78945" lon="4.82005">
        <ele>218</ele>
        <time>2011-10-16T10:32:09Z</time>
      </trkpt>
      <trkpt lat="45.78948" lon="4.82007">
        <ele>218</ele>
        <time>2011-10-16T10:32:10Z</time>
      </trkpt>
      <trkpt lat="45.78949" lon="4.82011">
        <ele>218</ele>
        <time>2011-10-16T10:32:11Z</time>
      </trkpt>
      <trkpt lat="45.78951" lon="4.82013">
        <ele>218</ele>
        <time>2011-10-16T10:32:12Z</time>
      </trkpt>
      <trkpt lat="45.78953" lon="4.82015">
        <ele>219</ele>
        <time>2011-10-16T10:32:13Z</time>
      </trkpt>
      <trkpt lat="45.78956" lon="4.82019">
        <ele>218</ele>
        <time>2011-10-16T10:32:14Z</time>
      </trkpt>
      <trkpt lat="45.78959" lon="4.82022">
        <ele>218</ele>
        <time>2011-10-16T10:32:15Z</time>
      </trkpt>
      <trkpt lat="45.7896" lon="4.82026">
        <ele>218</ele>
        <time>2011-10-16T10:32:16Z</time>
      </trkpt>
      <trkpt lat="45.78963" lon="4.82028">
        <ele>220</ele>
        <time>2011-10-16T10:32:17Z</time>
      </trkpt>
      <trkpt lat="45.78965" lon="4.8203">
        <ele>221</ele>
        <time>2011-10-16T10:32:18Z</time>
      </trkpt>
      <trkpt lat="45.78966" lon="4.82033">
        <ele>221</ele>
        <time>2011-10-16T10:32:19Z</time>
      </trkpt>
      <trkpt lat="45.78969" lon="4.82035">
        <ele>221</ele>
        <time>2011-10-16T10:32:20Z</time>
      </trkpt>
      <trkpt lat="45.7897" lon="4.82038">
        <ele>221</ele>
        <time>2011-10-16T10:32:21Z</time>
      </trkpt>
      <trkpt lat="45.78972" lon="4.82041">
        <ele>220</ele>
        <time>2011-10-16T10:32:22Z</time>
      </trkpt>
      <trkpt lat="45.78974" lon="4.82043">
        <ele>220</ele>
        <time>2011-10-16T10:32:23Z</time>
      </trkpt>
      <trkpt lat="45.78975" lon="4.82044">
        <ele>220</ele>
        <time>2011-10-16T10:32:24Z</time>
      </trkpt>
      <trkpt lat="45.78977" lon="4.82047">
        <ele>220</ele>
        <time>2011-10-16T10:32:25Z</time>
      </trkpt>
      <trkpt lat="45.78978" lon="4.82046">
        <ele>219</ele>
        <time>2011-10-16T10:32:26Z</time>
      </trkpt>
      <trkpt lat="45.78979" lon="4.82047">
        <ele>219</ele>
        <time>2011-10-16T10:32:27Z</time>
      </trkpt>
      <trkpt lat="45.78979" lon="4.82047">
        <ele>219</ele>
        <time>2011-10-16T10:32:28Z</time>
      </trkpt>
      <trkpt lat="45.7898" lon="4.82047">
        <ele>219</ele>
        <time>2011-10-16T10:32:29Z</time>
      </trkpt>
      <trkpt lat="45.78981" lon="4.82048">
        <ele>218</ele>
        <time>2011-10-16T10:32:30Z</time>
      </trkpt>
      <trkpt lat="45.78982" lon="4.82049">
        <ele>218</ele>
        <time>2011-10-16T10:32:31Z</time>
      </trkpt>
      <trkpt lat="45.78984" lon="4.82049">
        <ele>219</ele>
        <time>2011-10-16T10:32:33Z</time>
      </trkpt>
      <trkpt lat="45.78985" lon="4.82049">
        <ele>219</ele>
        <time>2011-10-16T10:32:33Z</time>
      </trkpt>
      <trkpt lat="45.78986" lon="4.8205">
        <ele>219</ele>
        <time>2011-10-16T10:32:34Z</time>
      </trkpt>
      <trkpt lat="45.78986" lon="4.8205">
        <ele>219</ele>
        <time>2011-10-16T10:32:35Z</time>
      </trkpt>
      <trkpt lat="45.78986" lon="4.82051">
        <ele>219</ele>
        <time>2011-10-16T10:32:36Z</time>
      </trkpt>
      <trkpt lat="45.78988" lon="4.82051">
        <ele>219</ele>
        <time>2011-10-16T10:32:37Z</time>
      </trkpt>
      <trkpt lat="45.78989" lon="4.82053">
        <ele>219</ele>
        <time>2011-10-16T10:32:38Z</time>
      </trkpt>
      <trkpt lat="45.7899" lon="4.82053">
        <ele>219</ele>
        <time>2011-10-16T10:32:39Z</time>
      </trkpt>
      <trkpt lat="45.78991" lon="4.82054">
        <ele>219</ele>
        <time>2011-10-16T10:32:40Z</time>
      </trkpt>
      <trkpt lat="45.78992" lon="4.82055">
        <ele>219</ele>
        <time>2011-10-16T10:32:41Z</time>
      </trkpt>
      <trkpt lat="45.78994" lon="4.82057">
        <ele>221</ele>
        <time>2011-10-16T10:32:42Z</time>
      </trkpt>
      <trkpt lat="45.78996" lon="4.82059">
        <ele>221</ele>
        <time>2011-10-16T10:32:43Z</time>
      </trkpt>
      <trkpt lat="45.78997" lon="4.8206">
        <ele>222</ele>
        <time>2011-10-16T10:32:44Z</time>
      </trkpt>
      <trkpt lat="45.78998" lon="4.8206">
        <ele>222</ele>
        <time>2011-10-16T10:32:45Z</time>
      </trkpt>
      <trkpt lat="45.78999" lon="4.82061">
        <ele>222</ele>
        <time>2011-10-16T10:32:46Z</time>
      </trkpt>
      <trkpt lat="45.78999" lon="4.8206">
        <ele>222</ele>
        <time>2011-10-16T10:32:47Z</time>
      </trkpt>
      <trkpt lat="45.78997" lon="4.82059">
        <ele>221</ele>
        <time>2011-10-16T10:32:48Z</time>
      </trkpt>
      <trkpt lat="45.78996" lon="4.82057">
        <ele>220</ele>
        <time>2011-10-16T10:32:49Z</time>
      </trkpt>
      <trkpt lat="45.7898" lon="4.82043">
        <ele>217</ele>
        <time>2011-10-16T10:33:01Z</time>
      </trkpt>
      <trkpt lat="45.78979" lon="4.82043">
        <ele>216.24034118652</ele>
        <time>2011-10-16T10:33:01Z</time>
      </trkpt>
      <trkpt lat="45.78977" lon="4.82042">
        <ele>216</ele>
        <time>2011-10-16T10:33:02Z</time>
      </trkpt>
      <trkpt lat="45.78975" lon="4.82041">
        <ele>217</ele>
        <time>2011-10-16T10:33:03Z</time>
      </trkpt>
      <trkpt lat="45.78973" lon="4.8204">
        <ele>217</ele>
        <time>2011-10-16T10:33:04Z</time>
      </trkpt>
      <trkpt lat="45.78972" lon="4.82041">
        <ele>217</ele>
        <time>2011-10-16T10:33:05Z</time>
      </trkpt>
      <trkpt lat="45.78972" lon="4.82043">
        <ele>216</ele>
        <time>2011-10-16T10:33:06Z</time>
      </trkpt>
      <trkpt lat="45.78974" lon="4.82046">
        <ele>216</ele>
        <time>2011-10-16T10:33:07Z</time>
      </trkpt>
      <trkpt lat="45.78975" lon="4.82048">
        <ele>216</ele>
        <time>2011-10-16T10:33:08Z</time>
      </trkpt>
      <trkpt lat="45.78977" lon="4.8205">
        <ele>215</ele>
        <time>2011-10-16T10:33:09Z</time>
      </trkpt>
      <trkpt lat="45.78979" lon="4.82053">
        <ele>215</ele>
        <time>2011-10-16T10:33:11Z</time>
      </trkpt>
      <trkpt lat="45.7898" lon="4.82054">
        <ele>215</ele>
        <time>2011-10-16T10:33:11Z</time>
      </trkpt>
      <trkpt lat="45.78982" lon="4.82058">
        <ele>215</ele>
        <time>2011-10-16T10:33:12Z</time>
      </trkpt>
      <trkpt lat="45.78985" lon="4.82061">
        <ele>215</ele>
        <time>2011-10-16T10:33:13Z</time>
      </trkpt>
      <trkpt lat="45.78987" lon="4.82063">
        <ele>216</ele>
        <time>2011-10-16T10:33:14Z</time>
      </trkpt>
      <trkpt lat="45.78989" lon="4.82066">
        <ele>215</ele>
        <time>2011-10-16T10:33:15Z</time>
      </trkpt>
      <trkpt lat="45.78991" lon="4.82069">
        <ele>215</ele>
        <time>2011-10-16T10:33:16Z</time>
      </trkpt>
      <trkpt lat="45.78994" lon="4.82072">
        <ele>215</ele>
        <time>2011-10-16T10:33:17Z</time>
      </trkpt>
      <trkpt lat="45.78996" lon="4.82072">
        <ele>215</ele>
        <time>2011-10-16T10:33:18Z</time>
      </trkpt>
      <trkpt lat="45.79" lon="4.82073">
        <ele>216</ele>
        <time>2011-10-16T10:33:19Z</time>
      </trkpt>
      <trkpt lat="45.79003" lon="4.82074">
        <ele>216</ele>
        <time>2011-10-16T10:33:20Z</time>
      </trkpt>
      <trkpt lat="45.79004" lon="4.82073">
        <ele>215</ele>
        <time>2011-10-16T10:33:21Z</time>
      </trkpt>
      <trkpt lat="45.79007" lon="4.82078">
        <ele>215</ele>
        <time>2011-10-16T10:33:22Z</time>
      </trkpt>
      <trkpt lat="45.79008" lon="4.82085">
        <ele>215.99563598633</ele>
        <time>2011-10-16T10:33:23Z</time>
      </trkpt>
      <trkpt lat="45.7901" lon="4.8209">
        <ele>217</ele>
        <time>2011-10-16T10:33:24Z</time>
      </trkpt>
      <trkpt lat="45.79012" lon="4.82093">
        <ele>218</ele>
        <time>2011-10-16T10:33:25Z</time>
      </trkpt>
      <trkpt lat="45.79014" lon="4.82096">
        <ele>218</ele>
        <time>2011-10-16T10:33:26Z</time>
      </trkpt>
      <trkpt lat="45.79016" lon="4.82099">
        <ele>219</ele>
        <time>2011-10-16T10:33:27Z</time>
      </trkpt>
      <trkpt lat="45.79017" lon="4.82101">
        <ele>219</ele>
        <time>2011-10-16T10:33:28Z</time>
      </trkpt>
      <trkpt lat="45.79019" lon="4.82103">
        <ele>218</ele>
        <time>2011-10-16T10:33:29Z</time>
      </trkpt>
      <trkpt lat="45.79022" lon="4.82106">
        <ele>219</ele>
        <time>2011-10-16T10:33:30Z</time>
      </trkpt>
      <trkpt lat="45.79023" lon="4.82108">
        <ele>219</ele>
        <time>2011-10-16T10:33:31Z</time>
      </trkpt>
      <trkpt lat="45.79025" lon="4.8211">
        <ele>218</ele>
        <time>2011-10-16T10:33:32Z</time>
      </trkpt>
      <trkpt lat="45.79026" lon="4.82114">
        <ele>218</ele>
        <time>2011-10-16T10:33:33Z</time>
      </trkpt>
      <trkpt lat="45.7903" lon="4.82115">
        <ele>218</ele>
        <time>2011-10-16T10:33:34Z</time>
      </trkpt>
      <trkpt lat="45.79032" lon="4.82117">
        <ele>218</ele>
        <time>2011-10-16T10:33:35Z</time>
      </trkpt>
      <trkpt lat="45.79034" lon="4.8212">
        <ele>218</ele>
        <time>2011-10-16T10:33:36Z</time>
      </trkpt>
      <trkpt lat="45.79037" lon="4.82122">
        <ele>218</ele>
        <time>2011-10-16T10:33:37Z</time>
      </trkpt>
      <trkpt lat="45.79039" lon="4.82124">
        <ele>218</ele>
        <time>2011-10-16T10:33:38Z</time>
      </trkpt>
      <trkpt lat="45.79042" lon="4.82124">
        <ele>218</ele>
        <time>2011-10-16T10:33:39Z</time>
      </trkpt>
      <trkpt lat="45.79044" lon="4.82127">
        <ele>219</ele>
        <time>2011-10-16T10:33:40Z</time>
      </trkpt>
      <trkpt lat="45.79046" lon="4.82129">
        <ele>217</ele>
        <time>2011-10-16T10:33:41Z</time>
      </trkpt>
      <trkpt lat="45.79048" lon="4.82132">
        <ele>216</ele>
        <time>2011-10-16T10:33:42Z</time>
      </trkpt>
      <trkpt lat="45.7905" lon="4.82136">
        <ele>217</ele>
        <time>2011-10-16T10:33:43Z</time>
      </trkpt>
      <trkpt lat="45.79051" lon="4.82138">
        <ele>217</ele>
        <time>2011-10-16T10:33:44Z</time>
      </trkpt>
      <trkpt lat="45.79053" lon="4.82141">
        <ele>217</ele>
        <time>2011-10-16T10:33:45Z</time>
      </trkpt>
      <trkpt lat="45.79055" lon="4.82145">
        <ele>218</ele>
        <time>2011-10-16T10:33:46Z</time>
      </trkpt>
      <trkpt lat="45.79056" lon="4.82148">
        <ele>218</ele>
        <time>2011-10-16T10:33:47Z</time>
      </trkpt>
      <trkpt lat="45.79058" lon="4.82151">
        <ele>218</ele>
        <time>2011-10-16T10:33:48Z</time>
      </trkpt>
      <trkpt lat="45.79059" lon="4.82154">
        <ele>219</ele>
        <time>2011-10-16T10:33:49Z</time>
      </trkpt>
      <trkpt lat="45.7906" lon="4.82157">
        <ele>219</ele>
        <time>2011-10-16T10:33:50Z</time>
      </trkpt>
      <trkpt lat="45.79062" lon="4.8216">
        <ele>219</ele>
        <time>2011-10-16T10:33:51Z</time>
      </trkpt>
      <trkpt lat="45.79064" lon="4.82162">
        <ele>219</ele>
        <time>2011-10-16T10:33:52Z</time>
      </trkpt>
      <trkpt lat="45.79067" lon="4.82165">
        <ele>219</ele>
        <time>2011-10-16T10:33:53Z</time>
      </trkpt>
      <trkpt lat="45.79069" lon="4.82168">
        <ele>219</ele>
        <time>2011-10-16T10:33:54Z</time>
      </trkpt>
      <trkpt lat="45.79071" lon="4.82172">
        <ele>220</ele>
        <time>2011-10-16T10:33:55Z</time>
      </trkpt>
      <trkpt lat="45.79073" lon="4.82174">
        <ele>221</ele>
        <time>2011-10-16T10:33:57Z</time>
      </trkpt>
      <trkpt lat="45.79074" lon="4.82176">
        <ele>221</ele>
        <time>2011-10-16T10:33:57Z</time>
      </trkpt>
      <trkpt lat="45.79076" lon="4.8218">
        <ele>220</ele>
        <time>2011-10-16T10:33:58Z</time>
      </trkpt>
      <trkpt lat="45.79078" lon="4.82183">
        <ele>220</ele>
        <time>2011-10-16T10:33:59Z</time>
      </trkpt>
      <trkpt lat="45.7908" lon="4.82185">
        <ele>220</ele>
        <time>2011-10-16T10:34:00Z</time>
      </trkpt>
      <trkpt lat="45.79082" lon="4.82187">
        <ele>219</ele>
        <time>2011-10-16T10:34:01Z</time>
      </trkpt>
      <trkpt lat="45.79084" lon="4.82189">
        <ele>219</ele>
        <time>2011-10-16T10:34:02Z</time>
      </trkpt>
      <trkpt lat="45.79085" lon="4.82192">
        <ele>219</ele>
        <time>2011-10-16T10:34:03Z</time>
      </trkpt>
      <trkpt lat="45.79088" lon="4.82196">
        <ele>220</ele>
        <time>2011-10-16T10:34:04Z</time>
      </trkpt>
      <trkpt lat="45.7909" lon="4.82198">
        <ele>220</ele>
        <time>2011-10-16T10:34:05Z</time>
      </trkpt>
      <trkpt lat="45.79091" lon="4.82201">
        <ele>219</ele>
        <time>2011-10-16T10:34:06Z</time>
      </trkpt>
      <trkpt lat="45.79094" lon="4.82202">
        <ele>219</ele>
        <time>2011-10-16T10:34:07Z</time>
      </trkpt>
      <trkpt lat="45.79097" lon="4.82204">
        <ele>220</ele>
        <time>2011-10-16T10:34:08Z</time>
      </trkpt>
      <trkpt lat="45.79098" lon="4.82207">
        <ele>220</ele>
        <time>2011-10-16T10:34:09Z</time>
      </trkpt>
      <trkpt lat="45.79098" lon="4.8221">
        <ele>221</ele>
        <time>2011-10-16T10:34:10Z</time>
      </trkpt>
      <trkpt lat="45.791" lon="4.82214">
        <ele>221</ele>
        <time>2011-10-16T10:34:11Z</time>
      </trkpt>
      <trkpt lat="45.791" lon="4.82217">
        <ele>221</ele>
        <time>2011-10-16T10:34:12Z</time>
      </trkpt>
      <trkpt lat="45.79103" lon="4.82221">
        <ele>222</ele>
        <time>2011-10-16T10:34:13Z</time>
      </trkpt>
      <trkpt lat="45.79104" lon="4.82224">
        <ele>222</ele>
        <time>2011-10-16T10:34:14Z</time>
      </trkpt>
      <trkpt lat="45.79106" lon="4.82227">
        <ele>221</ele>
        <time>2011-10-16T10:34:15Z</time>
      </trkpt>
      <trkpt lat="45.79109" lon="4.82229">
        <ele>221</ele>
        <time>2011-10-16T10:34:16Z</time>
      </trkpt>
      <trkpt lat="45.79111" lon="4.82232">
        <ele>221</ele>
        <time>2011-10-16T10:34:17Z</time>
      </trkpt>
      <trkpt lat="45.79112" lon="4.82235">
        <ele>221</ele>
        <time>2011-10-16T10:34:18Z</time>
      </trkpt>
      <trkpt lat="45.79114" lon="4.82238">
        <ele>221</ele>
        <time>2011-10-16T10:34:19Z</time>
      </trkpt>
      <trkpt lat="45.79116" lon="4.82239">
        <ele>221</ele>
        <time>2011-10-16T10:34:20Z</time>
      </trkpt>
      <trkpt lat="45.79118" lon="4.82242">
        <ele>221</ele>
        <time>2011-10-16T10:34:21Z</time>
      </trkpt>
      <trkpt lat="45.7912" lon="4.82247">
        <ele>222</ele>
        <time>2011-10-16T10:34:22Z</time>
      </trkpt>
      <trkpt lat="45.79121" lon="4.82249">
        <ele>222</ele>
        <time>2011-10-16T10:34:23Z</time>
      </trkpt>
      <trkpt lat="45.79124" lon="4.82252">
        <ele>222</ele>
        <time>2011-10-16T10:34:24Z</time>
      </trkpt>
      <trkpt lat="45.79126" lon="4.82255">
        <ele>223</ele>
        <time>2011-10-16T10:34:25Z</time>
      </trkpt>
      <trkpt lat="45.79128" lon="4.82257">
        <ele>223</ele>
        <time>2011-10-16T10:34:26Z</time>
      </trkpt>
      <trkpt lat="45.7913" lon="4.8226">
        <ele>223</ele>
        <time>2011-10-16T10:34:27Z</time>
      </trkpt>
      <trkpt lat="45.79132" lon="4.82262">
        <ele>222</ele>
        <time>2011-10-16T10:34:29Z</time>
      </trkpt>
      <trkpt lat="45.79132" lon="4.82263">
        <ele>221.2850189209</ele>
        <time>2011-10-16T10:34:29Z</time>
      </trkpt>
      <trkpt lat="45.79135" lon="4.82269">
        <ele>220</ele>
        <time>2011-10-16T10:34:30Z</time>
      </trkpt>
      <trkpt lat="45.79137" lon="4.82272">
        <ele>220</ele>
        <time>2011-10-16T10:34:31Z</time>
      </trkpt>
      <trkpt lat="45.79138" lon="4.82275">
        <ele>219</ele>
        <time>2011-10-16T10:34:32Z</time>
      </trkpt>
      <trkpt lat="45.7914" lon="4.82278">
        <ele>218</ele>
        <time>2011-10-16T10:34:33Z</time>
      </trkpt>
      <trkpt lat="45.79141" lon="4.82281">
        <ele>218</ele>
        <time>2011-10-16T10:34:34Z</time>
      </trkpt>
      <trkpt lat="45.79143" lon="4.82284">
        <ele>217</ele>
        <time>2011-10-16T10:34:35Z</time>
      </trkpt>
      <trkpt lat="45.79144" lon="4.82287">
        <ele>216</ele>
        <time>2011-10-16T10:34:36Z</time>
      </trkpt>
      <trkpt lat="45.79147" lon="4.82291">
        <ele>216</ele>
        <time>2011-10-16T10:34:37Z</time>
      </trkpt>
      <trkpt lat="45.79148" lon="4.82294">
        <ele>215</ele>
        <time>2011-10-16T10:34:38Z</time>
      </trkpt>
      <trkpt lat="45.7915" lon="4.82297">
        <ele>216</ele>
        <time>2011-10-16T10:34:39Z</time>
      </trkpt>
      <trkpt lat="45.79151" lon="4.823">
        <ele>215</ele>
        <time>2011-10-16T10:34:40Z</time>
      </trkpt>
      <trkpt lat="45.79153" lon="4.82302">
        <ele>216</ele>
        <time>2011-10-16T10:34:42Z</time>
      </trkpt>
      <trkpt lat="45.79154" lon="4.82304">
        <ele>216</ele>
        <time>2011-10-16T10:34:42Z</time>
      </trkpt>
      <trkpt lat="45.79156" lon="4.82309">
        <ele>216</ele>
        <time>2011-10-16T10:34:43Z</time>
      </trkpt>
      <trkpt lat="45.79158" lon="4.82312">
        <ele>216</ele>
        <time>2011-10-16T10:34:44Z</time>
      </trkpt>
      <trkpt lat="45.79161" lon="4.82315">
        <ele>216</ele>
        <time>2011-10-16T10:34:45Z</time>
      </trkpt>
      <trkpt lat="45.79162" lon="4.82318">
        <ele>214</ele>
        <time>2011-10-16T10:34:46Z</time>
      </trkpt>
      <trkpt lat="45.79163" lon="4.8232">
        <ele>213</ele>
        <time>2011-10-16T10:34:47Z</time>
      </trkpt>
      <trkpt lat="45.79166" lon="4.82322">
        <ele>214</ele>
        <time>2011-10-16T10:34:48Z</time>
      </trkpt>
      <trkpt lat="45.79169" lon="4.82325">
        <ele>214</ele>
        <time>2011-10-16T10:34:49Z</time>
      </trkpt>
      <trkpt lat="45.79171" lon="4.82327">
        <ele>214</ele>
        <time>2011-10-16T10:34:50Z</time>
      </trkpt>
      <trkpt lat="45.79173" lon="4.8233">
        <ele>214</ele>
        <time>2011-10-16T10:34:51Z</time>
      </trkpt>
      <trkpt lat="45.79174" lon="4.82334">
        <ele>213</ele>
        <time>2011-10-16T10:34:52Z</time>
      </trkpt>
      <trkpt lat="45.79175" lon="4.82336">
        <ele>212</ele>
        <time>2011-10-16T10:34:53Z</time>
      </trkpt>
      <trkpt lat="45.79177" lon="4.8234">
        <ele>211</ele>
        <time>2011-10-16T10:34:54Z</time>
      </trkpt>
      <trkpt lat="45.79179" lon="4.82344">
        <ele>212</ele>
        <time>2011-10-16T10:34:55Z</time>
      </trkpt>
      <trkpt lat="45.7918" lon="4.82347">
        <ele>211</ele>
        <time>2011-10-16T10:34:56Z</time>
      </trkpt>
      <trkpt lat="45.79182" lon="4.8235">
        <ele>211</ele>
        <time>2011-10-16T10:34:57Z</time>
      </trkpt>
      <trkpt lat="45.79184" lon="4.82353">
        <ele>212</ele>
        <time>2011-10-16T10:34:58Z</time>
      </trkpt>
      <trkpt lat="45.79185" lon="4.82356">
        <ele>212</ele>
        <time>2011-10-16T10:34:59Z</time>
      </trkpt>
      <trkpt lat="45.79187" lon="4.82359">
        <ele>212</ele>
        <time>2011-10-16T10:35:00Z</time>
      </trkpt>
      <trkpt lat="45.79188" lon="4.82361">
        <ele>212</ele>
        <time>2011-10-16T10:35:01Z</time>
      </trkpt>
      <trkpt lat="45.7919" lon="4.82364">
        <ele>213</ele>
        <time>2011-10-16T10:35:02Z</time>
      </trkpt>
      <trkpt lat="45.79191" lon="4.82368">
        <ele>213</ele>
        <time>2011-10-16T10:35:03Z</time>
      </trkpt>
      <trkpt lat="45.79193" lon="4.82371">
        <ele>214</ele>
        <time>2011-10-16T10:35:04Z</time>
      </trkpt>
      <trkpt lat="45.79194" lon="4.82374">
        <ele>215</ele>
        <time>2011-10-16T10:35:05Z</time>
      </trkpt>
      <trkpt lat="45.79195" lon="4.82375">
        <ele>215</ele>
        <time>2011-10-16T10:35:06Z</time>
      </trkpt>
      <trkpt lat="45.79197" lon="4.82377">
        <ele>214</ele>
        <time>2011-10-16T10:35:07Z</time>
      </trkpt>
      <trkpt lat="45.79198" lon="4.82379">
        <ele>215</ele>
        <time>2011-10-16T10:35:08Z</time>
      </trkpt>
      <trkpt lat="45.79199" lon="4.8238">
        <ele>214</ele>
        <time>2011-10-16T10:35:09Z</time>
      </trkpt>
      <trkpt lat="45.79201" lon="4.82381">
        <ele>214</ele>
        <time>2011-10-16T10:35:10Z</time>
      </trkpt>
      <trkpt lat="45.79203" lon="4.82385">
        <ele>214</ele>
        <time>2011-10-16T10:35:11Z</time>
      </trkpt>
      <trkpt lat="45.79205" lon="4.82387">
        <ele>214</ele>
        <time>2011-10-16T10:35:12Z</time>
      </trkpt>
      <trkpt lat="45.79207" lon="4.8239">
        <ele>214</ele>
        <time>2011-10-16T10:35:13Z</time>
      </trkpt>
      <trkpt lat="45.79208" lon="4.82394">
        <ele>214</ele>
        <time>2011-10-16T10:35:14Z</time>
      </trkpt>
      <trkpt lat="45.7921" lon="4.82397">
        <ele>213</ele>
        <time>2011-10-16T10:35:15Z</time>
      </trkpt>
      <trkpt lat="45.79213" lon="4.824">
        <ele>213</ele>
        <time>2011-10-16T10:35:16Z</time>
      </trkpt>
      <trkpt lat="45.79215" lon="4.82402">
        <ele>212</ele>
        <time>2011-10-16T10:35:17Z</time>
      </trkpt>
      <trkpt lat="45.79216" lon="4.82405">
        <ele>212</ele>
        <time>2011-10-16T10:35:18Z</time>
      </trkpt>
      <trkpt lat="45.79217" lon="4.82408">
        <ele>213</ele>
        <time>2011-10-16T10:35:19Z</time>
      </trkpt>
      <trkpt lat="45.79219" lon="4.82411">
        <ele>213</ele>
        <time>2011-10-16T10:35:20Z</time>
      </trkpt>
      <trkpt lat="45.7922" lon="4.82415">
        <ele>213</ele>
        <time>2011-10-16T10:35:21Z</time>
      </trkpt>
      <trkpt lat="45.79221" lon="4.82418">
        <ele>212</ele>
        <time>2011-10-16T10:35:22Z</time>
      </trkpt>
      <trkpt lat="45.79223" lon="4.82421">
        <ele>213</ele>
        <time>2011-10-16T10:35:23Z</time>
      </trkpt>
      <trkpt lat="45.79226" lon="4.82423">
        <ele>212</ele>
        <time>2011-10-16T10:35:25Z</time>
      </trkpt>
      <trkpt lat="45.79228" lon="4.82425">
        <ele>212</ele>
        <time>2011-10-16T10:35:25Z</time>
      </trkpt>
      <trkpt lat="45.7923" lon="4.8243">
        <ele>213</ele>
        <time>2011-10-16T10:35:26Z</time>
      </trkpt>
      <trkpt lat="45.79231" lon="4.82432">
        <ele>213</ele>
        <time>2011-10-16T10:35:27Z</time>
      </trkpt>
      <trkpt lat="45.79234" lon="4.82436">
        <ele>213</ele>
        <time>2011-10-16T10:35:28Z</time>
      </trkpt>
      <trkpt lat="45.79235" lon="4.82439">
        <ele>213</ele>
        <time>2011-10-16T10:35:29Z</time>
      </trkpt>
      <trkpt lat="45.79235" lon="4.82442">
        <ele>213</ele>
        <time>2011-10-16T10:35:30Z</time>
      </trkpt>
      <trkpt lat="45.79237" lon="4.82446">
        <ele>213</ele>
        <time>2011-10-16T10:35:31Z</time>
      </trkpt>
      <trkpt lat="45.79239" lon="4.82448">
        <ele>213</ele>
        <time>2011-10-16T10:35:32Z</time>
      </trkpt>
      <trkpt lat="45.79242" lon="4.82451">
        <ele>213</ele>
        <time>2011-10-16T10:35:33Z</time>
      </trkpt>
      <trkpt lat="45.79243" lon="4.82453">
        <ele>214</ele>
        <time>2011-10-16T10:35:35Z</time>
      </trkpt>
      <trkpt lat="45.79244" lon="4.82456">
        <ele>214</ele>
        <time>2011-10-16T10:35:35Z</time>
      </trkpt>
      <trkpt lat="45.79246" lon="4.82459">
        <ele>214</ele>
        <time>2011-10-16T10:35:36Z</time>
      </trkpt>
      <trkpt lat="45.79249" lon="4.82462">
        <ele>214</ele>
        <time>2011-10-16T10:35:37Z</time>
      </trkpt>
      <trkpt lat="45.7925" lon="4.82466">
        <ele>213</ele>
        <time>2011-10-16T10:35:38Z</time>
      </trkpt>
      <trkpt lat="45.79252" lon="4.82469">
        <ele>212</ele>
        <time>2011-10-16T10:35:39Z</time>
      </trkpt>
      <trkpt lat="45.79254" lon="4.82471">
        <ele>212</ele>
        <time>2011-10-16T10:35:40Z</time>
      </trkpt>
      <trkpt lat="45.79256" lon="4.82474">
        <ele>212</ele>
        <time>2011-10-16T10:35:41Z</time>
      </trkpt>
      <trkpt lat="45.79258" lon="4.82477">
        <ele>212</ele>
        <time>2011-10-16T10:35:43Z</time>
      </trkpt>
      <trkpt lat="45.7926" lon="4.8248">
        <ele>212</ele>
        <time>2011-10-16T10:35:44Z</time>
      </trkpt>
      <trkpt lat="45.79262" lon="4.82483">
        <ele>212</ele>
        <time>2011-10-16T10:35:45Z</time>
      </trkpt>
      <trkpt lat="45.79264" lon="4.82486">
        <ele>212</ele>
        <time>2011-10-16T10:35:46Z</time>
      </trkpt>
      <trkpt lat="45.79265" lon="4.8249">
        <ele>212</ele>
        <time>2011-10-16T10:35:47Z</time>
      </trkpt>
      <trkpt lat="45.79267" lon="4.82492">
        <ele>212</ele>
        <time>2011-10-16T10:35:48Z</time>
      </trkpt>
      <trkpt lat="45.79269" lon="4.82496">
        <ele>212</ele>
        <time>2011-10-16T10:35:49Z</time>
      </trkpt>
      <trkpt lat="45.79271" lon="4.82499">
        <ele>212</ele>
        <time>2011-10-16T10:35:50Z</time>
      </trkpt>
      <trkpt lat="45.79273" lon="4.82502">
        <ele>212</ele>
        <time>2011-10-16T10:35:51Z</time>
      </trkpt>
      <trkpt lat="45.79274" lon="4.82504">
        <ele>212</ele>
        <time>2011-10-16T10:35:52Z</time>
      </trkpt>
      <trkpt lat="45.79274" lon="4.82507">
        <ele>212</ele>
        <time>2011-10-16T10:35:53Z</time>
      </trkpt>
      <trkpt lat="45.79276" lon="4.82511">
        <ele>212</ele>
        <time>2011-10-16T10:35:54Z</time>
      </trkpt>
      <trkpt lat="45.79277" lon="4.82514">
        <ele>213</ele>
        <time>2011-10-16T10:35:55Z</time>
      </trkpt>
      <trkpt lat="45.79279" lon="4.82516">
        <ele>213</ele>
        <time>2011-10-16T10:35:57Z</time>
      </trkpt>
      <trkpt lat="45.79279" lon="4.82517">
        <ele>212.77627563477</ele>
        <time>2011-10-16T10:35:57Z</time>
      </trkpt>
      <trkpt lat="45.79281" lon="4.82523">
        <ele>213</ele>
        <time>2011-10-16T10:35:58Z</time>
      </trkpt>
      <trkpt lat="45.79284" lon="4.82526">
        <ele>213</ele>
        <time>2011-10-16T10:35:59Z</time>
      </trkpt>
      <trkpt lat="45.79287" lon="4.82529">
        <ele>214</ele>
        <time>2011-10-16T10:36:00Z</time>
      </trkpt>
      <trkpt lat="45.79288" lon="4.82532">
        <ele>214</ele>
        <time>2011-10-16T10:36:01Z</time>
      </trkpt>
      <trkpt lat="45.79289" lon="4.82535">
        <ele>215</ele>
        <time>2011-10-16T10:36:02Z</time>
      </trkpt>
      <trkpt lat="45.79291" lon="4.82537">
        <ele>215</ele>
        <time>2011-10-16T10:36:03Z</time>
      </trkpt>
      <trkpt lat="45.79292" lon="4.8254">
        <ele>216</ele>
        <time>2011-10-16T10:36:04Z</time>
      </trkpt>
      <trkpt lat="45.79294" lon="4.82543">
        <ele>216</ele>
        <time>2011-10-16T10:36:05Z</time>
      </trkpt>
      <trkpt lat="45.79295" lon="4.82546">
        <ele>216</ele>
        <time>2011-10-16T10:36:06Z</time>
      </trkpt>
      <trkpt lat="45.79295" lon="4.82549">
        <ele>217</ele>
        <time>2011-10-16T10:36:07Z</time>
      </trkpt>
      <trkpt lat="45.79296" lon="4.82553">
        <ele>217</ele>
        <time>2011-10-16T10:36:08Z</time>
      </trkpt>
      <trkpt lat="45.79296" lon="4.82557">
        <ele>217</ele>
        <time>2011-10-16T10:36:09Z</time>
      </trkpt>
      <trkpt lat="45.79297" lon="4.82561">
        <ele>216</ele>
        <time>2011-10-16T10:36:10Z</time>
      </trkpt>
      <trkpt lat="45.793" lon="4.82563">
        <ele>218</ele>
        <time>2011-10-16T10:36:11Z</time>
      </trkpt>
      <trkpt lat="45.79302" lon="4.82565">
        <ele>219</ele>
        <time>2011-10-16T10:36:12Z</time>
      </trkpt>
      <trkpt lat="45.79304" lon="4.82568">
        <ele>220</ele>
        <time>2011-10-16T10:36:14Z</time>
      </trkpt>
      <trkpt lat="45.79305" lon="4.8257">
        <ele>219.37908935547</ele>
        <time>2011-10-16T10:36:14Z</time>
      </trkpt>
      <trkpt lat="45.79308" lon="4.82573">
        <ele>218</ele>
        <time>2011-10-16T10:36:15Z</time>
      </trkpt>
      <trkpt lat="45.7931" lon="4.82575">
        <ele>218</ele>
        <time>2011-10-16T10:36:16Z</time>
      </trkpt>
      <trkpt lat="45.79312" lon="4.82578">
        <ele>218</ele>
        <time>2011-10-16T10:36:17Z</time>
      </trkpt>
      <trkpt lat="45.79315" lon="4.8258">
        <ele>217</ele>
        <time>2011-10-16T10:36:19Z</time>
      </trkpt>
      <trkpt lat="45.79316" lon="4.82583">
        <ele>217</ele>
        <time>2011-10-16T10:36:19Z</time>
      </trkpt>
      <trkpt lat="45.79318" lon="4.82585">
        <ele>216</ele>
        <time>2011-10-16T10:36:20Z</time>
      </trkpt>
      <trkpt lat="45.79319" lon="4.82587">
        <ele>216</ele>
        <time>2011-10-16T10:36:21Z</time>
      </trkpt>
      <trkpt lat="45.79322" lon="4.8259">
        <ele>215</ele>
        <time>2011-10-16T10:36:22Z</time>
      </trkpt>
      <trkpt lat="45.79323" lon="4.82592">
        <ele>214</ele>
        <time>2011-10-16T10:36:23Z</time>
      </trkpt>
      <trkpt lat="45.79325" lon="4.82595">
        <ele>214</ele>
        <time>2011-10-16T10:36:24Z</time>
      </trkpt>
      <trkpt lat="45.79327" lon="4.82596">
        <ele>214</ele>
        <time>2011-10-16T10:36:25Z</time>
      </trkpt>
      <trkpt lat="45.79328" lon="4.826">
        <ele>213</ele>
        <time>2011-10-16T10:36:26Z</time>
      </trkpt>
      <trkpt lat="45.7933" lon="4.82603">
        <ele>214</ele>
        <time>2011-10-16T10:36:27Z</time>
      </trkpt>
      <trkpt lat="45.79332" lon="4.82606">
        <ele>213</ele>
        <time>2011-10-16T10:36:28Z</time>
      </trkpt>
      <trkpt lat="45.79333" lon="4.82609">
        <ele>213</ele>
        <time>2011-10-16T10:36:29Z</time>
      </trkpt>
      <trkpt lat="45.79335" lon="4.82613">
        <ele>214</ele>
        <time>2011-10-16T10:36:30Z</time>
      </trkpt>
      <trkpt lat="45.79337" lon="4.82616">
        <ele>214</ele>
        <time>2011-10-16T10:36:31Z</time>
      </trkpt>
      <trkpt lat="45.79338" lon="4.82618">
        <ele>214</ele>
        <time>2011-10-16T10:36:32Z</time>
      </trkpt>
      <trkpt lat="45.7934" lon="4.82622">
        <ele>215</ele>
        <time>2011-10-16T10:36:33Z</time>
      </trkpt>
      <trkpt lat="45.79342" lon="4.82624">
        <ele>214</ele>
        <time>2011-10-16T10:36:34Z</time>
      </trkpt>
      <trkpt lat="45.79345" lon="4.82626">
        <ele>214</ele>
        <time>2011-10-16T10:36:35Z</time>
      </trkpt>
      <trkpt lat="45.79346" lon="4.8263">
        <ele>214</ele>
        <time>2011-10-16T10:36:36Z</time>
      </trkpt>
      <trkpt lat="45.79347" lon="4.82633">
        <ele>213</ele>
        <time>2011-10-16T10:36:37Z</time>
      </trkpt>
      <trkpt lat="45.79348" lon="4.82636">
        <ele>213</ele>
        <time>2011-10-16T10:36:38Z</time>
      </trkpt>
      <trkpt lat="45.79349" lon="4.82638">
        <ele>212</ele>
        <time>2011-10-16T10:36:39Z</time>
      </trkpt>
      <trkpt lat="45.79352" lon="4.8264">
        <ele>212</ele>
        <time>2011-10-16T10:36:41Z</time>
      </trkpt>
      <trkpt lat="45.79353" lon="4.82644">
        <ele>213</ele>
        <time>2011-10-16T10:36:41Z</time>
      </trkpt>
      <trkpt lat="45.79355" lon="4.82647">
        <ele>214</ele>
        <time>2011-10-16T10:36:43Z</time>
      </trkpt>
      <trkpt lat="45.79357" lon="4.82651">
        <ele>215</ele>
        <time>2011-10-16T10:36:44Z</time>
      </trkpt>
      <trkpt lat="45.79359" lon="4.82654">
        <ele>215</ele>
        <time>2011-10-16T10:36:45Z</time>
      </trkpt>
      <trkpt lat="45.79361" lon="4.82657">
        <ele>215</ele>
        <time>2011-10-16T10:36:46Z</time>
      </trkpt>
      <trkpt lat="45.79363" lon="4.8266">
        <ele>215</ele>
        <time>2011-10-16T10:36:47Z</time>
      </trkpt>
      <trkpt lat="45.79364" lon="4.82662">
        <ele>215</ele>
        <time>2011-10-16T10:36:48Z</time>
      </trkpt>
      <trkpt lat="45.79366" lon="4.82664">
        <ele>215</ele>
        <time>2011-10-16T10:36:49Z</time>
      </trkpt>
      <trkpt lat="45.79368" lon="4.82668">
        <ele>215</ele>
        <time>2011-10-16T10:36:50Z</time>
      </trkpt>
      <trkpt lat="45.7937" lon="4.82671">
        <ele>216</ele>
        <time>2011-10-16T10:36:51Z</time>
      </trkpt>
      <trkpt lat="45.79371" lon="4.82673">
        <ele>215</ele>
        <time>2011-10-16T10:36:52Z</time>
      </trkpt>
      <trkpt lat="45.79373" lon="4.82676">
        <ele>215</ele>
        <time>2011-10-16T10:36:53Z</time>
      </trkpt>
      <trkpt lat="45.79375" lon="4.82679">
        <ele>216</ele>
        <time>2011-10-16T10:36:54Z</time>
      </trkpt>
      <trkpt lat="45.79377" lon="4.82681">
        <ele>215</ele>
        <time>2011-10-16T10:36:55Z</time>
      </trkpt>
      <trkpt lat="45.79378" lon="4.82684">
        <ele>216</ele>
        <time>2011-10-16T10:36:56Z</time>
      </trkpt>
      <trkpt lat="45.79381" lon="4.82687">
        <ele>216</ele>
        <time>2011-10-16T10:36:57Z</time>
      </trkpt>
      <trkpt lat="45.79382" lon="4.8269">
        <ele>216</ele>
        <time>2011-10-16T10:36:58Z</time>
      </trkpt>
      <trkpt lat="45.79383" lon="4.82693">
        <ele>217</ele>
        <time>2011-10-16T10:36:59Z</time>
      </trkpt>
      <trkpt lat="45.79385" lon="4.82696">
        <ele>217</ele>
        <time>2011-10-16T10:37:00Z</time>
      </trkpt>
      <trkpt lat="45.79387" lon="4.82697">
        <ele>216</ele>
        <time>2011-10-16T10:37:01Z</time>
      </trkpt>
      <trkpt lat="45.7939" lon="4.827">
        <ele>216</ele>
        <time>2011-10-16T10:37:02Z</time>
      </trkpt>
      <trkpt lat="45.79391" lon="4.82702">
        <ele>216</ele>
        <time>2011-10-16T10:37:03Z</time>
      </trkpt>
      <trkpt lat="45.79394" lon="4.82705">
        <ele>216</ele>
        <time>2011-10-16T10:37:04Z</time>
      </trkpt>
      <trkpt lat="45.79396" lon="4.82707">
        <ele>216</ele>
        <time>2011-10-16T10:37:05Z</time>
      </trkpt>
      <trkpt lat="45.79398" lon="4.8271">
        <ele>217</ele>
        <time>2011-10-16T10:37:06Z</time>
      </trkpt>
      <trkpt lat="45.794" lon="4.82712">
        <ele>217</ele>
        <time>2011-10-16T10:37:07Z</time>
      </trkpt>
      <trkpt lat="45.79402" lon="4.82716">
        <ele>217</ele>
        <time>2011-10-16T10:37:08Z</time>
      </trkpt>
      <trkpt lat="45.79404" lon="4.82719">
        <ele>217</ele>
        <time>2011-10-16T10:37:09Z</time>
      </trkpt>
      <trkpt lat="45.79406" lon="4.82722">
        <ele>218</ele>
        <time>2011-10-16T10:37:10Z</time>
      </trkpt>
      <trkpt lat="45.79407" lon="4.82725">
        <ele>217</ele>
        <time>2011-10-16T10:37:11Z</time>
      </trkpt>
      <trkpt lat="45.79408" lon="4.82728">
        <ele>217</ele>
        <time>2011-10-16T10:37:12Z</time>
      </trkpt>
      <trkpt lat="45.79409" lon="4.82731">
        <ele>217</ele>
        <time>2011-10-16T10:37:13Z</time>
      </trkpt>
      <trkpt lat="45.7941" lon="4.82733">
        <ele>217</ele>
        <time>2011-10-16T10:37:14Z</time>
      </trkpt>
      <trkpt lat="45.79412" lon="4.82738">
        <ele>217</ele>
        <time>2011-10-16T10:37:15Z</time>
      </trkpt>
      <trkpt lat="45.79414" lon="4.82741">
        <ele>217</ele>
        <time>2011-10-16T10:37:16Z</time>
      </trkpt>
      <trkpt lat="45.79416" lon="4.82745">
        <ele>218</ele>
        <time>2011-10-16T10:37:17Z</time>
      </trkpt>
      <trkpt lat="45.79418" lon="4.82747">
        <ele>217</ele>
        <time>2011-10-16T10:37:18Z</time>
      </trkpt>
      <trkpt lat="45.7942" lon="4.8275">
        <ele>217</ele>
        <time>2011-10-16T10:37:19Z</time>
      </trkpt>
      <trkpt lat="45.79422" lon="4.82752">
        <ele>217</ele>
        <time>2011-10-16T10:37:20Z</time>
      </trkpt>
      <trkpt lat="45.79424" lon="4.82755">
        <ele>217</ele>
        <time>2011-10-16T10:37:21Z</time>
      </trkpt>
      <trkpt lat="45.79427" lon="4.82757">
        <ele>218</ele>
        <time>2011-10-16T10:37:22Z</time>
      </trkpt>
      <trkpt lat="45.79428" lon="4.8276">
        <ele>217</ele>
        <time>2011-10-16T10:37:23Z</time>
      </trkpt>
      <trkpt lat="45.7943" lon="4.82763">
        <ele>216</ele>
        <time>2011-10-16T10:37:24Z</time>
      </trkpt>
      <trkpt lat="45.79432" lon="4.82765">
        <ele>217</ele>
        <time>2011-10-16T10:37:25Z</time>
      </trkpt>
      <trkpt lat="45.79434" lon="4.82768">
        <ele>217</ele>
        <time>2011-10-16T10:37:26Z</time>
      </trkpt>
      <trkpt lat="45.79436" lon="4.82771">
        <ele>217</ele>
        <time>2011-10-16T10:37:27Z</time>
      </trkpt>
      <trkpt lat="45.79438" lon="4.82773">
        <ele>218</ele>
        <time>2011-10-16T10:37:28Z</time>
      </trkpt>
      <trkpt lat="45.7944" lon="4.82777">
        <ele>218</ele>
        <time>2011-10-16T10:37:29Z</time>
      </trkpt>
      <trkpt lat="45.79442" lon="4.82779">
        <ele>218</ele>
        <time>2011-10-16T10:37:30Z</time>
      </trkpt>
      <trkpt lat="45.79444" lon="4.82782">
        <ele>218</ele>
        <time>2011-10-16T10:37:31Z</time>
      </trkpt>
      <trkpt lat="45.79446" lon="4.82783">
        <ele>217</ele>
        <time>2011-10-16T10:37:32Z</time>
      </trkpt>
      <trkpt lat="45.79448" lon="4.82785">
        <ele>217</ele>
        <time>2011-10-16T10:37:33Z</time>
      </trkpt>
      <trkpt lat="45.7945" lon="4.82787">
        <ele>217</ele>
        <time>2011-10-16T10:37:34Z</time>
      </trkpt>
      <trkpt lat="45.79451" lon="4.8279">
        <ele>216</ele>
        <time>2011-10-16T10:37:35Z</time>
      </trkpt>
      <trkpt lat="45.79453" lon="4.82793">
        <ele>216</ele>
        <time>2011-10-16T10:37:36Z</time>
      </trkpt>
      <trkpt lat="45.79455" lon="4.82795">
        <ele>216</ele>
        <time>2011-10-16T10:37:37Z</time>
      </trkpt>
      <trkpt lat="45.79457" lon="4.82798">
        <ele>216</ele>
        <time>2011-10-16T10:37:38Z</time>
      </trkpt>
      <trkpt lat="45.79459" lon="4.82801">
        <ele>216</ele>
        <time>2011-10-16T10:37:39Z</time>
      </trkpt>
      <trkpt lat="45.7946" lon="4.82804">
        <ele>215</ele>
        <time>2011-10-16T10:37:40Z</time>
      </trkpt>
      <trkpt lat="45.79463" lon="4.82807">
        <ele>214</ele>
        <time>2011-10-16T10:37:41Z</time>
      </trkpt>
      <trkpt lat="45.79464" lon="4.82809">
        <ele>214</ele>
        <time>2011-10-16T10:37:42Z</time>
      </trkpt>
      <trkpt lat="45.79466" lon="4.82813">
        <ele>214</ele>
        <time>2011-10-16T10:37:43Z</time>
      </trkpt>
      <trkpt lat="45.79468" lon="4.82815">
        <ele>214</ele>
        <time>2011-10-16T10:37:44Z</time>
      </trkpt>
      <trkpt lat="45.7947" lon="4.82819">
        <ele>214</ele>
        <time>2011-10-16T10:37:45Z</time>
      </trkpt>
      <trkpt lat="45.79473" lon="4.82822">
        <ele>215</ele>
        <time>2011-10-16T10:37:46Z</time>
      </trkpt>
      <trkpt lat="45.79474" lon="4.82824">
        <ele>214</ele>
        <time>2011-10-16T10:37:47Z</time>
      </trkpt>
      <trkpt lat="45.79477" lon="4.82827">
        <ele>214</ele>
        <time>2011-10-16T10:37:48Z</time>
      </trkpt>
      <trkpt lat="45.79479" lon="4.8283">
        <ele>214</ele>
        <time>2011-10-16T10:37:49Z</time>
      </trkpt>
      <trkpt lat="45.79481" lon="4.82832">
        <ele>214</ele>
        <time>2011-10-16T10:37:50Z</time>
      </trkpt>
      <trkpt lat="45.79484" lon="4.82835">
        <ele>214</ele>
        <time>2011-10-16T10:37:51Z</time>
      </trkpt>
      <trkpt lat="45.79485" lon="4.82837">
        <ele>215</ele>
        <time>2011-10-16T10:37:52Z</time>
      </trkpt>
      <trkpt lat="45.79486" lon="4.82841">
        <ele>215</ele>
        <time>2011-10-16T10:37:53Z</time>
      </trkpt>
      <trkpt lat="45.79488" lon="4.82844">
        <ele>215</ele>
        <time>2011-10-16T10:37:54Z</time>
      </trkpt>
      <trkpt lat="45.79489" lon="4.82848">
        <ele>216</ele>
        <time>2011-10-16T10:37:55Z</time>
      </trkpt>
      <trkpt lat="45.79491" lon="4.8285">
        <ele>216</ele>
        <time>2011-10-16T10:37:56Z</time>
      </trkpt>
      <trkpt lat="45.79493" lon="4.82853">
        <ele>217</ele>
        <time>2011-10-16T10:37:57Z</time>
      </trkpt>
      <trkpt lat="45.79494" lon="4.82855">
        <ele>217</ele>
        <time>2011-10-16T10:37:58Z</time>
      </trkpt>
      <trkpt lat="45.79496" lon="4.8286">
        <ele>217</ele>
        <time>2011-10-16T10:37:59Z</time>
      </trkpt>
      <trkpt lat="45.79497" lon="4.82863">
        <ele>217</ele>
        <time>2011-10-16T10:38:00Z</time>
      </trkpt>
      <trkpt lat="45.79499" lon="4.82866">
        <ele>217</ele>
        <time>2011-10-16T10:38:01Z</time>
      </trkpt>
      <trkpt lat="45.795" lon="4.8287">
        <ele>218</ele>
        <time>2011-10-16T10:38:02Z</time>
      </trkpt>
      <trkpt lat="45.79502" lon="4.82874">
        <ele>217</ele>
        <time>2011-10-16T10:38:03Z</time>
      </trkpt>
      <trkpt lat="45.79503" lon="4.82878">
        <ele>218</ele>
        <time>2011-10-16T10:38:04Z</time>
      </trkpt>
      <trkpt lat="45.79504" lon="4.82881">
        <ele>218</ele>
        <time>2011-10-16T10:38:05Z</time>
      </trkpt>
      <trkpt lat="45.79506" lon="4.82885">
        <ele>218</ele>
        <time>2011-10-16T10:38:06Z</time>
      </trkpt>
      <trkpt lat="45.79508" lon="4.82888">
        <ele>218</ele>
        <time>2011-10-16T10:38:07Z</time>
      </trkpt>
      <trkpt lat="45.79509" lon="4.82891">
        <ele>217</ele>
        <time>2011-10-16T10:38:08Z</time>
      </trkpt>
      <trkpt lat="45.79511" lon="4.82895">
        <ele>217</ele>
        <time>2011-10-16T10:38:09Z</time>
      </trkpt>
      <trkpt lat="45.79512" lon="4.82898">
        <ele>217</ele>
        <time>2011-10-16T10:38:10Z</time>
      </trkpt>
      <trkpt lat="45.79514" lon="4.82901">
        <ele>217</ele>
        <time>2011-10-16T10:38:11Z</time>
      </trkpt>
      <trkpt lat="45.79515" lon="4.82904">
        <ele>216</ele>
        <time>2011-10-16T10:38:12Z</time>
      </trkpt>
      <trkpt lat="45.79517" lon="4.82907">
        <ele>216</ele>
        <time>2011-10-16T10:38:13Z</time>
      </trkpt>
      <trkpt lat="45.79519" lon="4.82909">
        <ele>216</ele>
        <time>2011-10-16T10:38:14Z</time>
      </trkpt>
      <trkpt lat="45.79522" lon="4.82911">
        <ele>216</ele>
        <time>2011-10-16T10:38:15Z</time>
      </trkpt>
      <trkpt lat="45.79523" lon="4.82915">
        <ele>217</ele>
        <time>2011-10-16T10:38:16Z</time>
      </trkpt>
      <trkpt lat="45.79524" lon="4.82918">
        <ele>217</ele>
        <time>2011-10-16T10:38:17Z</time>
      </trkpt>
      <trkpt lat="45.79525" lon="4.82922">
        <ele>217</ele>
        <time>2011-10-16T10:38:18Z</time>
      </trkpt>
      <trkpt lat="45.79526" lon="4.82926">
        <ele>216</ele>
        <time>2011-10-16T10:38:19Z</time>
      </trkpt>
      <trkpt lat="45.79527" lon="4.8293">
        <ele>217</ele>
        <time>2011-10-16T10:38:20Z</time>
      </trkpt>
      <trkpt lat="45.79527" lon="4.82935">
        <ele>217</ele>
        <time>2011-10-16T10:38:21Z</time>
      </trkpt>
      <trkpt lat="45.7953" lon="4.82938">
        <ele>217</ele>
        <time>2011-10-16T10:38:22Z</time>
      </trkpt>
      <trkpt lat="45.79531" lon="4.82941">
        <ele>217</ele>
        <time>2011-10-16T10:38:23Z</time>
      </trkpt>
      <trkpt lat="45.79532" lon="4.82945">
        <ele>216</ele>
        <time>2011-10-16T10:38:24Z</time>
      </trkpt>
      <trkpt lat="45.79533" lon="4.82947">
        <ele>216</ele>
        <time>2011-10-16T10:38:25Z</time>
      </trkpt>
      <trkpt lat="45.79536" lon="4.82951">
        <ele>216</ele>
        <time>2011-10-16T10:38:26Z</time>
      </trkpt>
      <trkpt lat="45.79538" lon="4.82954">
        <ele>217</ele>
        <time>2011-10-16T10:38:27Z</time>
      </trkpt>
      <trkpt lat="45.79539" lon="4.82957">
        <ele>216</ele>
        <time>2011-10-16T10:38:28Z</time>
      </trkpt>
      <trkpt lat="45.7954" lon="4.82961">
        <ele>216</ele>
        <time>2011-10-16T10:38:29Z</time>
      </trkpt>
      <trkpt lat="45.79542" lon="4.82964">
        <ele>217</ele>
        <time>2011-10-16T10:38:30Z</time>
      </trkpt>
      <trkpt lat="45.79544" lon="4.82968">
        <ele>217</ele>
        <time>2011-10-16T10:38:31Z</time>
      </trkpt>
      <trkpt lat="45.79545" lon="4.8297">
        <ele>216</ele>
        <time>2011-10-16T10:38:32Z</time>
      </trkpt>
      <trkpt lat="45.79547" lon="4.82973">
        <ele>216</ele>
        <time>2011-10-16T10:38:33Z</time>
      </trkpt>
      <trkpt lat="45.79549" lon="4.82976">
        <ele>217</ele>
        <time>2011-10-16T10:38:34Z</time>
      </trkpt>
      <trkpt lat="45.7955" lon="4.82979">
        <ele>217</ele>
        <time>2011-10-16T10:38:35Z</time>
      </trkpt>
      <trkpt lat="45.79552" lon="4.82982">
        <ele>216</ele>
        <time>2011-10-16T10:38:36Z</time>
      </trkpt>
      <trkpt lat="45.79553" lon="4.82985">
        <ele>216</ele>
        <time>2011-10-16T10:38:37Z</time>
      </trkpt>
      <trkpt lat="45.79555" lon="4.82988">
        <ele>216</ele>
        <time>2011-10-16T10:38:38Z</time>
      </trkpt>
      <trkpt lat="45.79556" lon="4.82991">
        <ele>216</ele>
        <time>2011-10-16T10:38:39Z</time>
      </trkpt>
      <trkpt lat="45.79557" lon="4.82994">
        <ele>215</ele>
        <time>2011-10-16T10:38:40Z</time>
      </trkpt>
      <trkpt lat="45.79559" lon="4.82997">
        <ele>214</ele>
        <time>2011-10-16T10:38:41Z</time>
      </trkpt>
      <trkpt lat="45.79559" lon="4.82999">
        <ele>214</ele>
        <time>2011-10-16T10:38:42Z</time>
      </trkpt>
      <trkpt lat="45.79561" lon="4.83003">
        <ele>214</ele>
        <time>2011-10-16T10:38:43Z</time>
      </trkpt>
      <trkpt lat="45.79562" lon="4.83006">
        <ele>214</ele>
        <time>2011-10-16T10:38:44Z</time>
      </trkpt>
      <trkpt lat="45.79564" lon="4.8301">
        <ele>214</ele>
        <time>2011-10-16T10:38:45Z</time>
      </trkpt>
      <trkpt lat="45.79566" lon="4.83013">
        <ele>214</ele>
        <time>2011-10-16T10:38:46Z</time>
      </trkpt>
      <trkpt lat="45.79567" lon="4.83016">
        <ele>214</ele>
        <time>2011-10-16T10:38:47Z</time>
      </trkpt>
      <trkpt lat="45.79568" lon="4.83019">
        <ele>213</ele>
        <time>2011-10-16T10:38:48Z</time>
      </trkpt>
      <trkpt lat="45.79569" lon="4.83022">
        <ele>212</ele>
        <time>2011-10-16T10:38:49Z</time>
      </trkpt>
      <trkpt lat="45.7957" lon="4.83025">
        <ele>212</ele>
        <time>2011-10-16T10:38:50Z</time>
      </trkpt>
      <trkpt lat="45.79572" lon="4.83028">
        <ele>213</ele>
        <time>2011-10-16T10:38:51Z</time>
      </trkpt>
      <trkpt lat="45.79574" lon="4.83032">
        <ele>214</ele>
        <time>2011-10-16T10:38:52Z</time>
      </trkpt>
      <trkpt lat="45.79575" lon="4.83035">
        <ele>214</ele>
        <time>2011-10-16T10:38:53Z</time>
      </trkpt>
      <trkpt lat="45.79577" lon="4.83038">
        <ele>214</ele>
        <time>2011-10-16T10:38:54Z</time>
      </trkpt>
      <trkpt lat="45.79578" lon="4.83042">
        <ele>215</ele>
        <time>2011-10-16T10:38:55Z</time>
      </trkpt>
      <trkpt lat="45.79579" lon="4.83044">
        <ele>215</ele>
        <time>2011-10-16T10:38:56Z</time>
      </trkpt>
      <trkpt lat="45.79581" lon="4.83048">
        <ele>215</ele>
        <time>2011-10-16T10:38:57Z</time>
      </trkpt>
      <trkpt lat="45.79581" lon="4.83052">
        <ele>215</ele>
        <time>2011-10-16T10:38:58Z</time>
      </trkpt>
      <trkpt lat="45.79582" lon="4.83055">
        <ele>216</ele>
        <time>2011-10-16T10:38:59Z</time>
      </trkpt>
      <trkpt lat="45.79583" lon="4.83059">
        <ele>215</ele>
        <time>2011-10-16T10:39:00Z</time>
      </trkpt>
      <trkpt lat="45.79584" lon="4.83063">
        <ele>216</ele>
        <time>2011-10-16T10:39:01Z</time>
      </trkpt>
      <trkpt lat="45.79587" lon="4.83065">
        <ele>216</ele>
        <time>2011-10-16T10:39:02Z</time>
      </trkpt>
      <trkpt lat="45.79588" lon="4.83069">
        <ele>217</ele>
        <time>2011-10-16T10:39:03Z</time>
      </trkpt>
      <trkpt lat="45.7959" lon="4.83072">
        <ele>218</ele>
        <time>2011-10-16T10:39:04Z</time>
      </trkpt>
      <trkpt lat="45.79591" lon="4.83075">
        <ele>218</ele>
        <time>2011-10-16T10:39:05Z</time>
      </trkpt>
      <trkpt lat="45.7959" lon="4.83079">
        <ele>218</ele>
        <time>2011-10-16T10:39:06Z</time>
      </trkpt>
      <trkpt lat="45.7959" lon="4.83083">
        <ele>218</ele>
        <time>2011-10-16T10:39:07Z</time>
      </trkpt>
      <trkpt lat="45.79591" lon="4.83088">
        <ele>220</ele>
        <time>2011-10-16T10:39:08Z</time>
      </trkpt>
      <trkpt lat="45.79592" lon="4.83092">
        <ele>221</ele>
        <time>2011-10-16T10:39:09Z</time>
      </trkpt>
      <trkpt lat="45.79592" lon="4.83095">
        <ele>221</ele>
        <time>2011-10-16T10:39:10Z</time>
      </trkpt>
      <trkpt lat="45.79593" lon="4.83099">
        <ele>221</ele>
        <time>2011-10-16T10:39:11Z</time>
      </trkpt>
      <trkpt lat="45.79594" lon="4.83102">
        <ele>222</ele>
        <time>2011-10-16T10:39:12Z</time>
      </trkpt>
      <trkpt lat="45.79595" lon="4.83107">
        <ele>222</ele>
        <time>2011-10-16T10:39:13Z</time>
      </trkpt>
      <trkpt lat="45.79597" lon="4.8311">
        <ele>223</ele>
        <time>2011-10-16T10:39:14Z</time>
      </trkpt>
      <trkpt lat="45.79598" lon="4.83112">
        <ele>223</ele>
        <time>2011-10-16T10:39:15Z</time>
      </trkpt>
      <trkpt lat="45.79599" lon="4.83115">
        <ele>224</ele>
        <time>2011-10-16T10:39:16Z</time>
      </trkpt>
      <trkpt lat="45.79599" lon="4.83119">
        <ele>224</ele>
        <time>2011-10-16T10:39:17Z</time>
      </trkpt>
      <trkpt lat="45.796" lon="4.83122">
        <ele>224</ele>
        <time>2011-10-16T10:39:18Z</time>
      </trkpt>
      <trkpt lat="45.79601" lon="4.83125">
        <ele>224</ele>
        <time>2011-10-16T10:39:19Z</time>
      </trkpt>
      <trkpt lat="45.79602" lon="4.83128">
        <ele>224</ele>
        <time>2011-10-16T10:39:20Z</time>
      </trkpt>
      <trkpt lat="45.79603" lon="4.83131">
        <ele>224</ele>
        <time>2011-10-16T10:39:21Z</time>
      </trkpt>
      <trkpt lat="45.79603" lon="4.83137">
        <ele>224</ele>
        <time>2011-10-16T10:39:22Z</time>
      </trkpt>
      <trkpt lat="45.79603" lon="4.8314">
        <ele>224</ele>
        <time>2011-10-16T10:39:23Z</time>
      </trkpt>
      <trkpt lat="45.79604" lon="4.83144">
        <ele>224</ele>
        <time>2011-10-16T10:39:24Z</time>
      </trkpt>
      <trkpt lat="45.79605" lon="4.83147">
        <ele>224</ele>
        <time>2011-10-16T10:39:25Z</time>
      </trkpt>
      <trkpt lat="45.79605" lon="4.83151">
        <ele>224</ele>
        <time>2011-10-16T10:39:26Z</time>
      </trkpt>
      <trkpt lat="45.79605" lon="4.83154">
        <ele>224</ele>
        <time>2011-10-16T10:39:27Z</time>
      </trkpt>
      <trkpt lat="45.79605" lon="4.83159">
        <ele>223</ele>
        <time>2011-10-16T10:39:28Z</time>
      </trkpt>
      <trkpt lat="45.79605" lon="4.83161">
        <ele>223</ele>
        <time>2011-10-16T10:39:29Z</time>
      </trkpt>
      <trkpt lat="45.79605" lon="4.83164">
        <ele>222</ele>
        <time>2011-10-16T10:39:30Z</time>
      </trkpt>
      <trkpt lat="45.79605" lon="4.83166">
        <ele>222</ele>
        <time>2011-10-16T10:39:31Z</time>
      </trkpt>
      <trkpt lat="45.79606" lon="4.83169">
        <ele>222</ele>
        <time>2011-10-16T10:39:32Z</time>
      </trkpt>
      <trkpt lat="45.79606" lon="4.83173">
        <ele>221</ele>
        <time>2011-10-16T10:39:33Z</time>
      </trkpt>
      <trkpt lat="45.79609" lon="4.83174">
        <ele>222</ele>
        <time>2011-10-16T10:39:34Z</time>
      </trkpt>
      <trkpt lat="45.7961" lon="4.83175">
        <ele>222</ele>
        <time>2011-10-16T10:39:35Z</time>
      </trkpt>
      <trkpt lat="45.79613" lon="4.83174">
        <ele>221</ele>
        <time>2011-10-16T10:39:36Z</time>
      </trkpt>
      <trkpt lat="45.79614" lon="4.83173">
        <ele>221</ele>
        <time>2011-10-16T10:39:37Z</time>
      </trkpt>
      <trkpt lat="45.79616" lon="4.8317">
        <ele>220</ele>
        <time>2011-10-16T10:39:38Z</time>
      </trkpt>
      <trkpt lat="45.79619" lon="4.83169">
        <ele>220</ele>
        <time>2011-10-16T10:39:39Z</time>
      </trkpt>
      <trkpt lat="45.79622" lon="4.83168">
        <ele>220</ele>
        <time>2011-10-16T10:39:40Z</time>
      </trkpt>
      <trkpt lat="45.79624" lon="4.83167">
        <ele>219</ele>
        <time>2011-10-16T10:39:41Z</time>
      </trkpt>
      <trkpt lat="45.79626" lon="4.83166">
        <ele>219</ele>
        <time>2011-10-16T10:39:42Z</time>
      </trkpt>
      <trkpt lat="45.79628" lon="4.83166">
        <ele>219</ele>
        <time>2011-10-16T10:39:43Z</time>
      </trkpt>
      <trkpt lat="45.7963" lon="4.83167">
        <ele>220</ele>
        <time>2011-10-16T10:39:44Z</time>
      </trkpt>
      <trkpt lat="45.79634" lon="4.83165">
        <ele>219</ele>
        <time>2011-10-16T10:39:45Z</time>
      </trkpt>
      <trkpt lat="45.79636" lon="4.83163">
        <ele>219</ele>
        <time>2011-10-16T10:39:46Z</time>
      </trkpt>
      <trkpt lat="45.79639" lon="4.83161">
        <ele>219</ele>
        <time>2011-10-16T10:39:47Z</time>
      </trkpt>
      <trkpt lat="45.79641" lon="4.8316">
        <ele>220</ele>
        <time>2011-10-16T10:39:48Z</time>
      </trkpt>
      <trkpt lat="45.79644" lon="4.83159">
        <ele>220</ele>
        <time>2011-10-16T10:39:49Z</time>
      </trkpt>
      <trkpt lat="45.79646" lon="4.83159">
        <ele>220</ele>
        <time>2011-10-16T10:39:50Z</time>
      </trkpt>
      <trkpt lat="45.79648" lon="4.83157">
        <ele>220</ele>
        <time>2011-10-16T10:39:51Z</time>
      </trkpt>
      <trkpt lat="45.79649" lon="4.83154">
        <ele>219</ele>
        <time>2011-10-16T10:39:52Z</time>
      </trkpt>
      <trkpt lat="45.79652" lon="4.83152">
        <ele>219</ele>
        <time>2011-10-16T10:39:53Z</time>
      </trkpt>
      <trkpt lat="45.79654" lon="4.83151">
        <ele>220</ele>
        <time>2011-10-16T10:39:54Z</time>
      </trkpt>
      <trkpt lat="45.79657" lon="4.83148">
        <ele>220</ele>
        <time>2011-10-16T10:39:55Z</time>
      </trkpt>
      <trkpt lat="45.79659" lon="4.83146">
        <ele>219</ele>
        <time>2011-10-16T10:39:56Z</time>
      </trkpt>
      <trkpt lat="45.79662" lon="4.83144">
        <ele>219</ele>
        <time>2011-10-16T10:39:57Z</time>
      </trkpt>
      <trkpt lat="45.79664" lon="4.83142">
        <ele>219</ele>
        <time>2011-10-16T10:39:58Z</time>
      </trkpt>
      <trkpt lat="45.79666" lon="4.8314">
        <ele>218</ele>
        <time>2011-10-16T10:39:59Z</time>
      </trkpt>
      <trkpt lat="45.79669" lon="4.83139">
        <ele>218</ele>
        <time>2011-10-16T10:40:00Z</time>
      </trkpt>
      <trkpt lat="45.79671" lon="4.83138">
        <ele>219</ele>
        <time>2011-10-16T10:40:01Z</time>
      </trkpt>
      <trkpt lat="45.79673" lon="4.83137">
        <ele>219</ele>
        <time>2011-10-16T10:40:02Z</time>
      </trkpt>
      <trkpt lat="45.79676" lon="4.83135">
        <ele>218</ele>
        <time>2011-10-16T10:40:03Z</time>
      </trkpt>
      <trkpt lat="45.79678" lon="4.83133">
        <ele>218</ele>
        <time>2011-10-16T10:40:04Z</time>
      </trkpt>
      <trkpt lat="45.7968" lon="4.83131">
        <ele>217</ele>
        <time>2011-10-16T10:40:05Z</time>
      </trkpt>
      <trkpt lat="45.79683" lon="4.83129">
        <ele>217</ele>
        <time>2011-10-16T10:40:06Z</time>
      </trkpt>
      <trkpt lat="45.79685" lon="4.83128">
        <ele>217</ele>
        <time>2011-10-16T10:40:07Z</time>
      </trkpt>
      <trkpt lat="45.79687" lon="4.83125">
        <ele>217</ele>
        <time>2011-10-16T10:40:08Z</time>
      </trkpt>
      <trkpt lat="45.79689" lon="4.83124">
        <ele>217</ele>
        <time>2011-10-16T10:40:09Z</time>
      </trkpt>
      <trkpt lat="45.79691" lon="4.83123">
        <ele>216</ele>
        <time>2011-10-16T10:40:10Z</time>
      </trkpt>
      <trkpt lat="45.79693" lon="4.83122">
        <ele>216</ele>
        <time>2011-10-16T10:40:11Z</time>
      </trkpt>
      <trkpt lat="45.79695" lon="4.83121">
        <ele>216</ele>
        <time>2011-10-16T10:40:12Z</time>
      </trkpt>
      <trkpt lat="45.79697" lon="4.83119">
        <ele>216</ele>
        <time>2011-10-16T10:40:13Z</time>
      </trkpt>
      <trkpt lat="45.79698" lon="4.83118">
        <ele>216.85922241211</ele>
        <time>2011-10-16T10:40:14Z</time>
      </trkpt>
      <trkpt lat="45.797" lon="4.83117">
        <ele>217</ele>
        <time>2011-10-16T10:40:15Z</time>
      </trkpt>
      <trkpt lat="45.79702" lon="4.83115">
        <ele>218</ele>
        <time>2011-10-16T10:40:16Z</time>
      </trkpt>
      <trkpt lat="45.79703" lon="4.83113">
        <ele>218</ele>
        <time>2011-10-16T10:40:17Z</time>
      </trkpt>
      <trkpt lat="45.79702" lon="4.83113">
        <ele>218</ele>
        <time>2011-10-16T10:40:18Z</time>
      </trkpt>
      <trkpt lat="45.79701" lon="4.83114">
        <ele>218</ele>
        <time>2011-10-16T10:40:19Z</time>
      </trkpt>
      <trkpt lat="45.797" lon="4.83115">
        <ele>218</ele>
        <time>2011-10-16T10:40:20Z</time>
      </trkpt>
      <trkpt lat="45.79699" lon="4.83116">
        <ele>218</ele>
        <time>2011-10-16T10:40:21Z</time>
      </trkpt>
      <trkpt lat="45.79699" lon="4.83117">
        <ele>218</ele>
        <time>2011-10-16T10:40:22Z</time>
      </trkpt>
      <trkpt lat="45.79695" lon="4.83119">
        <ele>218</ele>
        <time>2011-10-16T10:40:23Z</time>
      </trkpt>
      <trkpt lat="45.79695" lon="4.83123">
        <ele>217</ele>
        <time>2011-10-16T10:40:24Z</time>
      </trkpt>
      <trkpt lat="45.79695" lon="4.83125">
        <ele>217</ele>
        <time>2011-10-16T10:40:25Z</time>
      </trkpt>
      <trkpt lat="45.79705" lon="4.83149">
        <ele>220</ele>
        <time>2011-10-16T10:40:38Z</time>
      </trkpt>
      <trkpt lat="45.79705" lon="4.83153">
        <ele>220</ele>
        <time>2011-10-16T10:40:39Z</time>
      </trkpt>
      <trkpt lat="45.79706" lon="4.83158">
        <ele>220</ele>
        <time>2011-10-16T10:40:40Z</time>
      </trkpt>
      <trkpt lat="45.79707" lon="4.83162">
        <ele>220</ele>
        <time>2011-10-16T10:40:41Z</time>
      </trkpt>
      <trkpt lat="45.79707" lon="4.83166">
        <ele>221</ele>
        <time>2011-10-16T10:40:42Z</time>
      </trkpt>
      <trkpt lat="45.79707" lon="4.8317">
        <ele>221</ele>
        <time>2011-10-16T10:40:43Z</time>
      </trkpt>
      <trkpt lat="45.79707" lon="4.83174">
        <ele>222</ele>
        <time>2011-10-16T10:40:44Z</time>
      </trkpt>
      <trkpt lat="45.79709" lon="4.83176">
        <ele>222</ele>
        <time>2011-10-16T10:40:45Z</time>
      </trkpt>
      <trkpt lat="45.79709" lon="4.83178">
        <ele>222</ele>
        <time>2011-10-16T10:40:46Z</time>
      </trkpt>
      <trkpt lat="45.79709" lon="4.83181">
        <ele>221</ele>
        <time>2011-10-16T10:40:47Z</time>
      </trkpt>
      <trkpt lat="45.7971" lon="4.83183">
        <ele>221</ele>
        <time>2011-10-16T10:40:48Z</time>
      </trkpt>
      <trkpt lat="45.7971" lon="4.83187">
        <ele>221</ele>
        <time>2011-10-16T10:40:49Z</time>
      </trkpt>
      <trkpt lat="45.79711" lon="4.8319">
        <ele>221</ele>
        <time>2011-10-16T10:40:50Z</time>
      </trkpt>
      <trkpt lat="45.79711" lon="4.83195">
        <ele>220</ele>
        <time>2011-10-16T10:40:51Z</time>
      </trkpt>
      <trkpt lat="45.79713" lon="4.83198">
        <ele>218</ele>
        <time>2011-10-16T10:40:52Z</time>
      </trkpt>
      <trkpt lat="45.79715" lon="4.83199">
        <ele>218</ele>
        <time>2011-10-16T10:40:53Z</time>
      </trkpt>
      <trkpt lat="45.79717" lon="4.83201">
        <ele>218</ele>
        <time>2011-10-16T10:40:54Z</time>
      </trkpt>
      <trkpt lat="45.79717" lon="4.83205">
        <ele>218</ele>
        <time>2011-10-16T10:40:55Z</time>
      </trkpt>
      <trkpt lat="45.79718" lon="4.83209">
        <ele>218</ele>
        <time>2011-10-16T10:40:56Z</time>
      </trkpt>
      <trkpt lat="45.79718" lon="4.83211">
        <ele>218</ele>
        <time>2011-10-16T10:40:57Z</time>
      </trkpt>
      <trkpt lat="45.79718" lon="4.83214">
        <ele>217</ele>
        <time>2011-10-16T10:40:58Z</time>
      </trkpt>
      <trkpt lat="45.79718" lon="4.83216">
        <ele>217</ele>
        <time>2011-10-16T10:41:00Z</time>
      </trkpt>
      <trkpt lat="45.79718" lon="4.83216">
        <ele>217.01301574707</ele>
        <time>2011-10-16T10:41:00Z</time>
      </trkpt>
      <trkpt lat="45.79718" lon="4.83217">
        <ele>217.00491333008</ele>
        <time>2011-10-16T10:41:01Z</time>
      </trkpt>
      <trkpt lat="45.79719" lon="4.83217">
        <ele>216</ele>
        <time>2011-10-16T10:41:02Z</time>
      </trkpt>
      <trkpt lat="45.7972" lon="4.83219">
        <ele>216</ele>
        <time>2011-10-16T10:41:03Z</time>
      </trkpt>
      <trkpt lat="45.79721" lon="4.83221">
        <ele>216</ele>
        <time>2011-10-16T10:41:04Z</time>
      </trkpt>
      <trkpt lat="45.79722" lon="4.83225">
        <ele>217</ele>
        <time>2011-10-16T10:41:05Z</time>
      </trkpt>
      <trkpt lat="45.79722" lon="4.83228">
        <ele>217</ele>
        <time>2011-10-16T10:41:06Z</time>
      </trkpt>
      <trkpt lat="45.79724" lon="4.83232">
        <ele>216</ele>
        <time>2011-10-16T10:41:07Z</time>
      </trkpt>
      <trkpt lat="45.79726" lon="4.83235">
        <ele>215</ele>
        <time>2011-10-16T10:41:08Z</time>
      </trkpt>
      <trkpt lat="45.79727" lon="4.83238">
        <ele>214</ele>
        <time>2011-10-16T10:41:09Z</time>
      </trkpt>
      <trkpt lat="45.79728" lon="4.83241">
        <ele>214</ele>
        <time>2011-10-16T10:41:10Z</time>
      </trkpt>
      <trkpt lat="45.79728" lon="4.83243">
        <ele>214</ele>
        <time>2011-10-16T10:41:11Z</time>
      </trkpt>
      <trkpt lat="45.79728" lon="4.83248">
        <ele>214</ele>
        <time>2011-10-16T10:41:12Z</time>
      </trkpt>
      <trkpt lat="45.79728" lon="4.83251">
        <ele>214</ele>
        <time>2011-10-16T10:41:13Z</time>
      </trkpt>
      <trkpt lat="45.79728" lon="4.83255">
        <ele>214</ele>
        <time>2011-10-16T10:41:14Z</time>
      </trkpt>
      <trkpt lat="45.79726" lon="4.83259">
        <ele>214</ele>
        <time>2011-10-16T10:41:15Z</time>
      </trkpt>
      <trkpt lat="45.79725" lon="4.83263">
        <ele>213</ele>
        <time>2011-10-16T10:41:16Z</time>
      </trkpt>
      <trkpt lat="45.79724" lon="4.83268">
        <ele>213</ele>
        <time>2011-10-16T10:41:17Z</time>
      </trkpt>
      <trkpt lat="45.79723" lon="4.83272">
        <ele>213</ele>
        <time>2011-10-16T10:41:18Z</time>
      </trkpt>
      <trkpt lat="45.7972" lon="4.83276">
        <ele>212</ele>
        <time>2011-10-16T10:41:19Z</time>
      </trkpt>
      <trkpt lat="45.79721" lon="4.83281">
        <ele>212</ele>
        <time>2011-10-16T10:41:20Z</time>
      </trkpt>
      <trkpt lat="45.7972" lon="4.83287">
        <ele>210</ele>
        <time>2011-10-16T10:41:21Z</time>
      </trkpt>
      <trkpt lat="45.79721" lon="4.83291">
        <ele>211</ele>
        <time>2011-10-16T10:41:22Z</time>
      </trkpt>
      <trkpt lat="45.79721" lon="4.83293">
        <ele>211</ele>
        <time>2011-10-16T10:41:23Z</time>
      </trkpt>
      <trkpt lat="45.79724" lon="4.83301">
        <ele>211</ele>
        <time>2011-10-16T10:41:24Z</time>
      </trkpt>
      <trkpt lat="45.79726" lon="4.83306">
        <ele>210</ele>
        <time>2011-10-16T10:41:25Z</time>
      </trkpt>
      <trkpt lat="45.7973" lon="4.83309">
        <ele>212</ele>
        <time>2011-10-16T10:41:26Z</time>
      </trkpt>
      <trkpt lat="45.79733" lon="4.83312">
        <ele>212</ele>
        <time>2011-10-16T10:41:27Z</time>
      </trkpt>
      <trkpt lat="45.79735" lon="4.83316">
        <ele>213</ele>
        <time>2011-10-16T10:41:28Z</time>
      </trkpt>
      <trkpt lat="45.79737" lon="4.83321">
        <ele>214</ele>
        <time>2011-10-16T10:41:29Z</time>
      </trkpt>
      <trkpt lat="45.79738" lon="4.83321">
        <ele>214</ele>
        <time>2011-10-16T10:41:30Z</time>
      </trkpt>
      <trkpt lat="45.79739" lon="4.83322">
        <ele>214.50068664551</ele>
        <time>2011-10-16T10:41:31Z</time>
      </trkpt>
      <trkpt lat="45.79742" lon="4.83325">
        <ele>215</ele>
        <time>2011-10-16T10:41:32Z</time>
      </trkpt>
      <trkpt lat="45.79744" lon="4.83326">
        <ele>216</ele>
        <time>2011-10-16T10:41:33Z</time>
      </trkpt>
      <trkpt lat="45.79746" lon="4.83327">
        <ele>216</ele>
        <time>2011-10-16T10:41:34Z</time>
      </trkpt>
      <trkpt lat="45.79745" lon="4.83331">
        <ele>216</ele>
        <time>2011-10-16T10:41:35Z</time>
      </trkpt>
      <trkpt lat="45.79746" lon="4.83332">
        <ele>216</ele>
        <time>2011-10-16T10:41:36Z</time>
      </trkpt>
      <trkpt lat="45.79746" lon="4.83335">
        <ele>216</ele>
        <time>2011-10-16T10:41:37Z</time>
      </trkpt>
      <trkpt lat="45.79748" lon="4.83337">
        <ele>216</ele>
        <time>2011-10-16T10:41:38Z</time>
      </trkpt>
      <trkpt lat="45.7975" lon="4.83339">
        <ele>216</ele>
        <time>2011-10-16T10:41:39Z</time>
      </trkpt>
      <trkpt lat="45.79753" lon="4.83341">
        <ele>215</ele>
        <time>2011-10-16T10:41:40Z</time>
      </trkpt>
      <trkpt lat="45.79754" lon="4.83343">
        <ele>214</ele>
        <time>2011-10-16T10:41:41Z</time>
      </trkpt>
      <trkpt lat="45.79755" lon="4.83345">
        <ele>215</ele>
        <time>2011-10-16T10:41:42Z</time>
      </trkpt>
      <trkpt lat="45.79755" lon="4.8335">
        <ele>214</ele>
        <time>2011-10-16T10:41:43Z</time>
      </trkpt>
      <trkpt lat="45.79757" lon="4.83353">
        <ele>214</ele>
        <time>2011-10-16T10:41:44Z</time>
      </trkpt>
      <trkpt lat="45.79758" lon="4.83356">
        <ele>213</ele>
        <time>2011-10-16T10:41:45Z</time>
      </trkpt>
      <trkpt lat="45.79759" lon="4.83358">
        <ele>213</ele>
        <time>2011-10-16T10:41:46Z</time>
      </trkpt>
      <trkpt lat="45.79761" lon="4.8336">
        <ele>213</ele>
        <time>2011-10-16T10:41:47Z</time>
      </trkpt>
      <trkpt lat="45.79761" lon="4.83364">
        <ele>213</ele>
        <time>2011-10-16T10:41:48Z</time>
      </trkpt>
      <trkpt lat="45.79761" lon="4.83367">
        <ele>213</ele>
        <time>2011-10-16T10:41:49Z</time>
      </trkpt>
      <trkpt lat="45.79761" lon="4.8337">
        <ele>215</ele>
        <time>2011-10-16T10:41:50Z</time>
      </trkpt>
      <trkpt lat="45.79762" lon="4.83373">
        <ele>216</ele>
        <time>2011-10-16T10:41:51Z</time>
      </trkpt>
      <trkpt lat="45.79762" lon="4.83376">
        <ele>217</ele>
        <time>2011-10-16T10:41:52Z</time>
      </trkpt>
      <trkpt lat="45.79762" lon="4.8338">
        <ele>218</ele>
        <time>2011-10-16T10:41:53Z</time>
      </trkpt>
      <trkpt lat="45.79763" lon="4.83382">
        <ele>218</ele>
        <time>2011-10-16T10:41:54Z</time>
      </trkpt>
      <trkpt lat="45.79765" lon="4.83386">
        <ele>219</ele>
        <time>2011-10-16T10:41:55Z</time>
      </trkpt>
      <trkpt lat="45.79766" lon="4.83388">
        <ele>219</ele>
        <time>2011-10-16T10:41:56Z</time>
      </trkpt>
      <trkpt lat="45.79768" lon="4.8339">
        <ele>219</ele>
        <time>2011-10-16T10:41:57Z</time>
      </trkpt>
      <trkpt lat="45.79771" lon="4.83391">
        <ele>220</ele>
        <time>2011-10-16T10:41:58Z</time>
      </trkpt>
      <trkpt lat="45.79772" lon="4.83394">
        <ele>221</ele>
        <time>2011-10-16T10:41:59Z</time>
      </trkpt>
      <trkpt lat="45.79774" lon="4.83397">
        <ele>221</ele>
        <time>2011-10-16T10:42:00Z</time>
      </trkpt>
      <trkpt lat="45.79775" lon="4.83401">
        <ele>221</ele>
        <time>2011-10-16T10:42:01Z</time>
      </trkpt>
      <trkpt lat="45.79776" lon="4.83403">
        <ele>221</ele>
        <time>2011-10-16T10:42:02Z</time>
      </trkpt>
      <trkpt lat="45.79775" lon="4.83405">
        <ele>221</ele>
        <time>2011-10-16T10:42:03Z</time>
      </trkpt>
      <trkpt lat="45.79775" lon="4.83408">
        <ele>221</ele>
        <time>2011-10-16T10:42:04Z</time>
      </trkpt>
      <trkpt lat="45.79777" lon="4.8341">
        <ele>222</ele>
        <time>2011-10-16T10:42:05Z</time>
      </trkpt>
      <trkpt lat="45.79779" lon="4.83411">
        <ele>222</ele>
        <time>2011-10-16T10:42:06Z</time>
      </trkpt>
      <trkpt lat="45.7978" lon="4.83415">
        <ele>222</ele>
        <time>2011-10-16T10:42:07Z</time>
      </trkpt>
      <trkpt lat="45.79783" lon="4.83418">
        <ele>222</ele>
        <time>2011-10-16T10:42:08Z</time>
      </trkpt>
      <trkpt lat="45.79785" lon="4.8342">
        <ele>222</ele>
        <time>2011-10-16T10:42:09Z</time>
      </trkpt>
      <trkpt lat="45.79788" lon="4.83423">
        <ele>222</ele>
        <time>2011-10-16T10:42:10Z</time>
      </trkpt>
      <trkpt lat="45.7979" lon="4.83424">
        <ele>222</ele>
        <time>2011-10-16T10:42:11Z</time>
      </trkpt>
      <trkpt lat="45.79793" lon="4.83426">
        <ele>222</ele>
        <time>2011-10-16T10:42:12Z</time>
      </trkpt>
      <trkpt lat="45.79796" lon="4.83428">
        <ele>223</ele>
        <time>2011-10-16T10:42:13Z</time>
      </trkpt>
      <trkpt lat="45.79798" lon="4.8343">
        <ele>223</ele>
        <time>2011-10-16T10:42:14Z</time>
      </trkpt>
      <trkpt lat="45.79801" lon="4.83433">
        <ele>223</ele>
        <time>2011-10-16T10:42:15Z</time>
      </trkpt>
      <trkpt lat="45.79803" lon="4.83436">
        <ele>222</ele>
        <time>2011-10-16T10:42:16Z</time>
      </trkpt>
      <trkpt lat="45.79806" lon="4.83439">
        <ele>222</ele>
        <time>2011-10-16T10:42:17Z</time>
      </trkpt>
      <trkpt lat="45.7981" lon="4.83441">
        <ele>222</ele>
        <time>2011-10-16T10:42:18Z</time>
      </trkpt>
      <trkpt lat="45.79812" lon="4.83443">
        <ele>222</ele>
        <time>2011-10-16T10:42:19Z</time>
      </trkpt>
      <trkpt lat="45.79814" lon="4.83444">
        <ele>222</ele>
        <time>2011-10-16T10:42:20Z</time>
      </trkpt>
      <trkpt lat="45.79817" lon="4.83446">
        <ele>222</ele>
        <time>2011-10-16T10:42:21Z</time>
      </trkpt>
      <trkpt lat="45.79819" lon="4.83447">
        <ele>222</ele>
        <time>2011-10-16T10:42:22Z</time>
      </trkpt>
      <trkpt lat="45.79823" lon="4.83448">
        <ele>222</ele>
        <time>2011-10-16T10:42:23Z</time>
      </trkpt>
      <trkpt lat="45.79826" lon="4.8345">
        <ele>222</ele>
        <time>2011-10-16T10:42:24Z</time>
      </trkpt>
      <trkpt lat="45.79828" lon="4.8345">
        <ele>222</ele>
        <time>2011-10-16T10:42:25Z</time>
      </trkpt>
      <trkpt lat="45.79828" lon="4.83452">
        <ele>222</ele>
        <time>2011-10-16T10:42:26Z</time>
      </trkpt>
      <trkpt lat="45.79831" lon="4.83452">
        <ele>222</ele>
        <time>2011-10-16T10:42:27Z</time>
      </trkpt>
      <trkpt lat="45.79833" lon="4.83453">
        <ele>223</ele>
        <time>2011-10-16T10:42:28Z</time>
      </trkpt>
      <trkpt lat="45.79835" lon="4.83453">
        <ele>223</ele>
        <time>2011-10-16T10:42:29Z</time>
      </trkpt>
      <trkpt lat="45.79836" lon="4.83453">
        <ele>223</ele>
        <time>2011-10-16T10:42:30Z</time>
      </trkpt>
      <trkpt lat="45.79839" lon="4.83453">
        <ele>223</ele>
        <time>2011-10-16T10:42:31Z</time>
      </trkpt>
      <trkpt lat="45.79841" lon="4.83454">
        <ele>222</ele>
        <time>2011-10-16T10:42:32Z</time>
      </trkpt>
      <trkpt lat="45.79844" lon="4.83452">
        <ele>221</ele>
        <time>2011-10-16T10:42:33Z</time>
      </trkpt>
      <trkpt lat="45.79846" lon="4.83446">
        <ele>220</ele>
        <time>2011-10-16T10:42:34Z</time>
      </trkpt>
      <trkpt lat="45.79848" lon="4.83447">
        <ele>220</ele>
        <time>2011-10-16T10:42:35Z</time>
      </trkpt>
      <trkpt lat="45.79852" lon="4.83444">
        <ele>221</ele>
        <time>2011-10-16T10:42:36Z</time>
      </trkpt>
      <trkpt lat="45.79852" lon="4.83441">
        <ele>220</ele>
        <time>2011-10-16T10:42:37Z</time>
      </trkpt>
      <trkpt lat="45.79849" lon="4.8344">
        <ele>219</ele>
        <time>2011-10-16T10:42:38Z</time>
      </trkpt>
      <trkpt lat="45.79849" lon="4.8344">
        <ele>219</ele>
        <time>2011-10-16T10:42:39Z</time>
      </trkpt>
      <trkpt lat="45.7985" lon="4.83441">
        <ele>218</ele>
        <time>2011-10-16T10:42:40Z</time>
      </trkpt>
      <trkpt lat="45.7985" lon="4.83442">
        <ele>216</ele>
        <time>2011-10-16T10:42:41Z</time>
      </trkpt>
      <trkpt lat="45.7985" lon="4.83443">
        <ele>216</ele>
        <time>2011-10-16T10:42:42Z</time>
      </trkpt>
      <trkpt lat="45.7985" lon="4.83443">
        <ele>215</ele>
        <time>2011-10-16T10:42:43Z</time>
      </trkpt>
      <trkpt lat="45.7985" lon="4.83444">
        <ele>214</ele>
        <time>2011-10-16T10:42:44Z</time>
      </trkpt>
      <trkpt lat="45.79851" lon="4.83445">
        <ele>213</ele>
        <time>2011-10-16T10:42:45Z</time>
      </trkpt>
      <trkpt lat="45.79851" lon="4.83443">
        <ele>213</ele>
        <time>2011-10-16T10:42:46Z</time>
      </trkpt>
      <trkpt lat="45.79852" lon="4.83443">
        <ele>212</ele>
        <time>2011-10-16T10:42:47Z</time>
      </trkpt>
      <trkpt lat="45.79852" lon="4.83443">
        <ele>212</ele>
        <time>2011-10-16T10:42:48Z</time>
      </trkpt>
      <trkpt lat="45.79853" lon="4.83445">
        <ele>212</ele>
        <time>2011-10-16T10:42:49Z</time>
      </trkpt>
      <trkpt lat="45.79852" lon="4.83443">
        <ele>213</ele>
        <time>2011-10-16T10:42:50Z</time>
      </trkpt>
      <trkpt lat="45.79834" lon="4.8344">
        <ele>207</ele>
        <time>2011-10-16T10:44:00Z</time>
      </trkpt>
      <trkpt lat="45.79828" lon="4.83444">
        <ele>206</ele>
        <time>2011-10-16T10:44:01Z</time>
      </trkpt>
      <trkpt lat="45.79823" lon="4.83445">
        <ele>206</ele>
        <time>2011-10-16T10:44:02Z</time>
      </trkpt>
      <trkpt lat="45.79818" lon="4.83446">
        <ele>206</ele>
        <time>2011-10-16T10:44:03Z</time>
      </trkpt>
      <trkpt lat="45.79815" lon="4.83445">
        <ele>206</ele>
        <time>2011-10-16T10:44:04Z</time>
      </trkpt>
      <trkpt lat="45.7981" lon="4.83447">
        <ele>206</ele>
        <time>2011-10-16T10:44:05Z</time>
      </trkpt>
      <trkpt lat="45.79807" lon="4.83446">
        <ele>206</ele>
        <time>2011-10-16T10:44:06Z</time>
      </trkpt>
      <trkpt lat="45.79805" lon="4.83446">
        <ele>206</ele>
        <time>2011-10-16T10:44:07Z</time>
      </trkpt>
      <trkpt lat="45.79803" lon="4.83445">
        <ele>206</ele>
        <time>2011-10-16T10:44:08Z</time>
      </trkpt>
      <trkpt lat="45.798" lon="4.83442">
        <ele>206</ele>
        <time>2011-10-16T10:44:09Z</time>
      </trkpt>
      <trkpt lat="45.79797" lon="4.83443">
        <ele>207</ele>
        <time>2011-10-16T10:44:10Z</time>
      </trkpt>
      <trkpt lat="45.79795" lon="4.83442">
        <ele>207</ele>
        <time>2011-10-16T10:44:11Z</time>
      </trkpt>
      <trkpt lat="45.79795" lon="4.83435">
        <ele>208</ele>
        <time>2011-10-16T10:44:12Z</time>
      </trkpt>
      <trkpt lat="45.79792" lon="4.83433">
        <ele>208</ele>
        <time>2011-10-16T10:44:13Z</time>
      </trkpt>
      <trkpt lat="45.7979" lon="4.8343">
        <ele>208</ele>
        <time>2011-10-16T10:44:14Z</time>
      </trkpt>
      <trkpt lat="45.79789" lon="4.83425">
        <ele>210</ele>
        <time>2011-10-16T10:44:15Z</time>
      </trkpt>
      <trkpt lat="45.79786" lon="4.83422">
        <ele>210</ele>
        <time>2011-10-16T10:44:16Z</time>
      </trkpt>
      <trkpt lat="45.79786" lon="4.83418">
        <ele>210</ele>
        <time>2011-10-16T10:44:17Z</time>
      </trkpt>
      <trkpt lat="45.79784" lon="4.83416">
        <ele>210</ele>
        <time>2011-10-16T10:44:18Z</time>
      </trkpt>
      <trkpt lat="45.79782" lon="4.83412">
        <ele>211</ele>
        <time>2011-10-16T10:44:19Z</time>
      </trkpt>
      <trkpt lat="45.79778" lon="4.83411">
        <ele>215</ele>
        <time>2011-10-16T10:44:20Z</time>
      </trkpt>
      <trkpt lat="45.79777" lon="4.83408">
        <ele>216</ele>
        <time>2011-10-16T10:44:21Z</time>
      </trkpt>
      <trkpt lat="45.79777" lon="4.83405">
        <ele>217</ele>
        <time>2011-10-16T10:44:22Z</time>
      </trkpt>
      <trkpt lat="45.79776" lon="4.83403">
        <ele>218</ele>
        <time>2011-10-16T10:44:23Z</time>
      </trkpt>
      <trkpt lat="45.79775" lon="4.83401">
        <ele>219</ele>
        <time>2011-10-16T10:44:24Z</time>
      </trkpt>
      <trkpt lat="45.79773" lon="4.83398">
        <ele>220</ele>
        <time>2011-10-16T10:44:25Z</time>
      </trkpt>
      <trkpt lat="45.79772" lon="4.83396">
        <ele>220</ele>
        <time>2011-10-16T10:44:26Z</time>
      </trkpt>
      <trkpt lat="45.79771" lon="4.83395">
        <ele>219</ele>
        <time>2011-10-16T10:44:27Z</time>
      </trkpt>
      <trkpt lat="45.79768" lon="4.83391">
        <ele>221</ele>
        <time>2011-10-16T10:44:28Z</time>
      </trkpt>
      <trkpt lat="45.79767" lon="4.83388">
        <ele>221</ele>
        <time>2011-10-16T10:44:29Z</time>
      </trkpt>
      <trkpt lat="45.79767" lon="4.83384">
        <ele>221</ele>
        <time>2011-10-16T10:44:30Z</time>
      </trkpt>
      <trkpt lat="45.79767" lon="4.83381">
        <ele>221</ele>
        <time>2011-10-16T10:44:31Z</time>
      </trkpt>
      <trkpt lat="45.79765" lon="4.83378">
        <ele>221</ele>
        <time>2011-10-16T10:44:32Z</time>
      </trkpt>
      <trkpt lat="45.79763" lon="4.83373">
        <ele>221</ele>
        <time>2011-10-16T10:44:33Z</time>
      </trkpt>
      <trkpt lat="45.79762" lon="4.83368">
        <ele>222</ele>
        <time>2011-10-16T10:44:34Z</time>
      </trkpt>
      <trkpt lat="45.7976" lon="4.83363">
        <ele>221</ele>
        <time>2011-10-16T10:44:35Z</time>
      </trkpt>
      <trkpt lat="45.79758" lon="4.83359">
        <ele>221</ele>
        <time>2011-10-16T10:44:36Z</time>
      </trkpt>
      <trkpt lat="45.79755" lon="4.83357">
        <ele>220</ele>
        <time>2011-10-16T10:44:37Z</time>
      </trkpt>
      <trkpt lat="45.79754" lon="4.83354">
        <ele>220</ele>
        <time>2011-10-16T10:44:38Z</time>
      </trkpt>
      <trkpt lat="45.79752" lon="4.8335">
        <ele>220</ele>
        <time>2011-10-16T10:44:39Z</time>
      </trkpt>
      <trkpt lat="45.79751" lon="4.83346">
        <ele>220</ele>
        <time>2011-10-16T10:44:40Z</time>
      </trkpt>
      <trkpt lat="45.7975" lon="4.83345">
        <ele>220</ele>
        <time>2011-10-16T10:44:41Z</time>
      </trkpt>
      <trkpt lat="45.79748" lon="4.83339">
        <ele>220</ele>
        <time>2011-10-16T10:44:42Z</time>
      </trkpt>
      <trkpt lat="45.79746" lon="4.83337">
        <ele>221</ele>
        <time>2011-10-16T10:44:43Z</time>
      </trkpt>
      <trkpt lat="45.79745" lon="4.83335">
        <ele>221</ele>
        <time>2011-10-16T10:44:44Z</time>
      </trkpt>
      <trkpt lat="45.79743" lon="4.83332">
        <ele>221</ele>
        <time>2011-10-16T10:44:45Z</time>
      </trkpt>
      <trkpt lat="45.7974" lon="4.83331">
        <ele>222</ele>
        <time>2011-10-16T10:44:46Z</time>
      </trkpt>
      <trkpt lat="45.79739" lon="4.83329">
        <ele>222</ele>
        <time>2011-10-16T10:44:47Z</time>
      </trkpt>
      <trkpt lat="45.79738" lon="4.83323">
        <ele>222</ele>
        <time>2011-10-16T10:44:48Z</time>
      </trkpt>
      <trkpt lat="45.79736" lon="4.83321">
        <ele>222</ele>
        <time>2011-10-16T10:44:49Z</time>
      </trkpt>
      <trkpt lat="45.79733" lon="4.83317">
        <ele>221</ele>
        <time>2011-10-16T10:44:50Z</time>
      </trkpt>
      <trkpt lat="45.79732" lon="4.83313">
        <ele>221</ele>
        <time>2011-10-16T10:44:51Z</time>
      </trkpt>
      <trkpt lat="45.7973" lon="4.83309">
        <ele>221</ele>
        <time>2011-10-16T10:44:52Z</time>
      </trkpt>
      <trkpt lat="45.79729" lon="4.83306">
        <ele>222</ele>
        <time>2011-10-16T10:44:53Z</time>
      </trkpt>
      <trkpt lat="45.79729" lon="4.83301">
        <ele>222</ele>
        <time>2011-10-16T10:44:54Z</time>
      </trkpt>
      <trkpt lat="45.79729" lon="4.83297">
        <ele>222</ele>
        <time>2011-10-16T10:44:55Z</time>
      </trkpt>
      <trkpt lat="45.7973" lon="4.83293">
        <ele>222</ele>
        <time>2011-10-16T10:44:56Z</time>
      </trkpt>
      <trkpt lat="45.7973" lon="4.83291">
        <ele>222</ele>
        <time>2011-10-16T10:44:57Z</time>
      </trkpt>
      <trkpt lat="45.7973" lon="4.83288">
        <ele>222</ele>
        <time>2011-10-16T10:44:58Z</time>
      </trkpt>
      <trkpt lat="45.7973" lon="4.83285">
        <ele>221</ele>
        <time>2011-10-16T10:44:59Z</time>
      </trkpt>
      <trkpt lat="45.79732" lon="4.8328">
        <ele>219</ele>
        <time>2011-10-16T10:45:00Z</time>
      </trkpt>
      <trkpt lat="45.79733" lon="4.83277">
        <ele>218</ele>
        <time>2011-10-16T10:45:01Z</time>
      </trkpt>
      <trkpt lat="45.79734" lon="4.83271">
        <ele>217</ele>
        <time>2011-10-16T10:45:02Z</time>
      </trkpt>
      <trkpt lat="45.79733" lon="4.83267">
        <ele>217</ele>
        <time>2011-10-16T10:45:03Z</time>
      </trkpt>
      <trkpt lat="45.79733" lon="4.83263">
        <ele>217</ele>
        <time>2011-10-16T10:45:04Z</time>
      </trkpt>
      <trkpt lat="45.79732" lon="4.83257">
        <ele>218</ele>
        <time>2011-10-16T10:45:05Z</time>
      </trkpt>
      <trkpt lat="45.79732" lon="4.83253">
        <ele>218</ele>
        <time>2011-10-16T10:45:06Z</time>
      </trkpt>
      <trkpt lat="45.79732" lon="4.83249">
        <ele>219</ele>
        <time>2011-10-16T10:45:07Z</time>
      </trkpt>
      <trkpt lat="45.79731" lon="4.83246">
        <ele>220</ele>
        <time>2011-10-16T10:45:08Z</time>
      </trkpt>
      <trkpt lat="45.7973" lon="4.83243">
        <ele>220</ele>
        <time>2011-10-16T10:45:09Z</time>
      </trkpt>
      <trkpt lat="45.79728" lon="4.8324">
        <ele>220</ele>
        <time>2011-10-16T10:45:10Z</time>
      </trkpt>
      <trkpt lat="45.79729" lon="4.83236">
        <ele>220</ele>
        <time>2011-10-16T10:45:11Z</time>
      </trkpt>
      <trkpt lat="45.79728" lon="4.83232">
        <ele>221</ele>
        <time>2011-10-16T10:45:12Z</time>
      </trkpt>
      <trkpt lat="45.79727" lon="4.83227">
        <ele>221</ele>
        <time>2011-10-16T10:45:13Z</time>
      </trkpt>
      <trkpt lat="45.79725" lon="4.83222">
        <ele>221</ele>
        <time>2011-10-16T10:45:14Z</time>
      </trkpt>
      <trkpt lat="45.79725" lon="4.83219">
        <ele>221</ele>
        <time>2011-10-16T10:45:15Z</time>
      </trkpt>
      <trkpt lat="45.79724" lon="4.83216">
        <ele>221</ele>
        <time>2011-10-16T10:45:16Z</time>
      </trkpt>
      <trkpt lat="45.79724" lon="4.83212">
        <ele>221</ele>
        <time>2011-10-16T10:45:17Z</time>
      </trkpt>
      <trkpt lat="45.79725" lon="4.83207">
        <ele>221</ele>
        <time>2011-10-16T10:45:18Z</time>
      </trkpt>
      <trkpt lat="45.79725" lon="4.83204">
        <ele>220</ele>
        <time>2011-10-16T10:45:19Z</time>
      </trkpt>
      <trkpt lat="45.79725" lon="4.832">
        <ele>219</ele>
        <time>2011-10-16T10:45:20Z</time>
      </trkpt>
      <trkpt lat="45.79724" lon="4.83196">
        <ele>219</ele>
        <time>2011-10-16T10:45:21Z</time>
      </trkpt>
      <trkpt lat="45.79723" lon="4.83192">
        <ele>219</ele>
        <time>2011-10-16T10:45:22Z</time>
      </trkpt>
      <trkpt lat="45.79721" lon="4.83187">
        <ele>218</ele>
        <time>2011-10-16T10:45:23Z</time>
      </trkpt>
      <trkpt lat="45.79721" lon="4.83183">
        <ele>218</ele>
        <time>2011-10-16T10:45:24Z</time>
      </trkpt>
      <trkpt lat="45.79721" lon="4.83181">
        <ele>218</ele>
        <time>2011-10-16T10:45:25Z</time>
      </trkpt>
      <trkpt lat="45.7972" lon="4.83177">
        <ele>217</ele>
        <time>2011-10-16T10:45:26Z</time>
      </trkpt>
      <trkpt lat="45.79718" lon="4.83174">
        <ele>217</ele>
        <time>2011-10-16T10:45:27Z</time>
      </trkpt>
      <trkpt lat="45.79718" lon="4.83171">
        <ele>216.18193054199</ele>
        <time>2011-10-16T10:45:28Z</time>
      </trkpt>
      <trkpt lat="45.79717" lon="4.83168">
        <ele>216</ele>
        <time>2011-10-16T10:45:29Z</time>
      </trkpt>
      <trkpt lat="45.79718" lon="4.83166">
        <ele>216</ele>
        <time>2011-10-16T10:45:30Z</time>
      </trkpt>
      <trkpt lat="45.79717" lon="4.83162">
        <ele>216</ele>
        <time>2011-10-16T10:45:31Z</time>
      </trkpt>
      <trkpt lat="45.79716" lon="4.83158">
        <ele>214</ele>
        <time>2011-10-16T10:45:32Z</time>
      </trkpt>
      <trkpt lat="45.79718" lon="4.83153">
        <ele>214</ele>
        <time>2011-10-16T10:45:33Z</time>
      </trkpt>
      <trkpt lat="45.79718" lon="4.83147">
        <ele>213</ele>
        <time>2011-10-16T10:45:34Z</time>
      </trkpt>
      <trkpt lat="45.79719" lon="4.83144">
        <ele>214</ele>
        <time>2011-10-16T10:45:35Z</time>
      </trkpt>
      <trkpt lat="45.7972" lon="4.8314">
        <ele>214</ele>
        <time>2011-10-16T10:45:36Z</time>
      </trkpt>
      <trkpt lat="45.79721" lon="4.83137">
        <ele>214</ele>
        <time>2011-10-16T10:45:37Z</time>
      </trkpt>
      <trkpt lat="45.79723" lon="4.83132">
        <ele>213</ele>
        <time>2011-10-16T10:45:38Z</time>
      </trkpt>
      <trkpt lat="45.79722" lon="4.83128">
        <ele>214</ele>
        <time>2011-10-16T10:45:39Z</time>
      </trkpt>
      <trkpt lat="45.79723" lon="4.83123">
        <ele>215</ele>
        <time>2011-10-16T10:45:40Z</time>
      </trkpt>
      <trkpt lat="45.79724" lon="4.83118">
        <ele>217</ele>
        <time>2011-10-16T10:45:41Z</time>
      </trkpt>
      <trkpt lat="45.79723" lon="4.83114">
        <ele>217</ele>
        <time>2011-10-16T10:45:42Z</time>
      </trkpt>
      <trkpt lat="45.79724" lon="4.83111">
        <ele>218</ele>
        <time>2011-10-16T10:45:43Z</time>
      </trkpt>
      <trkpt lat="45.79724" lon="4.83109">
        <ele>218</ele>
        <time>2011-10-16T10:45:44Z</time>
      </trkpt>
      <trkpt lat="45.79724" lon="4.83106">
        <ele>218</ele>
        <time>2011-10-16T10:45:45Z</time>
      </trkpt>
      <trkpt lat="45.79723" lon="4.83103">
        <ele>217</ele>
        <time>2011-10-16T10:45:46Z</time>
      </trkpt>
      <trkpt lat="45.79722" lon="4.831">
        <ele>218</ele>
        <time>2011-10-16T10:45:47Z</time>
      </trkpt>
      <trkpt lat="45.79721" lon="4.83096">
        <ele>218</ele>
        <time>2011-10-16T10:45:48Z</time>
      </trkpt>
      <trkpt lat="45.79718" lon="4.83091">
        <ele>219</ele>
        <time>2011-10-16T10:45:49Z</time>
      </trkpt>
      <trkpt lat="45.79716" lon="4.83087">
        <ele>220</ele>
        <time>2011-10-16T10:45:50Z</time>
      </trkpt>
      <trkpt lat="45.79716" lon="4.83084">
        <ele>220</ele>
        <time>2011-10-16T10:45:51Z</time>
      </trkpt>
      <trkpt lat="45.79713" lon="4.83081">
        <ele>219</ele>
        <time>2011-10-16T10:45:52Z</time>
      </trkpt>
      <trkpt lat="45.79711" lon="4.83077">
        <ele>219</ele>
        <time>2011-10-16T10:45:53Z</time>
      </trkpt>
      <trkpt lat="45.7971" lon="4.83073">
        <ele>219</ele>
        <time>2011-10-16T10:45:54Z</time>
      </trkpt>
      <trkpt lat="45.79709" lon="4.83071">
        <ele>219</ele>
        <time>2011-10-16T10:45:55Z</time>
      </trkpt>
      <trkpt lat="45.79707" lon="4.83067">
        <ele>218</ele>
        <time>2011-10-16T10:45:56Z</time>
      </trkpt>
      <trkpt lat="45.79705" lon="4.83064">
        <ele>219</ele>
        <time>2011-10-16T10:45:57Z</time>
      </trkpt>
      <trkpt lat="45.79701" lon="4.83063">
        <ele>219</ele>
        <time>2011-10-16T10:45:58Z</time>
      </trkpt>
      <trkpt lat="45.79699" lon="4.8306">
        <ele>219</ele>
        <time>2011-10-16T10:45:59Z</time>
      </trkpt>
      <trkpt lat="45.79695" lon="4.83061">
        <ele>218</ele>
        <time>2011-10-16T10:46:00Z</time>
      </trkpt>
      <trkpt lat="45.79693" lon="4.83063">
        <ele>217</ele>
        <time>2011-10-16T10:46:01Z</time>
      </trkpt>
      <trkpt lat="45.7969" lon="4.83065">
        <ele>216</ele>
        <time>2011-10-16T10:46:02Z</time>
      </trkpt>
      <trkpt lat="45.79687" lon="4.83068">
        <ele>216</ele>
        <time>2011-10-16T10:46:03Z</time>
      </trkpt>
      <trkpt lat="45.79685" lon="4.83071">
        <ele>215</ele>
        <time>2011-10-16T10:46:04Z</time>
      </trkpt>
      <trkpt lat="45.79685" lon="4.83073">
        <ele>215</ele>
        <time>2011-10-16T10:46:05Z</time>
      </trkpt>
      <trkpt lat="45.79685" lon="4.83077">
        <ele>215</ele>
        <time>2011-10-16T10:46:06Z</time>
      </trkpt>
      <trkpt lat="45.79687" lon="4.8308">
        <ele>215</ele>
        <time>2011-10-16T10:46:07Z</time>
      </trkpt>
      <trkpt lat="45.79688" lon="4.83084">
        <ele>215</ele>
        <time>2011-10-16T10:46:08Z</time>
      </trkpt>
      <trkpt lat="45.7969" lon="4.83087">
        <ele>214</ele>
        <time>2011-10-16T10:46:09Z</time>
      </trkpt>
      <trkpt lat="45.79691" lon="4.83091">
        <ele>215</ele>
        <time>2011-10-16T10:46:10Z</time>
      </trkpt>
      <trkpt lat="45.79692" lon="4.83093">
        <ele>215</ele>
        <time>2011-10-16T10:46:11Z</time>
      </trkpt>
      <trkpt lat="45.79693" lon="4.83095">
        <ele>215.48948669434</ele>
        <time>2011-10-16T10:46:12Z</time>
      </trkpt>
      <trkpt lat="45.79697" lon="4.83101">
        <ele>217</ele>
        <time>2011-10-16T10:46:13Z</time>
      </trkpt>
      <trkpt lat="45.79699" lon="4.83103">
        <ele>218</ele>
        <time>2011-10-16T10:46:14Z</time>
      </trkpt>
      <trkpt lat="45.797" lon="4.83105">
        <ele>218</ele>
        <time>2011-10-16T10:46:15Z</time>
      </trkpt>
      <trkpt lat="45.79701" lon="4.83106">
        <ele>218</ele>
        <time>2011-10-16T10:46:16Z</time>
      </trkpt>
      <trkpt lat="45.79701" lon="4.83107">
        <ele>218</ele>
        <time>2011-10-16T10:46:17Z</time>
      </trkpt>
      <trkpt lat="45.79699" lon="4.83109">
        <ele>218</ele>
        <time>2011-10-16T10:46:18Z</time>
      </trkpt>
      <trkpt lat="45.79698" lon="4.83111">
        <ele>217</ele>
        <time>2011-10-16T10:46:19Z</time>
      </trkpt>
      <trkpt lat="45.79694" lon="4.83113">
        <ele>217</ele>
        <time>2011-10-16T10:46:20Z</time>
      </trkpt>
      <trkpt lat="45.79692" lon="4.83114">
        <ele>217</ele>
        <time>2011-10-16T10:46:21Z</time>
      </trkpt>
      <trkpt lat="45.79691" lon="4.83115">
        <ele>217</ele>
        <time>2011-10-16T10:46:22Z</time>
      </trkpt>
      <trkpt lat="45.7969" lon="4.83115">
        <ele>219</ele>
        <time>2011-10-16T10:46:23Z</time>
      </trkpt>
      <trkpt lat="45.79687" lon="4.83115">
        <ele>220</ele>
        <time>2011-10-16T10:46:24Z</time>
      </trkpt>
      <trkpt lat="45.79685" lon="4.83117">
        <ele>220</ele>
        <time>2011-10-16T10:46:25Z</time>
      </trkpt>
      <trkpt lat="45.79684" lon="4.83118">
        <ele>220</ele>
        <time>2011-10-16T10:46:26Z</time>
      </trkpt>
      <trkpt lat="45.79681" lon="4.83121">
        <ele>220</ele>
        <time>2011-10-16T10:46:27Z</time>
      </trkpt>
      <trkpt lat="45.79678" lon="4.83122">
        <ele>219</ele>
        <time>2011-10-16T10:46:28Z</time>
      </trkpt>
      <trkpt lat="45.79676" lon="4.83123">
        <ele>220</ele>
        <time>2011-10-16T10:46:29Z</time>
      </trkpt>
      <trkpt lat="45.79672" lon="4.83125">
        <ele>220</ele>
        <time>2011-10-16T10:46:30Z</time>
      </trkpt>
      <trkpt lat="45.79669" lon="4.83127">
        <ele>221</ele>
        <time>2011-10-16T10:46:31Z</time>
      </trkpt>
      <trkpt lat="45.79665" lon="4.83129">
        <ele>221</ele>
        <time>2011-10-16T10:46:32Z</time>
      </trkpt>
      <trkpt lat="45.79662" lon="4.83132">
        <ele>220</ele>
        <time>2011-10-16T10:46:33Z</time>
      </trkpt>
      <trkpt lat="45.7966" lon="4.83134">
        <ele>219.32781982422</ele>
        <time>2011-10-16T10:46:34Z</time>
      </trkpt>
      <trkpt lat="45.79656" lon="4.83137">
        <ele>220</ele>
        <time>2011-10-16T10:46:35Z</time>
      </trkpt>
      <trkpt lat="45.79655" lon="4.83138">
        <ele>220</ele>
        <time>2011-10-16T10:46:36Z</time>
      </trkpt>
      <trkpt lat="45.79652" lon="4.83139">
        <ele>220</ele>
        <time>2011-10-16T10:46:37Z</time>
      </trkpt>
      <trkpt lat="45.7965" lon="4.8314">
        <ele>220</ele>
        <time>2011-10-16T10:46:38Z</time>
      </trkpt>
      <trkpt lat="45.79647" lon="4.83143">
        <ele>220</ele>
        <time>2011-10-16T10:46:39Z</time>
      </trkpt>
      <trkpt lat="45.79644" lon="4.83144">
        <ele>220</ele>
        <time>2011-10-16T10:46:40Z</time>
      </trkpt>
      <trkpt lat="45.79641" lon="4.83146">
        <ele>220</ele>
        <time>2011-10-16T10:46:41Z</time>
      </trkpt>
      <trkpt lat="45.79639" lon="4.83147">
        <ele>219</ele>
        <time>2011-10-16T10:46:42Z</time>
      </trkpt>
      <trkpt lat="45.79636" lon="4.83149">
        <ele>219</ele>
        <time>2011-10-16T10:46:43Z</time>
      </trkpt>
      <trkpt lat="45.79633" lon="4.8315">
        <ele>218</ele>
        <time>2011-10-16T10:46:44Z</time>
      </trkpt>
      <trkpt lat="45.7963" lon="4.83151">
        <ele>218</ele>
        <time>2011-10-16T10:46:45Z</time>
      </trkpt>
      <trkpt lat="45.79628" lon="4.83153">
        <ele>218</ele>
        <time>2011-10-16T10:46:46Z</time>
      </trkpt>
      <trkpt lat="45.79626" lon="4.83155">
        <ele>218</ele>
        <time>2011-10-16T10:46:47Z</time>
      </trkpt>
      <trkpt lat="45.79624" lon="4.83158">
        <ele>218</ele>
        <time>2011-10-16T10:46:48Z</time>
      </trkpt>
      <trkpt lat="45.79622" lon="4.8316">
        <ele>218</ele>
        <time>2011-10-16T10:46:49Z</time>
      </trkpt>
      <trkpt lat="45.79619" lon="4.83162">
        <ele>218</ele>
        <time>2011-10-16T10:46:50Z</time>
      </trkpt>
      <trkpt lat="45.79617" lon="4.83165">
        <ele>218</ele>
        <time>2011-10-16T10:46:51Z</time>
      </trkpt>
      <trkpt lat="45.79615" lon="4.83167">
        <ele>218</ele>
        <time>2011-10-16T10:46:52Z</time>
      </trkpt>
      <trkpt lat="45.79613" lon="4.83169">
        <ele>218</ele>
        <time>2011-10-16T10:46:53Z</time>
      </trkpt>
      <trkpt lat="45.79611" lon="4.8317">
        <ele>218</ele>
        <time>2011-10-16T10:46:54Z</time>
      </trkpt>
      <trkpt lat="45.79609" lon="4.83172">
        <ele>218</ele>
        <time>2011-10-16T10:46:55Z</time>
      </trkpt>
      <trkpt lat="45.79607" lon="4.83172">
        <ele>218</ele>
        <time>2011-10-16T10:46:56Z</time>
      </trkpt>
      <trkpt lat="45.79606" lon="4.83174">
        <ele>219</ele>
        <time>2011-10-16T10:46:57Z</time>
      </trkpt>
      <trkpt lat="45.79606" lon="4.83178">
        <ele>219</ele>
        <time>2011-10-16T10:46:58Z</time>
      </trkpt>
      <trkpt lat="45.79606" lon="4.83182">
        <ele>219</ele>
        <time>2011-10-16T10:46:59Z</time>
      </trkpt>
      <trkpt lat="45.79607" lon="4.83186">
        <ele>219</ele>
        <time>2011-10-16T10:47:00Z</time>
      </trkpt>
      <trkpt lat="45.79607" lon="4.83191">
        <ele>220</ele>
        <time>2011-10-16T10:47:01Z</time>
      </trkpt>
      <trkpt lat="45.79609" lon="4.83195">
        <ele>221</ele>
        <time>2011-10-16T10:47:02Z</time>
      </trkpt>
      <trkpt lat="45.7961" lon="4.83199">
        <ele>221</ele>
        <time>2011-10-16T10:47:03Z</time>
      </trkpt>
      <trkpt lat="45.7961" lon="4.83201">
        <ele>221</ele>
        <time>2011-10-16T10:47:04Z</time>
      </trkpt>
      <trkpt lat="45.79611" lon="4.83205">
        <ele>220</ele>
        <time>2011-10-16T10:47:05Z</time>
      </trkpt>
      <trkpt lat="45.79611" lon="4.83209">
        <ele>220</ele>
        <time>2011-10-16T10:47:06Z</time>
      </trkpt>
      <trkpt lat="45.79612" lon="4.83212">
        <ele>221</ele>
        <time>2011-10-16T10:47:07Z</time>
      </trkpt>
      <trkpt lat="45.79612" lon="4.83215">
        <ele>221</ele>
        <time>2011-10-16T10:47:08Z</time>
      </trkpt>
      <trkpt lat="45.79613" lon="4.83217">
        <ele>221</ele>
        <time>2011-10-16T10:47:09Z</time>
      </trkpt>
      <trkpt lat="45.79615" lon="4.83217">
        <ele>221</ele>
        <time>2011-10-16T10:47:10Z</time>
      </trkpt>
      <trkpt lat="45.79617" lon="4.83216">
        <ele>220</ele>
        <time>2011-10-16T10:47:11Z</time>
      </trkpt>
      <trkpt lat="45.79619" lon="4.83212">
        <ele>220</ele>
        <time>2011-10-16T10:47:12Z</time>
      </trkpt>
      <trkpt lat="45.79619" lon="4.83207">
        <ele>220</ele>
        <time>2011-10-16T10:47:13Z</time>
      </trkpt>
      <trkpt lat="45.79619" lon="4.83203">
        <ele>220</ele>
        <time>2011-10-16T10:47:14Z</time>
      </trkpt>
      <trkpt lat="45.79618" lon="4.83199">
        <ele>219</ele>
        <time>2011-10-16T10:47:15Z</time>
      </trkpt>
      <trkpt lat="45.79618" lon="4.83195">
        <ele>218</ele>
        <time>2011-10-16T10:47:16Z</time>
      </trkpt>
      <trkpt lat="45.79618" lon="4.83191">
        <ele>218</ele>
        <time>2011-10-16T10:47:17Z</time>
      </trkpt>
      <trkpt lat="45.79618" lon="4.83188">
        <ele>217.42541503906</ele>
        <time>2011-10-16T10:47:18Z</time>
      </trkpt>
      <trkpt lat="45.79619" lon="4.83182">
        <ele>217</ele>
        <time>2011-10-16T10:47:19Z</time>
      </trkpt>
      <trkpt lat="45.7962" lon="4.83178">
        <ele>217</ele>
        <time>2011-10-16T10:47:20Z</time>
      </trkpt>
      <trkpt lat="45.7962" lon="4.83175">
        <ele>216</ele>
        <time>2011-10-16T10:47:21Z</time>
      </trkpt>
      <trkpt lat="45.79619" lon="4.83172">
        <ele>216</ele>
        <time>2011-10-16T10:47:22Z</time>
      </trkpt>
      <trkpt lat="45.79619" lon="4.83168">
        <ele>216</ele>
        <time>2011-10-16T10:47:23Z</time>
      </trkpt>
      <trkpt lat="45.79617" lon="4.83164">
        <ele>215</ele>
        <time>2011-10-16T10:47:24Z</time>
      </trkpt>
      <trkpt lat="45.79615" lon="4.83161">
        <ele>216</ele>
        <time>2011-10-16T10:47:25Z</time>
      </trkpt>
      <trkpt lat="45.79613" lon="4.83158">
        <ele>215</ele>
        <time>2011-10-16T10:47:26Z</time>
      </trkpt>
      <trkpt lat="45.79611" lon="4.83154">
        <ele>215</ele>
        <time>2011-10-16T10:47:27Z</time>
      </trkpt>
      <trkpt lat="45.7961" lon="4.8315">
        <ele>214</ele>
        <time>2011-10-16T10:47:28Z</time>
      </trkpt>
      <trkpt lat="45.79608" lon="4.83147">
        <ele>213</ele>
        <time>2011-10-16T10:47:29Z</time>
      </trkpt>
      <trkpt lat="45.79608" lon="4.83144">
        <ele>213</ele>
        <time>2011-10-16T10:47:30Z</time>
      </trkpt>
      <trkpt lat="45.79607" lon="4.8314">
        <ele>213</ele>
        <time>2011-10-16T10:47:31Z</time>
      </trkpt>
      <trkpt lat="45.79606" lon="4.83137">
        <ele>213</ele>
        <time>2011-10-16T10:47:32Z</time>
      </trkpt>
      <trkpt lat="45.79605" lon="4.83134">
        <ele>212</ele>
        <time>2011-10-16T10:47:33Z</time>
      </trkpt>
      <trkpt lat="45.79604" lon="4.83131">
        <ele>212</ele>
        <time>2011-10-16T10:47:34Z</time>
      </trkpt>
      <trkpt lat="45.79603" lon="4.83128">
        <ele>211</ele>
        <time>2011-10-16T10:47:35Z</time>
      </trkpt>
      <trkpt lat="45.79602" lon="4.83124">
        <ele>211</ele>
        <time>2011-10-16T10:47:36Z</time>
      </trkpt>
      <trkpt lat="45.79601" lon="4.83121">
        <ele>211</ele>
        <time>2011-10-16T10:47:37Z</time>
      </trkpt>
      <trkpt lat="45.796" lon="4.83117">
        <ele>210</ele>
        <time>2011-10-16T10:47:39Z</time>
      </trkpt>
      <trkpt lat="45.796" lon="4.83116">
        <ele>210.20397949219</ele>
        <time>2011-10-16T10:47:39Z</time>
      </trkpt>
      <trkpt lat="45.79598" lon="4.8311">
        <ele>211</ele>
        <time>2011-10-16T10:47:40Z</time>
      </trkpt>
      <trkpt lat="45.79597" lon="4.83107">
        <ele>210</ele>
        <time>2011-10-16T10:47:41Z</time>
      </trkpt>
      <trkpt lat="45.79596" lon="4.83102">
        <ele>210</ele>
        <time>2011-10-16T10:47:42Z</time>
      </trkpt>
      <trkpt lat="45.79595" lon="4.83098">
        <ele>210</ele>
        <time>2011-10-16T10:47:43Z</time>
      </trkpt>
      <trkpt lat="45.79595" lon="4.83094">
        <ele>210</ele>
        <time>2011-10-16T10:47:44Z</time>
      </trkpt>
      <trkpt lat="45.79595" lon="4.8309">
        <ele>211</ele>
        <time>2011-10-16T10:47:45Z</time>
      </trkpt>
      <trkpt lat="45.79596" lon="4.83086">
        <ele>212</ele>
        <time>2011-10-16T10:47:46Z</time>
      </trkpt>
      <trkpt lat="45.79596" lon="4.83082">
        <ele>213</ele>
        <time>2011-10-16T10:47:47Z</time>
      </trkpt>
      <trkpt lat="45.79595" lon="4.83078">
        <ele>213</ele>
        <time>2011-10-16T10:47:48Z</time>
      </trkpt>
      <trkpt lat="45.79595" lon="4.83074">
        <ele>213</ele>
        <time>2011-10-16T10:47:49Z</time>
      </trkpt>
      <trkpt lat="45.79595" lon="4.83071">
        <ele>214</ele>
        <time>2011-10-16T10:47:50Z</time>
      </trkpt>
      <trkpt lat="45.79593" lon="4.83067">
        <ele>213</ele>
        <time>2011-10-16T10:47:51Z</time>
      </trkpt>
      <trkpt lat="45.79593" lon="4.83063">
        <ele>212</ele>
        <time>2011-10-16T10:47:52Z</time>
      </trkpt>
      <trkpt lat="45.79592" lon="4.8306">
        <ele>212</ele>
        <time>2011-10-16T10:47:53Z</time>
      </trkpt>
      <trkpt lat="45.79592" lon="4.83056">
        <ele>212</ele>
        <time>2011-10-16T10:47:54Z</time>
      </trkpt>
      <trkpt lat="45.79591" lon="4.83051">
        <ele>212</ele>
        <time>2011-10-16T10:47:55Z</time>
      </trkpt>
      <trkpt lat="45.7959" lon="4.83049">
        <ele>213</ele>
        <time>2011-10-16T10:47:56Z</time>
      </trkpt>
      <trkpt lat="45.79589" lon="4.83045">
        <ele>213</ele>
        <time>2011-10-16T10:47:57Z</time>
      </trkpt>
      <trkpt lat="45.79588" lon="4.83041">
        <ele>213</ele>
        <time>2011-10-16T10:47:58Z</time>
      </trkpt>
      <trkpt lat="45.79587" lon="4.83037">
        <ele>213</ele>
        <time>2011-10-16T10:47:59Z</time>
      </trkpt>
      <trkpt lat="45.79585" lon="4.83034">
        <ele>213</ele>
        <time>2011-10-16T10:48:00Z</time>
      </trkpt>
      <trkpt lat="45.79585" lon="4.83033">
        <ele>213</ele>
        <time>2011-10-16T10:48:01Z</time>
      </trkpt>
      <trkpt lat="45.79583" lon="4.83027">
        <ele>213</ele>
        <time>2011-10-16T10:48:02Z</time>
      </trkpt>
      <trkpt lat="45.79581" lon="4.83023">
        <ele>214</ele>
        <time>2011-10-16T10:48:03Z</time>
      </trkpt>
      <trkpt lat="45.7958" lon="4.8302">
        <ele>214</ele>
        <time>2011-10-16T10:48:04Z</time>
      </trkpt>
      <trkpt lat="45.79578" lon="4.83016">
        <ele>213</ele>
        <time>2011-10-16T10:48:05Z</time>
      </trkpt>
      <trkpt lat="45.79576" lon="4.83013">
        <ele>213</ele>
        <time>2011-10-16T10:48:06Z</time>
      </trkpt>
      <trkpt lat="45.79575" lon="4.83011">
        <ele>213</ele>
        <time>2011-10-16T10:48:07Z</time>
      </trkpt>
      <trkpt lat="45.79573" lon="4.83007">
        <ele>213</ele>
        <time>2011-10-16T10:48:08Z</time>
      </trkpt>
      <trkpt lat="45.79571" lon="4.83004">
        <ele>214</ele>
        <time>2011-10-16T10:48:09Z</time>
      </trkpt>
      <trkpt lat="45.7957" lon="4.83">
        <ele>213</ele>
        <time>2011-10-16T10:48:10Z</time>
      </trkpt>
      <trkpt lat="45.7957" lon="4.82997">
        <ele>213</ele>
        <time>2011-10-16T10:48:11Z</time>
      </trkpt>
      <trkpt lat="45.79568" lon="4.82994">
        <ele>214</ele>
        <time>2011-10-16T10:48:12Z</time>
      </trkpt>
      <trkpt lat="45.79567" lon="4.82991">
        <ele>214</ele>
        <time>2011-10-16T10:48:13Z</time>
      </trkpt>
      <trkpt lat="45.79566" lon="4.82987">
        <ele>215</ele>
        <time>2011-10-16T10:48:14Z</time>
      </trkpt>
      <trkpt lat="45.79565" lon="4.82984">
        <ele>215</ele>
        <time>2011-10-16T10:48:15Z</time>
      </trkpt>
      <trkpt lat="45.79563" lon="4.8298">
        <ele>215</ele>
        <time>2011-10-16T10:48:16Z</time>
      </trkpt>
      <trkpt lat="45.79564" lon="4.82976">
        <ele>214</ele>
        <time>2011-10-16T10:48:17Z</time>
      </trkpt>
      <trkpt lat="45.79563" lon="4.82973">
        <ele>214</ele>
        <time>2011-10-16T10:48:18Z</time>
      </trkpt>
      <trkpt lat="45.79563" lon="4.82968">
        <ele>214</ele>
        <time>2011-10-16T10:48:19Z</time>
      </trkpt>
      <trkpt lat="45.79563" lon="4.82965">
        <ele>214</ele>
        <time>2011-10-16T10:48:20Z</time>
      </trkpt>
      <trkpt lat="45.79561" lon="4.82961">
        <ele>215</ele>
        <time>2011-10-16T10:48:21Z</time>
      </trkpt>
      <trkpt lat="45.7956" lon="4.82957">
        <ele>216</ele>
        <time>2011-10-16T10:48:22Z</time>
      </trkpt>
      <trkpt lat="45.7956" lon="4.82953">
        <ele>216</ele>
        <time>2011-10-16T10:48:23Z</time>
      </trkpt>
      <trkpt lat="45.79559" lon="4.8295">
        <ele>216</ele>
        <time>2011-10-16T10:48:24Z</time>
      </trkpt>
      <trkpt lat="45.79556" lon="4.82946">
        <ele>216</ele>
        <time>2011-10-16T10:48:25Z</time>
      </trkpt>
      <trkpt lat="45.79555" lon="4.82943">
        <ele>216</ele>
        <time>2011-10-16T10:48:26Z</time>
      </trkpt>
      <trkpt lat="45.79553" lon="4.8294">
        <ele>217</ele>
        <time>2011-10-16T10:48:27Z</time>
      </trkpt>
      <trkpt lat="45.79551" lon="4.82938">
        <ele>217</ele>
        <time>2011-10-16T10:48:28Z</time>
      </trkpt>
      <trkpt lat="45.79549" lon="4.82935">
        <ele>217</ele>
        <time>2011-10-16T10:48:29Z</time>
      </trkpt>
      <trkpt lat="45.79548" lon="4.82933">
        <ele>216</ele>
        <time>2011-10-16T10:48:30Z</time>
      </trkpt>
      <trkpt lat="45.79545" lon="4.8293">
        <ele>216</ele>
        <time>2011-10-16T10:48:31Z</time>
      </trkpt>
      <trkpt lat="45.79543" lon="4.82927">
        <ele>216</ele>
        <time>2011-10-16T10:48:32Z</time>
      </trkpt>
      <trkpt lat="45.79541" lon="4.82925">
        <ele>217</ele>
        <time>2011-10-16T10:48:33Z</time>
      </trkpt>
      <trkpt lat="45.7954" lon="4.82923">
        <ele>215</ele>
        <time>2011-10-16T10:48:34Z</time>
      </trkpt>
      <trkpt lat="45.79539" lon="4.8292">
        <ele>215</ele>
        <time>2011-10-16T10:48:35Z</time>
      </trkpt>
      <trkpt lat="45.79538" lon="4.82916">
        <ele>216</ele>
        <time>2011-10-16T10:48:36Z</time>
      </trkpt>
      <trkpt lat="45.79537" lon="4.82913">
        <ele>215</ele>
        <time>2011-10-16T10:48:37Z</time>
      </trkpt>
      <trkpt lat="45.79534" lon="4.8291">
        <ele>215</ele>
        <time>2011-10-16T10:48:38Z</time>
      </trkpt>
      <trkpt lat="45.79534" lon="4.82907">
        <ele>215</ele>
        <time>2011-10-16T10:48:39Z</time>
      </trkpt>
      <trkpt lat="45.79533" lon="4.82904">
        <ele>215</ele>
        <time>2011-10-16T10:48:40Z</time>
      </trkpt>
      <trkpt lat="45.79532" lon="4.829">
        <ele>215</ele>
        <time>2011-10-16T10:48:41Z</time>
      </trkpt>
      <trkpt lat="45.79531" lon="4.82897">
        <ele>215</ele>
        <time>2011-10-16T10:48:42Z</time>
      </trkpt>
      <trkpt lat="45.79529" lon="4.82895">
        <ele>214</ele>
        <time>2011-10-16T10:48:43Z</time>
      </trkpt>
      <trkpt lat="45.79529" lon="4.82892">
        <ele>214</ele>
        <time>2011-10-16T10:48:44Z</time>
      </trkpt>
      <trkpt lat="45.79528" lon="4.8289">
        <ele>214</ele>
        <time>2011-10-16T10:48:45Z</time>
      </trkpt>
      <trkpt lat="45.79526" lon="4.82886">
        <ele>215</ele>
        <time>2011-10-16T10:48:46Z</time>
      </trkpt>
      <trkpt lat="45.79525" lon="4.82883">
        <ele>216</ele>
        <time>2011-10-16T10:48:47Z</time>
      </trkpt>
      <trkpt lat="45.79523" lon="4.82879">
        <ele>216</ele>
        <time>2011-10-16T10:48:48Z</time>
      </trkpt>
      <trkpt lat="45.79522" lon="4.82876">
        <ele>216</ele>
        <time>2011-10-16T10:48:49Z</time>
      </trkpt>
      <trkpt lat="45.7952" lon="4.82873">
        <ele>216</ele>
        <time>2011-10-16T10:48:50Z</time>
      </trkpt>
      <trkpt lat="45.79518" lon="4.82869">
        <ele>216</ele>
        <time>2011-10-16T10:48:51Z</time>
      </trkpt>
      <trkpt lat="45.79516" lon="4.82866">
        <ele>216</ele>
        <time>2011-10-16T10:48:52Z</time>
      </trkpt>
      <trkpt lat="45.79515" lon="4.82863">
        <ele>216</ele>
        <time>2011-10-16T10:48:53Z</time>
      </trkpt>
      <trkpt lat="45.79513" lon="4.8286">
        <ele>216</ele>
        <time>2011-10-16T10:48:54Z</time>
      </trkpt>
      <trkpt lat="45.79511" lon="4.82857">
        <ele>216</ele>
        <time>2011-10-16T10:48:55Z</time>
      </trkpt>
      <trkpt lat="45.79509" lon="4.82854">
        <ele>216</ele>
        <time>2011-10-16T10:48:56Z</time>
      </trkpt>
      <trkpt lat="45.79507" lon="4.82852">
        <ele>215</ele>
        <time>2011-10-16T10:48:57Z</time>
      </trkpt>
      <trkpt lat="45.79505" lon="4.8285">
        <ele>215</ele>
        <time>2011-10-16T10:48:58Z</time>
      </trkpt>
      <trkpt lat="45.79502" lon="4.82848">
        <ele>215</ele>
        <time>2011-10-16T10:48:59Z</time>
      </trkpt>
      <trkpt lat="45.795" lon="4.82845">
        <ele>215</ele>
        <time>2011-10-16T10:49:00Z</time>
      </trkpt>
      <trkpt lat="45.79497" lon="4.82842">
        <ele>215</ele>
        <time>2011-10-16T10:49:01Z</time>
      </trkpt>
      <trkpt lat="45.79494" lon="4.82839">
        <ele>215</ele>
        <time>2011-10-16T10:49:02Z</time>
      </trkpt>
      <trkpt lat="45.79491" lon="4.82837">
        <ele>216</ele>
        <time>2011-10-16T10:49:03Z</time>
      </trkpt>
      <trkpt lat="45.79491" lon="4.82835">
        <ele>217</ele>
        <time>2011-10-16T10:49:04Z</time>
      </trkpt>
      <trkpt lat="45.79489" lon="4.82831">
        <ele>218</ele>
        <time>2011-10-16T10:49:05Z</time>
      </trkpt>
      <trkpt lat="45.79488" lon="4.82829">
        <ele>218</ele>
        <time>2011-10-16T10:49:06Z</time>
      </trkpt>
      <trkpt lat="45.79487" lon="4.82829">
        <ele>218</ele>
        <time>2011-10-16T10:49:07Z</time>
      </trkpt>
      <trkpt lat="45.79485" lon="4.82824">
        <ele>217</ele>
        <time>2011-10-16T10:49:08Z</time>
      </trkpt>
      <trkpt lat="45.79482" lon="4.82822">
        <ele>217</ele>
        <time>2011-10-16T10:49:09Z</time>
      </trkpt>
      <trkpt lat="45.79481" lon="4.82821">
        <ele>218</ele>
        <time>2011-10-16T10:49:10Z</time>
      </trkpt>
      <trkpt lat="45.79479" lon="4.82817">
        <ele>218</ele>
        <time>2011-10-16T10:49:11Z</time>
      </trkpt>
      <trkpt lat="45.79477" lon="4.82814">
        <ele>218</ele>
        <time>2011-10-16T10:49:12Z</time>
      </trkpt>
      <trkpt lat="45.79475" lon="4.8281">
        <ele>218</ele>
        <time>2011-10-16T10:49:13Z</time>
      </trkpt>
      <trkpt lat="45.79474" lon="4.82808">
        <ele>218</ele>
        <time>2011-10-16T10:49:14Z</time>
      </trkpt>
      <trkpt lat="45.79472" lon="4.82806">
        <ele>219</ele>
        <time>2011-10-16T10:49:15Z</time>
      </trkpt>
      <trkpt lat="45.79469" lon="4.82804">
        <ele>219</ele>
        <time>2011-10-16T10:49:16Z</time>
      </trkpt>
      <trkpt lat="45.79466" lon="4.82802">
        <ele>219</ele>
        <time>2011-10-16T10:49:17Z</time>
      </trkpt>
      <trkpt lat="45.79463" lon="4.82799">
        <ele>218</ele>
        <time>2011-10-16T10:49:18Z</time>
      </trkpt>
      <trkpt lat="45.79462" lon="4.82798">
        <ele>218</ele>
        <time>2011-10-16T10:49:19Z</time>
      </trkpt>
      <trkpt lat="45.79459" lon="4.82795">
        <ele>217</ele>
        <time>2011-10-16T10:49:20Z</time>
      </trkpt>
      <trkpt lat="45.79457" lon="4.82793">
        <ele>217</ele>
        <time>2011-10-16T10:49:21Z</time>
      </trkpt>
      <trkpt lat="45.79455" lon="4.82791">
        <ele>217</ele>
        <time>2011-10-16T10:49:22Z</time>
      </trkpt>
      <trkpt lat="45.79453" lon="4.82789">
        <ele>218</ele>
        <time>2011-10-16T10:49:23Z</time>
      </trkpt>
      <trkpt lat="45.79452" lon="4.82786">
        <ele>219</ele>
        <time>2011-10-16T10:49:24Z</time>
      </trkpt>
      <trkpt lat="45.7945" lon="4.82783">
        <ele>219</ele>
        <time>2011-10-16T10:49:25Z</time>
      </trkpt>
      <trkpt lat="45.79449" lon="4.82782">
        <ele>220</ele>
        <time>2011-10-16T10:49:26Z</time>
      </trkpt>
      <trkpt lat="45.79448" lon="4.82779">
        <ele>220</ele>
        <time>2011-10-16T10:49:27Z</time>
      </trkpt>
      <trkpt lat="45.79446" lon="4.82777">
        <ele>220</ele>
        <time>2011-10-16T10:49:28Z</time>
      </trkpt>
      <trkpt lat="45.79444" lon="4.82774">
        <ele>220</ele>
        <time>2011-10-16T10:49:29Z</time>
      </trkpt>
      <trkpt lat="45.79443" lon="4.82771">
        <ele>220</ele>
        <time>2011-10-16T10:49:30Z</time>
      </trkpt>
      <trkpt lat="45.79441" lon="4.82768">
        <ele>220</ele>
        <time>2011-10-16T10:49:31Z</time>
      </trkpt>
      <trkpt lat="45.7944" lon="4.82765">
        <ele>220</ele>
        <time>2011-10-16T10:49:32Z</time>
      </trkpt>
      <trkpt lat="45.79438" lon="4.82762">
        <ele>220</ele>
        <time>2011-10-16T10:49:33Z</time>
      </trkpt>
      <trkpt lat="45.79436" lon="4.8276">
        <ele>220</ele>
        <time>2011-10-16T10:49:34Z</time>
      </trkpt>
      <trkpt lat="45.79434" lon="4.82757">
        <ele>221</ele>
        <time>2011-10-16T10:49:35Z</time>
      </trkpt>
      <trkpt lat="45.79432" lon="4.82754">
        <ele>220</ele>
        <time>2011-10-16T10:49:36Z</time>
      </trkpt>
      <trkpt lat="45.79429" lon="4.82752">
        <ele>221</ele>
        <time>2011-10-16T10:49:37Z</time>
      </trkpt>
      <trkpt lat="45.79427" lon="4.82749">
        <ele>221</ele>
        <time>2011-10-16T10:49:38Z</time>
      </trkpt>
      <trkpt lat="45.79425" lon="4.82746">
        <ele>221</ele>
        <time>2011-10-16T10:49:39Z</time>
      </trkpt>
      <trkpt lat="45.79422" lon="4.82743">
        <ele>221</ele>
        <time>2011-10-16T10:49:40Z</time>
      </trkpt>
      <trkpt lat="45.79421" lon="4.82741">
        <ele>220</ele>
        <time>2011-10-16T10:49:41Z</time>
      </trkpt>
      <trkpt lat="45.79419" lon="4.82738">
        <ele>220</ele>
        <time>2011-10-16T10:49:42Z</time>
      </trkpt>
      <trkpt lat="45.79418" lon="4.82735">
        <ele>219</ele>
        <time>2011-10-16T10:49:43Z</time>
      </trkpt>
      <trkpt lat="45.79415" lon="4.82732">
        <ele>219</ele>
        <time>2011-10-16T10:49:44Z</time>
      </trkpt>
      <trkpt lat="45.79414" lon="4.82729">
        <ele>220</ele>
        <time>2011-10-16T10:49:45Z</time>
      </trkpt>
      <trkpt lat="45.79411" lon="4.82727">
        <ele>220</ele>
        <time>2011-10-16T10:49:46Z</time>
      </trkpt>
      <trkpt lat="45.79409" lon="4.82724">
        <ele>220</ele>
        <time>2011-10-16T10:49:47Z</time>
      </trkpt>
      <trkpt lat="45.79407" lon="4.82721">
        <ele>220</ele>
        <time>2011-10-16T10:49:48Z</time>
      </trkpt>
      <trkpt lat="45.79406" lon="4.82718">
        <ele>221</ele>
        <time>2011-10-16T10:49:49Z</time>
      </trkpt>
      <trkpt lat="45.79404" lon="4.82714">
        <ele>221</ele>
        <time>2011-10-16T10:49:50Z</time>
      </trkpt>
      <trkpt lat="45.79402" lon="4.82711">
        <ele>221</ele>
        <time>2011-10-16T10:49:51Z</time>
      </trkpt>
      <trkpt lat="45.794" lon="4.82709">
        <ele>221</ele>
        <time>2011-10-16T10:49:52Z</time>
      </trkpt>
      <trkpt lat="45.79398" lon="4.82705">
        <ele>221</ele>
        <time>2011-10-16T10:49:53Z</time>
      </trkpt>
      <trkpt lat="45.79397" lon="4.82703">
        <ele>221</ele>
        <time>2011-10-16T10:49:54Z</time>
      </trkpt>
      <trkpt lat="45.79394" lon="4.82701">
        <ele>221</ele>
        <time>2011-10-16T10:49:55Z</time>
      </trkpt>
      <trkpt lat="45.79393" lon="4.82698">
        <ele>220</ele>
        <time>2011-10-16T10:49:56Z</time>
      </trkpt>
      <trkpt lat="45.7939" lon="4.82695">
        <ele>220</ele>
        <time>2011-10-16T10:49:57Z</time>
      </trkpt>
      <trkpt lat="45.79387" lon="4.82692">
        <ele>220</ele>
        <time>2011-10-16T10:49:58Z</time>
      </trkpt>
      <trkpt lat="45.79386" lon="4.82689">
        <ele>220</ele>
        <time>2011-10-16T10:49:59Z</time>
      </trkpt>
      <trkpt lat="45.79384" lon="4.82686">
        <ele>219</ele>
        <time>2011-10-16T10:50:00Z</time>
      </trkpt>
      <trkpt lat="45.79382" lon="4.82683">
        <ele>219</ele>
        <time>2011-10-16T10:50:01Z</time>
      </trkpt>
      <trkpt lat="45.79381" lon="4.82679">
        <ele>219</ele>
        <time>2011-10-16T10:50:02Z</time>
      </trkpt>
      <trkpt lat="45.79378" lon="4.82677">
        <ele>219</ele>
        <time>2011-10-16T10:50:03Z</time>
      </trkpt>
      <trkpt lat="45.79376" lon="4.82674">
        <ele>219</ele>
        <time>2011-10-16T10:50:04Z</time>
      </trkpt>
      <trkpt lat="45.79374" lon="4.82671">
        <ele>219</ele>
        <time>2011-10-16T10:50:05Z</time>
      </trkpt>
      <trkpt lat="45.79371" lon="4.82667">
        <ele>219</ele>
        <time>2011-10-16T10:50:06Z</time>
      </trkpt>
      <trkpt lat="45.79369" lon="4.82664">
        <ele>219</ele>
        <time>2011-10-16T10:50:07Z</time>
      </trkpt>
      <trkpt lat="45.79365" lon="4.8266">
        <ele>218</ele>
        <time>2011-10-16T10:50:08Z</time>
      </trkpt>
      <trkpt lat="45.79364" lon="4.82657">
        <ele>218</ele>
        <time>2011-10-16T10:50:09Z</time>
      </trkpt>
      <trkpt lat="45.79362" lon="4.82654">
        <ele>218</ele>
        <time>2011-10-16T10:50:10Z</time>
      </trkpt>
      <trkpt lat="45.7936" lon="4.82651">
        <ele>218</ele>
        <time>2011-10-16T10:50:11Z</time>
      </trkpt>
      <trkpt lat="45.79358" lon="4.82648">
        <ele>218</ele>
        <time>2011-10-16T10:50:12Z</time>
      </trkpt>
      <trkpt lat="45.79357" lon="4.82647">
        <ele>218</ele>
        <time>2011-10-16T10:50:13Z</time>
      </trkpt>
      <trkpt lat="45.79354" lon="4.82643">
        <ele>218</ele>
        <time>2011-10-16T10:50:14Z</time>
      </trkpt>
      <trkpt lat="45.79352" lon="4.8264">
        <ele>217</ele>
        <time>2011-10-16T10:50:15Z</time>
      </trkpt>
      <trkpt lat="45.79349" lon="4.82637">
        <ele>217</ele>
        <time>2011-10-16T10:50:16Z</time>
      </trkpt>
      <trkpt lat="45.79348" lon="4.82632">
        <ele>216</ele>
        <time>2011-10-16T10:50:17Z</time>
      </trkpt>
      <trkpt lat="45.79346" lon="4.82628">
        <ele>217</ele>
        <time>2011-10-16T10:50:18Z</time>
      </trkpt>
      <trkpt lat="45.79345" lon="4.82625">
        <ele>217</ele>
        <time>2011-10-16T10:50:19Z</time>
      </trkpt>
      <trkpt lat="45.79343" lon="4.82621">
        <ele>217</ele>
        <time>2011-10-16T10:50:20Z</time>
      </trkpt>
      <trkpt lat="45.79341" lon="4.82618">
        <ele>217</ele>
        <time>2011-10-16T10:50:21Z</time>
      </trkpt>
      <trkpt lat="45.79339" lon="4.82615">
        <ele>217</ele>
        <time>2011-10-16T10:50:22Z</time>
      </trkpt>
      <trkpt lat="45.79337" lon="4.82611">
        <ele>218</ele>
        <time>2011-10-16T10:50:23Z</time>
      </trkpt>
      <trkpt lat="45.79335" lon="4.82608">
        <ele>218</ele>
        <time>2011-10-16T10:50:24Z</time>
      </trkpt>
      <trkpt lat="45.79333" lon="4.82605">
        <ele>218</ele>
        <time>2011-10-16T10:50:25Z</time>
      </trkpt>
      <trkpt lat="45.7933" lon="4.82601">
        <ele>219</ele>
        <time>2011-10-16T10:50:26Z</time>
      </trkpt>
      <trkpt lat="45.7933" lon="4.82598">
        <ele>218</ele>
        <time>2011-10-16T10:50:27Z</time>
      </trkpt>
      <trkpt lat="45.79327" lon="4.82595">
        <ele>218</ele>
        <time>2011-10-16T10:50:28Z</time>
      </trkpt>
      <trkpt lat="45.79323" lon="4.82593">
        <ele>217</ele>
        <time>2011-10-16T10:50:29Z</time>
      </trkpt>
      <trkpt lat="45.79321" lon="4.8259">
        <ele>218</ele>
        <time>2011-10-16T10:50:30Z</time>
      </trkpt>
      <trkpt lat="45.79319" lon="4.82587">
        <ele>218</ele>
        <time>2011-10-16T10:50:31Z</time>
      </trkpt>
      <trkpt lat="45.79317" lon="4.82584">
        <ele>217</ele>
        <time>2011-10-16T10:50:32Z</time>
      </trkpt>
      <trkpt lat="45.79315" lon="4.82581">
        <ele>218</ele>
        <time>2011-10-16T10:50:33Z</time>
      </trkpt>
      <trkpt lat="45.79313" lon="4.82578">
        <ele>218</ele>
        <time>2011-10-16T10:50:34Z</time>
      </trkpt>
      <trkpt lat="45.79312" lon="4.82575">
        <ele>219</ele>
        <time>2011-10-16T10:50:35Z</time>
      </trkpt>
      <trkpt lat="45.7931" lon="4.82572">
        <ele>220</ele>
        <time>2011-10-16T10:50:36Z</time>
      </trkpt>
      <trkpt lat="45.79308" lon="4.82571">
        <ele>220</ele>
        <time>2011-10-16T10:50:37Z</time>
      </trkpt>
      <trkpt lat="45.79304" lon="4.82566">
        <ele>220</ele>
        <time>2011-10-16T10:50:38Z</time>
      </trkpt>
      <trkpt lat="45.79302" lon="4.82562">
        <ele>220</ele>
        <time>2011-10-16T10:50:39Z</time>
      </trkpt>
      <trkpt lat="45.793" lon="4.82558">
        <ele>220</ele>
        <time>2011-10-16T10:50:40Z</time>
      </trkpt>
      <trkpt lat="45.79298" lon="4.82556">
        <ele>219</ele>
        <time>2011-10-16T10:50:41Z</time>
      </trkpt>
      <trkpt lat="45.79298" lon="4.82552">
        <ele>219</ele>
        <time>2011-10-16T10:50:42Z</time>
      </trkpt>
      <trkpt lat="45.79298" lon="4.82547">
        <ele>219</ele>
        <time>2011-10-16T10:50:43Z</time>
      </trkpt>
      <trkpt lat="45.79296" lon="4.82542">
        <ele>220</ele>
        <time>2011-10-16T10:50:44Z</time>
      </trkpt>
      <trkpt lat="45.79295" lon="4.82539">
        <ele>220</ele>
        <time>2011-10-16T10:50:45Z</time>
      </trkpt>
      <trkpt lat="45.79294" lon="4.82535">
        <ele>220</ele>
        <time>2011-10-16T10:50:46Z</time>
      </trkpt>
      <trkpt lat="45.79293" lon="4.8253">
        <ele>220</ele>
        <time>2011-10-16T10:50:47Z</time>
      </trkpt>
      <trkpt lat="45.79291" lon="4.82527">
        <ele>220</ele>
        <time>2011-10-16T10:50:48Z</time>
      </trkpt>
      <trkpt lat="45.7929" lon="4.82523">
        <ele>219</ele>
        <time>2011-10-16T10:50:49Z</time>
      </trkpt>
      <trkpt lat="45.79288" lon="4.82519">
        <ele>219</ele>
        <time>2011-10-16T10:50:50Z</time>
      </trkpt>
      <trkpt lat="45.79285" lon="4.82515">
        <ele>219</ele>
        <time>2011-10-16T10:50:51Z</time>
      </trkpt>
      <trkpt lat="45.79282" lon="4.82511">
        <ele>218</ele>
        <time>2011-10-16T10:50:52Z</time>
      </trkpt>
      <trkpt lat="45.79281" lon="4.82509">
        <ele>218</ele>
        <time>2011-10-16T10:50:53Z</time>
      </trkpt>
      <trkpt lat="45.79279" lon="4.82506">
        <ele>218</ele>
        <time>2011-10-16T10:50:54Z</time>
      </trkpt>
      <trkpt lat="45.79277" lon="4.82502">
        <ele>217</ele>
        <time>2011-10-16T10:50:55Z</time>
      </trkpt>
      <trkpt lat="45.79277" lon="4.82501">
        <ele>217</ele>
        <time>2011-10-16T10:50:56Z</time>
      </trkpt>
      <trkpt lat="45.79273" lon="4.82496">
        <ele>216</ele>
        <time>2011-10-16T10:50:57Z</time>
      </trkpt>
      <trkpt lat="45.7927" lon="4.82492">
        <ele>216</ele>
        <time>2011-10-16T10:50:58Z</time>
      </trkpt>
      <trkpt lat="45.79268" lon="4.82489">
        <ele>215</ele>
        <time>2011-10-16T10:50:59Z</time>
      </trkpt>
      <trkpt lat="45.79266" lon="4.82485">
        <ele>214</ele>
        <time>2011-10-16T10:51:00Z</time>
      </trkpt>
      <trkpt lat="45.79265" lon="4.82481">
        <ele>214</ele>
        <time>2011-10-16T10:51:01Z</time>
      </trkpt>
      <trkpt lat="45.79262" lon="4.82477">
        <ele>214</ele>
        <time>2011-10-16T10:51:02Z</time>
      </trkpt>
      <trkpt lat="45.7926" lon="4.82474">
        <ele>214</ele>
        <time>2011-10-16T10:51:03Z</time>
      </trkpt>
      <trkpt lat="45.79258" lon="4.82471">
        <ele>214</ele>
        <time>2011-10-16T10:51:04Z</time>
      </trkpt>
      <trkpt lat="45.79255" lon="4.82469">
        <ele>213</ele>
        <time>2011-10-16T10:51:05Z</time>
      </trkpt>
      <trkpt lat="45.79253" lon="4.82466">
        <ele>214</ele>
        <time>2011-10-16T10:51:06Z</time>
      </trkpt>
      <trkpt lat="45.7925" lon="4.82463">
        <ele>213</ele>
        <time>2011-10-16T10:51:07Z</time>
      </trkpt>
      <trkpt lat="45.79248" lon="4.8246">
        <ele>213</ele>
        <time>2011-10-16T10:51:08Z</time>
      </trkpt>
      <trkpt lat="45.79246" lon="4.82457">
        <ele>213</ele>
        <time>2011-10-16T10:51:09Z</time>
      </trkpt>
      <trkpt lat="45.79243" lon="4.82454">
        <ele>213</ele>
        <time>2011-10-16T10:51:10Z</time>
      </trkpt>
      <trkpt lat="45.79242" lon="4.82451">
        <ele>212</ele>
        <time>2011-10-16T10:51:11Z</time>
      </trkpt>
      <trkpt lat="45.79241" lon="4.82447">
        <ele>213</ele>
        <time>2011-10-16T10:51:12Z</time>
      </trkpt>
      <trkpt lat="45.79238" lon="4.82444">
        <ele>212</ele>
        <time>2011-10-16T10:51:13Z</time>
      </trkpt>
      <trkpt lat="45.79236" lon="4.8244">
        <ele>212</ele>
        <time>2011-10-16T10:51:14Z</time>
      </trkpt>
      <trkpt lat="45.79235" lon="4.82437">
        <ele>212</ele>
        <time>2011-10-16T10:51:15Z</time>
      </trkpt>
      <trkpt lat="45.79234" lon="4.82433">
        <ele>211</ele>
        <time>2011-10-16T10:51:16Z</time>
      </trkpt>
      <trkpt lat="45.79232" lon="4.8243">
        <ele>211</ele>
        <time>2011-10-16T10:51:17Z</time>
      </trkpt>
      <trkpt lat="45.79231" lon="4.82428">
        <ele>211</ele>
        <time>2011-10-16T10:51:18Z</time>
      </trkpt>
      <trkpt lat="45.79228" lon="4.82423">
        <ele>211</ele>
        <time>2011-10-16T10:51:19Z</time>
      </trkpt>
      <trkpt lat="45.79225" lon="4.82419">
        <ele>211</ele>
        <time>2011-10-16T10:51:20Z</time>
      </trkpt>
      <trkpt lat="45.79223" lon="4.82417">
        <ele>211</ele>
        <time>2011-10-16T10:51:21Z</time>
      </trkpt>
      <trkpt lat="45.79222" lon="4.82416">
        <ele>211</ele>
        <time>2011-10-16T10:51:22Z</time>
      </trkpt>
      <trkpt lat="45.79219" lon="4.8241">
        <ele>212</ele>
        <time>2011-10-16T10:51:23Z</time>
      </trkpt>
      <trkpt lat="45.79217" lon="4.82407">
        <ele>212</ele>
        <time>2011-10-16T10:51:24Z</time>
      </trkpt>
      <trkpt lat="45.79215" lon="4.82404">
        <ele>211</ele>
        <time>2011-10-16T10:51:25Z</time>
      </trkpt>
      <trkpt lat="45.79213" lon="4.82401">
        <ele>211</ele>
        <time>2011-10-16T10:51:26Z</time>
      </trkpt>
      <trkpt lat="45.79212" lon="4.82397">
        <ele>212</ele>
        <time>2011-10-16T10:51:27Z</time>
      </trkpt>
      <trkpt lat="45.7921" lon="4.82394">
        <ele>212</ele>
        <time>2011-10-16T10:51:28Z</time>
      </trkpt>
      <trkpt lat="45.79208" lon="4.8239">
        <ele>212</ele>
        <time>2011-10-16T10:51:29Z</time>
      </trkpt>
      <trkpt lat="45.79207" lon="4.82388">
        <ele>212</ele>
        <time>2011-10-16T10:51:30Z</time>
      </trkpt>
      <trkpt lat="45.79205" lon="4.82385">
        <ele>212</ele>
        <time>2011-10-16T10:51:31Z</time>
      </trkpt>
      <trkpt lat="45.79203" lon="4.82382">
        <ele>212</ele>
        <time>2011-10-16T10:51:32Z</time>
      </trkpt>
      <trkpt lat="45.79201" lon="4.8238">
        <ele>212</ele>
        <time>2011-10-16T10:51:33Z</time>
      </trkpt>
      <trkpt lat="45.792" lon="4.82377">
        <ele>213</ele>
        <time>2011-10-16T10:51:34Z</time>
      </trkpt>
      <trkpt lat="45.79198" lon="4.82374">
        <ele>213</ele>
        <time>2011-10-16T10:51:35Z</time>
      </trkpt>
      <trkpt lat="45.79197" lon="4.82372">
        <ele>213</ele>
        <time>2011-10-16T10:51:36Z</time>
      </trkpt>
      <trkpt lat="45.79195" lon="4.82371">
        <ele>213</ele>
        <time>2011-10-16T10:51:37Z</time>
      </trkpt>
      <trkpt lat="45.79194" lon="4.82369">
        <ele>213</ele>
        <time>2011-10-16T10:51:38Z</time>
      </trkpt>
      <trkpt lat="45.79193" lon="4.82368">
        <ele>214</ele>
        <time>2011-10-16T10:51:39Z</time>
      </trkpt>
      <trkpt lat="45.79192" lon="4.82367">
        <ele>214.51924133301</ele>
        <time>2011-10-16T10:51:40Z</time>
      </trkpt>
      <trkpt lat="45.7919" lon="4.82365">
        <ele>215</ele>
        <time>2011-10-16T10:51:41Z</time>
      </trkpt>
      <trkpt lat="45.7919" lon="4.82362">
        <ele>215</ele>
        <time>2011-10-16T10:51:42Z</time>
      </trkpt>
      <trkpt lat="45.79187" lon="4.82359">
        <ele>215</ele>
        <time>2011-10-16T10:51:43Z</time>
      </trkpt>
      <trkpt lat="45.79185" lon="4.82356">
        <ele>215</ele>
        <time>2011-10-16T10:51:44Z</time>
      </trkpt>
      <trkpt lat="45.79184" lon="4.82352">
        <ele>215</ele>
        <time>2011-10-16T10:51:45Z</time>
      </trkpt>
      <trkpt lat="45.79181" lon="4.8235">
        <ele>215</ele>
        <time>2011-10-16T10:51:46Z</time>
      </trkpt>
      <trkpt lat="45.7918" lon="4.82347">
        <ele>215</ele>
        <time>2011-10-16T10:51:47Z</time>
      </trkpt>
      <trkpt lat="45.79179" lon="4.82344">
        <ele>215</ele>
        <time>2011-10-16T10:51:48Z</time>
      </trkpt>
      <trkpt lat="45.79177" lon="4.82341">
        <ele>215</ele>
        <time>2011-10-16T10:51:49Z</time>
      </trkpt>
      <trkpt lat="45.79176" lon="4.82338">
        <ele>215</ele>
        <time>2011-10-16T10:51:50Z</time>
      </trkpt>
      <trkpt lat="45.79175" lon="4.82336">
        <ele>215</ele>
        <time>2011-10-16T10:51:51Z</time>
      </trkpt>
      <trkpt lat="45.79173" lon="4.82333">
        <ele>215</ele>
        <time>2011-10-16T10:51:52Z</time>
      </trkpt>
      <trkpt lat="45.79171" lon="4.82331">
        <ele>216</ele>
        <time>2011-10-16T10:51:53Z</time>
      </trkpt>
      <trkpt lat="45.7917" lon="4.82328">
        <ele>216</ele>
        <time>2011-10-16T10:51:54Z</time>
      </trkpt>
      <trkpt lat="45.79168" lon="4.82325">
        <ele>216</ele>
        <time>2011-10-16T10:51:55Z</time>
      </trkpt>
      <trkpt lat="45.79165" lon="4.82322">
        <ele>215</ele>
        <time>2011-10-16T10:51:56Z</time>
      </trkpt>
      <trkpt lat="45.79163" lon="4.8232">
        <ele>215</ele>
        <time>2011-10-16T10:51:57Z</time>
      </trkpt>
      <trkpt lat="45.79161" lon="4.82317">
        <ele>215</ele>
        <time>2011-10-16T10:51:58Z</time>
      </trkpt>
      <trkpt lat="45.79159" lon="4.82313">
        <ele>215</ele>
        <time>2011-10-16T10:51:59Z</time>
      </trkpt>
      <trkpt lat="45.79159" lon="4.82309">
        <ele>216</ele>
        <time>2011-10-16T10:52:00Z</time>
      </trkpt>
      <trkpt lat="45.79158" lon="4.82305">
        <ele>216</ele>
        <time>2011-10-16T10:52:01Z</time>
      </trkpt>
      <trkpt lat="45.79158" lon="4.82304">
        <ele>216.31233215332</ele>
        <time>2011-10-16T10:52:02Z</time>
      </trkpt>
      <trkpt lat="45.79155" lon="4.82298">
        <ele>217</ele>
        <time>2011-10-16T10:52:03Z</time>
      </trkpt>
      <trkpt lat="45.79153" lon="4.82294">
        <ele>218</ele>
        <time>2011-10-16T10:52:04Z</time>
      </trkpt>
      <trkpt lat="45.79151" lon="4.8229">
        <ele>217</ele>
        <time>2011-10-16T10:52:05Z</time>
      </trkpt>
      <trkpt lat="45.79149" lon="4.82287">
        <ele>217</ele>
        <time>2011-10-16T10:52:06Z</time>
      </trkpt>
      <trkpt lat="45.79148" lon="4.82284">
        <ele>218</ele>
        <time>2011-10-16T10:52:07Z</time>
      </trkpt>
      <trkpt lat="45.79146" lon="4.82282">
        <ele>218</ele>
        <time>2011-10-16T10:52:08Z</time>
      </trkpt>
      <trkpt lat="45.79143" lon="4.82278">
        <ele>218</ele>
        <time>2011-10-16T10:52:09Z</time>
      </trkpt>
      <trkpt lat="45.79141" lon="4.82275">
        <ele>218</ele>
        <time>2011-10-16T10:52:10Z</time>
      </trkpt>
      <trkpt lat="45.79139" lon="4.82271">
        <ele>217</ele>
        <time>2011-10-16T10:52:11Z</time>
      </trkpt>
      <trkpt lat="45.79137" lon="4.82268">
        <ele>217</ele>
        <time>2011-10-16T10:52:12Z</time>
      </trkpt>
      <trkpt lat="45.79136" lon="4.82265">
        <ele>218</ele>
        <time>2011-10-16T10:52:13Z</time>
      </trkpt>
      <trkpt lat="45.79134" lon="4.82261">
        <ele>218</ele>
        <time>2011-10-16T10:52:14Z</time>
      </trkpt>
      <trkpt lat="45.79132" lon="4.82257">
        <ele>218</ele>
        <time>2011-10-16T10:52:15Z</time>
      </trkpt>
      <trkpt lat="45.7913" lon="4.82254">
        <ele>218</ele>
        <time>2011-10-16T10:52:16Z</time>
      </trkpt>
      <trkpt lat="45.79129" lon="4.82251">
        <ele>219</ele>
        <time>2011-10-16T10:52:17Z</time>
      </trkpt>
      <trkpt lat="45.79127" lon="4.82248">
        <ele>219</ele>
        <time>2011-10-16T10:52:18Z</time>
      </trkpt>
      <trkpt lat="45.79125" lon="4.82245">
        <ele>220</ele>
        <time>2011-10-16T10:52:19Z</time>
      </trkpt>
      <trkpt lat="45.79124" lon="4.82242">
        <ele>219</ele>
        <time>2011-10-16T10:52:20Z</time>
      </trkpt>
      <trkpt lat="45.79122" lon="4.82238">
        <ele>219</ele>
        <time>2011-10-16T10:52:21Z</time>
      </trkpt>
      <trkpt lat="45.7912" lon="4.82235">
        <ele>219</ele>
        <time>2011-10-16T10:52:22Z</time>
      </trkpt>
      <trkpt lat="45.79118" lon="4.82233">
        <ele>218</ele>
        <time>2011-10-16T10:52:23Z</time>
      </trkpt>
      <trkpt lat="45.79118" lon="4.82233">
        <ele>218.23602294922</ele>
        <time>2011-10-16T10:52:24Z</time>
      </trkpt>
      <trkpt lat="45.79114" lon="4.82227">
        <ele>219</ele>
        <time>2011-10-16T10:52:25Z</time>
      </trkpt>
      <trkpt lat="45.79112" lon="4.82225">
        <ele>219</ele>
        <time>2011-10-16T10:52:26Z</time>
      </trkpt>
      <trkpt lat="45.79111" lon="4.82222">
        <ele>219</ele>
        <time>2011-10-16T10:52:27Z</time>
      </trkpt>
      <trkpt lat="45.79109" lon="4.82219">
        <ele>219</ele>
        <time>2011-10-16T10:52:28Z</time>
      </trkpt>
      <trkpt lat="45.79106" lon="4.82216">
        <ele>219</ele>
        <time>2011-10-16T10:52:29Z</time>
      </trkpt>
      <trkpt lat="45.79105" lon="4.82212">
        <ele>218</ele>
        <time>2011-10-16T10:52:30Z</time>
      </trkpt>
      <trkpt lat="45.79103" lon="4.82208">
        <ele>218</ele>
        <time>2011-10-16T10:52:31Z</time>
      </trkpt>
      <trkpt lat="45.791" lon="4.82205">
        <ele>218</ele>
        <time>2011-10-16T10:52:32Z</time>
      </trkpt>
      <trkpt lat="45.79098" lon="4.82202">
        <ele>218</ele>
        <time>2011-10-16T10:52:33Z</time>
      </trkpt>
      <trkpt lat="45.79096" lon="4.82199">
        <ele>217</ele>
        <time>2011-10-16T10:52:34Z</time>
      </trkpt>
      <trkpt lat="45.79096" lon="4.82197">
        <ele>217</ele>
        <time>2011-10-16T10:52:35Z</time>
      </trkpt>
      <trkpt lat="45.79094" lon="4.82194">
        <ele>217</ele>
        <time>2011-10-16T10:52:36Z</time>
      </trkpt>
      <trkpt lat="45.79092" lon="4.82191">
        <ele>218</ele>
        <time>2011-10-16T10:52:37Z</time>
      </trkpt>
      <trkpt lat="45.7909" lon="4.82188">
        <ele>218</ele>
        <time>2011-10-16T10:52:38Z</time>
      </trkpt>
      <trkpt lat="45.79088" lon="4.82184">
        <ele>218</ele>
        <time>2011-10-16T10:52:39Z</time>
      </trkpt>
      <trkpt lat="45.79087" lon="4.82181">
        <ele>218</ele>
        <time>2011-10-16T10:52:40Z</time>
      </trkpt>
      <trkpt lat="45.79085" lon="4.82178">
        <ele>218</ele>
        <time>2011-10-16T10:52:41Z</time>
      </trkpt>
      <trkpt lat="45.79083" lon="4.82175">
        <ele>217</ele>
        <time>2011-10-16T10:52:42Z</time>
      </trkpt>
      <trkpt lat="45.79081" lon="4.82172">
        <ele>217</ele>
        <time>2011-10-16T10:52:43Z</time>
      </trkpt>
      <trkpt lat="45.79078" lon="4.82169">
        <ele>217</ele>
        <time>2011-10-16T10:52:44Z</time>
      </trkpt>
      <trkpt lat="45.79076" lon="4.82166">
        <ele>217</ele>
        <time>2011-10-16T10:52:45Z</time>
      </trkpt>
      <trkpt lat="45.79075" lon="4.82163">
        <ele>217</ele>
        <time>2011-10-16T10:52:46Z</time>
      </trkpt>
      <trkpt lat="45.79072" lon="4.8216">
        <ele>217</ele>
        <time>2011-10-16T10:52:47Z</time>
      </trkpt>
      <trkpt lat="45.79069" lon="4.82158">
        <ele>216</ele>
        <time>2011-10-16T10:52:48Z</time>
      </trkpt>
      <trkpt lat="45.79067" lon="4.82153">
        <ele>217</ele>
        <time>2011-10-16T10:52:49Z</time>
      </trkpt>
      <trkpt lat="45.79065" lon="4.82151">
        <ele>217</ele>
        <time>2011-10-16T10:52:50Z</time>
      </trkpt>
      <trkpt lat="45.79062" lon="4.82148">
        <ele>217</ele>
        <time>2011-10-16T10:52:51Z</time>
      </trkpt>
      <trkpt lat="45.79061" lon="4.82145">
        <ele>217</ele>
        <time>2011-10-16T10:52:52Z</time>
      </trkpt>
      <trkpt lat="45.79059" lon="4.82142">
        <ele>217</ele>
        <time>2011-10-16T10:52:53Z</time>
      </trkpt>
      <trkpt lat="45.79057" lon="4.82138">
        <ele>216</ele>
        <time>2011-10-16T10:52:54Z</time>
      </trkpt>
      <trkpt lat="45.79055" lon="4.82136">
        <ele>216</ele>
        <time>2011-10-16T10:52:55Z</time>
      </trkpt>
      <trkpt lat="45.79051" lon="4.82132">
        <ele>216</ele>
        <time>2011-10-16T10:52:56Z</time>
      </trkpt>
      <trkpt lat="45.7905" lon="4.82131">
        <ele>216</ele>
        <time>2011-10-16T10:52:57Z</time>
      </trkpt>
      <trkpt lat="45.79048" lon="4.82128">
        <ele>217</ele>
        <time>2011-10-16T10:52:58Z</time>
      </trkpt>
      <trkpt lat="45.79045" lon="4.82125">
        <ele>217</ele>
        <time>2011-10-16T10:52:59Z</time>
      </trkpt>
      <trkpt lat="45.79042" lon="4.82124">
        <ele>214</ele>
        <time>2011-10-16T10:53:00Z</time>
      </trkpt>
      <trkpt lat="45.7904" lon="4.82121">
        <ele>214</ele>
        <time>2011-10-16T10:53:01Z</time>
      </trkpt>
      <trkpt lat="45.79037" lon="4.8212">
        <ele>213</ele>
        <time>2011-10-16T10:53:02Z</time>
      </trkpt>
      <trkpt lat="45.79035" lon="4.82118">
        <ele>212</ele>
        <time>2011-10-16T10:53:03Z</time>
      </trkpt>
      <trkpt lat="45.79032" lon="4.82116">
        <ele>211</ele>
        <time>2011-10-16T10:53:04Z</time>
      </trkpt>
      <trkpt lat="45.7903" lon="4.82113">
        <ele>211</ele>
        <time>2011-10-16T10:53:05Z</time>
      </trkpt>
      <trkpt lat="45.79028" lon="4.82113">
        <ele>210</ele>
        <time>2011-10-16T10:53:06Z</time>
      </trkpt>
      <trkpt lat="45.79026" lon="4.8211">
        <ele>210</ele>
        <time>2011-10-16T10:53:07Z</time>
      </trkpt>
      <trkpt lat="45.79024" lon="4.82109">
        <ele>210</ele>
        <time>2011-10-16T10:53:08Z</time>
      </trkpt>
      <trkpt lat="45.79022" lon="4.82107">
        <ele>211</ele>
        <time>2011-10-16T10:53:09Z</time>
      </trkpt>
      <trkpt lat="45.79019" lon="4.82104">
        <ele>211</ele>
        <time>2011-10-16T10:53:10Z</time>
      </trkpt>
      <trkpt lat="45.79017" lon="4.821">
        <ele>212</ele>
        <time>2011-10-16T10:53:11Z</time>
      </trkpt>
      <trkpt lat="45.79014" lon="4.82096">
        <ele>212</ele>
        <time>2011-10-16T10:53:12Z</time>
      </trkpt>
      <trkpt lat="45.79013" lon="4.82093">
        <ele>213</ele>
        <time>2011-10-16T10:53:13Z</time>
      </trkpt>
      <trkpt lat="45.79008" lon="4.8209">
        <ele>213</ele>
        <time>2011-10-16T10:53:14Z</time>
      </trkpt>
      <trkpt lat="45.79005" lon="4.82087">
        <ele>213</ele>
        <time>2011-10-16T10:53:15Z</time>
      </trkpt>
      <trkpt lat="45.79002" lon="4.82084">
        <ele>214</ele>
        <time>2011-10-16T10:53:16Z</time>
      </trkpt>
      <trkpt lat="45.79" lon="4.8208">
        <ele>214</ele>
        <time>2011-10-16T10:53:17Z</time>
      </trkpt>
      <trkpt lat="45.78997" lon="4.82077">
        <ele>215</ele>
        <time>2011-10-16T10:53:18Z</time>
      </trkpt>
      <trkpt lat="45.78994" lon="4.82075">
        <ele>214</ele>
        <time>2011-10-16T10:53:19Z</time>
      </trkpt>
      <trkpt lat="45.78992" lon="4.82072">
        <ele>214</ele>
        <time>2011-10-16T10:53:20Z</time>
      </trkpt>
      <trkpt lat="45.78989" lon="4.82068">
        <ele>214</ele>
        <time>2011-10-16T10:53:21Z</time>
      </trkpt>
      <trkpt lat="45.78988" lon="4.82064">
        <ele>214</ele>
        <time>2011-10-16T10:53:22Z</time>
      </trkpt>
      <trkpt lat="45.78986" lon="4.82061">
        <ele>214</ele>
        <time>2011-10-16T10:53:23Z</time>
      </trkpt>
      <trkpt lat="45.78984" lon="4.82057">
        <ele>214</ele>
        <time>2011-10-16T10:53:24Z</time>
      </trkpt>
      <trkpt lat="45.78981" lon="4.82055">
        <ele>214</ele>
        <time>2011-10-16T10:53:25Z</time>
      </trkpt>
      <trkpt lat="45.7898" lon="4.82052">
        <ele>214</ele>
        <time>2011-10-16T10:53:26Z</time>
      </trkpt>
      <trkpt lat="45.78978" lon="4.82049">
        <ele>215</ele>
        <time>2011-10-16T10:53:27Z</time>
      </trkpt>
      <trkpt lat="45.78976" lon="4.82047">
        <ele>215</ele>
        <time>2011-10-16T10:53:28Z</time>
      </trkpt>
      <trkpt lat="45.78974" lon="4.82043">
        <ele>216</ele>
        <time>2011-10-16T10:53:29Z</time>
      </trkpt>
      <trkpt lat="45.78973" lon="4.82041">
        <ele>216</ele>
        <time>2011-10-16T10:53:30Z</time>
      </trkpt>
      <trkpt lat="45.78971" lon="4.82038">
        <ele>216</ele>
        <time>2011-10-16T10:53:31Z</time>
      </trkpt>
      <trkpt lat="45.78969" lon="4.82035">
        <ele>216</ele>
        <time>2011-10-16T10:53:32Z</time>
      </trkpt>
      <trkpt lat="45.78967" lon="4.82032">
        <ele>216</ele>
        <time>2011-10-16T10:53:33Z</time>
      </trkpt>
      <trkpt lat="45.78966" lon="4.82028">
        <ele>216</ele>
        <time>2011-10-16T10:53:34Z</time>
      </trkpt>
      <trkpt lat="45.78963" lon="4.82025">
        <ele>215</ele>
        <time>2011-10-16T10:53:35Z</time>
      </trkpt>
      <trkpt lat="45.78961" lon="4.82022">
        <ele>215</ele>
        <time>2011-10-16T10:53:36Z</time>
      </trkpt>
      <trkpt lat="45.78959" lon="4.8202">
        <ele>215</ele>
        <time>2011-10-16T10:53:37Z</time>
      </trkpt>
      <trkpt lat="45.78957" lon="4.82018">
        <ele>214.50378417969</ele>
        <time>2011-10-16T10:53:38Z</time>
      </trkpt>
      <trkpt lat="45.78954" lon="4.82014">
        <ele>215</ele>
        <time>2011-10-16T10:53:39Z</time>
      </trkpt>
      <trkpt lat="45.78951" lon="4.82011">
        <ele>214</ele>
        <time>2011-10-16T10:53:40Z</time>
      </trkpt>
      <trkpt lat="45.78949" lon="4.82007">
        <ele>214</ele>
        <time>2011-10-16T10:53:41Z</time>
      </trkpt>
      <trkpt lat="45.78946" lon="4.82004">
        <ele>214</ele>
        <time>2011-10-16T10:53:42Z</time>
      </trkpt>
      <trkpt lat="45.78944" lon="4.82002">
        <ele>213</ele>
        <time>2011-10-16T10:53:43Z</time>
      </trkpt>
      <trkpt lat="45.78942" lon="4.81999">
        <ele>213</ele>
        <time>2011-10-16T10:53:44Z</time>
      </trkpt>
      <trkpt lat="45.7894" lon="4.81996">
        <ele>213</ele>
        <time>2011-10-16T10:53:45Z</time>
      </trkpt>
      <trkpt lat="45.78937" lon="4.81993">
        <ele>213</ele>
        <time>2011-10-16T10:53:46Z</time>
      </trkpt>
      <trkpt lat="45.78935" lon="4.81991">
        <ele>213</ele>
        <time>2011-10-16T10:53:47Z</time>
      </trkpt>
      <trkpt lat="45.78932" lon="4.81988">
        <ele>213</ele>
        <time>2011-10-16T10:53:48Z</time>
      </trkpt>
      <trkpt lat="45.78929" lon="4.81986">
        <ele>213</ele>
        <time>2011-10-16T10:53:49Z</time>
      </trkpt>
      <trkpt lat="45.78927" lon="4.81982">
        <ele>214</ele>
        <time>2011-10-16T10:53:50Z</time>
      </trkpt>
      <trkpt lat="45.78926" lon="4.8198">
        <ele>214</ele>
        <time>2011-10-16T10:53:51Z</time>
      </trkpt>
      <trkpt lat="45.78925" lon="4.81978">
        <ele>214</ele>
        <time>2011-10-16T10:53:52Z</time>
      </trkpt>
      <trkpt lat="45.78921" lon="4.81974">
        <ele>214</ele>
        <time>2011-10-16T10:53:53Z</time>
      </trkpt>
      <trkpt lat="45.78919" lon="4.81973">
        <ele>214</ele>
        <time>2011-10-16T10:53:54Z</time>
      </trkpt>
      <trkpt lat="45.78918" lon="4.81971">
        <ele>213</ele>
        <time>2011-10-16T10:53:55Z</time>
      </trkpt>
      <trkpt lat="45.78916" lon="4.81969">
        <ele>214</ele>
        <time>2011-10-16T10:53:56Z</time>
      </trkpt>
      <trkpt lat="45.78914" lon="4.81968">
        <ele>214</ele>
        <time>2011-10-16T10:53:57Z</time>
      </trkpt>
      <trkpt lat="45.78912" lon="4.81965">
        <ele>214</ele>
        <time>2011-10-16T10:53:58Z</time>
      </trkpt>
      <trkpt lat="45.78909" lon="4.81962">
        <ele>214</ele>
        <time>2011-10-16T10:53:59Z</time>
      </trkpt>
      <trkpt lat="45.78906" lon="4.81959">
        <ele>214</ele>
        <time>2011-10-16T10:54:00Z</time>
      </trkpt>
      <trkpt lat="45.78904" lon="4.81955">
        <ele>213</ele>
        <time>2011-10-16T10:54:01Z</time>
      </trkpt>
      <trkpt lat="45.78903" lon="4.81952">
        <ele>213</ele>
        <time>2011-10-16T10:54:02Z</time>
      </trkpt>
      <trkpt lat="45.78903" lon="4.8195">
        <ele>212</ele>
        <time>2011-10-16T10:54:03Z</time>
      </trkpt>
      <trkpt lat="45.789" lon="4.81947">
        <ele>212</ele>
        <time>2011-10-16T10:54:04Z</time>
      </trkpt>
      <trkpt lat="45.78897" lon="4.81945">
        <ele>213</ele>
        <time>2011-10-16T10:54:05Z</time>
      </trkpt>
      <trkpt lat="45.78894" lon="4.81943">
        <ele>213</ele>
        <time>2011-10-16T10:54:06Z</time>
      </trkpt>
      <trkpt lat="45.78893" lon="4.8194">
        <ele>213</ele>
        <time>2011-10-16T10:54:07Z</time>
      </trkpt>
      <trkpt lat="45.78892" lon="4.81936">
        <ele>214</ele>
        <time>2011-10-16T10:54:08Z</time>
      </trkpt>
      <trkpt lat="45.78891" lon="4.81932">
        <ele>214</ele>
        <time>2011-10-16T10:54:09Z</time>
      </trkpt>
      <trkpt lat="45.78889" lon="4.81929">
        <ele>214</ele>
        <time>2011-10-16T10:54:10Z</time>
      </trkpt>
      <trkpt lat="45.78887" lon="4.81924">
        <ele>214</ele>
        <time>2011-10-16T10:54:11Z</time>
      </trkpt>
      <trkpt lat="45.78884" lon="4.81921">
        <ele>214</ele>
        <time>2011-10-16T10:54:12Z</time>
      </trkpt>
      <trkpt lat="45.78883" lon="4.81917">
        <ele>215</ele>
        <time>2011-10-16T10:54:13Z</time>
      </trkpt>
      <trkpt lat="45.78882" lon="4.81916">
        <ele>214.74110412598</ele>
        <time>2011-10-16T10:54:14Z</time>
      </trkpt>
      <trkpt lat="45.78879" lon="4.81911">
        <ele>214</ele>
        <time>2011-10-16T10:54:15Z</time>
      </trkpt>
      <trkpt lat="45.78877" lon="4.8191">
        <ele>214</ele>
        <time>2011-10-16T10:54:16Z</time>
      </trkpt>
      <trkpt lat="45.78874" lon="4.81908">
        <ele>213</ele>
        <time>2011-10-16T10:54:17Z</time>
      </trkpt>
      <trkpt lat="45.78872" lon="4.81906">
        <ele>213</ele>
        <time>2011-10-16T10:54:18Z</time>
      </trkpt>
      <trkpt lat="45.7887" lon="4.81904">
        <ele>213</ele>
        <time>2011-10-16T10:54:19Z</time>
      </trkpt>
      <trkpt lat="45.78868" lon="4.81901">
        <ele>212</ele>
        <time>2011-10-16T10:54:20Z</time>
      </trkpt>
      <trkpt lat="45.78866" lon="4.81899">
        <ele>212</ele>
        <time>2011-10-16T10:54:21Z</time>
      </trkpt>
      <trkpt lat="45.78865" lon="4.81897">
        <ele>212</ele>
        <time>2011-10-16T10:54:22Z</time>
      </trkpt>
      <trkpt lat="45.78862" lon="4.81894">
        <ele>212</ele>
        <time>2011-10-16T10:54:23Z</time>
      </trkpt>
      <trkpt lat="45.78861" lon="4.81892">
        <ele>212</ele>
        <time>2011-10-16T10:54:24Z</time>
      </trkpt>
      <trkpt lat="45.78857" lon="4.81888">
        <ele>212</ele>
        <time>2011-10-16T10:54:25Z</time>
      </trkpt>
      <trkpt lat="45.78855" lon="4.81885">
        <ele>212</ele>
        <time>2011-10-16T10:54:26Z</time>
      </trkpt>
      <trkpt lat="45.78853" lon="4.81882">
        <ele>212</ele>
        <time>2011-10-16T10:54:27Z</time>
      </trkpt>
      <trkpt lat="45.7885" lon="4.81879">
        <ele>212</ele>
        <time>2011-10-16T10:54:28Z</time>
      </trkpt>
      <trkpt lat="45.78847" lon="4.81876">
        <ele>212</ele>
        <time>2011-10-16T10:54:29Z</time>
      </trkpt>
      <trkpt lat="45.78845" lon="4.81874">
        <ele>212</ele>
        <time>2011-10-16T10:54:30Z</time>
      </trkpt>
      <trkpt lat="45.78844" lon="4.81871">
        <ele>212</ele>
        <time>2011-10-16T10:54:31Z</time>
      </trkpt>
      <trkpt lat="45.78841" lon="4.81869">
        <ele>212</ele>
        <time>2011-10-16T10:54:32Z</time>
      </trkpt>
      <trkpt lat="45.78839" lon="4.81866">
        <ele>213</ele>
        <time>2011-10-16T10:54:33Z</time>
      </trkpt>
      <trkpt lat="45.78837" lon="4.81864">
        <ele>213</ele>
        <time>2011-10-16T10:54:34Z</time>
      </trkpt>
      <trkpt lat="45.78833" lon="4.81861">
        <ele>213</ele>
        <time>2011-10-16T10:54:35Z</time>
      </trkpt>
      <trkpt lat="45.78832" lon="4.81859">
        <ele>213</ele>
        <time>2011-10-16T10:54:36Z</time>
      </trkpt>
      <trkpt lat="45.78827" lon="4.81856">
        <ele>213</ele>
        <time>2011-10-16T10:54:37Z</time>
      </trkpt>
      <trkpt lat="45.78826" lon="4.81854">
        <ele>213</ele>
        <time>2011-10-16T10:54:38Z</time>
      </trkpt>
      <trkpt lat="45.78824" lon="4.81852">
        <ele>213</ele>
        <time>2011-10-16T10:54:39Z</time>
      </trkpt>
      <trkpt lat="45.78822" lon="4.81849">
        <ele>214</ele>
        <time>2011-10-16T10:54:40Z</time>
      </trkpt>
      <trkpt lat="45.7882" lon="4.81847">
        <ele>214</ele>
        <time>2011-10-16T10:54:41Z</time>
      </trkpt>
      <trkpt lat="45.78818" lon="4.81844">
        <ele>214</ele>
        <time>2011-10-16T10:54:42Z</time>
      </trkpt>
      <trkpt lat="45.78816" lon="4.81842">
        <ele>214</ele>
        <time>2011-10-16T10:54:43Z</time>
      </trkpt>
      <trkpt lat="45.78815" lon="4.8184">
        <ele>214</ele>
        <time>2011-10-16T10:54:44Z</time>
      </trkpt>
      <trkpt lat="45.78813" lon="4.81838">
        <ele>215</ele>
        <time>2011-10-16T10:54:45Z</time>
      </trkpt>
      <trkpt lat="45.78811" lon="4.81836">
        <ele>216</ele>
        <time>2011-10-16T10:54:46Z</time>
      </trkpt>
      <trkpt lat="45.78809" lon="4.81835">
        <ele>216</ele>
        <time>2011-10-16T10:54:47Z</time>
      </trkpt>
      <trkpt lat="45.78806" lon="4.81832">
        <ele>216</ele>
        <time>2011-10-16T10:54:48Z</time>
      </trkpt>
      <trkpt lat="45.78804" lon="4.81829">
        <ele>216</ele>
        <time>2011-10-16T10:54:49Z</time>
      </trkpt>
      <trkpt lat="45.78801" lon="4.81825">
        <ele>215</ele>
        <time>2011-10-16T10:54:50Z</time>
      </trkpt>
      <trkpt lat="45.78798" lon="4.8182">
        <ele>215</ele>
        <time>2011-10-16T10:54:51Z</time>
      </trkpt>
      <trkpt lat="45.78797" lon="4.81817">
        <ele>215</ele>
        <time>2011-10-16T10:54:52Z</time>
      </trkpt>
      <trkpt lat="45.78795" lon="4.81814">
        <ele>216</ele>
        <time>2011-10-16T10:54:53Z</time>
      </trkpt>
      <trkpt lat="45.78793" lon="4.81811">
        <ele>216</ele>
        <time>2011-10-16T10:54:54Z</time>
      </trkpt>
      <trkpt lat="45.7879" lon="4.81808">
        <ele>215</ele>
        <time>2011-10-16T10:54:55Z</time>
      </trkpt>
      <trkpt lat="45.78787" lon="4.81805">
        <ele>215</ele>
        <time>2011-10-16T10:54:56Z</time>
      </trkpt>
      <trkpt lat="45.78784" lon="4.81802">
        <ele>215</ele>
        <time>2011-10-16T10:54:58Z</time>
      </trkpt>
      <trkpt lat="45.78784" lon="4.81802">
        <ele>215</ele>
        <time>2011-10-16T10:54:58Z</time>
      </trkpt>
      <trkpt lat="45.7878" lon="4.81797">
        <ele>215</ele>
        <time>2011-10-16T10:54:59Z</time>
      </trkpt>
      <trkpt lat="45.78777" lon="4.81796">
        <ele>215</ele>
        <time>2011-10-16T10:55:00Z</time>
      </trkpt>
      <trkpt lat="45.78776" lon="4.81794">
        <ele>215</ele>
        <time>2011-10-16T10:55:01Z</time>
      </trkpt>
      <trkpt lat="45.78774" lon="4.81791">
        <ele>214</ele>
        <time>2011-10-16T10:55:02Z</time>
      </trkpt>
      <trkpt lat="45.78772" lon="4.81786">
        <ele>215</ele>
        <time>2011-10-16T10:55:03Z</time>
      </trkpt>
      <trkpt lat="45.7877" lon="4.81784">
        <ele>216</ele>
        <time>2011-10-16T10:55:04Z</time>
      </trkpt>
      <trkpt lat="45.78768" lon="4.81782">
        <ele>216</ele>
        <time>2011-10-16T10:55:05Z</time>
      </trkpt>
      <trkpt lat="45.78766" lon="4.8178">
        <ele>216</ele>
        <time>2011-10-16T10:55:06Z</time>
      </trkpt>
      <trkpt lat="45.78765" lon="4.81778">
        <ele>216</ele>
        <time>2011-10-16T10:55:07Z</time>
      </trkpt>
      <trkpt lat="45.78763" lon="4.81776">
        <ele>216</ele>
        <time>2011-10-16T10:55:08Z</time>
      </trkpt>
      <trkpt lat="45.78761" lon="4.81773">
        <ele>216</ele>
        <time>2011-10-16T10:55:09Z</time>
      </trkpt>
      <trkpt lat="45.78759" lon="4.81771">
        <ele>216</ele>
        <time>2011-10-16T10:55:10Z</time>
      </trkpt>
      <trkpt lat="45.78756" lon="4.81768">
        <ele>216</ele>
        <time>2011-10-16T10:55:11Z</time>
      </trkpt>
      <trkpt lat="45.78753" lon="4.81766">
        <ele>217</ele>
        <time>2011-10-16T10:55:12Z</time>
      </trkpt>
      <trkpt lat="45.78753" lon="4.81764">
        <ele>216</ele>
        <time>2011-10-16T10:55:13Z</time>
      </trkpt>
      <trkpt lat="45.7875" lon="4.81762">
        <ele>217</ele>
        <time>2011-10-16T10:55:14Z</time>
      </trkpt>
      <trkpt lat="45.78749" lon="4.81761">
        <ele>216</ele>
        <time>2011-10-16T10:55:15Z</time>
      </trkpt>
      <trkpt lat="45.78747" lon="4.81759">
        <ele>216</ele>
        <time>2011-10-16T10:55:16Z</time>
      </trkpt>
      <trkpt lat="45.78745" lon="4.81756">
        <ele>216</ele>
        <time>2011-10-16T10:55:17Z</time>
      </trkpt>
      <trkpt lat="45.78742" lon="4.81752">
        <ele>216</ele>
        <time>2011-10-16T10:55:18Z</time>
      </trkpt>
      <trkpt lat="45.7874" lon="4.81749">
        <ele>216</ele>
        <time>2011-10-16T10:55:19Z</time>
      </trkpt>
      <trkpt lat="45.78739" lon="4.81749">
        <ele>216</ele>
        <time>2011-10-16T10:55:20Z</time>
      </trkpt>
      <trkpt lat="45.78736" lon="4.81744">
        <ele>215</ele>
        <time>2011-10-16T10:55:21Z</time>
      </trkpt>
      <trkpt lat="45.78734" lon="4.81741">
        <ele>215</ele>
        <time>2011-10-16T10:55:22Z</time>
      </trkpt>
      <trkpt lat="45.78731" lon="4.81738">
        <ele>215</ele>
        <time>2011-10-16T10:55:23Z</time>
      </trkpt>
      <trkpt lat="45.78728" lon="4.81736">
        <ele>215</ele>
        <time>2011-10-16T10:55:24Z</time>
      </trkpt>
      <trkpt lat="45.78727" lon="4.81733">
        <ele>216</ele>
        <time>2011-10-16T10:55:25Z</time>
      </trkpt>
      <trkpt lat="45.78724" lon="4.81729">
        <ele>216</ele>
        <time>2011-10-16T10:55:26Z</time>
      </trkpt>
      <trkpt lat="45.78722" lon="4.81727">
        <ele>216</ele>
        <time>2011-10-16T10:55:27Z</time>
      </trkpt>
      <trkpt lat="45.78721" lon="4.81725">
        <ele>217</ele>
        <time>2011-10-16T10:55:28Z</time>
      </trkpt>
      <trkpt lat="45.78719" lon="4.81721">
        <ele>217</ele>
        <time>2011-10-16T10:55:29Z</time>
      </trkpt>
      <trkpt lat="45.78717" lon="4.81719">
        <ele>216</ele>
        <time>2011-10-16T10:55:30Z</time>
      </trkpt>
      <trkpt lat="45.78714" lon="4.81716">
        <ele>217</ele>
        <time>2011-10-16T10:55:31Z</time>
      </trkpt>
      <trkpt lat="45.78712" lon="4.81712">
        <ele>217</ele>
        <time>2011-10-16T10:55:32Z</time>
      </trkpt>
      <trkpt lat="45.7871" lon="4.8171">
        <ele>217</ele>
        <time>2011-10-16T10:55:33Z</time>
      </trkpt>
      <trkpt lat="45.78708" lon="4.81709">
        <ele>217</ele>
        <time>2011-10-16T10:55:34Z</time>
      </trkpt>
      <trkpt lat="45.78705" lon="4.81706">
        <ele>217</ele>
        <time>2011-10-16T10:55:35Z</time>
      </trkpt>
      <trkpt lat="45.78702" lon="4.81703">
        <ele>217</ele>
        <time>2011-10-16T10:55:36Z</time>
      </trkpt>
      <trkpt lat="45.787" lon="4.817">
        <ele>216</ele>
        <time>2011-10-16T10:55:37Z</time>
      </trkpt>
      <trkpt lat="45.78698" lon="4.81697">
        <ele>216</ele>
        <time>2011-10-16T10:55:38Z</time>
      </trkpt>
      <trkpt lat="45.78695" lon="4.81695">
        <ele>216</ele>
        <time>2011-10-16T10:55:39Z</time>
      </trkpt>
      <trkpt lat="45.78693" lon="4.81693">
        <ele>216</ele>
        <time>2011-10-16T10:55:40Z</time>
      </trkpt>
      <trkpt lat="45.78691" lon="4.8169">
        <ele>216</ele>
        <time>2011-10-16T10:55:42Z</time>
      </trkpt>
      <trkpt lat="45.78691" lon="4.8169">
        <ele>216</ele>
        <time>2011-10-16T10:55:42Z</time>
      </trkpt>
      <trkpt lat="45.78686" lon="4.81688">
        <ele>216</ele>
        <time>2011-10-16T10:55:43Z</time>
      </trkpt>
      <trkpt lat="45.78684" lon="4.81685">
        <ele>216</ele>
        <time>2011-10-16T10:55:44Z</time>
      </trkpt>
      <trkpt lat="45.78681" lon="4.81682">
        <ele>216</ele>
        <time>2011-10-16T10:55:45Z</time>
      </trkpt>
      <trkpt lat="45.78678" lon="4.8168">
        <ele>216</ele>
        <time>2011-10-16T10:55:46Z</time>
      </trkpt>
      <trkpt lat="45.78676" lon="4.8168">
        <ele>216</ele>
        <time>2011-10-16T10:55:47Z</time>
      </trkpt>
      <trkpt lat="45.78675" lon="4.81677">
        <ele>218</ele>
        <time>2011-10-16T10:55:48Z</time>
      </trkpt>
      <trkpt lat="45.78673" lon="4.81673">
        <ele>219</ele>
        <time>2011-10-16T10:55:49Z</time>
      </trkpt>
      <trkpt lat="45.78672" lon="4.81671">
        <ele>219</ele>
        <time>2011-10-16T10:55:50Z</time>
      </trkpt>
      <trkpt lat="45.78668" lon="4.81667">
        <ele>219</ele>
        <time>2011-10-16T10:55:51Z</time>
      </trkpt>
      <trkpt lat="45.78665" lon="4.81665">
        <ele>219</ele>
        <time>2011-10-16T10:55:52Z</time>
      </trkpt>
      <trkpt lat="45.78662" lon="4.81664">
        <ele>219</ele>
        <time>2011-10-16T10:55:53Z</time>
      </trkpt>
      <trkpt lat="45.78659" lon="4.81663">
        <ele>218</ele>
        <time>2011-10-16T10:55:54Z</time>
      </trkpt>
      <trkpt lat="45.78656" lon="4.81661">
        <ele>218</ele>
        <time>2011-10-16T10:55:55Z</time>
      </trkpt>
      <trkpt lat="45.78654" lon="4.81661">
        <ele>218</ele>
        <time>2011-10-16T10:55:56Z</time>
      </trkpt>
      <trkpt lat="45.78651" lon="4.8166">
        <ele>218</ele>
        <time>2011-10-16T10:55:57Z</time>
      </trkpt>
      <trkpt lat="45.78648" lon="4.81659">
        <ele>218</ele>
        <time>2011-10-16T10:55:58Z</time>
      </trkpt>
      <trkpt lat="45.78646" lon="4.81658">
        <ele>218</ele>
        <time>2011-10-16T10:55:59Z</time>
      </trkpt>
      <trkpt lat="45.78643" lon="4.81656">
        <ele>217</ele>
        <time>2011-10-16T10:56:00Z</time>
      </trkpt>
      <trkpt lat="45.7864" lon="4.81654">
        <ele>216</ele>
        <time>2011-10-16T10:56:01Z</time>
      </trkpt>
      <trkpt lat="45.78638" lon="4.81652">
        <ele>216</ele>
        <time>2011-10-16T10:56:02Z</time>
      </trkpt>
      <trkpt lat="45.78635" lon="4.81649">
        <ele>217</ele>
        <time>2011-10-16T10:56:04Z</time>
      </trkpt>
      <trkpt lat="45.78635" lon="4.81649">
        <ele>217</ele>
        <time>2011-10-16T10:56:04Z</time>
      </trkpt>
      <trkpt lat="45.7863" lon="4.81647">
        <ele>217</ele>
        <time>2011-10-16T10:56:05Z</time>
      </trkpt>
      <trkpt lat="45.78627" lon="4.81643">
        <ele>217</ele>
        <time>2011-10-16T10:56:06Z</time>
      </trkpt>
      <trkpt lat="45.78624" lon="4.81644">
        <ele>215</ele>
        <time>2011-10-16T10:56:07Z</time>
      </trkpt>
      <trkpt lat="45.7862" lon="4.81642">
        <ele>214</ele>
        <time>2011-10-16T10:56:08Z</time>
      </trkpt>
      <trkpt lat="45.78618" lon="4.81641">
        <ele>213</ele>
        <time>2011-10-16T10:56:09Z</time>
      </trkpt>
      <trkpt lat="45.78614" lon="4.81639">
        <ele>213</ele>
        <time>2011-10-16T10:56:10Z</time>
      </trkpt>
      <trkpt lat="45.78612" lon="4.81637">
        <ele>213</ele>
        <time>2011-10-16T10:56:11Z</time>
      </trkpt>
      <trkpt lat="45.7861" lon="4.81634">
        <ele>213</ele>
        <time>2011-10-16T10:56:12Z</time>
      </trkpt>
      <trkpt lat="45.78607" lon="4.81632">
        <ele>213</ele>
        <time>2011-10-16T10:56:13Z</time>
      </trkpt>
      <trkpt lat="45.78605" lon="4.8163">
        <ele>214</ele>
        <time>2011-10-16T10:56:14Z</time>
      </trkpt>
      <trkpt lat="45.78603" lon="4.81627">
        <ele>214</ele>
        <time>2011-10-16T10:56:15Z</time>
      </trkpt>
      <trkpt lat="45.786" lon="4.81625">
        <ele>214</ele>
        <time>2011-10-16T10:56:16Z</time>
      </trkpt>
      <trkpt lat="45.78598" lon="4.81625">
        <ele>214</ele>
        <time>2011-10-16T10:56:17Z</time>
      </trkpt>
      <trkpt lat="45.78595" lon="4.81623">
        <ele>214</ele>
        <time>2011-10-16T10:56:18Z</time>
      </trkpt>
      <trkpt lat="45.78592" lon="4.81622">
        <ele>215</ele>
        <time>2011-10-16T10:56:19Z</time>
      </trkpt>
      <trkpt lat="45.78588" lon="4.8162">
        <ele>215</ele>
        <time>2011-10-16T10:56:20Z</time>
      </trkpt>
      <trkpt lat="45.78585" lon="4.81619">
        <ele>215</ele>
        <time>2011-10-16T10:56:21Z</time>
      </trkpt>
      <trkpt lat="45.78582" lon="4.81617">
        <ele>215</ele>
        <time>2011-10-16T10:56:22Z</time>
      </trkpt>
      <trkpt lat="45.7858" lon="4.81615">
        <ele>216</ele>
        <time>2011-10-16T10:56:23Z</time>
      </trkpt>
      <trkpt lat="45.78577" lon="4.81614">
        <ele>216</ele>
        <time>2011-10-16T10:56:24Z</time>
      </trkpt>
      <trkpt lat="45.78574" lon="4.81613">
        <ele>216</ele>
        <time>2011-10-16T10:56:26Z</time>
      </trkpt>
      <trkpt lat="45.78574" lon="4.81613">
        <ele>216</ele>
        <time>2011-10-16T10:56:26Z</time>
      </trkpt>
      <trkpt lat="45.78573" lon="4.81612">
        <ele>216</ele>
        <time>2011-10-16T10:56:27Z</time>
      </trkpt>
      <trkpt lat="45.78567" lon="4.81608">
        <ele>216</ele>
        <time>2011-10-16T10:56:28Z</time>
      </trkpt>
      <trkpt lat="45.78564" lon="4.81606">
        <ele>215</ele>
        <time>2011-10-16T10:56:29Z</time>
      </trkpt>
      <trkpt lat="45.78561" lon="4.81605">
        <ele>215</ele>
        <time>2011-10-16T10:56:30Z</time>
      </trkpt>
      <trkpt lat="45.78559" lon="4.81604">
        <ele>214</ele>
        <time>2011-10-16T10:56:31Z</time>
      </trkpt>
      <trkpt lat="45.78557" lon="4.81601">
        <ele>214</ele>
        <time>2011-10-16T10:56:32Z</time>
      </trkpt>
      <trkpt lat="45.78554" lon="4.81599">
        <ele>214</ele>
        <time>2011-10-16T10:56:33Z</time>
      </trkpt>
      <trkpt lat="45.78551" lon="4.81597">
        <ele>214</ele>
        <time>2011-10-16T10:56:34Z</time>
      </trkpt>
      <trkpt lat="45.78548" lon="4.81595">
        <ele>213</ele>
        <time>2011-10-16T10:56:35Z</time>
      </trkpt>
      <trkpt lat="45.78546" lon="4.81593">
        <ele>213</ele>
        <time>2011-10-16T10:56:36Z</time>
      </trkpt>
      <trkpt lat="45.78543" lon="4.81592">
        <ele>212</ele>
        <time>2011-10-16T10:56:37Z</time>
      </trkpt>
      <trkpt lat="45.7854" lon="4.8159">
        <ele>211</ele>
        <time>2011-10-16T10:56:38Z</time>
      </trkpt>
      <trkpt lat="45.78538" lon="4.81588">
        <ele>210</ele>
        <time>2011-10-16T10:56:39Z</time>
      </trkpt>
      <trkpt lat="45.78536" lon="4.81586">
        <ele>210</ele>
        <time>2011-10-16T10:56:40Z</time>
      </trkpt>
      <trkpt lat="45.78533" lon="4.81584">
        <ele>210</ele>
        <time>2011-10-16T10:56:41Z</time>
      </trkpt>
      <trkpt lat="45.7853" lon="4.81582">
        <ele>210</ele>
        <time>2011-10-16T10:56:42Z</time>
      </trkpt>
      <trkpt lat="45.78528" lon="4.8158">
        <ele>209</ele>
        <time>2011-10-16T10:56:43Z</time>
      </trkpt>
      <trkpt lat="45.78524" lon="4.81579">
        <ele>208</ele>
        <time>2011-10-16T10:56:44Z</time>
      </trkpt>
      <trkpt lat="45.78521" lon="4.81577">
        <ele>209</ele>
        <time>2011-10-16T10:56:45Z</time>
      </trkpt>
      <trkpt lat="45.78518" lon="4.81575">
        <ele>209</ele>
        <time>2011-10-16T10:56:46Z</time>
      </trkpt>
      <trkpt lat="45.78516" lon="4.81573">
        <ele>209</ele>
        <time>2011-10-16T10:56:47Z</time>
      </trkpt>
      <trkpt lat="45.78514" lon="4.8157">
        <ele>210</ele>
        <time>2011-10-16T10:56:48Z</time>
      </trkpt>
      <trkpt lat="45.78513" lon="4.81568">
        <ele>210</ele>
        <time>2011-10-16T10:56:49Z</time>
      </trkpt>
      <trkpt lat="45.7851" lon="4.81564">
        <ele>211</ele>
        <time>2011-10-16T10:56:50Z</time>
      </trkpt>
      <trkpt lat="45.78507" lon="4.81561">
        <ele>210</ele>
        <time>2011-10-16T10:56:51Z</time>
      </trkpt>
      <trkpt lat="45.78505" lon="4.8156">
        <ele>211</ele>
        <time>2011-10-16T10:56:52Z</time>
      </trkpt>
      <trkpt lat="45.78503" lon="4.81556">
        <ele>211</ele>
        <time>2011-10-16T10:56:53Z</time>
      </trkpt>
      <trkpt lat="45.785" lon="4.81555">
        <ele>210</ele>
        <time>2011-10-16T10:56:54Z</time>
      </trkpt>
      <trkpt lat="45.78498" lon="4.81552">
        <ele>211</ele>
        <time>2011-10-16T10:56:55Z</time>
      </trkpt>
      <trkpt lat="45.78495" lon="4.8155">
        <ele>211</ele>
        <time>2011-10-16T10:56:56Z</time>
      </trkpt>
      <trkpt lat="45.78493" lon="4.81548">
        <ele>211</ele>
        <time>2011-10-16T10:56:57Z</time>
      </trkpt>
      <trkpt lat="45.7849" lon="4.81547">
        <ele>211</ele>
        <time>2011-10-16T10:56:58Z</time>
      </trkpt>
      <trkpt lat="45.78487" lon="4.81545">
        <ele>211</ele>
        <time>2011-10-16T10:56:59Z</time>
      </trkpt>
      <trkpt lat="45.78485" lon="4.81544">
        <ele>210</ele>
        <time>2011-10-16T10:57:00Z</time>
      </trkpt>
      <trkpt lat="45.78483" lon="4.81543">
        <ele>209</ele>
        <time>2011-10-16T10:57:01Z</time>
      </trkpt>
      <trkpt lat="45.78481" lon="4.8154">
        <ele>209</ele>
        <time>2011-10-16T10:57:02Z</time>
      </trkpt>
      <trkpt lat="45.78478" lon="4.81539">
        <ele>209</ele>
        <time>2011-10-16T10:57:03Z</time>
      </trkpt>
      <trkpt lat="45.78476" lon="4.81536">
        <ele>209</ele>
        <time>2011-10-16T10:57:04Z</time>
      </trkpt>
      <trkpt lat="45.78473" lon="4.81534">
        <ele>210</ele>
        <time>2011-10-16T10:57:05Z</time>
      </trkpt>
      <trkpt lat="45.78471" lon="4.81533">
        <ele>210</ele>
        <time>2011-10-16T10:57:06Z</time>
      </trkpt>
      <trkpt lat="45.78469" lon="4.81531">
        <ele>210</ele>
        <time>2011-10-16T10:57:07Z</time>
      </trkpt>
      <trkpt lat="45.78467" lon="4.81529">
        <ele>210</ele>
        <time>2011-10-16T10:57:08Z</time>
      </trkpt>
      <trkpt lat="45.78465" lon="4.81527">
        <ele>210</ele>
        <time>2011-10-16T10:57:09Z</time>
      </trkpt>
      <trkpt lat="45.78462" lon="4.81525">
        <ele>210</ele>
        <time>2011-10-16T10:57:11Z</time>
      </trkpt>
      <trkpt lat="45.78462" lon="4.81525">
        <ele>209.99557495117</ele>
        <time>2011-10-16T10:57:11Z</time>
      </trkpt>
      <trkpt lat="45.78458" lon="4.81522">
        <ele>209.42645263672</ele>
        <time>2011-10-16T10:57:12Z</time>
      </trkpt>
      <trkpt lat="45.78453" lon="4.81517">
        <ele>208</ele>
        <time>2011-10-16T10:57:13Z</time>
      </trkpt>
      <trkpt lat="45.7845" lon="4.81514">
        <ele>208</ele>
        <time>2011-10-16T10:57:14Z</time>
      </trkpt>
      <trkpt lat="45.78448" lon="4.81512">
        <ele>208</ele>
        <time>2011-10-16T10:57:15Z</time>
      </trkpt>
      <trkpt lat="45.78445" lon="4.81509">
        <ele>208</ele>
        <time>2011-10-16T10:57:16Z</time>
      </trkpt>
      <trkpt lat="45.78444" lon="4.81506">
        <ele>208</ele>
        <time>2011-10-16T10:57:17Z</time>
      </trkpt>
      <trkpt lat="45.78442" lon="4.81505">
        <ele>208</ele>
        <time>2011-10-16T10:57:18Z</time>
      </trkpt>
      <trkpt lat="45.78441" lon="4.81503">
        <ele>208</ele>
        <time>2011-10-16T10:57:19Z</time>
      </trkpt>
      <trkpt lat="45.78437" lon="4.815">
        <ele>208</ele>
        <time>2011-10-16T10:57:20Z</time>
      </trkpt>
      <trkpt lat="45.78434" lon="4.81497">
        <ele>208</ele>
        <time>2011-10-16T10:57:21Z</time>
      </trkpt>
      <trkpt lat="45.78433" lon="4.81494">
        <ele>209</ele>
        <time>2011-10-16T10:57:22Z</time>
      </trkpt>
      <trkpt lat="45.7843" lon="4.81492">
        <ele>210</ele>
        <time>2011-10-16T10:57:23Z</time>
      </trkpt>
      <trkpt lat="45.78428" lon="4.81489">
        <ele>210</ele>
        <time>2011-10-16T10:57:24Z</time>
      </trkpt>
      <trkpt lat="45.78426" lon="4.81486">
        <ele>211</ele>
        <time>2011-10-16T10:57:25Z</time>
      </trkpt>
      <trkpt lat="45.78424" lon="4.81484">
        <ele>210</ele>
        <time>2011-10-16T10:57:26Z</time>
      </trkpt>
      <trkpt lat="45.78422" lon="4.81482">
        <ele>210</ele>
        <time>2011-10-16T10:57:27Z</time>
      </trkpt>
      <trkpt lat="45.78421" lon="4.81482">
        <ele>211</ele>
        <time>2011-10-16T10:57:28Z</time>
      </trkpt>
      <trkpt lat="45.78418" lon="4.81476">
        <ele>213</ele>
        <time>2011-10-16T10:57:29Z</time>
      </trkpt>
      <trkpt lat="45.78415" lon="4.81474">
        <ele>213</ele>
        <time>2011-10-16T10:57:30Z</time>
      </trkpt>
      <trkpt lat="45.78413" lon="4.81472">
        <ele>213</ele>
        <time>2011-10-16T10:57:31Z</time>
      </trkpt>
      <trkpt lat="45.78411" lon="4.8147">
        <ele>213</ele>
        <time>2011-10-16T10:57:32Z</time>
      </trkpt>
      <trkpt lat="45.78408" lon="4.81468">
        <ele>214</ele>
        <time>2011-10-16T10:57:33Z</time>
      </trkpt>
      <trkpt lat="45.78407" lon="4.81467">
        <ele>214</ele>
        <time>2011-10-16T10:57:34Z</time>
      </trkpt>
      <trkpt lat="45.78404" lon="4.81463">
        <ele>214</ele>
        <time>2011-10-16T10:57:35Z</time>
      </trkpt>
      <trkpt lat="45.784" lon="4.81462">
        <ele>214</ele>
        <time>2011-10-16T10:57:36Z</time>
      </trkpt>
      <trkpt lat="45.78397" lon="4.81461">
        <ele>214</ele>
        <time>2011-10-16T10:57:37Z</time>
      </trkpt>
      <trkpt lat="45.78393" lon="4.81459">
        <ele>213</ele>
        <time>2011-10-16T10:57:38Z</time>
      </trkpt>
      <trkpt lat="45.7839" lon="4.81458">
        <ele>213</ele>
        <time>2011-10-16T10:57:39Z</time>
      </trkpt>
      <trkpt lat="45.78386" lon="4.81455">
        <ele>213</ele>
        <time>2011-10-16T10:57:40Z</time>
      </trkpt>
      <trkpt lat="45.78384" lon="4.81453">
        <ele>213</ele>
        <time>2011-10-16T10:57:41Z</time>
      </trkpt>
      <trkpt lat="45.7838" lon="4.8145">
        <ele>213</ele>
        <time>2011-10-16T10:57:42Z</time>
      </trkpt>
      <trkpt lat="45.78377" lon="4.81448">
        <ele>213</ele>
        <time>2011-10-16T10:57:43Z</time>
      </trkpt>
      <trkpt lat="45.78374" lon="4.81446">
        <ele>212</ele>
        <time>2011-10-16T10:57:44Z</time>
      </trkpt>
      <trkpt lat="45.78371" lon="4.81444">
        <ele>210</ele>
        <time>2011-10-16T10:57:45Z</time>
      </trkpt>
      <trkpt lat="45.78368" lon="4.81441">
        <ele>209</ele>
        <time>2011-10-16T10:57:46Z</time>
      </trkpt>
      <trkpt lat="45.78366" lon="4.81441">
        <ele>208.35328674316</ele>
        <time>2011-10-16T10:57:47Z</time>
      </trkpt>
      <trkpt lat="45.78362" lon="4.81438">
        <ele>209</ele>
        <time>2011-10-16T10:57:48Z</time>
      </trkpt>
      <trkpt lat="45.7836" lon="4.81437">
        <ele>208</ele>
        <time>2011-10-16T10:57:49Z</time>
      </trkpt>
      <trkpt lat="45.78358" lon="4.81436">
        <ele>208</ele>
        <time>2011-10-16T10:57:50Z</time>
      </trkpt>
      <trkpt lat="45.78355" lon="4.81433">
        <ele>208</ele>
        <time>2011-10-16T10:57:51Z</time>
      </trkpt>
      <trkpt lat="45.78353" lon="4.81431">
        <ele>208</ele>
        <time>2011-10-16T10:57:52Z</time>
      </trkpt>
      <trkpt lat="45.78351" lon="4.81429">
        <ele>208</ele>
        <time>2011-10-16T10:57:53Z</time>
      </trkpt>
      <trkpt lat="45.78349" lon="4.81427">
        <ele>208</ele>
        <time>2011-10-16T10:57:54Z</time>
      </trkpt>
      <trkpt lat="45.78347" lon="4.81424">
        <ele>209</ele>
        <time>2011-10-16T10:57:55Z</time>
      </trkpt>
      <trkpt lat="45.78346" lon="4.81423">
        <ele>208.67527770996</ele>
        <time>2011-10-16T10:57:56Z</time>
      </trkpt>
      <trkpt lat="45.78341" lon="4.81418">
        <ele>208</ele>
        <time>2011-10-16T10:57:57Z</time>
      </trkpt>
      <trkpt lat="45.78339" lon="4.81416">
        <ele>208</ele>
        <time>2011-10-16T10:57:58Z</time>
      </trkpt>
      <trkpt lat="45.78336" lon="4.81414">
        <ele>208</ele>
        <time>2011-10-16T10:57:59Z</time>
      </trkpt>
      <trkpt lat="45.78333" lon="4.81413">
        <ele>208</ele>
        <time>2011-10-16T10:58:00Z</time>
      </trkpt>
      <trkpt lat="45.7833" lon="4.81409">
        <ele>208</ele>
        <time>2011-10-16T10:58:01Z</time>
      </trkpt>
      <trkpt lat="45.78329" lon="4.81407">
        <ele>209</ele>
        <time>2011-10-16T10:58:02Z</time>
      </trkpt>
      <trkpt lat="45.78326" lon="4.81405">
        <ele>208</ele>
        <time>2011-10-16T10:58:03Z</time>
      </trkpt>
      <trkpt lat="45.78324" lon="4.81403">
        <ele>208</ele>
        <time>2011-10-16T10:58:04Z</time>
      </trkpt>
      <trkpt lat="45.78322" lon="4.81401">
        <ele>208</ele>
        <time>2011-10-16T10:58:05Z</time>
      </trkpt>
      <trkpt lat="45.78318" lon="4.81398">
        <ele>208</ele>
        <time>2011-10-16T10:58:06Z</time>
      </trkpt>
      <trkpt lat="45.78316" lon="4.81396">
        <ele>208</ele>
        <time>2011-10-16T10:58:07Z</time>
      </trkpt>
      <trkpt lat="45.78314" lon="4.81395">
        <ele>209</ele>
        <time>2011-10-16T10:58:08Z</time>
      </trkpt>
      <trkpt lat="45.78312" lon="4.81393">
        <ele>209</ele>
        <time>2011-10-16T10:58:09Z</time>
      </trkpt>
      <trkpt lat="45.78309" lon="4.81391">
        <ele>209</ele>
        <time>2011-10-16T10:58:10Z</time>
      </trkpt>
      <trkpt lat="45.78307" lon="4.81389">
        <ele>209</ele>
        <time>2011-10-16T10:58:11Z</time>
      </trkpt>
      <trkpt lat="45.78305" lon="4.81386">
        <ele>211</ele>
        <time>2011-10-16T10:58:12Z</time>
      </trkpt>
      <trkpt lat="45.78304" lon="4.81384">
        <ele>211</ele>
        <time>2011-10-16T10:58:13Z</time>
      </trkpt>
      <trkpt lat="45.78302" lon="4.81382">
        <ele>211</ele>
        <time>2011-10-16T10:58:14Z</time>
      </trkpt>
      <trkpt lat="45.78299" lon="4.8138">
        <ele>211</ele>
        <time>2011-10-16T10:58:15Z</time>
      </trkpt>
      <trkpt lat="45.78296" lon="4.81378">
        <ele>211</ele>
        <time>2011-10-16T10:58:16Z</time>
      </trkpt>
      <trkpt lat="45.78293" lon="4.81375">
        <ele>211</ele>
        <time>2011-10-16T10:58:18Z</time>
      </trkpt>
      <trkpt lat="45.78293" lon="4.81374">
        <ele>211.13394165039</ele>
        <time>2011-10-16T10:58:18Z</time>
      </trkpt>
      <trkpt lat="45.78288" lon="4.8137">
        <ele>211.86798095703</ele>
        <time>2011-10-16T10:58:19Z</time>
      </trkpt>
      <trkpt lat="45.78285" lon="4.81367">
        <ele>212</ele>
        <time>2011-10-16T10:58:20Z</time>
      </trkpt>
      <trkpt lat="45.78282" lon="4.81364">
        <ele>212</ele>
        <time>2011-10-16T10:58:21Z</time>
      </trkpt>
      <trkpt lat="45.78279" lon="4.81362">
        <ele>211</ele>
        <time>2011-10-16T10:58:22Z</time>
      </trkpt>
      <trkpt lat="45.78277" lon="4.8136">
        <ele>210</ele>
        <time>2011-10-16T10:58:23Z</time>
      </trkpt>
      <trkpt lat="45.78274" lon="4.81358">
        <ele>210</ele>
        <time>2011-10-16T10:58:24Z</time>
      </trkpt>
      <trkpt lat="45.78272" lon="4.81356">
        <ele>210</ele>
        <time>2011-10-16T10:58:25Z</time>
      </trkpt>
      <trkpt lat="45.7827" lon="4.81354">
        <ele>210</ele>
        <time>2011-10-16T10:58:26Z</time>
      </trkpt>
      <trkpt lat="45.78267" lon="4.81351">
        <ele>211</ele>
        <time>2011-10-16T10:58:27Z</time>
      </trkpt>
      <trkpt lat="45.78265" lon="4.81349">
        <ele>211</ele>
        <time>2011-10-16T10:58:28Z</time>
      </trkpt>
      <trkpt lat="45.78263" lon="4.81347">
        <ele>211</ele>
        <time>2011-10-16T10:58:29Z</time>
      </trkpt>
      <trkpt lat="45.7826" lon="4.81344">
        <ele>211</ele>
        <time>2011-10-16T10:58:30Z</time>
      </trkpt>
      <trkpt lat="45.78258" lon="4.81342">
        <ele>212</ele>
        <time>2011-10-16T10:58:31Z</time>
      </trkpt>
      <trkpt lat="45.78256" lon="4.8134">
        <ele>212</ele>
        <time>2011-10-16T10:58:32Z</time>
      </trkpt>
      <trkpt lat="45.78253" lon="4.81337">
        <ele>212</ele>
        <time>2011-10-16T10:58:33Z</time>
      </trkpt>
      <trkpt lat="45.7825" lon="4.81335">
        <ele>212</ele>
        <time>2011-10-16T10:58:34Z</time>
      </trkpt>
      <trkpt lat="45.78247" lon="4.81332">
        <ele>212</ele>
        <time>2011-10-16T10:58:35Z</time>
      </trkpt>
      <trkpt lat="45.78245" lon="4.81329">
        <ele>212</ele>
        <time>2011-10-16T10:58:36Z</time>
      </trkpt>
      <trkpt lat="45.78242" lon="4.81328">
        <ele>211</ele>
        <time>2011-10-16T10:58:37Z</time>
      </trkpt>
      <trkpt lat="45.7824" lon="4.81326">
        <ele>211</ele>
        <time>2011-10-16T10:58:38Z</time>
      </trkpt>
      <trkpt lat="45.78237" lon="4.81323">
        <ele>212</ele>
        <time>2011-10-16T10:58:39Z</time>
      </trkpt>
      <trkpt lat="45.78237" lon="4.81323">
        <ele>212</ele>
        <time>2011-10-16T10:58:40Z</time>
      </trkpt>
      <trkpt lat="45.78233" lon="4.81319">
        <ele>212</ele>
        <time>2011-10-16T10:58:41Z</time>
      </trkpt>
      <trkpt lat="45.7823" lon="4.81317">
        <ele>213</ele>
        <time>2011-10-16T10:58:42Z</time>
      </trkpt>
      <trkpt lat="45.78228" lon="4.81314">
        <ele>213</ele>
        <time>2011-10-16T10:58:43Z</time>
      </trkpt>
      <trkpt lat="45.78224" lon="4.81311">
        <ele>213</ele>
        <time>2011-10-16T10:58:44Z</time>
      </trkpt>
      <trkpt lat="45.78221" lon="4.81308">
        <ele>212</ele>
        <time>2011-10-16T10:58:45Z</time>
      </trkpt>
      <trkpt lat="45.78219" lon="4.81306">
        <ele>211</ele>
        <time>2011-10-16T10:58:46Z</time>
      </trkpt>
      <trkpt lat="45.78216" lon="4.81304">
        <ele>212</ele>
        <time>2011-10-16T10:58:47Z</time>
      </trkpt>
      <trkpt lat="45.78214" lon="4.81302">
        <ele>212</ele>
        <time>2011-10-16T10:58:48Z</time>
      </trkpt>
      <trkpt lat="45.78211" lon="4.813">
        <ele>211</ele>
        <time>2011-10-16T10:58:49Z</time>
      </trkpt>
      <trkpt lat="45.78209" lon="4.81297">
        <ele>211</ele>
        <time>2011-10-16T10:58:50Z</time>
      </trkpt>
      <trkpt lat="45.78207" lon="4.81294">
        <ele>211</ele>
        <time>2011-10-16T10:58:51Z</time>
      </trkpt>
      <trkpt lat="45.78205" lon="4.81291">
        <ele>212</ele>
        <time>2011-10-16T10:58:52Z</time>
      </trkpt>
      <trkpt lat="45.78202" lon="4.8129">
        <ele>212</ele>
        <time>2011-10-16T10:58:53Z</time>
      </trkpt>
      <trkpt lat="45.782" lon="4.81287">
        <ele>212</ele>
        <time>2011-10-16T10:58:54Z</time>
      </trkpt>
      <trkpt lat="45.78198" lon="4.81284">
        <ele>212</ele>
        <time>2011-10-16T10:58:55Z</time>
      </trkpt>
      <trkpt lat="45.78195" lon="4.81281">
        <ele>213</ele>
        <time>2011-10-16T10:58:56Z</time>
      </trkpt>
      <trkpt lat="45.78192" lon="4.8128">
        <ele>213</ele>
        <time>2011-10-16T10:58:57Z</time>
      </trkpt>
      <trkpt lat="45.7819" lon="4.81278">
        <ele>213</ele>
        <time>2011-10-16T10:58:58Z</time>
      </trkpt>
      <trkpt lat="45.78187" lon="4.81276">
        <ele>212</ele>
        <time>2011-10-16T10:58:59Z</time>
      </trkpt>
      <trkpt lat="45.78184" lon="4.81272">
        <ele>214</ele>
        <time>2011-10-16T10:59:00Z</time>
      </trkpt>
      <trkpt lat="45.7818" lon="4.81269">
        <ele>215</ele>
        <time>2011-10-16T10:59:03Z</time>
      </trkpt>
      <trkpt lat="45.7818" lon="4.81269">
        <ele>215</ele>
        <time>2011-10-16T10:59:03Z</time>
      </trkpt>
      <trkpt lat="45.7818" lon="4.81268">
        <ele>215.12898254395</ele>
        <time>2011-10-16T10:59:03Z</time>
      </trkpt>
      <trkpt lat="45.78175" lon="4.81263">
        <ele>216.36573791504</ele>
        <time>2011-10-16T10:59:04Z</time>
      </trkpt>
      <trkpt lat="45.7817" lon="4.8126">
        <ele>215</ele>
        <time>2011-10-16T10:59:05Z</time>
      </trkpt>
      <trkpt lat="45.78168" lon="4.81257">
        <ele>214</ele>
        <time>2011-10-16T10:59:06Z</time>
      </trkpt>
      <trkpt lat="45.78165" lon="4.81255">
        <ele>214</ele>
        <time>2011-10-16T10:59:07Z</time>
      </trkpt>
      <trkpt lat="45.78163" lon="4.81253">
        <ele>215</ele>
        <time>2011-10-16T10:59:08Z</time>
      </trkpt>
      <trkpt lat="45.78161" lon="4.81252">
        <ele>215</ele>
        <time>2011-10-16T10:59:09Z</time>
      </trkpt>
      <trkpt lat="45.78158" lon="4.8125">
        <ele>214</ele>
        <time>2011-10-16T10:59:10Z</time>
      </trkpt>
      <trkpt lat="45.78156" lon="4.81248">
        <ele>214</ele>
        <time>2011-10-16T10:59:11Z</time>
      </trkpt>
      <trkpt lat="45.78153" lon="4.81246">
        <ele>214</ele>
        <time>2011-10-16T10:59:12Z</time>
      </trkpt>
      <trkpt lat="45.78151" lon="4.81244">
        <ele>214</ele>
        <time>2011-10-16T10:59:13Z</time>
      </trkpt>
      <trkpt lat="45.78148" lon="4.8124">
        <ele>214</ele>
        <time>2011-10-16T10:59:14Z</time>
      </trkpt>
      <trkpt lat="45.78145" lon="4.81238">
        <ele>213</ele>
        <time>2011-10-16T10:59:15Z</time>
      </trkpt>
      <trkpt lat="45.78142" lon="4.81236">
        <ele>214</ele>
        <time>2011-10-16T10:59:16Z</time>
      </trkpt>
      <trkpt lat="45.7814" lon="4.81233">
        <ele>215</ele>
        <time>2011-10-16T10:59:17Z</time>
      </trkpt>
      <trkpt lat="45.78138" lon="4.81231">
        <ele>214</ele>
        <time>2011-10-16T10:59:18Z</time>
      </trkpt>
      <trkpt lat="45.78135" lon="4.81227">
        <ele>214</ele>
        <time>2011-10-16T10:59:19Z</time>
      </trkpt>
      <trkpt lat="45.78133" lon="4.81225">
        <ele>213</ele>
        <time>2011-10-16T10:59:20Z</time>
      </trkpt>
      <trkpt lat="45.7813" lon="4.81222">
        <ele>213</ele>
        <time>2011-10-16T10:59:21Z</time>
      </trkpt>
      <trkpt lat="45.78127" lon="4.8122">
        <ele>213</ele>
        <time>2011-10-16T10:59:22Z</time>
      </trkpt>
      <trkpt lat="45.78124" lon="4.81219">
        <ele>212</ele>
        <time>2011-10-16T10:59:23Z</time>
      </trkpt>
      <trkpt lat="45.7812" lon="4.81217">
        <ele>213</ele>
        <time>2011-10-16T10:59:24Z</time>
      </trkpt>
      <trkpt lat="45.7812" lon="4.81217">
        <ele>212.81991577148</ele>
        <time>2011-10-16T10:59:25Z</time>
      </trkpt>
      <trkpt lat="45.78116" lon="4.81214">
        <ele>212</ele>
        <time>2011-10-16T10:59:26Z</time>
      </trkpt>
      <trkpt lat="45.78113" lon="4.81212">
        <ele>213</ele>
        <time>2011-10-16T10:59:27Z</time>
      </trkpt>
      <trkpt lat="45.78111" lon="4.8121">
        <ele>212</ele>
        <time>2011-10-16T10:59:28Z</time>
      </trkpt>
      <trkpt lat="45.78109" lon="4.81209">
        <ele>212</ele>
        <time>2011-10-16T10:59:29Z</time>
      </trkpt>
      <trkpt lat="45.78106" lon="4.81207">
        <ele>212</ele>
        <time>2011-10-16T10:59:30Z</time>
      </trkpt>
      <trkpt lat="45.78104" lon="4.81204">
        <ele>211</ele>
        <time>2011-10-16T10:59:31Z</time>
      </trkpt>
      <trkpt lat="45.78101" lon="4.81201">
        <ele>211</ele>
        <time>2011-10-16T10:59:32Z</time>
      </trkpt>
      <trkpt lat="45.78098" lon="4.812">
        <ele>212</ele>
        <time>2011-10-16T10:59:33Z</time>
      </trkpt>
      <trkpt lat="45.78095" lon="4.81199">
        <ele>212</ele>
        <time>2011-10-16T10:59:34Z</time>
      </trkpt>
      <trkpt lat="45.78093" lon="4.81197">
        <ele>212</ele>
        <time>2011-10-16T10:59:35Z</time>
      </trkpt>
      <trkpt lat="45.7809" lon="4.81196">
        <ele>212</ele>
        <time>2011-10-16T10:59:36Z</time>
      </trkpt>
      <trkpt lat="45.78087" lon="4.81195">
        <ele>212</ele>
        <time>2011-10-16T10:59:37Z</time>
      </trkpt>
      <trkpt lat="45.78084" lon="4.81193">
        <ele>212</ele>
        <time>2011-10-16T10:59:38Z</time>
      </trkpt>
      <trkpt lat="45.78081" lon="4.81192">
        <ele>212</ele>
        <time>2011-10-16T10:59:39Z</time>
      </trkpt>
      <trkpt lat="45.78079" lon="4.8119">
        <ele>212</ele>
        <time>2011-10-16T10:59:40Z</time>
      </trkpt>
      <trkpt lat="45.78074" lon="4.81187">
        <ele>212</ele>
        <time>2011-10-16T10:59:41Z</time>
      </trkpt>
      <trkpt lat="45.78072" lon="4.81185">
        <ele>211</ele>
        <time>2011-10-16T10:59:42Z</time>
      </trkpt>
      <trkpt lat="45.78069" lon="4.81184">
        <ele>211</ele>
        <time>2011-10-16T10:59:43Z</time>
      </trkpt>
      <trkpt lat="45.78067" lon="4.81182">
        <ele>212</ele>
        <time>2011-10-16T10:59:44Z</time>
      </trkpt>
      <trkpt lat="45.78066" lon="4.81181">
        <ele>213</ele>
        <time>2011-10-16T10:59:45Z</time>
      </trkpt>
      <trkpt lat="45.78063" lon="4.81179">
        <ele>213</ele>
        <time>2011-10-16T10:59:47Z</time>
      </trkpt>
      <trkpt lat="45.78063" lon="4.81179">
        <ele>213</ele>
        <time>2011-10-16T10:59:47Z</time>
      </trkpt>
      <trkpt lat="45.78058" lon="4.81176">
        <ele>213</ele>
        <time>2011-10-16T10:59:48Z</time>
      </trkpt>
      <trkpt lat="45.78056" lon="4.81174">
        <ele>214</ele>
        <time>2011-10-16T10:59:49Z</time>
      </trkpt>
      <trkpt lat="45.78052" lon="4.81172">
        <ele>214</ele>
        <time>2011-10-16T10:59:50Z</time>
      </trkpt>
      <trkpt lat="45.78049" lon="4.81169">
        <ele>215</ele>
        <time>2011-10-16T10:59:51Z</time>
      </trkpt>
      <trkpt lat="45.78047" lon="4.81167">
        <ele>216</ele>
        <time>2011-10-16T10:59:52Z</time>
      </trkpt>
      <trkpt lat="45.78045" lon="4.81166">
        <ele>216</ele>
        <time>2011-10-16T10:59:53Z</time>
      </trkpt>
      <trkpt lat="45.78043" lon="4.81165">
        <ele>217</ele>
        <time>2011-10-16T10:59:54Z</time>
      </trkpt>
      <trkpt lat="45.78039" lon="4.81164">
        <ele>216</ele>
        <time>2011-10-16T10:59:55Z</time>
      </trkpt>
      <trkpt lat="45.78036" lon="4.81163">
        <ele>216</ele>
        <time>2011-10-16T10:59:56Z</time>
      </trkpt>
      <trkpt lat="45.78034" lon="4.81161">
        <ele>217</ele>
        <time>2011-10-16T10:59:57Z</time>
      </trkpt>
      <trkpt lat="45.7803" lon="4.8116">
        <ele>217</ele>
        <time>2011-10-16T10:59:58Z</time>
      </trkpt>
      <trkpt lat="45.78028" lon="4.81159">
        <ele>217.80477905273</ele>
        <time>2011-10-16T10:59:59Z</time>
      </trkpt>
      <trkpt lat="45.78024" lon="4.81157">
        <ele>218</ele>
        <time>2011-10-16T11:00:00Z</time>
      </trkpt>
      <trkpt lat="45.78022" lon="4.81155">
        <ele>218</ele>
        <time>2011-10-16T11:00:01Z</time>
      </trkpt>
      <trkpt lat="45.78018" lon="4.81153">
        <ele>217</ele>
        <time>2011-10-16T11:00:02Z</time>
      </trkpt>
      <trkpt lat="45.78015" lon="4.81151">
        <ele>217</ele>
        <time>2011-10-16T11:00:03Z</time>
      </trkpt>
      <trkpt lat="45.78012" lon="4.8115">
        <ele>216</ele>
        <time>2011-10-16T11:00:04Z</time>
      </trkpt>
      <trkpt lat="45.78008" lon="4.81149">
        <ele>216</ele>
        <time>2011-10-16T11:00:05Z</time>
      </trkpt>
      <trkpt lat="45.78006" lon="4.81148">
        <ele>216</ele>
        <time>2011-10-16T11:00:06Z</time>
      </trkpt>
      <trkpt lat="45.78003" lon="4.81145">
        <ele>216</ele>
        <time>2011-10-16T11:00:07Z</time>
      </trkpt>
      <trkpt lat="45.78" lon="4.81143">
        <ele>216</ele>
        <time>2011-10-16T11:00:08Z</time>
      </trkpt>
      <trkpt lat="45.77999" lon="4.81143">
        <ele>216</ele>
        <time>2011-10-16T11:00:09Z</time>
      </trkpt>
      <trkpt lat="45.77995" lon="4.81141">
        <ele>216</ele>
        <time>2011-10-16T11:00:10Z</time>
      </trkpt>
      <trkpt lat="45.77992" lon="4.81139">
        <ele>216</ele>
        <time>2011-10-16T11:00:11Z</time>
      </trkpt>
      <trkpt lat="45.77989" lon="4.81139">
        <ele>216</ele>
        <time>2011-10-16T11:00:12Z</time>
      </trkpt>
      <trkpt lat="45.77985" lon="4.81137">
        <ele>215</ele>
        <time>2011-10-16T11:00:13Z</time>
      </trkpt>
      <trkpt lat="45.77983" lon="4.81136">
        <ele>214</ele>
        <time>2011-10-16T11:00:14Z</time>
      </trkpt>
      <trkpt lat="45.7798" lon="4.81136">
        <ele>214</ele>
        <time>2011-10-16T11:00:15Z</time>
      </trkpt>
      <trkpt lat="45.77978" lon="4.81135">
        <ele>214</ele>
        <time>2011-10-16T11:00:16Z</time>
      </trkpt>
      <trkpt lat="45.77974" lon="4.81134">
        <ele>214</ele>
        <time>2011-10-16T11:00:17Z</time>
      </trkpt>
      <trkpt lat="45.77971" lon="4.81132">
        <ele>215</ele>
        <time>2011-10-16T11:00:18Z</time>
      </trkpt>
      <trkpt lat="45.77968" lon="4.81132">
        <ele>214</ele>
        <time>2011-10-16T11:00:19Z</time>
      </trkpt>
      <trkpt lat="45.77965" lon="4.81131">
        <ele>214</ele>
        <time>2011-10-16T11:00:20Z</time>
      </trkpt>
      <trkpt lat="45.77962" lon="4.8113">
        <ele>214</ele>
        <time>2011-10-16T11:00:21Z</time>
      </trkpt>
      <trkpt lat="45.77959" lon="4.8113">
        <ele>214</ele>
        <time>2011-10-16T11:00:22Z</time>
      </trkpt>
      <trkpt lat="45.77956" lon="4.81129">
        <ele>214</ele>
        <time>2011-10-16T11:00:23Z</time>
      </trkpt>
      <trkpt lat="45.77954" lon="4.81128">
        <ele>214</ele>
        <time>2011-10-16T11:00:24Z</time>
      </trkpt>
      <trkpt lat="45.7795" lon="4.81127">
        <ele>214</ele>
        <time>2011-10-16T11:00:25Z</time>
      </trkpt>
      <trkpt lat="45.77948" lon="4.81124">
        <ele>215</ele>
        <time>2011-10-16T11:00:26Z</time>
      </trkpt>
      <trkpt lat="45.77945" lon="4.81123">
        <ele>215</ele>
        <time>2011-10-16T11:00:27Z</time>
      </trkpt>
      <trkpt lat="45.77943" lon="4.81122">
        <ele>215</ele>
        <time>2011-10-16T11:00:28Z</time>
      </trkpt>
      <trkpt lat="45.7794" lon="4.81121">
        <ele>216</ele>
        <time>2011-10-16T11:00:29Z</time>
      </trkpt>
      <trkpt lat="45.77937" lon="4.8112">
        <ele>216</ele>
        <time>2011-10-16T11:00:31Z</time>
      </trkpt>
      <trkpt lat="45.77937" lon="4.8112">
        <ele>216</ele>
        <time>2011-10-16T11:00:31Z</time>
      </trkpt>
      <trkpt lat="45.77934" lon="4.81117">
        <ele>216</ele>
        <time>2011-10-16T11:00:32Z</time>
      </trkpt>
      <trkpt lat="45.77928" lon="4.81114">
        <ele>217</ele>
        <time>2011-10-16T11:00:33Z</time>
      </trkpt>
      <trkpt lat="45.77926" lon="4.81112">
        <ele>216</ele>
        <time>2011-10-16T11:00:34Z</time>
      </trkpt>
      <trkpt lat="45.77923" lon="4.81111">
        <ele>216</ele>
        <time>2011-10-16T11:00:35Z</time>
      </trkpt>
      <trkpt lat="45.7792" lon="4.81109">
        <ele>215</ele>
        <time>2011-10-16T11:00:36Z</time>
      </trkpt>
      <trkpt lat="45.77917" lon="4.81108">
        <ele>215</ele>
        <time>2011-10-16T11:00:37Z</time>
      </trkpt>
      <trkpt lat="45.77913" lon="4.81106">
        <ele>215</ele>
        <time>2011-10-16T11:00:38Z</time>
      </trkpt>
      <trkpt lat="45.77911" lon="4.81104">
        <ele>215</ele>
        <time>2011-10-16T11:00:39Z</time>
      </trkpt>
      <trkpt lat="45.77908" lon="4.81102">
        <ele>215</ele>
        <time>2011-10-16T11:00:40Z</time>
      </trkpt>
      <trkpt lat="45.77905" lon="4.81101">
        <ele>213</ele>
        <time>2011-10-16T11:00:41Z</time>
      </trkpt>
      <trkpt lat="45.77902" lon="4.81099">
        <ele>213</ele>
        <time>2011-10-16T11:00:42Z</time>
      </trkpt>
      <trkpt lat="45.77899" lon="4.81097">
        <ele>213</ele>
        <time>2011-10-16T11:00:43Z</time>
      </trkpt>
      <trkpt lat="45.77896" lon="4.81095">
        <ele>214</ele>
        <time>2011-10-16T11:00:44Z</time>
      </trkpt>
      <trkpt lat="45.77893" lon="4.81094">
        <ele>214</ele>
        <time>2011-10-16T11:00:45Z</time>
      </trkpt>
      <trkpt lat="45.7789" lon="4.81092">
        <ele>214</ele>
        <time>2011-10-16T11:00:46Z</time>
      </trkpt>
      <trkpt lat="45.77888" lon="4.81091">
        <ele>214</ele>
        <time>2011-10-16T11:00:47Z</time>
      </trkpt>
      <trkpt lat="45.77885" lon="4.81089">
        <ele>214</ele>
        <time>2011-10-16T11:00:48Z</time>
      </trkpt>
      <trkpt lat="45.77882" lon="4.81087">
        <ele>215</ele>
        <time>2011-10-16T11:00:49Z</time>
      </trkpt>
      <trkpt lat="45.7788" lon="4.81084">
        <ele>216</ele>
        <time>2011-10-16T11:00:50Z</time>
      </trkpt>
      <trkpt lat="45.77878" lon="4.81083">
        <ele>217</ele>
        <time>2011-10-16T11:00:51Z</time>
      </trkpt>
      <trkpt lat="45.77875" lon="4.8108">
        <ele>217</ele>
        <time>2011-10-16T11:00:53Z</time>
      </trkpt>
      <trkpt lat="45.77875" lon="4.8108">
        <ele>217</ele>
        <time>2011-10-16T11:00:53Z</time>
      </trkpt>
      <trkpt lat="45.77871" lon="4.81078">
        <ele>217</ele>
        <time>2011-10-16T11:00:54Z</time>
      </trkpt>
      <trkpt lat="45.77866" lon="4.81076">
        <ele>218</ele>
        <time>2011-10-16T11:00:55Z</time>
      </trkpt>
      <trkpt lat="45.77864" lon="4.81074">
        <ele>219</ele>
        <time>2011-10-16T11:00:56Z</time>
      </trkpt>
      <trkpt lat="45.77861" lon="4.81072">
        <ele>218</ele>
        <time>2011-10-16T11:00:57Z</time>
      </trkpt>
      <trkpt lat="45.77859" lon="4.81067">
        <ele>219</ele>
        <time>2011-10-16T11:00:58Z</time>
      </trkpt>
      <trkpt lat="45.77856" lon="4.81064">
        <ele>219</ele>
        <time>2011-10-16T11:00:59Z</time>
      </trkpt>
      <trkpt lat="45.77854" lon="4.81061">
        <ele>220</ele>
        <time>2011-10-16T11:01:00Z</time>
      </trkpt>
      <trkpt lat="45.77851" lon="4.81059">
        <ele>220</ele>
        <time>2011-10-16T11:01:01Z</time>
      </trkpt>
      <trkpt lat="45.77849" lon="4.81057">
        <ele>220</ele>
        <time>2011-10-16T11:01:02Z</time>
      </trkpt>
      <trkpt lat="45.77846" lon="4.81056">
        <ele>219</ele>
        <time>2011-10-16T11:01:03Z</time>
      </trkpt>
      <trkpt lat="45.77843" lon="4.81053">
        <ele>219</ele>
        <time>2011-10-16T11:01:04Z</time>
      </trkpt>
      <trkpt lat="45.7784" lon="4.81051">
        <ele>218</ele>
        <time>2011-10-16T11:01:05Z</time>
      </trkpt>
      <trkpt lat="45.77837" lon="4.81049">
        <ele>218</ele>
        <time>2011-10-16T11:01:06Z</time>
      </trkpt>
      <trkpt lat="45.77834" lon="4.81047">
        <ele>218</ele>
        <time>2011-10-16T11:01:07Z</time>
      </trkpt>
      <trkpt lat="45.77831" lon="4.81045">
        <ele>218</ele>
        <time>2011-10-16T11:01:08Z</time>
      </trkpt>
      <trkpt lat="45.77829" lon="4.81043">
        <ele>218</ele>
        <time>2011-10-16T11:01:09Z</time>
      </trkpt>
      <trkpt lat="45.77826" lon="4.81042">
        <ele>216</ele>
        <time>2011-10-16T11:01:10Z</time>
      </trkpt>
      <trkpt lat="45.77823" lon="4.8104">
        <ele>216</ele>
        <time>2011-10-16T11:01:11Z</time>
      </trkpt>
      <trkpt lat="45.77821" lon="4.81038">
        <ele>216</ele>
        <time>2011-10-16T11:01:12Z</time>
      </trkpt>
      <trkpt lat="45.77818" lon="4.81037">
        <ele>215</ele>
        <time>2011-10-16T11:01:13Z</time>
      </trkpt>
      <trkpt lat="45.77816" lon="4.81035">
        <ele>215</ele>
        <time>2011-10-16T11:01:15Z</time>
      </trkpt>
      <trkpt lat="45.77816" lon="4.81035">
        <ele>215</ele>
        <time>2011-10-16T11:01:15Z</time>
      </trkpt>
      <trkpt lat="45.77814" lon="4.81035">
        <ele>214.69612121582</ele>
        <time>2011-10-16T11:01:16Z</time>
      </trkpt>
      <trkpt lat="45.77807" lon="4.81032">
        <ele>214.07333374023</ele>
        <time>2011-10-16T11:01:17Z</time>
      </trkpt>
      <trkpt lat="45.77802" lon="4.8103">
        <ele>214</ele>
        <time>2011-10-16T11:01:18Z</time>
      </trkpt>
      <trkpt lat="45.77799" lon="4.81028">
        <ele>214</ele>
        <time>2011-10-16T11:01:19Z</time>
      </trkpt>
      <trkpt lat="45.77795" lon="4.81028">
        <ele>214</ele>
        <time>2011-10-16T11:01:20Z</time>
      </trkpt>
      <trkpt lat="45.77793" lon="4.81026">
        <ele>214</ele>
        <time>2011-10-16T11:01:21Z</time>
      </trkpt>
      <trkpt lat="45.77789" lon="4.81025">
        <ele>215</ele>
        <time>2011-10-16T11:01:22Z</time>
      </trkpt>
      <trkpt lat="45.77785" lon="4.81024">
        <ele>215</ele>
        <time>2011-10-16T11:01:23Z</time>
      </trkpt>
      <trkpt lat="45.77781" lon="4.81021">
        <ele>215</ele>
        <time>2011-10-16T11:01:24Z</time>
      </trkpt>
      <trkpt lat="45.77779" lon="4.8102">
        <ele>216</ele>
        <time>2011-10-16T11:01:25Z</time>
      </trkpt>
      <trkpt lat="45.77777" lon="4.8102">
        <ele>216</ele>
        <time>2011-10-16T11:01:26Z</time>
      </trkpt>
      <trkpt lat="45.77773" lon="4.81019">
        <ele>216</ele>
        <time>2011-10-16T11:01:27Z</time>
      </trkpt>
      <trkpt lat="45.7777" lon="4.81018">
        <ele>216</ele>
        <time>2011-10-16T11:01:28Z</time>
      </trkpt>
      <trkpt lat="45.77767" lon="4.81017">
        <ele>216</ele>
        <time>2011-10-16T11:01:29Z</time>
      </trkpt>
      <trkpt lat="45.77764" lon="4.81017">
        <ele>215</ele>
        <time>2011-10-16T11:01:30Z</time>
      </trkpt>
      <trkpt lat="45.77761" lon="4.81016">
        <ele>214</ele>
        <time>2011-10-16T11:01:31Z</time>
      </trkpt>
      <trkpt lat="45.77757" lon="4.81017">
        <ele>213</ele>
        <time>2011-10-16T11:01:32Z</time>
      </trkpt>
      <trkpt lat="45.77754" lon="4.81017">
        <ele>213</ele>
        <time>2011-10-16T11:01:33Z</time>
      </trkpt>
      <trkpt lat="45.77751" lon="4.81017">
        <ele>212</ele>
        <time>2011-10-16T11:01:34Z</time>
      </trkpt>
      <trkpt lat="45.77748" lon="4.81016">
        <ele>212</ele>
        <time>2011-10-16T11:01:35Z</time>
      </trkpt>
      <trkpt lat="45.77745" lon="4.81016">
        <ele>212</ele>
        <time>2011-10-16T11:01:36Z</time>
      </trkpt>
      <trkpt lat="45.77742" lon="4.81015">
        <ele>212</ele>
        <time>2011-10-16T11:01:38Z</time>
      </trkpt>
      <trkpt lat="45.77741" lon="4.81015">
        <ele>212</ele>
        <time>2011-10-16T11:01:38Z</time>
      </trkpt>
      <trkpt lat="45.77741" lon="4.81015">
        <ele>212</ele>
        <time>2011-10-16T11:01:39Z</time>
      </trkpt>
      <trkpt lat="45.77736" lon="4.81014">
        <ele>212.67346191406</ele>
        <time>2011-10-16T11:01:40Z</time>
      </trkpt>
      <trkpt lat="45.77731" lon="4.81013">
        <ele>214</ele>
        <time>2011-10-16T11:01:41Z</time>
      </trkpt>
      <trkpt lat="45.77728" lon="4.81013">
        <ele>214</ele>
        <time>2011-10-16T11:01:42Z</time>
      </trkpt>
      <trkpt lat="45.77725" lon="4.81011">
        <ele>213</ele>
        <time>2011-10-16T11:01:43Z</time>
      </trkpt>
      <trkpt lat="45.77722" lon="4.8101">
        <ele>213</ele>
        <time>2011-10-16T11:01:44Z</time>
      </trkpt>
      <trkpt lat="45.77719" lon="4.81011">
        <ele>213</ele>
        <time>2011-10-16T11:01:45Z</time>
      </trkpt>
      <trkpt lat="45.77715" lon="4.8101">
        <ele>214</ele>
        <time>2011-10-16T11:01:46Z</time>
      </trkpt>
      <trkpt lat="45.77713" lon="4.81011">
        <ele>213</ele>
        <time>2011-10-16T11:01:47Z</time>
      </trkpt>
      <trkpt lat="45.7771" lon="4.81009">
        <ele>213</ele>
        <time>2011-10-16T11:01:48Z</time>
      </trkpt>
      <trkpt lat="45.77706" lon="4.81009">
        <ele>213</ele>
        <time>2011-10-16T11:01:49Z</time>
      </trkpt>
      <trkpt lat="45.77703" lon="4.81009">
        <ele>213</ele>
        <time>2011-10-16T11:01:50Z</time>
      </trkpt>
      <trkpt lat="45.777" lon="4.81007">
        <ele>212</ele>
        <time>2011-10-16T11:01:51Z</time>
      </trkpt>
      <trkpt lat="45.77696" lon="4.81005">
        <ele>214</ele>
        <time>2011-10-16T11:01:52Z</time>
      </trkpt>
      <trkpt lat="45.77693" lon="4.81005">
        <ele>212</ele>
        <time>2011-10-16T11:01:53Z</time>
      </trkpt>
      <trkpt lat="45.77691" lon="4.81004">
        <ele>214</ele>
        <time>2011-10-16T11:01:54Z</time>
      </trkpt>
      <trkpt lat="45.77688" lon="4.81004">
        <ele>213</ele>
        <time>2011-10-16T11:01:55Z</time>
      </trkpt>
      <trkpt lat="45.77684" lon="4.81003">
        <ele>213</ele>
        <time>2011-10-16T11:01:56Z</time>
      </trkpt>
      <trkpt lat="45.77682" lon="4.81002">
        <ele>213</ele>
        <time>2011-10-16T11:01:57Z</time>
      </trkpt>
      <trkpt lat="45.77678" lon="4.81002">
        <ele>213</ele>
        <time>2011-10-16T11:01:58Z</time>
      </trkpt>
      <trkpt lat="45.77675" lon="4.81001">
        <ele>213</ele>
        <time>2011-10-16T11:01:59Z</time>
      </trkpt>
      <trkpt lat="45.77672" lon="4.81001">
        <ele>213</ele>
        <time>2011-10-16T11:02:01Z</time>
      </trkpt>
      <trkpt lat="45.77672" lon="4.81001">
        <ele>213</ele>
        <time>2011-10-16T11:02:01Z</time>
      </trkpt>
      <trkpt lat="45.77672" lon="4.81001">
        <ele>212.78926086426</ele>
        <time>2011-10-16T11:02:02Z</time>
      </trkpt>
      <trkpt lat="45.77667" lon="4.81001">
        <ele>211.73870849609</ele>
        <time>2011-10-16T11:02:03Z</time>
      </trkpt>
      <trkpt lat="45.7766" lon="4.81">
        <ele>211</ele>
        <time>2011-10-16T11:02:04Z</time>
      </trkpt>
      <trkpt lat="45.77657" lon="4.81001">
        <ele>212</ele>
        <time>2011-10-16T11:02:05Z</time>
      </trkpt>
      <trkpt lat="45.77654" lon="4.81001">
        <ele>211</ele>
        <time>2011-10-16T11:02:06Z</time>
      </trkpt>
      <trkpt lat="45.77651" lon="4.81001">
        <ele>211</ele>
        <time>2011-10-16T11:02:07Z</time>
      </trkpt>
      <trkpt lat="45.77648" lon="4.81001">
        <ele>210</ele>
        <time>2011-10-16T11:02:08Z</time>
      </trkpt>
      <trkpt lat="45.77645" lon="4.81001">
        <ele>210</ele>
        <time>2011-10-16T11:02:09Z</time>
      </trkpt>
      <trkpt lat="45.77642" lon="4.81001">
        <ele>210</ele>
        <time>2011-10-16T11:02:10Z</time>
      </trkpt>
      <trkpt lat="45.77639" lon="4.80999">
        <ele>210</ele>
        <time>2011-10-16T11:02:11Z</time>
      </trkpt>
      <trkpt lat="45.77636" lon="4.80999">
        <ele>210</ele>
        <time>2011-10-16T11:02:12Z</time>
      </trkpt>
      <trkpt lat="45.77633" lon="4.80998">
        <ele>210</ele>
        <time>2011-10-16T11:02:13Z</time>
      </trkpt>
      <trkpt lat="45.7763" lon="4.80998">
        <ele>210</ele>
        <time>2011-10-16T11:02:14Z</time>
      </trkpt>
      <trkpt lat="45.77626" lon="4.80998">
        <ele>210</ele>
        <time>2011-10-16T11:02:15Z</time>
      </trkpt>
      <trkpt lat="45.77625" lon="4.80998">
        <ele>210</ele>
        <time>2011-10-16T11:02:16Z</time>
      </trkpt>
      <trkpt lat="45.77622" lon="4.80999">
        <ele>211</ele>
        <time>2011-10-16T11:02:17Z</time>
      </trkpt>
      <trkpt lat="45.77619" lon="4.80998">
        <ele>212</ele>
        <time>2011-10-16T11:02:18Z</time>
      </trkpt>
      <trkpt lat="45.77616" lon="4.80998">
        <ele>213</ele>
        <time>2011-10-16T11:02:19Z</time>
      </trkpt>
      <trkpt lat="45.77613" lon="4.80997">
        <ele>214</ele>
        <time>2011-10-16T11:02:20Z</time>
      </trkpt>
      <trkpt lat="45.7761" lon="4.80998">
        <ele>214</ele>
        <time>2011-10-16T11:02:21Z</time>
      </trkpt>
      <trkpt lat="45.77607" lon="4.80998">
        <ele>214</ele>
        <time>2011-10-16T11:02:22Z</time>
      </trkpt>
      <trkpt lat="45.77604" lon="4.80999">
        <ele>214</ele>
        <time>2011-10-16T11:02:24Z</time>
      </trkpt>
      <trkpt lat="45.77604" lon="4.80999">
        <ele>214</ele>
        <time>2011-10-16T11:02:24Z</time>
      </trkpt>
      <trkpt lat="45.77599" lon="4.81">
        <ele>214</ele>
        <time>2011-10-16T11:02:25Z</time>
      </trkpt>
      <trkpt lat="45.77594" lon="4.81001">
        <ele>213</ele>
        <time>2011-10-16T11:02:26Z</time>
      </trkpt>
      <trkpt lat="45.77591" lon="4.81001">
        <ele>213</ele>
        <time>2011-10-16T11:02:27Z</time>
      </trkpt>
      <trkpt lat="45.77588" lon="4.81002">
        <ele>213</ele>
        <time>2011-10-16T11:02:28Z</time>
      </trkpt>
      <trkpt lat="45.77585" lon="4.81002">
        <ele>212</ele>
        <time>2011-10-16T11:02:29Z</time>
      </trkpt>
      <trkpt lat="45.77581" lon="4.81003">
        <ele>212</ele>
        <time>2011-10-16T11:02:30Z</time>
      </trkpt>
      <trkpt lat="45.77579" lon="4.81004">
        <ele>212</ele>
        <time>2011-10-16T11:02:31Z</time>
      </trkpt>
      <trkpt lat="45.77576" lon="4.81004">
        <ele>212</ele>
        <time>2011-10-16T11:02:32Z</time>
      </trkpt>
      <trkpt lat="45.77573" lon="4.81005">
        <ele>212</ele>
        <time>2011-10-16T11:02:33Z</time>
      </trkpt>
      <trkpt lat="45.77571" lon="4.81005">
        <ele>212</ele>
        <time>2011-10-16T11:02:34Z</time>
      </trkpt>
      <trkpt lat="45.77568" lon="4.81005">
        <ele>212</ele>
        <time>2011-10-16T11:02:35Z</time>
      </trkpt>
      <trkpt lat="45.77565" lon="4.81006">
        <ele>212</ele>
        <time>2011-10-16T11:02:36Z</time>
      </trkpt>
      <trkpt lat="45.77561" lon="4.81006">
        <ele>213</ele>
        <time>2011-10-16T11:02:37Z</time>
      </trkpt>
      <trkpt lat="45.77558" lon="4.81006">
        <ele>213</ele>
        <time>2011-10-16T11:02:38Z</time>
      </trkpt>
      <trkpt lat="45.77556" lon="4.81008">
        <ele>213</ele>
        <time>2011-10-16T11:02:39Z</time>
      </trkpt>
      <trkpt lat="45.77552" lon="4.81008">
        <ele>213</ele>
        <time>2011-10-16T11:02:40Z</time>
      </trkpt>
      <trkpt lat="45.77549" lon="4.81009">
        <ele>213</ele>
        <time>2011-10-16T11:02:41Z</time>
      </trkpt>
      <trkpt lat="45.77545" lon="4.8101">
        <ele>213</ele>
        <time>2011-10-16T11:02:42Z</time>
      </trkpt>
      <trkpt lat="45.77542" lon="4.8101">
        <ele>213</ele>
        <time>2011-10-16T11:02:43Z</time>
      </trkpt>
      <trkpt lat="45.77539" lon="4.8101">
        <ele>213</ele>
        <time>2011-10-16T11:02:44Z</time>
      </trkpt>
      <trkpt lat="45.77537" lon="4.81009">
        <ele>213</ele>
        <time>2011-10-16T11:02:45Z</time>
      </trkpt>
      <trkpt lat="45.77534" lon="4.81011">
        <ele>213</ele>
        <time>2011-10-16T11:02:47Z</time>
      </trkpt>
      <trkpt lat="45.77534" lon="4.81011">
        <ele>213</ele>
        <time>2011-10-16T11:02:47Z</time>
      </trkpt>
      <trkpt lat="45.77532" lon="4.81012">
        <ele>212.63400268555</ele>
        <time>2011-10-16T11:02:48Z</time>
      </trkpt>
      <trkpt lat="45.77525" lon="4.81014">
        <ele>212.07388305664</ele>
        <time>2011-10-16T11:02:49Z</time>
      </trkpt>
      <trkpt lat="45.77521" lon="4.81015">
        <ele>212</ele>
        <time>2011-10-16T11:02:50Z</time>
      </trkpt>
      <trkpt lat="45.77519" lon="4.81017">
        <ele>211</ele>
        <time>2011-10-16T11:02:51Z</time>
      </trkpt>
      <trkpt lat="45.77515" lon="4.81018">
        <ele>212</ele>
        <time>2011-10-16T11:02:52Z</time>
      </trkpt>
      <trkpt lat="45.77511" lon="4.81019">
        <ele>212</ele>
        <time>2011-10-16T11:02:53Z</time>
      </trkpt>
      <trkpt lat="45.77508" lon="4.81019">
        <ele>212</ele>
        <time>2011-10-16T11:02:54Z</time>
      </trkpt>
      <trkpt lat="45.77505" lon="4.8102">
        <ele>212</ele>
        <time>2011-10-16T11:02:55Z</time>
      </trkpt>
      <trkpt lat="45.77502" lon="4.8102">
        <ele>212</ele>
        <time>2011-10-16T11:02:56Z</time>
      </trkpt>
      <trkpt lat="45.775" lon="4.81021">
        <ele>212</ele>
        <time>2011-10-16T11:02:57Z</time>
      </trkpt>
      <trkpt lat="45.77495" lon="4.81022">
        <ele>212</ele>
        <time>2011-10-16T11:02:58Z</time>
      </trkpt>
      <trkpt lat="45.77493" lon="4.81021">
        <ele>213</ele>
        <time>2011-10-16T11:02:59Z</time>
      </trkpt>
      <trkpt lat="45.77491" lon="4.81019">
        <ele>215</ele>
        <time>2011-10-16T11:03:00Z</time>
      </trkpt>
      <trkpt lat="45.77488" lon="4.81019">
        <ele>216</ele>
        <time>2011-10-16T11:03:01Z</time>
      </trkpt>
      <trkpt lat="45.77487" lon="4.81018">
        <ele>217</ele>
        <time>2011-10-16T11:03:02Z</time>
      </trkpt>
      <trkpt lat="45.77487" lon="4.81019">
        <ele>218</ele>
        <time>2011-10-16T11:03:03Z</time>
      </trkpt>
      <trkpt lat="45.77485" lon="4.81018">
        <ele>218</ele>
        <time>2011-10-16T11:03:04Z</time>
      </trkpt>
      <trkpt lat="45.77484" lon="4.81017">
        <ele>219</ele>
        <time>2011-10-16T11:03:05Z</time>
      </trkpt>
      <trkpt lat="45.77481" lon="4.81017">
        <ele>219</ele>
        <time>2011-10-16T11:03:06Z</time>
      </trkpt>
      <trkpt lat="45.77475" lon="4.81021">
        <ele>219</ele>
        <time>2011-10-16T11:03:07Z</time>
      </trkpt>
      <trkpt lat="45.77471" lon="4.81025">
        <ele>220</ele>
        <time>2011-10-16T11:03:08Z</time>
      </trkpt>
      <trkpt lat="45.77468" lon="4.81028">
        <ele>220</ele>
        <time>2011-10-16T11:03:10Z</time>
      </trkpt>
      <trkpt lat="45.77468" lon="4.81028">
        <ele>220</ele>
        <time>2011-10-16T11:03:10Z</time>
      </trkpt>
      <trkpt lat="45.77464" lon="4.81031">
        <ele>219.48654174805</ele>
        <time>2011-10-16T11:03:11Z</time>
      </trkpt>
      <trkpt lat="45.77458" lon="4.81036">
        <ele>220</ele>
        <time>2011-10-16T11:03:12Z</time>
      </trkpt>
      <trkpt lat="45.77454" lon="4.81039">
        <ele>219</ele>
        <time>2011-10-16T11:03:13Z</time>
      </trkpt>
      <trkpt lat="45.77452" lon="4.81042">
        <ele>220</ele>
        <time>2011-10-16T11:03:14Z</time>
      </trkpt>
      <trkpt lat="45.77449" lon="4.81044">
        <ele>220</ele>
        <time>2011-10-16T11:03:15Z</time>
      </trkpt>
      <trkpt lat="45.77446" lon="4.81047">
        <ele>219</ele>
        <time>2011-10-16T11:03:16Z</time>
      </trkpt>
      <trkpt lat="45.77442" lon="4.81052">
        <ele>219</ele>
        <time>2011-10-16T11:03:17Z</time>
      </trkpt>
      <trkpt lat="45.7744" lon="4.81054">
        <ele>219</ele>
        <time>2011-10-16T11:03:18Z</time>
      </trkpt>
      <trkpt lat="45.77437" lon="4.81055">
        <ele>218</ele>
        <time>2011-10-16T11:03:19Z</time>
      </trkpt>
      <trkpt lat="45.77434" lon="4.81057">
        <ele>218</ele>
        <time>2011-10-16T11:03:20Z</time>
      </trkpt>
      <trkpt lat="45.77432" lon="4.8106">
        <ele>218</ele>
        <time>2011-10-16T11:03:21Z</time>
      </trkpt>
      <trkpt lat="45.77429" lon="4.81063">
        <ele>218</ele>
        <time>2011-10-16T11:03:22Z</time>
      </trkpt>
      <trkpt lat="45.77426" lon="4.81065">
        <ele>218</ele>
        <time>2011-10-16T11:03:23Z</time>
      </trkpt>
      <trkpt lat="45.77423" lon="4.81064">
        <ele>219</ele>
        <time>2011-10-16T11:03:24Z</time>
      </trkpt>
      <trkpt lat="45.7742" lon="4.81066">
        <ele>219</ele>
        <time>2011-10-16T11:03:25Z</time>
      </trkpt>
      <trkpt lat="45.77417" lon="4.81068">
        <ele>221</ele>
        <time>2011-10-16T11:03:26Z</time>
      </trkpt>
      <trkpt lat="45.77414" lon="4.8107">
        <ele>222</ele>
        <time>2011-10-16T11:03:27Z</time>
      </trkpt>
      <trkpt lat="45.77412" lon="4.81073">
        <ele>221</ele>
        <time>2011-10-16T11:03:28Z</time>
      </trkpt>
      <trkpt lat="45.7741" lon="4.81075">
        <ele>222</ele>
        <time>2011-10-16T11:03:29Z</time>
      </trkpt>
      <trkpt lat="45.77407" lon="4.81077">
        <ele>223</ele>
        <time>2011-10-16T11:03:30Z</time>
      </trkpt>
      <trkpt lat="45.77404" lon="4.81079">
        <ele>223</ele>
        <time>2011-10-16T11:03:31Z</time>
      </trkpt>
      <trkpt lat="45.77402" lon="4.81082">
        <ele>223</ele>
        <time>2011-10-16T11:03:33Z</time>
      </trkpt>
      <trkpt lat="45.77402" lon="4.81082">
        <ele>223</ele>
        <time>2011-10-16T11:03:33Z</time>
      </trkpt>
      <trkpt lat="45.77397" lon="4.81087">
        <ele>223</ele>
        <time>2011-10-16T11:03:34Z</time>
      </trkpt>
      <trkpt lat="45.77394" lon="4.81092">
        <ele>223</ele>
        <time>2011-10-16T11:03:35Z</time>
      </trkpt>
      <trkpt lat="45.77392" lon="4.81096">
        <ele>223</ele>
        <time>2011-10-16T11:03:36Z</time>
      </trkpt>
      <trkpt lat="45.7739" lon="4.811">
        <ele>223</ele>
        <time>2011-10-16T11:03:37Z</time>
      </trkpt>
      <trkpt lat="45.77387" lon="4.81104">
        <ele>222</ele>
        <time>2011-10-16T11:03:38Z</time>
      </trkpt>
      <trkpt lat="45.77385" lon="4.81107">
        <ele>222</ele>
        <time>2011-10-16T11:03:39Z</time>
      </trkpt>
      <trkpt lat="45.77384" lon="4.8111">
        <ele>222</ele>
        <time>2011-10-16T11:03:40Z</time>
      </trkpt>
      <trkpt lat="45.77382" lon="4.81114">
        <ele>222</ele>
        <time>2011-10-16T11:03:41Z</time>
      </trkpt>
      <trkpt lat="45.7738" lon="4.81118">
        <ele>222</ele>
        <time>2011-10-16T11:03:42Z</time>
      </trkpt>
      <trkpt lat="45.77377" lon="4.81122">
        <ele>222</ele>
        <time>2011-10-16T11:03:43Z</time>
      </trkpt>
      <trkpt lat="45.77375" lon="4.81127">
        <ele>220</ele>
        <time>2011-10-16T11:03:44Z</time>
      </trkpt>
      <trkpt lat="45.77373" lon="4.81133">
        <ele>218</ele>
        <time>2011-10-16T11:03:45Z</time>
      </trkpt>
      <trkpt lat="45.77371" lon="4.81137">
        <ele>215</ele>
        <time>2011-10-16T11:03:46Z</time>
      </trkpt>
      <trkpt lat="45.77369" lon="4.81142">
        <ele>214</ele>
        <time>2011-10-16T11:03:47Z</time>
      </trkpt>
      <trkpt lat="45.77367" lon="4.81145">
        <ele>214</ele>
        <time>2011-10-16T11:03:48Z</time>
      </trkpt>
      <trkpt lat="45.77365" lon="4.81149">
        <ele>214</ele>
        <time>2011-10-16T11:03:49Z</time>
      </trkpt>
      <trkpt lat="45.77362" lon="4.81152">
        <ele>214</ele>
        <time>2011-10-16T11:03:50Z</time>
      </trkpt>
      <trkpt lat="45.77361" lon="4.81155">
        <ele>214</ele>
        <time>2011-10-16T11:03:51Z</time>
      </trkpt>
      <trkpt lat="45.77359" lon="4.81158">
        <ele>214</ele>
        <time>2011-10-16T11:03:52Z</time>
      </trkpt>
      <trkpt lat="45.77358" lon="4.81162">
        <ele>213</ele>
        <time>2011-10-16T11:03:53Z</time>
      </trkpt>
      <trkpt lat="45.77355" lon="4.81167">
        <ele>213</ele>
        <time>2011-10-16T11:03:56Z</time>
      </trkpt>
      <trkpt lat="45.77355" lon="4.81167">
        <ele>213</ele>
        <time>2011-10-16T11:03:56Z</time>
      </trkpt>
      <trkpt lat="45.77355" lon="4.81167">
        <ele>212.94471740723</ele>
        <time>2011-10-16T11:03:56Z</time>
      </trkpt>
      <trkpt lat="45.77351" lon="4.81173">
        <ele>212.37243652344</ele>
        <time>2011-10-16T11:03:57Z</time>
      </trkpt>
      <trkpt lat="45.77345" lon="4.81181">
        <ele>212</ele>
        <time>2011-10-16T11:03:58Z</time>
      </trkpt>
      <trkpt lat="45.77343" lon="4.81186">
        <ele>212</ele>
        <time>2011-10-16T11:03:59Z</time>
      </trkpt>
      <trkpt lat="45.77341" lon="4.81189">
        <ele>212</ele>
        <time>2011-10-16T11:04:00Z</time>
      </trkpt>
      <trkpt lat="45.77339" lon="4.81193">
        <ele>211</ele>
        <time>2011-10-16T11:04:01Z</time>
      </trkpt>
      <trkpt lat="45.77337" lon="4.81196">
        <ele>211</ele>
        <time>2011-10-16T11:04:02Z</time>
      </trkpt>
      <trkpt lat="45.77335" lon="4.812">
        <ele>210</ele>
        <time>2011-10-16T11:04:03Z</time>
      </trkpt>
      <trkpt lat="45.77332" lon="4.81204">
        <ele>210</ele>
        <time>2011-10-16T11:04:04Z</time>
      </trkpt>
      <trkpt lat="45.7733" lon="4.81208">
        <ele>210</ele>
        <time>2011-10-16T11:04:05Z</time>
      </trkpt>
      <trkpt lat="45.77328" lon="4.81211">
        <ele>210</ele>
        <time>2011-10-16T11:04:06Z</time>
      </trkpt>
      <trkpt lat="45.77325" lon="4.81214">
        <ele>209</ele>
        <time>2011-10-16T11:04:07Z</time>
      </trkpt>
      <trkpt lat="45.77323" lon="4.81217">
        <ele>210</ele>
        <time>2011-10-16T11:04:08Z</time>
      </trkpt>
      <trkpt lat="45.77321" lon="4.8122">
        <ele>210</ele>
        <time>2011-10-16T11:04:09Z</time>
      </trkpt>
      <trkpt lat="45.7732" lon="4.81224">
        <ele>209</ele>
        <time>2011-10-16T11:04:10Z</time>
      </trkpt>
      <trkpt lat="45.77318" lon="4.81227">
        <ele>209</ele>
        <time>2011-10-16T11:04:11Z</time>
      </trkpt>
      <trkpt lat="45.77316" lon="4.81231">
        <ele>209</ele>
        <time>2011-10-16T11:04:12Z</time>
      </trkpt>
      <trkpt lat="45.77313" lon="4.81235">
        <ele>210</ele>
        <time>2011-10-16T11:04:13Z</time>
      </trkpt>
      <trkpt lat="45.7731" lon="4.81236">
        <ele>211</ele>
        <time>2011-10-16T11:04:14Z</time>
      </trkpt>
      <trkpt lat="45.77307" lon="4.81238">
        <ele>211</ele>
        <time>2011-10-16T11:04:15Z</time>
      </trkpt>
      <trkpt lat="45.77306" lon="4.8124">
        <ele>211.74584960938</ele>
        <time>2011-10-16T11:04:16Z</time>
      </trkpt>
      <trkpt lat="45.77302" lon="4.81242">
        <ele>212</ele>
        <time>2011-10-16T11:04:18Z</time>
      </trkpt>
      <trkpt lat="45.77302" lon="4.81242">
        <ele>212</ele>
        <time>2011-10-16T11:04:18Z</time>
      </trkpt>
      <trkpt lat="45.77298" lon="4.81247">
        <ele>211.24015808105</ele>
        <time>2011-10-16T11:04:19Z</time>
      </trkpt>
      <trkpt lat="45.77295" lon="4.81251">
        <ele>213</ele>
        <time>2011-10-16T11:04:20Z</time>
      </trkpt>
      <trkpt lat="45.77292" lon="4.81253">
        <ele>213</ele>
        <time>2011-10-16T11:04:21Z</time>
      </trkpt>
      <trkpt lat="45.77289" lon="4.81256">
        <ele>213</ele>
        <time>2011-10-16T11:04:22Z</time>
      </trkpt>
      <trkpt lat="45.77287" lon="4.81259">
        <ele>213</ele>
        <time>2011-10-16T11:04:23Z</time>
      </trkpt>
      <trkpt lat="45.77285" lon="4.81261">
        <ele>213</ele>
        <time>2011-10-16T11:04:24Z</time>
      </trkpt>
      <trkpt lat="45.77282" lon="4.81262">
        <ele>213</ele>
        <time>2011-10-16T11:04:25Z</time>
      </trkpt>
      <trkpt lat="45.7728" lon="4.81263">
        <ele>213</ele>
        <time>2011-10-16T11:04:26Z</time>
      </trkpt>
      <trkpt lat="45.77277" lon="4.81265">
        <ele>213</ele>
        <time>2011-10-16T11:04:27Z</time>
      </trkpt>
      <trkpt lat="45.77273" lon="4.81267">
        <ele>213</ele>
        <time>2011-10-16T11:04:28Z</time>
      </trkpt>
      <trkpt lat="45.7727" lon="4.81271">
        <ele>213</ele>
        <time>2011-10-16T11:04:29Z</time>
      </trkpt>
      <trkpt lat="45.77268" lon="4.81273">
        <ele>213</ele>
        <time>2011-10-16T11:04:30Z</time>
      </trkpt>
      <trkpt lat="45.77265" lon="4.81276">
        <ele>213</ele>
        <time>2011-10-16T11:04:31Z</time>
      </trkpt>
      <trkpt lat="45.77262" lon="4.81278">
        <ele>213</ele>
        <time>2011-10-16T11:04:32Z</time>
      </trkpt>
      <trkpt lat="45.77259" lon="4.81279">
        <ele>214</ele>
        <time>2011-10-16T11:04:33Z</time>
      </trkpt>
      <trkpt lat="45.77257" lon="4.81281">
        <ele>214</ele>
        <time>2011-10-16T11:04:34Z</time>
      </trkpt>
      <trkpt lat="45.77254" lon="4.81283">
        <ele>214</ele>
        <time>2011-10-16T11:04:35Z</time>
      </trkpt>
      <trkpt lat="45.77252" lon="4.81285">
        <ele>214</ele>
        <time>2011-10-16T11:04:36Z</time>
      </trkpt>
      <trkpt lat="45.77249" lon="4.81287">
        <ele>214</ele>
        <time>2011-10-16T11:04:37Z</time>
      </trkpt>
      <trkpt lat="45.77246" lon="4.81289">
        <ele>214</ele>
        <time>2011-10-16T11:04:38Z</time>
      </trkpt>
      <trkpt lat="45.77244" lon="4.81292">
        <ele>214</ele>
        <time>2011-10-16T11:04:40Z</time>
      </trkpt>
      <trkpt lat="45.77243" lon="4.81292">
        <ele>214</ele>
        <time>2011-10-16T11:04:40Z</time>
      </trkpt>
      <trkpt lat="45.7724" lon="4.81294">
        <ele>214</ele>
        <time>2011-10-16T11:04:41Z</time>
      </trkpt>
      <trkpt lat="45.77236" lon="4.81297">
        <ele>213</ele>
        <time>2011-10-16T11:04:42Z</time>
      </trkpt>
      <trkpt lat="45.77233" lon="4.813">
        <ele>213</ele>
        <time>2011-10-16T11:04:43Z</time>
      </trkpt>
      <trkpt lat="45.77229" lon="4.81301">
        <ele>213</ele>
        <time>2011-10-16T11:04:44Z</time>
      </trkpt>
      <trkpt lat="45.77227" lon="4.81303">
        <ele>214</ele>
        <time>2011-10-16T11:04:45Z</time>
      </trkpt>
      <trkpt lat="45.77224" lon="4.81305">
        <ele>214</ele>
        <time>2011-10-16T11:04:46Z</time>
      </trkpt>
      <trkpt lat="45.77222" lon="4.81307">
        <ele>215</ele>
        <time>2011-10-16T11:04:47Z</time>
      </trkpt>
      <trkpt lat="45.77219" lon="4.8131">
        <ele>215</ele>
        <time>2011-10-16T11:04:48Z</time>
      </trkpt>
      <trkpt lat="45.77217" lon="4.81312">
        <ele>215</ele>
        <time>2011-10-16T11:04:49Z</time>
      </trkpt>
      <trkpt lat="45.77214" lon="4.81314">
        <ele>215</ele>
        <time>2011-10-16T11:04:50Z</time>
      </trkpt>
      <trkpt lat="45.77211" lon="4.81317">
        <ele>215</ele>
        <time>2011-10-16T11:04:51Z</time>
      </trkpt>
      <trkpt lat="45.77208" lon="4.81319">
        <ele>214</ele>
        <time>2011-10-16T11:04:52Z</time>
      </trkpt>
      <trkpt lat="45.77206" lon="4.81321">
        <ele>214</ele>
        <time>2011-10-16T11:04:53Z</time>
      </trkpt>
      <trkpt lat="45.77203" lon="4.81322">
        <ele>214</ele>
        <time>2011-10-16T11:04:54Z</time>
      </trkpt>
      <trkpt lat="45.77199" lon="4.81323">
        <ele>215</ele>
        <time>2011-10-16T11:04:55Z</time>
      </trkpt>
      <trkpt lat="45.77196" lon="4.81325">
        <ele>215</ele>
        <time>2011-10-16T11:04:56Z</time>
      </trkpt>
      <trkpt lat="45.77192" lon="4.81327">
        <ele>214</ele>
        <time>2011-10-16T11:04:57Z</time>
      </trkpt>
      <trkpt lat="45.77189" lon="4.81328">
        <ele>213</ele>
        <time>2011-10-16T11:04:58Z</time>
      </trkpt>
      <trkpt lat="45.77186" lon="4.8133">
        <ele>214</ele>
        <time>2011-10-16T11:04:59Z</time>
      </trkpt>
      <trkpt lat="45.77184" lon="4.81331">
        <ele>214</ele>
        <time>2011-10-16T11:05:00Z</time>
      </trkpt>
      <trkpt lat="45.77181" lon="4.81333">
        <ele>213</ele>
        <time>2011-10-16T11:05:02Z</time>
      </trkpt>
      <trkpt lat="45.7718" lon="4.81333">
        <ele>213</ele>
        <time>2011-10-16T11:05:02Z</time>
      </trkpt>
      <trkpt lat="45.77177" lon="4.81334">
        <ele>212.48976135254</ele>
        <time>2011-10-16T11:05:03Z</time>
      </trkpt>
      <trkpt lat="45.77171" lon="4.81338">
        <ele>212</ele>
        <time>2011-10-16T11:05:04Z</time>
      </trkpt>
      <trkpt lat="45.77168" lon="4.81339">
        <ele>212</ele>
        <time>2011-10-16T11:05:05Z</time>
      </trkpt>
      <trkpt lat="45.77165" lon="4.81341">
        <ele>213</ele>
        <time>2011-10-16T11:05:06Z</time>
      </trkpt>
      <trkpt lat="45.77162" lon="4.81342">
        <ele>213</ele>
        <time>2011-10-16T11:05:07Z</time>
      </trkpt>
      <trkpt lat="45.77159" lon="4.81343">
        <ele>213</ele>
        <time>2011-10-16T11:05:08Z</time>
      </trkpt>
      <trkpt lat="45.77155" lon="4.81344">
        <ele>213</ele>
        <time>2011-10-16T11:05:09Z</time>
      </trkpt>
      <trkpt lat="45.77153" lon="4.81345">
        <ele>212</ele>
        <time>2011-10-16T11:05:10Z</time>
      </trkpt>
      <trkpt lat="45.77149" lon="4.81345">
        <ele>212</ele>
        <time>2011-10-16T11:05:11Z</time>
      </trkpt>
      <trkpt lat="45.77146" lon="4.81346">
        <ele>212</ele>
        <time>2011-10-16T11:05:12Z</time>
      </trkpt>
      <trkpt lat="45.77143" lon="4.81347">
        <ele>211</ele>
        <time>2011-10-16T11:05:13Z</time>
      </trkpt>
      <trkpt lat="45.7714" lon="4.8135">
        <ele>211</ele>
        <time>2011-10-16T11:05:14Z</time>
      </trkpt>
      <trkpt lat="45.77138" lon="4.81351">
        <ele>211</ele>
        <time>2011-10-16T11:05:15Z</time>
      </trkpt>
      <trkpt lat="45.77136" lon="4.81352">
        <ele>211</ele>
        <time>2011-10-16T11:05:16Z</time>
      </trkpt>
      <trkpt lat="45.77132" lon="4.81355">
        <ele>211</ele>
        <time>2011-10-16T11:05:17Z</time>
      </trkpt>
      <trkpt lat="45.77129" lon="4.81356">
        <ele>211</ele>
        <time>2011-10-16T11:05:18Z</time>
      </trkpt>
      <trkpt lat="45.77125" lon="4.81356">
        <ele>212</ele>
        <time>2011-10-16T11:05:19Z</time>
      </trkpt>
      <trkpt lat="45.77122" lon="4.81358">
        <ele>211</ele>
        <time>2011-10-16T11:05:20Z</time>
      </trkpt>
      <trkpt lat="45.77119" lon="4.81359">
        <ele>210</ele>
        <time>2011-10-16T11:05:21Z</time>
      </trkpt>
      <trkpt lat="45.77116" lon="4.8136">
        <ele>210</ele>
        <time>2011-10-16T11:05:22Z</time>
      </trkpt>
      <trkpt lat="45.77112" lon="4.81362">
        <ele>210</ele>
        <time>2011-10-16T11:05:23Z</time>
      </trkpt>
      <trkpt lat="45.77109" lon="4.81363">
        <ele>210</ele>
        <time>2011-10-16T11:05:25Z</time>
      </trkpt>
      <trkpt lat="45.77109" lon="4.81363">
        <ele>210</ele>
        <time>2011-10-16T11:05:25Z</time>
      </trkpt>
      <trkpt lat="45.77108" lon="4.81364">
        <ele>210</ele>
        <time>2011-10-16T11:05:26Z</time>
      </trkpt>
      <trkpt lat="45.77101" lon="4.81368">
        <ele>210.92129516602</ele>
        <time>2011-10-16T11:05:27Z</time>
      </trkpt>
      <trkpt lat="45.77098" lon="4.81369">
        <ele>212</ele>
        <time>2011-10-16T11:05:28Z</time>
      </trkpt>
      <trkpt lat="45.77094" lon="4.81369">
        <ele>212</ele>
        <time>2011-10-16T11:05:29Z</time>
      </trkpt>
      <trkpt lat="45.77091" lon="4.8137">
        <ele>212</ele>
        <time>2011-10-16T11:05:30Z</time>
      </trkpt>
      <trkpt lat="45.77088" lon="4.8137">
        <ele>212</ele>
        <time>2011-10-16T11:05:31Z</time>
      </trkpt>
      <trkpt lat="45.77086" lon="4.81371">
        <ele>213</ele>
        <time>2011-10-16T11:05:32Z</time>
      </trkpt>
      <trkpt lat="45.77083" lon="4.81372">
        <ele>213</ele>
        <time>2011-10-16T11:05:33Z</time>
      </trkpt>
      <trkpt lat="45.7708" lon="4.81374">
        <ele>214</ele>
        <time>2011-10-16T11:05:34Z</time>
      </trkpt>
      <trkpt lat="45.77076" lon="4.81375">
        <ele>214</ele>
        <time>2011-10-16T11:05:35Z</time>
      </trkpt>
      <trkpt lat="45.77073" lon="4.81376">
        <ele>214</ele>
        <time>2011-10-16T11:05:36Z</time>
      </trkpt>
      <trkpt lat="45.7707" lon="4.81377">
        <ele>214</ele>
        <time>2011-10-16T11:05:37Z</time>
      </trkpt>
      <trkpt lat="45.77067" lon="4.81378">
        <ele>214</ele>
        <time>2011-10-16T11:05:38Z</time>
      </trkpt>
      <trkpt lat="45.77064" lon="4.8138">
        <ele>213</ele>
        <time>2011-10-16T11:05:39Z</time>
      </trkpt>
      <trkpt lat="45.7706" lon="4.8138">
        <ele>214</ele>
        <time>2011-10-16T11:05:40Z</time>
      </trkpt>
      <trkpt lat="45.77058" lon="4.81382">
        <ele>214</ele>
        <time>2011-10-16T11:05:41Z</time>
      </trkpt>
      <trkpt lat="45.77056" lon="4.81384">
        <ele>214</ele>
        <time>2011-10-16T11:05:42Z</time>
      </trkpt>
      <trkpt lat="45.77054" lon="4.81384">
        <ele>214</ele>
        <time>2011-10-16T11:05:43Z</time>
      </trkpt>
      <trkpt lat="45.7705" lon="4.81385">
        <ele>215</ele>
        <time>2011-10-16T11:05:44Z</time>
      </trkpt>
      <trkpt lat="45.77046" lon="4.81385">
        <ele>217</ele>
        <time>2011-10-16T11:05:45Z</time>
      </trkpt>
      <trkpt lat="45.77044" lon="4.81386">
        <ele>218</ele>
        <time>2011-10-16T11:05:46Z</time>
      </trkpt>
      <trkpt lat="45.77042" lon="4.81385">
        <ele>219</ele>
        <time>2011-10-16T11:05:48Z</time>
      </trkpt>
      <trkpt lat="45.77042" lon="4.81385">
        <ele>219.00358581543</ele>
        <time>2011-10-16T11:05:48Z</time>
      </trkpt>
      <trkpt lat="45.7704" lon="4.81385">
        <ele>219.31355285645</ele>
        <time>2011-10-16T11:05:49Z</time>
      </trkpt>
      <trkpt lat="45.77033" lon="4.81385">
        <ele>222</ele>
        <time>2011-10-16T11:05:50Z</time>
      </trkpt>
      <trkpt lat="45.7703" lon="4.81385">
        <ele>223</ele>
        <time>2011-10-16T11:05:51Z</time>
      </trkpt>
      <trkpt lat="45.77028" lon="4.81385">
        <ele>224</ele>
        <time>2011-10-16T11:05:52Z</time>
      </trkpt>
      <trkpt lat="45.77027" lon="4.81386">
        <ele>223</ele>
        <time>2011-10-16T11:05:53Z</time>
      </trkpt>
      <trkpt lat="45.77025" lon="4.81387">
        <ele>223</ele>
        <time>2011-10-16T11:05:54Z</time>
      </trkpt>
      <trkpt lat="45.7702" lon="4.81388">
        <ele>224</ele>
        <time>2011-10-16T11:05:55Z</time>
      </trkpt>
      <trkpt lat="45.77015" lon="4.81391">
        <ele>225</ele>
        <time>2011-10-16T11:05:56Z</time>
      </trkpt>
      <trkpt lat="45.7701" lon="4.81391">
        <ele>224</ele>
        <time>2011-10-16T11:05:57Z</time>
      </trkpt>
      <trkpt lat="45.77007" lon="4.81393">
        <ele>225</ele>
        <time>2011-10-16T11:05:58Z</time>
      </trkpt>
      <trkpt lat="45.77004" lon="4.81391">
        <ele>226</ele>
        <time>2011-10-16T11:05:59Z</time>
      </trkpt>
      <trkpt lat="45.77001" lon="4.81391">
        <ele>226</ele>
        <time>2011-10-16T11:06:00Z</time>
      </trkpt>
      <trkpt lat="45.76999" lon="4.8139">
        <ele>228</ele>
        <time>2011-10-16T11:06:01Z</time>
      </trkpt>
      <trkpt lat="45.76995" lon="4.81393">
        <ele>227</ele>
        <time>2011-10-16T11:06:02Z</time>
      </trkpt>
      <trkpt lat="45.76992" lon="4.81394">
        <ele>228</ele>
        <time>2011-10-16T11:06:03Z</time>
      </trkpt>
      <trkpt lat="45.7699" lon="4.81397">
        <ele>228</ele>
        <time>2011-10-16T11:06:04Z</time>
      </trkpt>
      <trkpt lat="45.76987" lon="4.814">
        <ele>227</ele>
        <time>2011-10-16T11:06:05Z</time>
      </trkpt>
      <trkpt lat="45.76985" lon="4.81403">
        <ele>228</ele>
        <time>2011-10-16T11:06:06Z</time>
      </trkpt>
      <trkpt lat="45.76983" lon="4.81406">
        <ele>227</ele>
        <time>2011-10-16T11:06:07Z</time>
      </trkpt>
      <trkpt lat="45.76979" lon="4.81407">
        <ele>226</ele>
        <time>2011-10-16T11:06:08Z</time>
      </trkpt>
      <trkpt lat="45.76976" lon="4.81407">
        <ele>227</ele>
        <time>2011-10-16T11:06:09Z</time>
      </trkpt>
      <trkpt lat="45.76972" lon="4.81409">
        <ele>227</ele>
        <time>2011-10-16T11:06:11Z</time>
      </trkpt>
      <trkpt lat="45.76972" lon="4.81409">
        <ele>227</ele>
        <time>2011-10-16T11:06:11Z</time>
      </trkpt>
      <trkpt lat="45.7697" lon="4.8141">
        <ele>226.60270690918</ele>
        <time>2011-10-16T11:06:12Z</time>
      </trkpt>
      <trkpt lat="45.76964" lon="4.81414">
        <ele>225</ele>
        <time>2011-10-16T11:06:13Z</time>
      </trkpt>
      <trkpt lat="45.76961" lon="4.81417">
        <ele>224</ele>
        <time>2011-10-16T11:06:14Z</time>
      </trkpt>
      <trkpt lat="45.76957" lon="4.8142">
        <ele>222</ele>
        <time>2011-10-16T11:06:15Z</time>
      </trkpt>
      <trkpt lat="45.76954" lon="4.81422">
        <ele>222</ele>
        <time>2011-10-16T11:06:16Z</time>
      </trkpt>
      <trkpt lat="45.76952" lon="4.81423">
        <ele>222</ele>
        <time>2011-10-16T11:06:17Z</time>
      </trkpt>
      <trkpt lat="45.76948" lon="4.81425">
        <ele>222</ele>
        <time>2011-10-16T11:06:18Z</time>
      </trkpt>
      <trkpt lat="45.76945" lon="4.81427">
        <ele>221</ele>
        <time>2011-10-16T11:06:19Z</time>
      </trkpt>
      <trkpt lat="45.76942" lon="4.81429">
        <ele>221</ele>
        <time>2011-10-16T11:06:20Z</time>
      </trkpt>
      <trkpt lat="45.76939" lon="4.81432">
        <ele>220</ele>
        <time>2011-10-16T11:06:21Z</time>
      </trkpt>
      <trkpt lat="45.76936" lon="4.81434">
        <ele>221</ele>
        <time>2011-10-16T11:06:22Z</time>
      </trkpt>
      <trkpt lat="45.76934" lon="4.81435">
        <ele>221</ele>
        <time>2011-10-16T11:06:23Z</time>
      </trkpt>
      <trkpt lat="45.7693" lon="4.81436">
        <ele>221</ele>
        <time>2011-10-16T11:06:24Z</time>
      </trkpt>
      <trkpt lat="45.76928" lon="4.81438">
        <ele>221</ele>
        <time>2011-10-16T11:06:25Z</time>
      </trkpt>
      <trkpt lat="45.76924" lon="4.8144">
        <ele>220</ele>
        <time>2011-10-16T11:06:26Z</time>
      </trkpt>
      <trkpt lat="45.76921" lon="4.81441">
        <ele>221</ele>
        <time>2011-10-16T11:06:27Z</time>
      </trkpt>
      <trkpt lat="45.76918" lon="4.81445">
        <ele>219</ele>
        <time>2011-10-16T11:06:28Z</time>
      </trkpt>
      <trkpt lat="45.76915" lon="4.81446">
        <ele>220</ele>
        <time>2011-10-16T11:06:29Z</time>
      </trkpt>
      <trkpt lat="45.76911" lon="4.8145">
        <ele>216</ele>
        <time>2011-10-16T11:06:30Z</time>
      </trkpt>
      <trkpt lat="45.76908" lon="4.81451">
        <ele>216</ele>
        <time>2011-10-16T11:06:31Z</time>
      </trkpt>
      <trkpt lat="45.76904" lon="4.81452">
        <ele>217</ele>
        <time>2011-10-16T11:06:32Z</time>
      </trkpt>
      <trkpt lat="45.76901" lon="4.81454">
        <ele>217</ele>
        <time>2011-10-16T11:06:34Z</time>
      </trkpt>
      <trkpt lat="45.76901" lon="4.81454">
        <ele>216.99018859863</ele>
        <time>2011-10-16T11:06:34Z</time>
      </trkpt>
      <trkpt lat="45.76898" lon="4.81456">
        <ele>216.99569702148</ele>
        <time>2011-10-16T11:06:35Z</time>
      </trkpt>
      <trkpt lat="45.76893" lon="4.8146">
        <ele>217</ele>
        <time>2011-10-16T11:06:36Z</time>
      </trkpt>
      <trkpt lat="45.7689" lon="4.81462">
        <ele>217</ele>
        <time>2011-10-16T11:06:37Z</time>
      </trkpt>
      <trkpt lat="45.76888" lon="4.81465">
        <ele>217</ele>
        <time>2011-10-16T11:06:38Z</time>
      </trkpt>
      <trkpt lat="45.76884" lon="4.81467">
        <ele>218</ele>
        <time>2011-10-16T11:06:39Z</time>
      </trkpt>
      <trkpt lat="45.76881" lon="4.81468">
        <ele>219</ele>
        <time>2011-10-16T11:06:40Z</time>
      </trkpt>
      <trkpt lat="45.76877" lon="4.8147">
        <ele>218</ele>
        <time>2011-10-16T11:06:41Z</time>
      </trkpt>
      <trkpt lat="45.76875" lon="4.81472">
        <ele>219</ele>
        <time>2011-10-16T11:06:42Z</time>
      </trkpt>
      <trkpt lat="45.76872" lon="4.81475">
        <ele>217</ele>
        <time>2011-10-16T11:06:43Z</time>
      </trkpt>
      <trkpt lat="45.76868" lon="4.81477">
        <ele>217</ele>
        <time>2011-10-16T11:06:44Z</time>
      </trkpt>
      <trkpt lat="45.76865" lon="4.81479">
        <ele>218</ele>
        <time>2011-10-16T11:06:45Z</time>
      </trkpt>
      <trkpt lat="45.76862" lon="4.81481">
        <ele>218</ele>
        <time>2011-10-16T11:06:46Z</time>
      </trkpt>
      <trkpt lat="45.76859" lon="4.81485">
        <ele>215</ele>
        <time>2011-10-16T11:06:47Z</time>
      </trkpt>
      <trkpt lat="45.76857" lon="4.81489">
        <ele>214</ele>
        <time>2011-10-16T11:06:48Z</time>
      </trkpt>
      <trkpt lat="45.76854" lon="4.81492">
        <ele>213</ele>
        <time>2011-10-16T11:06:49Z</time>
      </trkpt>
      <trkpt lat="45.76851" lon="4.81495">
        <ele>213</ele>
        <time>2011-10-16T11:06:50Z</time>
      </trkpt>
      <trkpt lat="45.7685" lon="4.81498">
        <ele>213</ele>
        <time>2011-10-16T11:06:51Z</time>
      </trkpt>
      <trkpt lat="45.76846" lon="4.81501">
        <ele>213</ele>
        <time>2011-10-16T11:06:52Z</time>
      </trkpt>
      <trkpt lat="45.76844" lon="4.81503">
        <ele>213</ele>
        <time>2011-10-16T11:06:53Z</time>
      </trkpt>
      <trkpt lat="45.76843" lon="4.81506">
        <ele>213</ele>
        <time>2011-10-16T11:06:54Z</time>
      </trkpt>
      <trkpt lat="45.76839" lon="4.81509">
        <ele>213</ele>
        <time>2011-10-16T11:06:55Z</time>
      </trkpt>
      <trkpt lat="45.76838" lon="4.81514">
        <ele>213</ele>
        <time>2011-10-16T11:06:57Z</time>
      </trkpt>
      <trkpt lat="45.76838" lon="4.81514">
        <ele>212.99415588379</ele>
        <time>2011-10-16T11:06:57Z</time>
      </trkpt>
      <trkpt lat="45.76837" lon="4.81515">
        <ele>212.83695983887</ele>
        <time>2011-10-16T11:06:58Z</time>
      </trkpt>
      <trkpt lat="45.76834" lon="4.81524">
        <ele>211.56689453125</ele>
        <time>2011-10-16T11:06:59Z</time>
      </trkpt>
      <trkpt lat="45.76832" lon="4.81532">
        <ele>211</ele>
        <time>2011-10-16T11:07:00Z</time>
      </trkpt>
      <trkpt lat="45.76831" lon="4.81538">
        <ele>210</ele>
        <time>2011-10-16T11:07:01Z</time>
      </trkpt>
      <trkpt lat="45.76829" lon="4.81541">
        <ele>210</ele>
        <time>2011-10-16T11:07:02Z</time>
      </trkpt>
      <trkpt lat="45.76827" lon="4.81545">
        <ele>211</ele>
        <time>2011-10-16T11:07:03Z</time>
      </trkpt>
      <trkpt lat="45.76825" lon="4.81549">
        <ele>212</ele>
        <time>2011-10-16T11:07:04Z</time>
      </trkpt>
      <trkpt lat="45.76823" lon="4.81554">
        <ele>212</ele>
        <time>2011-10-16T11:07:05Z</time>
      </trkpt>
      <trkpt lat="45.76821" lon="4.81557">
        <ele>211</ele>
        <time>2011-10-16T11:07:06Z</time>
      </trkpt>
      <trkpt lat="45.7682" lon="4.81559">
        <ele>211.54272460938</ele>
        <time>2011-10-16T11:07:07Z</time>
      </trkpt>
      <trkpt lat="45.76817" lon="4.81563">
        <ele>212</ele>
        <time>2011-10-16T11:07:08Z</time>
      </trkpt>
      <trkpt lat="45.76815" lon="4.81567">
        <ele>212</ele>
        <time>2011-10-16T11:07:09Z</time>
      </trkpt>
      <trkpt lat="45.76813" lon="4.81571">
        <ele>212</ele>
        <time>2011-10-16T11:07:10Z</time>
      </trkpt>
      <trkpt lat="45.7681" lon="4.81573">
        <ele>212</ele>
        <time>2011-10-16T11:07:11Z</time>
      </trkpt>
      <trkpt lat="45.76809" lon="4.81578">
        <ele>212</ele>
        <time>2011-10-16T11:07:12Z</time>
      </trkpt>
      <trkpt lat="45.76807" lon="4.81581">
        <ele>212</ele>
        <time>2011-10-16T11:07:13Z</time>
      </trkpt>
      <trkpt lat="45.76805" lon="4.81585">
        <ele>212</ele>
        <time>2011-10-16T11:07:14Z</time>
      </trkpt>
      <trkpt lat="45.76802" lon="4.81588">
        <ele>213</ele>
        <time>2011-10-16T11:07:15Z</time>
      </trkpt>
      <trkpt lat="45.76801" lon="4.81593">
        <ele>213</ele>
        <time>2011-10-16T11:07:16Z</time>
      </trkpt>
      <trkpt lat="45.768" lon="4.81597">
        <ele>213</ele>
        <time>2011-10-16T11:07:17Z</time>
      </trkpt>
      <trkpt lat="45.76799" lon="4.81601">
        <ele>213</ele>
        <time>2011-10-16T11:07:18Z</time>
      </trkpt>
      <trkpt lat="45.76798" lon="4.81605">
        <ele>214</ele>
        <time>2011-10-16T11:07:20Z</time>
      </trkpt>
      <trkpt lat="45.76798" lon="4.81605">
        <ele>214</ele>
        <time>2011-10-16T11:07:20Z</time>
      </trkpt>
      <trkpt lat="45.76797" lon="4.81608">
        <ele>214</ele>
        <time>2011-10-16T11:07:21Z</time>
      </trkpt>
      <trkpt lat="45.76795" lon="4.81612">
        <ele>216</ele>
        <time>2011-10-16T11:07:22Z</time>
      </trkpt>
      <trkpt lat="45.76795" lon="4.81614">
        <ele>216</ele>
        <time>2011-10-16T11:07:23Z</time>
      </trkpt>
      <trkpt lat="45.76794" lon="4.81615">
        <ele>216</ele>
        <time>2011-10-16T11:07:24Z</time>
      </trkpt>
      <trkpt lat="45.76794" lon="4.81616">
        <ele>215</ele>
        <time>2011-10-16T11:07:25Z</time>
      </trkpt>
      <trkpt lat="45.76793" lon="4.81618">
        <ele>215</ele>
        <time>2011-10-16T11:07:26Z</time>
      </trkpt>
      <trkpt lat="45.76793" lon="4.8162">
        <ele>214</ele>
        <time>2011-10-16T11:07:27Z</time>
      </trkpt>
      <trkpt lat="45.76793" lon="4.81622">
        <ele>214</ele>
        <time>2011-10-16T11:07:28Z</time>
      </trkpt>
      <trkpt lat="45.76792" lon="4.81624">
        <ele>213</ele>
        <time>2011-10-16T11:07:29Z</time>
      </trkpt>
      <trkpt lat="45.76791" lon="4.81629">
        <ele>213</ele>
        <time>2011-10-16T11:07:30Z</time>
      </trkpt>
      <trkpt lat="45.7679" lon="4.81634">
        <ele>213</ele>
        <time>2011-10-16T11:07:31Z</time>
      </trkpt>
      <trkpt lat="45.76788" lon="4.81638">
        <ele>214</ele>
        <time>2011-10-16T11:07:32Z</time>
      </trkpt>
      <trkpt lat="45.76788" lon="4.81642">
        <ele>214</ele>
        <time>2011-10-16T11:07:33Z</time>
      </trkpt>
      <trkpt lat="45.76787" lon="4.81646">
        <ele>213</ele>
        <time>2011-10-16T11:07:34Z</time>
      </trkpt>
      <trkpt lat="45.76786" lon="4.81651">
        <ele>213</ele>
        <time>2011-10-16T11:07:35Z</time>
      </trkpt>
      <trkpt lat="45.76784" lon="4.81655">
        <ele>213</ele>
        <time>2011-10-16T11:07:36Z</time>
      </trkpt>
      <trkpt lat="45.76782" lon="4.81659">
        <ele>213</ele>
        <time>2011-10-16T11:07:37Z</time>
      </trkpt>
      <trkpt lat="45.76781" lon="4.81664">
        <ele>212</ele>
        <time>2011-10-16T11:07:38Z</time>
      </trkpt>
      <trkpt lat="45.76779" lon="4.81668">
        <ele>212</ele>
        <time>2011-10-16T11:07:39Z</time>
      </trkpt>
      <trkpt lat="45.76778" lon="4.81673">
        <ele>212</ele>
        <time>2011-10-16T11:07:40Z</time>
      </trkpt>
      <trkpt lat="45.76777" lon="4.81677">
        <ele>213</ele>
        <time>2011-10-16T11:07:41Z</time>
      </trkpt>
      <trkpt lat="45.76776" lon="4.81681">
        <ele>213</ele>
        <time>2011-10-16T11:07:43Z</time>
      </trkpt>
      <trkpt lat="45.76776" lon="4.81681">
        <ele>213</ele>
        <time>2011-10-16T11:07:43Z</time>
      </trkpt>
      <trkpt lat="45.76775" lon="4.81683">
        <ele>213</ele>
        <time>2011-10-16T11:07:44Z</time>
      </trkpt>
      <trkpt lat="45.76773" lon="4.81692">
        <ele>213</ele>
        <time>2011-10-16T11:07:45Z</time>
      </trkpt>
      <trkpt lat="45.76772" lon="4.81696">
        <ele>213</ele>
        <time>2011-10-16T11:07:46Z</time>
      </trkpt>
      <trkpt lat="45.76771" lon="4.817">
        <ele>213</ele>
        <time>2011-10-16T11:07:47Z</time>
      </trkpt>
      <trkpt lat="45.7677" lon="4.81703">
        <ele>214</ele>
        <time>2011-10-16T11:07:48Z</time>
      </trkpt>
      <trkpt lat="45.76769" lon="4.81707">
        <ele>214</ele>
        <time>2011-10-16T11:07:49Z</time>
      </trkpt>
      <trkpt lat="45.76769" lon="4.8171">
        <ele>214</ele>
        <time>2011-10-16T11:07:50Z</time>
      </trkpt>
      <trkpt lat="45.76768" lon="4.81713">
        <ele>214</ele>
        <time>2011-10-16T11:07:51Z</time>
      </trkpt>
      <trkpt lat="45.76768" lon="4.81716">
        <ele>214.73709106445</ele>
        <time>2011-10-16T11:07:52Z</time>
      </trkpt>
      <trkpt lat="45.76766" lon="4.8172">
        <ele>215</ele>
        <time>2011-10-16T11:07:53Z</time>
      </trkpt>
      <trkpt lat="45.76765" lon="4.81723">
        <ele>216</ele>
        <time>2011-10-16T11:07:54Z</time>
      </trkpt>
      <trkpt lat="45.76765" lon="4.81726">
        <ele>216</ele>
        <time>2011-10-16T11:07:55Z</time>
      </trkpt>
      <trkpt lat="45.76764" lon="4.8173">
        <ele>215</ele>
        <time>2011-10-16T11:07:56Z</time>
      </trkpt>
      <trkpt lat="45.76763" lon="4.81732">
        <ele>215</ele>
        <time>2011-10-16T11:07:57Z</time>
      </trkpt>
      <trkpt lat="45.76763" lon="4.81733">
        <ele>214</ele>
        <time>2011-10-16T11:07:58Z</time>
      </trkpt>
      <trkpt lat="45.76763" lon="4.81735">
        <ele>214</ele>
        <time>2011-10-16T11:07:59Z</time>
      </trkpt>
      <trkpt lat="45.76763" lon="4.81736">
        <ele>213</ele>
        <time>2011-10-16T11:08:00Z</time>
      </trkpt>
      <trkpt lat="45.76763" lon="4.81738">
        <ele>213</ele>
        <time>2011-10-16T11:08:01Z</time>
      </trkpt>
      <trkpt lat="45.76762" lon="4.8174">
        <ele>212</ele>
        <time>2011-10-16T11:08:02Z</time>
      </trkpt>
      <trkpt lat="45.76762" lon="4.81741">
        <ele>211</ele>
        <time>2011-10-16T11:08:03Z</time>
      </trkpt>
      <trkpt lat="45.76762" lon="4.81742">
        <ele>211</ele>
        <time>2011-10-16T11:08:04Z</time>
      </trkpt>
      <trkpt lat="45.76762" lon="4.81745">
        <ele>210</ele>
        <time>2011-10-16T11:08:06Z</time>
      </trkpt>
      <trkpt lat="45.76762" lon="4.81745">
        <ele>210</ele>
        <time>2011-10-16T11:08:06Z</time>
      </trkpt>
      <trkpt lat="45.76761" lon="4.81749">
        <ele>210</ele>
        <time>2011-10-16T11:08:07Z</time>
      </trkpt>
      <trkpt lat="45.76761" lon="4.81755">
        <ele>210</ele>
        <time>2011-10-16T11:08:08Z</time>
      </trkpt>
      <trkpt lat="45.76759" lon="4.81759">
        <ele>210</ele>
        <time>2011-10-16T11:08:09Z</time>
      </trkpt>
      <trkpt lat="45.76759" lon="4.81763">
        <ele>211</ele>
        <time>2011-10-16T11:08:10Z</time>
      </trkpt>
      <trkpt lat="45.76758" lon="4.81767">
        <ele>211</ele>
        <time>2011-10-16T11:08:11Z</time>
      </trkpt>
      <trkpt lat="45.76758" lon="4.8177">
        <ele>211</ele>
        <time>2011-10-16T11:08:12Z</time>
      </trkpt>
      <trkpt lat="45.76757" lon="4.81775">
        <ele>211</ele>
        <time>2011-10-16T11:08:13Z</time>
      </trkpt>
      <trkpt lat="45.76757" lon="4.81778">
        <ele>212</ele>
        <time>2011-10-16T11:08:14Z</time>
      </trkpt>
      <trkpt lat="45.76757" lon="4.81783">
        <ele>211</ele>
        <time>2011-10-16T11:08:15Z</time>
      </trkpt>
      <trkpt lat="45.76756" lon="4.81788">
        <ele>211</ele>
        <time>2011-10-16T11:08:16Z</time>
      </trkpt>
      <trkpt lat="45.76754" lon="4.81792">
        <ele>212</ele>
        <time>2011-10-16T11:08:17Z</time>
      </trkpt>
      <trkpt lat="45.76754" lon="4.81798">
        <ele>213</ele>
        <time>2011-10-16T11:08:18Z</time>
      </trkpt>
      <trkpt lat="45.76753" lon="4.81802">
        <ele>213</ele>
        <time>2011-10-16T11:08:19Z</time>
      </trkpt>
      <trkpt lat="45.76752" lon="4.81806">
        <ele>213</ele>
        <time>2011-10-16T11:08:20Z</time>
      </trkpt>
      <trkpt lat="45.76752" lon="4.81809">
        <ele>214</ele>
        <time>2011-10-16T11:08:21Z</time>
      </trkpt>
      <trkpt lat="45.76752" lon="4.81813">
        <ele>214</ele>
        <time>2011-10-16T11:08:22Z</time>
      </trkpt>
      <trkpt lat="45.76752" lon="4.81818">
        <ele>215</ele>
        <time>2011-10-16T11:08:23Z</time>
      </trkpt>
      <trkpt lat="45.7675" lon="4.81821">
        <ele>215</ele>
        <time>2011-10-16T11:08:24Z</time>
      </trkpt>
      <trkpt lat="45.7675" lon="4.81825">
        <ele>215</ele>
        <time>2011-10-16T11:08:25Z</time>
      </trkpt>
      <trkpt lat="45.76749" lon="4.81828">
        <ele>216</ele>
        <time>2011-10-16T11:08:26Z</time>
      </trkpt>
      <trkpt lat="45.7675" lon="4.81833">
        <ele>216</ele>
        <time>2011-10-16T11:08:27Z</time>
      </trkpt>
      <trkpt lat="45.76749" lon="4.81836">
        <ele>217</ele>
        <time>2011-10-16T11:08:30Z</time>
      </trkpt>
      <trkpt lat="45.76749" lon="4.81836">
        <ele>217</ele>
        <time>2011-10-16T11:08:30Z</time>
      </trkpt>
      <trkpt lat="45.76749" lon="4.8184">
        <ele>217</ele>
        <time>2011-10-16T11:08:30Z</time>
      </trkpt>
      <trkpt lat="45.76749" lon="4.81844">
        <ele>217</ele>
        <time>2011-10-16T11:08:31Z</time>
      </trkpt>
      <trkpt lat="45.76748" lon="4.81851">
        <ele>217</ele>
        <time>2011-10-16T11:08:32Z</time>
      </trkpt>
      <trkpt lat="45.76749" lon="4.81856">
        <ele>217</ele>
        <time>2011-10-16T11:08:33Z</time>
      </trkpt>
      <trkpt lat="45.76748" lon="4.8186">
        <ele>217</ele>
        <time>2011-10-16T11:08:34Z</time>
      </trkpt>
      <trkpt lat="45.76748" lon="4.81864">
        <ele>217</ele>
        <time>2011-10-16T11:08:35Z</time>
      </trkpt>
      <trkpt lat="45.76748" lon="4.81867">
        <ele>217</ele>
        <time>2011-10-16T11:08:36Z</time>
      </trkpt>
      <trkpt lat="45.76748" lon="4.81867">
        <ele>216</ele>
        <time>2011-10-16T11:08:37Z</time>
      </trkpt>
      <trkpt lat="45.76748" lon="4.8187">
        <ele>216</ele>
        <time>2011-10-16T11:08:38Z</time>
      </trkpt>
      <trkpt lat="45.76748" lon="4.81871">
        <ele>216</ele>
        <time>2011-10-16T11:08:39Z</time>
      </trkpt>
      <trkpt lat="45.76748" lon="4.81872">
        <ele>215</ele>
        <time>2011-10-16T11:08:40Z</time>
      </trkpt>
      <trkpt lat="45.76749" lon="4.81874">
        <ele>214</ele>
        <time>2011-10-16T11:08:41Z</time>
      </trkpt>
      <trkpt lat="45.76749" lon="4.81874">
        <ele>213</ele>
        <time>2011-10-16T11:08:42Z</time>
      </trkpt>
      <trkpt lat="45.7675" lon="4.81876">
        <ele>212</ele>
        <time>2011-10-16T11:08:43Z</time>
      </trkpt>
      <trkpt lat="45.7675" lon="4.81878">
        <ele>211</ele>
        <time>2011-10-16T11:08:44Z</time>
      </trkpt>
      <trkpt lat="45.7675" lon="4.81879">
        <ele>210</ele>
        <time>2011-10-16T11:08:45Z</time>
      </trkpt>
      <trkpt lat="45.7675" lon="4.81881">
        <ele>209</ele>
        <time>2011-10-16T11:08:46Z</time>
      </trkpt>
      <trkpt lat="45.76751" lon="4.81884">
        <ele>209</ele>
        <time>2011-10-16T11:08:47Z</time>
      </trkpt>
      <trkpt lat="45.76752" lon="4.81888">
        <ele>209</ele>
        <time>2011-10-16T11:08:48Z</time>
      </trkpt>
      <trkpt lat="45.76753" lon="4.81892">
        <ele>208</ele>
        <time>2011-10-16T11:08:49Z</time>
      </trkpt>
      <trkpt lat="45.76754" lon="4.81896">
        <ele>208</ele>
        <time>2011-10-16T11:08:50Z</time>
      </trkpt>
      <trkpt lat="45.76755" lon="4.819">
        <ele>208</ele>
        <time>2011-10-16T11:08:52Z</time>
      </trkpt>
      <trkpt lat="45.76755" lon="4.819">
        <ele>208</ele>
        <time>2011-10-16T11:08:52Z</time>
      </trkpt>
      <trkpt lat="45.76756" lon="4.81902">
        <ele>208</ele>
        <time>2011-10-16T11:08:53Z</time>
      </trkpt>
      <trkpt lat="45.76757" lon="4.81911">
        <ele>208</ele>
        <time>2011-10-16T11:08:54Z</time>
      </trkpt>
      <trkpt lat="45.76758" lon="4.81915">
        <ele>208</ele>
        <time>2011-10-16T11:08:55Z</time>
      </trkpt>
      <trkpt lat="45.76758" lon="4.81919">
        <ele>208</ele>
        <time>2011-10-16T11:08:56Z</time>
      </trkpt>
      <trkpt lat="45.76759" lon="4.81923">
        <ele>209</ele>
        <time>2011-10-16T11:08:57Z</time>
      </trkpt>
      <trkpt lat="45.7676" lon="4.81927">
        <ele>209</ele>
        <time>2011-10-16T11:08:58Z</time>
      </trkpt>
      <trkpt lat="45.76761" lon="4.81931">
        <ele>209</ele>
        <time>2011-10-16T11:08:59Z</time>
      </trkpt>
      <trkpt lat="45.76761" lon="4.81936">
        <ele>209</ele>
        <time>2011-10-16T11:09:00Z</time>
      </trkpt>
      <trkpt lat="45.76761" lon="4.8194">
        <ele>209</ele>
        <time>2011-10-16T11:09:01Z</time>
      </trkpt>
      <trkpt lat="45.76761" lon="4.81944">
        <ele>208</ele>
        <time>2011-10-16T11:09:02Z</time>
      </trkpt>
      <trkpt lat="45.76763" lon="4.81947">
        <ele>209</ele>
        <time>2011-10-16T11:09:03Z</time>
      </trkpt>
      <trkpt lat="45.76763" lon="4.81951">
        <ele>209</ele>
        <time>2011-10-16T11:09:04Z</time>
      </trkpt>
      <trkpt lat="45.76764" lon="4.81955">
        <ele>209</ele>
        <time>2011-10-16T11:09:05Z</time>
      </trkpt>
      <trkpt lat="45.76765" lon="4.8196">
        <ele>210</ele>
        <time>2011-10-16T11:09:06Z</time>
      </trkpt>
      <trkpt lat="45.76765" lon="4.81965">
        <ele>211</ele>
        <time>2011-10-16T11:09:07Z</time>
      </trkpt>
      <trkpt lat="45.76765" lon="4.81969">
        <ele>212</ele>
        <time>2011-10-16T11:09:08Z</time>
      </trkpt>
      <trkpt lat="45.76766" lon="4.81973">
        <ele>213</ele>
        <time>2011-10-16T11:09:09Z</time>
      </trkpt>
      <trkpt lat="45.76766" lon="4.81977">
        <ele>213</ele>
        <time>2011-10-16T11:09:10Z</time>
      </trkpt>
      <trkpt lat="45.76767" lon="4.81982">
        <ele>213</ele>
        <time>2011-10-16T11:09:11Z</time>
      </trkpt>
      <trkpt lat="45.76768" lon="4.81985">
        <ele>213</ele>
        <time>2011-10-16T11:09:12Z</time>
      </trkpt>
      <trkpt lat="45.76769" lon="4.81989">
        <ele>213</ele>
        <time>2011-10-16T11:09:13Z</time>
      </trkpt>
      <trkpt lat="45.7677" lon="4.81992">
        <ele>214</ele>
        <time>2011-10-16T11:09:16Z</time>
      </trkpt>
      <trkpt lat="45.7677" lon="4.81992">
        <ele>214</ele>
        <time>2011-10-16T11:09:16Z</time>
      </trkpt>
      <trkpt lat="45.7677" lon="4.81993">
        <ele>213.97866821289</ele>
        <time>2011-10-16T11:09:16Z</time>
      </trkpt>
      <trkpt lat="45.76771" lon="4.82">
        <ele>213.9938659668</ele>
        <time>2011-10-16T11:09:17Z</time>
      </trkpt>
      <trkpt lat="45.76773" lon="4.82007">
        <ele>214</ele>
        <time>2011-10-16T11:09:18Z</time>
      </trkpt>
      <trkpt lat="45.76774" lon="4.8201">
        <ele>214</ele>
        <time>2011-10-16T11:09:19Z</time>
      </trkpt>
      <trkpt lat="45.76774" lon="4.82013">
        <ele>216</ele>
        <time>2011-10-16T11:09:20Z</time>
      </trkpt>
      <trkpt lat="45.76775" lon="4.82017">
        <ele>215</ele>
        <time>2011-10-16T11:09:21Z</time>
      </trkpt>
      <trkpt lat="45.76776" lon="4.8202">
        <ele>215</ele>
        <time>2011-10-16T11:09:22Z</time>
      </trkpt>
      <trkpt lat="45.76777" lon="4.82022">
        <ele>215</ele>
        <time>2011-10-16T11:09:23Z</time>
      </trkpt>
      <trkpt lat="45.76777" lon="4.82026">
        <ele>216</ele>
        <time>2011-10-16T11:09:24Z</time>
      </trkpt>
      <trkpt lat="45.76778" lon="4.8203">
        <ele>216</ele>
        <time>2011-10-16T11:09:25Z</time>
      </trkpt>
      <trkpt lat="45.76778" lon="4.82034">
        <ele>216</ele>
        <time>2011-10-16T11:09:26Z</time>
      </trkpt>
      <trkpt lat="45.76779" lon="4.82037">
        <ele>217</ele>
        <time>2011-10-16T11:09:27Z</time>
      </trkpt>
      <trkpt lat="45.76779" lon="4.82041">
        <ele>218</ele>
        <time>2011-10-16T11:09:28Z</time>
      </trkpt>
      <trkpt lat="45.7678" lon="4.82045">
        <ele>218</ele>
        <time>2011-10-16T11:09:29Z</time>
      </trkpt>
      <trkpt lat="45.76779" lon="4.82049">
        <ele>218</ele>
        <time>2011-10-16T11:09:30Z</time>
      </trkpt>
      <trkpt lat="45.76779" lon="4.82053">
        <ele>218</ele>
        <time>2011-10-16T11:09:31Z</time>
      </trkpt>
      <trkpt lat="45.7678" lon="4.82057">
        <ele>218</ele>
        <time>2011-10-16T11:09:32Z</time>
      </trkpt>
      <trkpt lat="45.76781" lon="4.8206">
        <ele>218</ele>
        <time>2011-10-16T11:09:33Z</time>
      </trkpt>
      <trkpt lat="45.76782" lon="4.82065">
        <ele>217</ele>
        <time>2011-10-16T11:09:34Z</time>
      </trkpt>
      <trkpt lat="45.76783" lon="4.82069">
        <ele>217</ele>
        <time>2011-10-16T11:09:35Z</time>
      </trkpt>
      <trkpt lat="45.76785" lon="4.82073">
        <ele>217</ele>
        <time>2011-10-16T11:09:36Z</time>
      </trkpt>
      <trkpt lat="45.76785" lon="4.82077">
        <ele>217</ele>
        <time>2011-10-16T11:09:38Z</time>
      </trkpt>
      <trkpt lat="45.76785" lon="4.82077">
        <ele>217.00494384766</ele>
        <time>2011-10-16T11:09:38Z</time>
      </trkpt>
      <trkpt lat="45.76785" lon="4.8208">
        <ele>217.46905517578</ele>
        <time>2011-10-16T11:09:39Z</time>
      </trkpt>
      <trkpt lat="45.76786" lon="4.82088">
        <ele>218</ele>
        <time>2011-10-16T11:09:40Z</time>
      </trkpt>
      <trkpt lat="45.76786" lon="4.82092">
        <ele>218</ele>
        <time>2011-10-16T11:09:41Z</time>
      </trkpt>
      <trkpt lat="45.76787" lon="4.82095">
        <ele>219</ele>
        <time>2011-10-16T11:09:42Z</time>
      </trkpt>
      <trkpt lat="45.76787" lon="4.82099">
        <ele>220</ele>
        <time>2011-10-16T11:09:43Z</time>
      </trkpt>
      <trkpt lat="45.76788" lon="4.82102">
        <ele>219</ele>
        <time>2011-10-16T11:09:44Z</time>
      </trkpt>
      <trkpt lat="45.76788" lon="4.82106">
        <ele>219</ele>
        <time>2011-10-16T11:09:45Z</time>
      </trkpt>
      <trkpt lat="45.76789" lon="4.82109">
        <ele>219</ele>
        <time>2011-10-16T11:09:46Z</time>
      </trkpt>
      <trkpt lat="45.76791" lon="4.82113">
        <ele>219</ele>
        <time>2011-10-16T11:09:47Z</time>
      </trkpt>
      <trkpt lat="45.76792" lon="4.82117">
        <ele>218</ele>
        <time>2011-10-16T11:09:48Z</time>
      </trkpt>
      <trkpt lat="45.76792" lon="4.82121">
        <ele>218</ele>
        <time>2011-10-16T11:09:49Z</time>
      </trkpt>
      <trkpt lat="45.76793" lon="4.82125">
        <ele>217</ele>
        <time>2011-10-16T11:09:50Z</time>
      </trkpt>
      <trkpt lat="45.76794" lon="4.82129">
        <ele>217</ele>
        <time>2011-10-16T11:09:51Z</time>
      </trkpt>
      <trkpt lat="45.76795" lon="4.82134">
        <ele>217</ele>
        <time>2011-10-16T11:09:52Z</time>
      </trkpt>
      <trkpt lat="45.76796" lon="4.82137">
        <ele>216</ele>
        <time>2011-10-16T11:09:53Z</time>
      </trkpt>
      <trkpt lat="45.76797" lon="4.8214">
        <ele>215</ele>
        <time>2011-10-16T11:09:54Z</time>
      </trkpt>
      <trkpt lat="45.76798" lon="4.82144">
        <ele>215</ele>
        <time>2011-10-16T11:09:55Z</time>
      </trkpt>
      <trkpt lat="45.76799" lon="4.82148">
        <ele>214</ele>
        <time>2011-10-16T11:09:56Z</time>
      </trkpt>
      <trkpt lat="45.76799" lon="4.82152">
        <ele>214</ele>
        <time>2011-10-16T11:09:57Z</time>
      </trkpt>
      <trkpt lat="45.768" lon="4.82156">
        <ele>214</ele>
        <time>2011-10-16T11:09:58Z</time>
      </trkpt>
      <trkpt lat="45.76801" lon="4.82161">
        <ele>214</ele>
        <time>2011-10-16T11:09:59Z</time>
      </trkpt>
      <trkpt lat="45.76801" lon="4.82166">
        <ele>214</ele>
        <time>2011-10-16T11:10:02Z</time>
      </trkpt>
      <trkpt lat="45.76801" lon="4.82166">
        <ele>213.99681091309</ele>
        <time>2011-10-16T11:10:02Z</time>
      </trkpt>
      <trkpt lat="45.76801" lon="4.82166">
        <ele>213.99310302734</ele>
        <time>2011-10-16T11:10:02Z</time>
      </trkpt>
      <trkpt lat="45.76802" lon="4.8217">
        <ele>213.32086181641</ele>
        <time>2011-10-16T11:10:03Z</time>
      </trkpt>
      <trkpt lat="45.76803" lon="4.82181">
        <ele>212.19454956055</ele>
        <time>2011-10-16T11:10:04Z</time>
      </trkpt>
      <trkpt lat="45.76803" lon="4.82187">
        <ele>212</ele>
        <time>2011-10-16T11:10:05Z</time>
      </trkpt>
      <trkpt lat="45.76805" lon="4.8219">
        <ele>212</ele>
        <time>2011-10-16T11:10:06Z</time>
      </trkpt>
      <trkpt lat="45.76805" lon="4.82195">
        <ele>213</ele>
        <time>2011-10-16T11:10:07Z</time>
      </trkpt>
      <trkpt lat="45.76805" lon="4.82198">
        <ele>212</ele>
        <time>2011-10-16T11:10:08Z</time>
      </trkpt>
      <trkpt lat="45.76806" lon="4.82203">
        <ele>212</ele>
        <time>2011-10-16T11:10:09Z</time>
      </trkpt>
      <trkpt lat="45.76807" lon="4.82207">
        <ele>212</ele>
        <time>2011-10-16T11:10:10Z</time>
      </trkpt>
      <trkpt lat="45.76807" lon="4.82211">
        <ele>212</ele>
        <time>2011-10-16T11:10:11Z</time>
      </trkpt>
      <trkpt lat="45.76807" lon="4.82215">
        <ele>212</ele>
        <time>2011-10-16T11:10:12Z</time>
      </trkpt>
      <trkpt lat="45.76808" lon="4.82219">
        <ele>212</ele>
        <time>2011-10-16T11:10:13Z</time>
      </trkpt>
      <trkpt lat="45.76809" lon="4.82223">
        <ele>213</ele>
        <time>2011-10-16T11:10:14Z</time>
      </trkpt>
      <trkpt lat="45.7681" lon="4.82227">
        <ele>213</ele>
        <time>2011-10-16T11:10:15Z</time>
      </trkpt>
      <trkpt lat="45.7681" lon="4.82232">
        <ele>214</ele>
        <time>2011-10-16T11:10:16Z</time>
      </trkpt>
      <trkpt lat="45.7681" lon="4.82235">
        <ele>214</ele>
        <time>2011-10-16T11:10:17Z</time>
      </trkpt>
      <trkpt lat="45.7681" lon="4.8224">
        <ele>214</ele>
        <time>2011-10-16T11:10:18Z</time>
      </trkpt>
      <trkpt lat="45.76811" lon="4.82244">
        <ele>214</ele>
        <time>2011-10-16T11:10:19Z</time>
      </trkpt>
      <trkpt lat="45.76811" lon="4.82248">
        <ele>214</ele>
        <time>2011-10-16T11:10:20Z</time>
      </trkpt>
      <trkpt lat="45.76811" lon="4.82252">
        <ele>215</ele>
        <time>2011-10-16T11:10:21Z</time>
      </trkpt>
      <trkpt lat="45.76811" lon="4.82256">
        <ele>215</ele>
        <time>2011-10-16T11:10:22Z</time>
      </trkpt>
      <trkpt lat="45.76812" lon="4.82259">
        <ele>215</ele>
        <time>2011-10-16T11:10:23Z</time>
      </trkpt>
      <trkpt lat="45.76813" lon="4.82262">
        <ele>215</ele>
        <time>2011-10-16T11:10:25Z</time>
      </trkpt>
      <trkpt lat="45.76813" lon="4.82262">
        <ele>215</ele>
        <time>2011-10-16T11:10:25Z</time>
      </trkpt>
      <trkpt lat="45.76813" lon="4.82265">
        <ele>215</ele>
        <time>2011-10-16T11:10:26Z</time>
      </trkpt>
      <trkpt lat="45.76815" lon="4.82275">
        <ele>215</ele>
        <time>2011-10-16T11:10:27Z</time>
      </trkpt>
      <trkpt lat="45.76815" lon="4.82278">
        <ele>215</ele>
        <time>2011-10-16T11:10:28Z</time>
      </trkpt>
      <trkpt lat="45.76816" lon="4.82282">
        <ele>216</ele>
        <time>2011-10-16T11:10:29Z</time>
      </trkpt>
      <trkpt lat="45.76817" lon="4.82286">
        <ele>216</ele>
        <time>2011-10-16T11:10:30Z</time>
      </trkpt>
      <trkpt lat="45.76818" lon="4.82291">
        <ele>216</ele>
        <time>2011-10-16T11:10:31Z</time>
      </trkpt>
      <trkpt lat="45.76818" lon="4.82295">
        <ele>215</ele>
        <time>2011-10-16T11:10:32Z</time>
      </trkpt>
      <trkpt lat="45.7682" lon="4.82299">
        <ele>216</ele>
        <time>2011-10-16T11:10:33Z</time>
      </trkpt>
      <trkpt lat="45.7682" lon="4.82303">
        <ele>216</ele>
        <time>2011-10-16T11:10:34Z</time>
      </trkpt>
      <trkpt lat="45.7682" lon="4.82308">
        <ele>216</ele>
        <time>2011-10-16T11:10:35Z</time>
      </trkpt>
      <trkpt lat="45.7682" lon="4.8231">
        <ele>216.52429199219</ele>
        <time>2011-10-16T11:10:36Z</time>
      </trkpt>
      <trkpt lat="45.76821" lon="4.82317">
        <ele>217</ele>
        <time>2011-10-16T11:10:37Z</time>
      </trkpt>
      <trkpt lat="45.76822" lon="4.82321">
        <ele>217</ele>
        <time>2011-10-16T11:10:38Z</time>
      </trkpt>
      <trkpt lat="45.76822" lon="4.82324">
        <ele>217</ele>
        <time>2011-10-16T11:10:39Z</time>
      </trkpt>
      <trkpt lat="45.76822" lon="4.82328">
        <ele>217</ele>
        <time>2011-10-16T11:10:40Z</time>
      </trkpt>
      <trkpt lat="45.76822" lon="4.82332">
        <ele>217</ele>
        <time>2011-10-16T11:10:41Z</time>
      </trkpt>
      <trkpt lat="45.76823" lon="4.82336">
        <ele>217</ele>
        <time>2011-10-16T11:10:42Z</time>
      </trkpt>
      <trkpt lat="45.76823" lon="4.8234">
        <ele>217</ele>
        <time>2011-10-16T11:10:43Z</time>
      </trkpt>
      <trkpt lat="45.76823" lon="4.82344">
        <ele>217</ele>
        <time>2011-10-16T11:10:44Z</time>
      </trkpt>
      <trkpt lat="45.76823" lon="4.82348">
        <ele>217</ele>
        <time>2011-10-16T11:10:45Z</time>
      </trkpt>
      <trkpt lat="45.76824" lon="4.82352">
        <ele>217</ele>
        <time>2011-10-16T11:10:46Z</time>
      </trkpt>
      <trkpt lat="45.76824" lon="4.82356">
        <ele>217</ele>
        <time>2011-10-16T11:10:48Z</time>
      </trkpt>
      <trkpt lat="45.76824" lon="4.82356">
        <ele>217.00402832031</ele>
        <time>2011-10-16T11:10:48Z</time>
      </trkpt>
      <trkpt lat="45.76825" lon="4.82358">
        <ele>217.23773193359</ele>
        <time>2011-10-16T11:10:49Z</time>
      </trkpt>
      <trkpt lat="45.76827" lon="4.82367">
        <ele>218.90467834473</ele>
        <time>2011-10-16T11:10:50Z</time>
      </trkpt>
      <trkpt lat="45.76829" lon="4.82371">
        <ele>219</ele>
        <time>2011-10-16T11:10:51Z</time>
      </trkpt>
      <trkpt lat="45.76829" lon="4.82374">
        <ele>220</ele>
        <time>2011-10-16T11:10:52Z</time>
      </trkpt>
      <trkpt lat="45.7683" lon="4.82378">
        <ele>220</ele>
        <time>2011-10-16T11:10:53Z</time>
      </trkpt>
      <trkpt lat="45.7683" lon="4.82382">
        <ele>219</ele>
        <time>2011-10-16T11:10:54Z</time>
      </trkpt>
      <trkpt lat="45.7683" lon="4.82387">
        <ele>219</ele>
        <time>2011-10-16T11:10:55Z</time>
      </trkpt>
      <trkpt lat="45.76831" lon="4.8239">
        <ele>219</ele>
        <time>2011-10-16T11:10:56Z</time>
      </trkpt>
      <trkpt lat="45.76831" lon="4.82394">
        <ele>219</ele>
        <time>2011-10-16T11:10:57Z</time>
      </trkpt>
      <trkpt lat="45.76832" lon="4.82399">
        <ele>219</ele>
        <time>2011-10-16T11:10:58Z</time>
      </trkpt>
      <trkpt lat="45.76832" lon="4.82403">
        <ele>219</ele>
        <time>2011-10-16T11:10:59Z</time>
      </trkpt>
      <trkpt lat="45.76832" lon="4.82407">
        <ele>218</ele>
        <time>2011-10-16T11:11:00Z</time>
      </trkpt>
      <trkpt lat="45.76832" lon="4.8241">
        <ele>219</ele>
        <time>2011-10-16T11:11:01Z</time>
      </trkpt>
      <trkpt lat="45.76833" lon="4.82414">
        <ele>219</ele>
        <time>2011-10-16T11:11:02Z</time>
      </trkpt>
      <trkpt lat="45.76834" lon="4.82418">
        <ele>218</ele>
        <time>2011-10-16T11:11:03Z</time>
      </trkpt>
      <trkpt lat="45.76835" lon="4.82421">
        <ele>218</ele>
        <time>2011-10-16T11:11:04Z</time>
      </trkpt>
      <trkpt lat="45.76836" lon="4.82424">
        <ele>218</ele>
        <time>2011-10-16T11:11:05Z</time>
      </trkpt>
      <trkpt lat="45.76837" lon="4.82427">
        <ele>218</ele>
        <time>2011-10-16T11:11:06Z</time>
      </trkpt>
      <trkpt lat="45.76838" lon="4.8243">
        <ele>218</ele>
        <time>2011-10-16T11:11:07Z</time>
      </trkpt>
      <trkpt lat="45.7684" lon="4.82434">
        <ele>218</ele>
        <time>2011-10-16T11:11:08Z</time>
      </trkpt>
      <trkpt lat="45.76842" lon="4.82438">
        <ele>218</ele>
        <time>2011-10-16T11:11:11Z</time>
      </trkpt>
      <trkpt lat="45.76842" lon="4.82438">
        <ele>218</ele>
        <time>2011-10-16T11:11:11Z</time>
      </trkpt>
      <trkpt lat="45.76842" lon="4.82438">
        <ele>218</ele>
        <time>2011-10-16T11:11:11Z</time>
      </trkpt>
      <trkpt lat="45.76845" lon="4.82443">
        <ele>217.49244689941</ele>
        <time>2011-10-16T11:11:12Z</time>
      </trkpt>
      <trkpt lat="45.76846" lon="4.82451">
        <ele>217</ele>
        <time>2011-10-16T11:11:13Z</time>
      </trkpt>
      <trkpt lat="45.76846" lon="4.82455">
        <ele>216</ele>
        <time>2011-10-16T11:11:14Z</time>
      </trkpt>
      <trkpt lat="45.76846" lon="4.82458">
        <ele>216</ele>
        <time>2011-10-16T11:11:15Z</time>
      </trkpt>
      <trkpt lat="45.76846" lon="4.82461">
        <ele>216</ele>
        <time>2011-10-16T11:11:16Z</time>
      </trkpt>
      <trkpt lat="45.76848" lon="4.82463">
        <ele>216</ele>
        <time>2011-10-16T11:11:17Z</time>
      </trkpt>
      <trkpt lat="45.76849" lon="4.82467">
        <ele>216</ele>
        <time>2011-10-16T11:11:18Z</time>
      </trkpt>
      <trkpt lat="45.7685" lon="4.82468">
        <ele>216</ele>
        <time>2011-10-16T11:11:19Z</time>
      </trkpt>
      <trkpt lat="45.76851" lon="4.82469">
        <ele>216</ele>
        <time>2011-10-16T11:11:20Z</time>
      </trkpt>
      <trkpt lat="45.76853" lon="4.82469">
        <ele>216</ele>
        <time>2011-10-16T11:11:21Z</time>
      </trkpt>
      <trkpt lat="45.76855" lon="4.82469">
        <ele>216</ele>
        <time>2011-10-16T11:11:22Z</time>
      </trkpt>
      <trkpt lat="45.76857" lon="4.8247">
        <ele>216</ele>
        <time>2011-10-16T11:11:23Z</time>
      </trkpt>
      <trkpt lat="45.7686" lon="4.8247">
        <ele>217</ele>
        <time>2011-10-16T11:11:24Z</time>
      </trkpt>
      <trkpt lat="45.76861" lon="4.82471">
        <ele>217</ele>
        <time>2011-10-16T11:11:25Z</time>
      </trkpt>
      <trkpt lat="45.76863" lon="4.8247">
        <ele>217</ele>
        <time>2011-10-16T11:11:26Z</time>
      </trkpt>
      <trkpt lat="45.76865" lon="4.82471">
        <ele>217</ele>
        <time>2011-10-16T11:11:27Z</time>
      </trkpt>
      <trkpt lat="45.76867" lon="4.82473">
        <ele>217</ele>
        <time>2011-10-16T11:11:28Z</time>
      </trkpt>
      <trkpt lat="45.76869" lon="4.82474">
        <ele>217</ele>
        <time>2011-10-16T11:11:29Z</time>
      </trkpt>
      <trkpt lat="45.76871" lon="4.82475">
        <ele>217</ele>
        <time>2011-10-16T11:11:30Z</time>
      </trkpt>
      <trkpt lat="45.76873" lon="4.82476">
        <ele>217</ele>
        <time>2011-10-16T11:11:31Z</time>
      </trkpt>
      <trkpt lat="45.76873" lon="4.82478">
        <ele>218</ele>
        <time>2011-10-16T11:11:34Z</time>
      </trkpt>
      <trkpt lat="45.76873" lon="4.82478">
        <ele>218</ele>
        <time>2011-10-16T11:11:34Z</time>
      </trkpt>
      <trkpt lat="45.76873" lon="4.82479">
        <ele>218</ele>
        <time>2011-10-16T11:11:34Z</time>
      </trkpt>
      <trkpt lat="45.76872" lon="4.8248">
        <ele>218</ele>
        <time>2011-10-16T11:11:35Z</time>
      </trkpt>
      <trkpt lat="45.76872" lon="4.8248">
        <ele>218</ele>
        <time>2011-10-16T11:11:36Z</time>
      </trkpt>
      <trkpt lat="45.76872" lon="4.8248">
        <ele>218</ele>
        <time>2011-10-16T11:11:37Z</time>
      </trkpt>
      <trkpt lat="45.76873" lon="4.8248">
        <ele>218</ele>
        <time>2011-10-16T11:11:38Z</time>
      </trkpt>
      <trkpt lat="45.76874" lon="4.8248">
        <ele>218</ele>
        <time>2011-10-16T11:11:39Z</time>
      </trkpt>
      <trkpt lat="45.76876" lon="4.82481">
        <ele>218</ele>
        <time>2011-10-16T11:11:40Z</time>
      </trkpt>
      <trkpt lat="45.76877" lon="4.82482">
        <ele>219</ele>
        <time>2011-10-16T11:11:41Z</time>
      </trkpt>
      <trkpt lat="45.76877" lon="4.82482">
        <ele>219</ele>
        <time>2011-10-16T11:11:42Z</time>
      </trkpt>
      <trkpt lat="45.76877" lon="4.82483">
        <ele>219</ele>
        <time>2011-10-16T11:11:43Z</time>
      </trkpt>
      <trkpt lat="45.76879" lon="4.82484">
        <ele>219</ele>
        <time>2011-10-16T11:11:44Z</time>
      </trkpt>
      <trkpt lat="45.7688" lon="4.82485">
        <ele>219</ele>
        <time>2011-10-16T11:11:45Z</time>
      </trkpt>
      <trkpt lat="45.7688" lon="4.82484">
        <ele>220</ele>
        <time>2011-10-16T11:11:46Z</time>
      </trkpt>
      <trkpt lat="45.76881" lon="4.82483">
        <ele>220</ele>
        <time>2011-10-16T11:11:47Z</time>
      </trkpt>
      <trkpt lat="45.76881" lon="4.82483">
        <ele>220</ele>
        <time>2011-10-16T11:11:48Z</time>
      </trkpt>
      <trkpt lat="45.76884" lon="4.8248">
        <ele>220</ele>
        <time>2011-10-16T11:11:49Z</time>
      </trkpt>
      <trkpt lat="45.76891" lon="4.82478">
        <ele>220</ele>
        <time>2011-10-16T11:11:50Z</time>
      </trkpt>
      <trkpt lat="45.76892" lon="4.82476">
        <ele>220</ele>
        <time>2011-10-16T11:11:51Z</time>
      </trkpt>
      <trkpt lat="45.76892" lon="4.82475">
        <ele>221</ele>
        <time>2011-10-16T11:11:52Z</time>
      </trkpt>
      <trkpt lat="45.76893" lon="4.82473">
        <ele>222</ele>
        <time>2011-10-16T11:11:53Z</time>
      </trkpt>
      <trkpt lat="45.76895" lon="4.8247">
        <ele>223</ele>
        <time>2011-10-16T11:11:54Z</time>
      </trkpt>
      <trkpt lat="45.76896" lon="4.82466">
        <ele>224</ele>
        <time>2011-10-16T11:11:56Z</time>
      </trkpt>
      <trkpt lat="45.76896" lon="4.82466">
        <ele>224</ele>
        <time>2011-10-16T11:11:56Z</time>
      </trkpt>
      <trkpt lat="45.76899" lon="4.8246">
        <ele>225</ele>
        <time>2011-10-16T11:11:57Z</time>
      </trkpt>
      <trkpt lat="45.76901" lon="4.82458">
        <ele>226</ele>
        <time>2011-10-16T11:11:58Z</time>
      </trkpt>
      <trkpt lat="45.76904" lon="4.82454">
        <ele>228</ele>
        <time>2011-10-16T11:11:59Z</time>
      </trkpt>
      <trkpt lat="45.76906" lon="4.82452">
        <ele>230</ele>
        <time>2011-10-16T11:12:00Z</time>
      </trkpt>
      <trkpt lat="45.76906" lon="4.82452">
        <ele>230</ele>
        <time>2011-10-16T11:12:01Z</time>
      </trkpt>
      <trkpt lat="45.76907" lon="4.82453">
        <ele>231</ele>
        <time>2011-10-16T11:12:02Z</time>
      </trkpt>
      <trkpt lat="45.76908" lon="4.82454">
        <ele>230</ele>
        <time>2011-10-16T11:12:03Z</time>
      </trkpt>
      <trkpt lat="45.76909" lon="4.82454">
        <ele>230</ele>
        <time>2011-10-16T11:12:04Z</time>
      </trkpt>
      <trkpt lat="45.76909" lon="4.82455">
        <ele>230</ele>
        <time>2011-10-16T11:12:05Z</time>
      </trkpt>
      <trkpt lat="45.7691" lon="4.82455">
        <ele>230</ele>
        <time>2011-10-16T11:12:06Z</time>
      </trkpt>
      <trkpt lat="45.76912" lon="4.82455">
        <ele>231</ele>
        <time>2011-10-16T11:12:07Z</time>
      </trkpt>
      <trkpt lat="45.76912" lon="4.82456">
        <ele>231</ele>
        <time>2011-10-16T11:12:08Z</time>
      </trkpt>
      <trkpt lat="45.76912" lon="4.82458">
        <ele>231</ele>
        <time>2011-10-16T11:12:09Z</time>
      </trkpt>
      <trkpt lat="45.76913" lon="4.82459">
        <ele>231</ele>
        <time>2011-10-16T11:12:10Z</time>
      </trkpt>
      <trkpt lat="45.76918" lon="4.82459">
        <ele>232</ele>
        <time>2011-10-16T11:12:11Z</time>
      </trkpt>
      <trkpt lat="45.7692" lon="4.82461">
        <ele>233</ele>
        <time>2011-10-16T11:12:12Z</time>
      </trkpt>
      <trkpt lat="45.76921" lon="4.82462">
        <ele>233</ele>
        <time>2011-10-16T11:12:13Z</time>
      </trkpt>
      <trkpt lat="45.76921" lon="4.82464">
        <ele>233</ele>
        <time>2011-10-16T11:12:14Z</time>
      </trkpt>
      <trkpt lat="45.76921" lon="4.82465">
        <ele>234</ele>
        <time>2011-10-16T11:12:15Z</time>
      </trkpt>
      <trkpt lat="45.76923" lon="4.82464">
        <ele>234</ele>
        <time>2011-10-16T11:12:16Z</time>
      </trkpt>
      <trkpt lat="45.76923" lon="4.82464">
        <ele>234</ele>
        <time>2011-10-16T11:12:17Z</time>
      </trkpt>
      <trkpt lat="45.76924" lon="4.82463">
        <ele>234</ele>
        <time>2011-10-16T11:12:19Z</time>
      </trkpt>
      <trkpt lat="45.76924" lon="4.82463">
        <ele>234</ele>
        <time>2011-10-16T11:12:19Z</time>
      </trkpt>
      <trkpt lat="45.76925" lon="4.8246">
        <ele>234</ele>
        <time>2011-10-16T11:12:20Z</time>
      </trkpt>
      <trkpt lat="45.76926" lon="4.82455">
        <ele>234</ele>
        <time>2011-10-16T11:12:21Z</time>
      </trkpt>
      <trkpt lat="45.76927" lon="4.82453">
        <ele>234</ele>
        <time>2011-10-16T11:12:22Z</time>
      </trkpt>
      <trkpt lat="45.76929" lon="4.82449">
        <ele>234</ele>
        <time>2011-10-16T11:12:23Z</time>
      </trkpt>
      <trkpt lat="45.7693" lon="4.82447">
        <ele>234</ele>
        <time>2011-10-16T11:12:24Z</time>
      </trkpt>
      <trkpt lat="45.7693" lon="4.82442">
        <ele>234</ele>
        <time>2011-10-16T11:12:25Z</time>
      </trkpt>
      <trkpt lat="45.76931" lon="4.82438">
        <ele>234</ele>
        <time>2011-10-16T11:12:26Z</time>
      </trkpt>
      <trkpt lat="45.76931" lon="4.82436">
        <ele>234</ele>
        <time>2011-10-16T11:12:27Z</time>
      </trkpt>
      <trkpt lat="45.7693" lon="4.82433">
        <ele>234</ele>
        <time>2011-10-16T11:12:28Z</time>
      </trkpt>
      <trkpt lat="45.76931" lon="4.82428">
        <ele>234</ele>
        <time>2011-10-16T11:12:29Z</time>
      </trkpt>
      <trkpt lat="45.76932" lon="4.82424">
        <ele>234</ele>
        <time>2011-10-16T11:12:30Z</time>
      </trkpt>
      <trkpt lat="45.76929" lon="4.82423">
        <ele>235</ele>
        <time>2011-10-16T11:12:31Z</time>
      </trkpt>
      <trkpt lat="45.76927" lon="4.8242">
        <ele>235</ele>
        <time>2011-10-16T11:12:32Z</time>
      </trkpt>
      <trkpt lat="45.76925" lon="4.8242">
        <ele>236</ele>
        <time>2011-10-16T11:12:33Z</time>
      </trkpt>
      <trkpt lat="45.76922" lon="4.82417">
        <ele>236</ele>
        <time>2011-10-16T11:12:34Z</time>
      </trkpt>
      <trkpt lat="45.76919" lon="4.82415">
        <ele>237</ele>
        <time>2011-10-16T11:12:35Z</time>
      </trkpt>
      <trkpt lat="45.76919" lon="4.82413">
        <ele>237</ele>
        <time>2011-10-16T11:12:36Z</time>
      </trkpt>
      <trkpt lat="45.76918" lon="4.82411">
        <ele>238</ele>
        <time>2011-10-16T11:12:37Z</time>
      </trkpt>
      <trkpt lat="45.76917" lon="4.82409">
        <ele>238</ele>
        <time>2011-10-16T11:12:38Z</time>
      </trkpt>
      <trkpt lat="45.76918" lon="4.82407">
        <ele>242</ele>
        <time>2011-10-16T11:12:39Z</time>
      </trkpt>
      <trkpt lat="45.76917" lon="4.82405">
        <ele>243</ele>
        <time>2011-10-16T11:12:40Z</time>
      </trkpt>
      <trkpt lat="45.76916" lon="4.82404">
        <ele>244</ele>
        <time>2011-10-16T11:12:42Z</time>
      </trkpt>
      <trkpt lat="45.76916" lon="4.82404">
        <ele>244.00401306152</ele>
        <time>2011-10-16T11:12:42Z</time>
      </trkpt>
      <trkpt lat="45.76915" lon="4.82404">
        <ele>244.29975891113</ele>
        <time>2011-10-16T11:12:43Z</time>
      </trkpt>
      <trkpt lat="45.76912" lon="4.82401">
        <ele>245</ele>
        <time>2011-10-16T11:12:44Z</time>
      </trkpt>
      <trkpt lat="45.7691" lon="4.82399">
        <ele>245</ele>
        <time>2011-10-16T11:12:45Z</time>
      </trkpt>
      <trkpt lat="45.76909" lon="4.82399">
        <ele>246</ele>
        <time>2011-10-16T11:12:46Z</time>
      </trkpt>
      <trkpt lat="45.76906" lon="4.824">
        <ele>247</ele>
        <time>2011-10-16T11:12:47Z</time>
      </trkpt>
      <trkpt lat="45.76903" lon="4.82399">
        <ele>248</ele>
        <time>2011-10-16T11:12:48Z</time>
      </trkpt>
      <trkpt lat="45.76901" lon="4.82399">
        <ele>249</ele>
        <time>2011-10-16T11:12:49Z</time>
      </trkpt>
      <trkpt lat="45.76899" lon="4.82397">
        <ele>249</ele>
        <time>2011-10-16T11:12:50Z</time>
      </trkpt>
      <trkpt lat="45.76897" lon="4.82397">
        <ele>249</ele>
        <time>2011-10-16T11:12:51Z</time>
      </trkpt>
      <trkpt lat="45.76896" lon="4.82396">
        <ele>249</ele>
        <time>2011-10-16T11:12:52Z</time>
      </trkpt>
      <trkpt lat="45.76894" lon="4.82394">
        <ele>249</ele>
        <time>2011-10-16T11:12:53Z</time>
      </trkpt>
      <trkpt lat="45.76891" lon="4.82393">
        <ele>249</ele>
        <time>2011-10-16T11:12:54Z</time>
      </trkpt>
      <trkpt lat="45.76889" lon="4.82393">
        <ele>249</ele>
        <time>2011-10-16T11:12:55Z</time>
      </trkpt>
      <trkpt lat="45.76887" lon="4.82392">
        <ele>250</ele>
        <time>2011-10-16T11:12:56Z</time>
      </trkpt>
      <trkpt lat="45.76887" lon="4.8239">
        <ele>250</ele>
        <time>2011-10-16T11:12:57Z</time>
      </trkpt>
      <trkpt lat="45.76885" lon="4.82389">
        <ele>250</ele>
        <time>2011-10-16T11:12:58Z</time>
      </trkpt>
      <trkpt lat="45.76884" lon="4.82388">
        <ele>249</ele>
        <time>2011-10-16T11:12:59Z</time>
      </trkpt>
      <trkpt lat="45.76883" lon="4.82387">
        <ele>249</ele>
        <time>2011-10-16T11:13:00Z</time>
      </trkpt>
      <trkpt lat="45.76882" lon="4.82387">
        <ele>248</ele>
        <time>2011-10-16T11:13:01Z</time>
      </trkpt>
      <trkpt lat="45.76881" lon="4.82388">
        <ele>245</ele>
        <time>2011-10-16T11:13:02Z</time>
      </trkpt>
      <trkpt lat="45.76883" lon="4.8239">
        <ele>245</ele>
        <time>2011-10-16T11:13:03Z</time>
      </trkpt>
      <trkpt lat="45.76884" lon="4.82391">
        <ele>245</ele>
        <time>2011-10-16T11:13:05Z</time>
      </trkpt>
      <trkpt lat="45.76884" lon="4.82391">
        <ele>245</ele>
        <time>2011-10-16T11:13:05Z</time>
      </trkpt>
      <trkpt lat="45.76887" lon="4.82391">
        <ele>245</ele>
        <time>2011-10-16T11:13:06Z</time>
      </trkpt>
      <trkpt lat="45.76888" lon="4.82392">
        <ele>246</ele>
        <time>2011-10-16T11:13:07Z</time>
      </trkpt>
      <trkpt lat="45.7689" lon="4.82391">
        <ele>247</ele>
        <time>2011-10-16T11:13:08Z</time>
      </trkpt>
      <trkpt lat="45.76909" lon="4.824">
        <ele>254</ele>
        <time>2011-10-16T11:13:18Z</time>
      </trkpt>
      <trkpt lat="45.76909" lon="4.824">
        <ele>254</ele>
        <time>2011-10-16T11:13:18Z</time>
      </trkpt>
      <trkpt lat="45.7691" lon="4.824">
        <ele>254.87762451172</ele>
        <time>2011-10-16T11:13:19Z</time>
      </trkpt>
      <trkpt lat="45.76914" lon="4.82401">
        <ele>256</ele>
        <time>2011-10-16T11:13:20Z</time>
      </trkpt>
      <trkpt lat="45.76916" lon="4.82402">
        <ele>257</ele>
        <time>2011-10-16T11:13:21Z</time>
      </trkpt>
      <trkpt lat="45.76918" lon="4.82402">
        <ele>257</ele>
        <time>2011-10-16T11:13:22Z</time>
      </trkpt>
      <trkpt lat="45.7692" lon="4.82403">
        <ele>257</ele>
        <time>2011-10-16T11:13:23Z</time>
      </trkpt>
      <trkpt lat="45.76922" lon="4.82404">
        <ele>257</ele>
        <time>2011-10-16T11:13:24Z</time>
      </trkpt>
      <trkpt lat="45.76924" lon="4.82404">
        <ele>257</ele>
        <time>2011-10-16T11:13:25Z</time>
      </trkpt>
      <trkpt lat="45.76925" lon="4.82404">
        <ele>257</ele>
        <time>2011-10-16T11:13:26Z</time>
      </trkpt>
      <trkpt lat="45.76928" lon="4.82403">
        <ele>257</ele>
        <time>2011-10-16T11:13:27Z</time>
      </trkpt>
      <trkpt lat="45.76931" lon="4.82403">
        <ele>256</ele>
        <time>2011-10-16T11:13:28Z</time>
      </trkpt>
      <trkpt lat="45.76933" lon="4.82402">
        <ele>255</ele>
        <time>2011-10-16T11:13:29Z</time>
      </trkpt>
      <trkpt lat="45.76934" lon="4.82402">
        <ele>255</ele>
        <time>2011-10-16T11:13:30Z</time>
      </trkpt>
      <trkpt lat="45.76935" lon="4.82402">
        <ele>255</ele>
        <time>2011-10-16T11:13:31Z</time>
      </trkpt>
      <trkpt lat="45.76936" lon="4.82402">
        <ele>255</ele>
        <time>2011-10-16T11:13:32Z</time>
      </trkpt>
      <trkpt lat="45.76937" lon="4.82402">
        <ele>255</ele>
        <time>2011-10-16T11:13:33Z</time>
      </trkpt>
      <trkpt lat="45.76938" lon="4.82403">
        <ele>254</ele>
        <time>2011-10-16T11:13:34Z</time>
      </trkpt>
      <trkpt lat="45.76939" lon="4.82403">
        <ele>254</ele>
        <time>2011-10-16T11:13:35Z</time>
      </trkpt>
      <trkpt lat="45.76939" lon="4.82403">
        <ele>255</ele>
        <time>2011-10-16T11:13:36Z</time>
      </trkpt>
      <trkpt lat="45.7694" lon="4.82404">
        <ele>256</ele>
        <time>2011-10-16T11:13:37Z</time>
      </trkpt>
      <trkpt lat="45.7694" lon="4.82403">
        <ele>256</ele>
        <time>2011-10-16T11:13:38Z</time>
      </trkpt>
      <trkpt lat="45.7694" lon="4.82404">
        <ele>257</ele>
        <time>2011-10-16T11:13:39Z</time>
      </trkpt>
      <trkpt lat="45.7694" lon="4.82404">
        <ele>257</ele>
        <time>2011-10-16T11:13:41Z</time>
      </trkpt>
      <trkpt lat="45.7694" lon="4.82404">
        <ele>257</ele>
        <time>2011-10-16T11:13:41Z</time>
      </trkpt>
      <trkpt lat="45.76941" lon="4.82404">
        <ele>257</ele>
        <time>2011-10-16T11:13:42Z</time>
      </trkpt>
      <trkpt lat="45.76941" lon="4.82404">
        <ele>258</ele>
        <time>2011-10-16T11:13:43Z</time>
      </trkpt>
      <trkpt lat="45.76941" lon="4.82404">
        <ele>257</ele>
        <time>2011-10-16T11:13:44Z</time>
      </trkpt>
      <trkpt lat="45.76941" lon="4.82404">
        <ele>257</ele>
        <time>2011-10-16T11:13:45Z</time>
      </trkpt>
    </trkseg>
  </trk>
</gpx>